{
  "fields": [{"id":"_id","type":"int"},{"id":"data_ora","type":"text"},{"id":"id_station","type":"text"},{"id":"denominazione","type":"text"},{"id":"temperatura","type":"text"},{"id":"cod_validazione_temperatura","type":"text"},{"id":"umidita","type":"text"},{"id":"cod_validazione_umidita_rel","type":"text"},{"id":"precipitazione","type":"text"},{"id":"cod_validazione_precipitazione","type":"text"},{"id":"velocita_vento","type":"text"},{"id":"cod_validazione_velocita_vento","type":"text"},{"id":"direzione_vento","type":"text"},{"id":"cod_validazione_direzione_vento","type":"text"},{"id":"rad_solare_globale","type":"text"},{"id":"cod_validazione_rad_solare_globale","type":"text"},{"id":"pressione_atmosferica","type":"text"},{"id":"cod_validazione_pressione_atmosferica","type":"text"},{"id":"Latitude","type":"text"},{"id":"Longitude","type":"text"}],
  "records": [
    [1,"2024-01-01 00:00:00","18","grottaglie","10.33","1","89.06","1","0.0","1","null","6","null","6","null","6","1003.84","1","40.53774","17.423897"],
    [2,"2024-01-01 01:00:00","18","grottaglie","10.01","1","90.77","1","0.0","1","null","6","null","6","null","6","1003.42","1","40.53774","17.423897"],
    [3,"2024-01-01 02:00:00","18","grottaglie","10.18","1","92.22","1","0.0","1","null","6","null","6","null","6","1002.98","1","40.53774","17.423897"],
    [4,"2024-01-01 03:00:00","18","grottaglie","10.09","1","92.73","1","0.0","1","null","6","null","6","null","6","1002.71","1","40.53774","17.423897"],
    [5,"2024-01-01 04:00:00","18","grottaglie","9.85","1","93.06","1","0.0","1","null","6","null","6","null","6","1002.44","1","40.53774","17.423897"],
    [6,"2024-01-01 05:00:00","18","grottaglie","10.58","1","93.81","1","0.0","1","null","6","null","6","null","6","1002.14","1","40.53774","17.423897"],
    [7,"2024-01-01 06:00:00","18","grottaglie","11.03","1","94.33","1","0.0","1","null","6","null","6","null","6","1001.81","1","40.53774","17.423897"],
    [8,"2024-01-01 07:00:00","18","grottaglie","10.61","1","94.77","1","0.0","1","null","6","null","6","null","6","1001.85","1","40.53774","17.423897"],
    [9,"2024-01-01 08:00:00","18","grottaglie","9.69","1","95.11","1","0.0","1","null","6","null","6","null","6","1001.84","1","40.53774","17.423897"],
    [10,"2024-01-01 09:00:00","18","grottaglie","10.04","1","95.86","1","0.0","1","null","6","null","6","null","6","1001.95","1","40.53774","17.423897"],
    [11,"2024-01-01 10:00:00","18","grottaglie","11.61","1","96.13","1","0.0","1","null","6","null","6","null","6","1002.28","1","40.53774","17.423897"],
    [12,"2024-01-01 11:00:00","18","grottaglie","13.29","1","86.23","1","0.0","1","null","6","null","6","null","6","1001.96","1","40.53774","17.423897"],
    [13,"2024-01-01 12:00:00","18","grottaglie","15.69","1","67.69","1","0.0","1","null","6","null","6","null","6","1001.13","1","40.53774","17.423897"],
    [14,"2024-01-01 13:00:00","18","grottaglie","16.36","1","63.42","1","0.0","1","null","6","null","6","null","6","1000.61","1","40.53774","17.423897"],
    [15,"2024-01-01 14:00:00","18","grottaglie","17.11","1","61.42","1","0.0","1","null","6","null","6","null","6","1000.38","1","40.53774","17.423897"],
    [16,"2024-01-01 15:00:00","18","grottaglie","16.56","1","61.66","1","0.0","1","null","6","null","6","null","6","1000.23","1","40.53774","17.423897"],
    [17,"2024-01-01 16:00:00","18","grottaglie","14.66","1","71.36","1","0.0","1","null","6","null","6","null","6","1000.05","1","40.53774","17.423897"],
    [18,"2024-01-01 17:00:00","18","grottaglie","13.47","1","75.89","1","0.0","1","null","6","null","6","null","6","1000.18","1","40.53774","17.423897"],
    [19,"2024-01-01 18:00:00","18","grottaglie","12.82","1","79.58","1","0.0","1","null","6","null","6","null","6","1000.34","1","40.53774","17.423897"],
    [20,"2024-01-01 19:00:00","18","grottaglie","12.72","1","80.59","1","0.0","1","null","6","null","6","null","6","1000.58","1","40.53774","17.423897"],
    [21,"2024-01-01 20:00:00","18","grottaglie","12.18","1","81.18","1","0.0","1","null","6","null","6","null","6","1000.72","1","40.53774","17.423897"],
    [22,"2024-01-01 21:00:00","18","grottaglie","11.79","1","83.64","1","0.0","1","null","6","null","6","null","6","1000.93","1","40.53774","17.423897"],
    [23,"2024-01-01 22:00:00","18","grottaglie","11.81","1","81.71","1","0.0","1","null","6","null","6","null","6","1000.7","1","40.53774","17.423897"],
    [24,"2024-01-01 23:00:00","18","grottaglie","11.96","1","76.25","1","0.0","1","null","6","null","6","null","6","1000.68","1","40.53774","17.423897"],
    [25,"2024-01-02 00:00:00","18","grottaglie","11.45","1","79.0","1","0.0","1","null","6","null","6","null","6","1000.87","1","40.53774","17.423897"],
    [26,"2024-01-02 01:00:00","18","grottaglie","11.62","1","81.59","1","0.6","1","null","6","null","6","null","6","1000.73","1","40.53774","17.423897"],
    [27,"2024-01-02 02:00:00","18","grottaglie","11.27","1","84.16","1","0.4","1","null","6","null","6","null","6","1000.96","1","40.53774","17.423897"],
    [28,"2024-01-02 03:00:00","18","grottaglie","11.17","1","86.4","1","0.2","1","null","6","null","6","null","6","1000.74","1","40.53774","17.423897"],
    [29,"2024-01-02 04:00:00","18","grottaglie","10.56","1","87.17","1","0.0","1","null","6","null","6","null","6","1000.44","1","40.53774","17.423897"],
    [30,"2024-01-02 05:00:00","18","grottaglie","9.65","1","89.08","1","0.0","1","null","6","null","6","null","6","1000.65","1","40.53774","17.423897"],
    [31,"2024-01-02 06:00:00","18","grottaglie","9.72","1","88.46","1","0.0","1","null","6","null","6","null","6","1001.15","1","40.53774","17.423897"],
    [32,"2024-01-02 07:00:00","18","grottaglie","9.13","1","83.14","1","0.0","1","null","6","null","6","null","6","1001.77","1","40.53774","17.423897"],
    [33,"2024-01-02 08:00:00","18","grottaglie","9.12","1","70.99","1","0.0","1","null","6","null","6","null","6","1002.51","1","40.53774","17.423897"],
    [34,"2024-01-02 09:00:00","18","grottaglie","9.59","1","68.62","1","0.0","1","null","6","null","6","null","6","1002.91","1","40.53774","17.423897"],
    [35,"2024-01-02 10:00:00","18","grottaglie","11.54","1","65.05","1","0.0","1","null","6","null","6","null","6","1003.39","1","40.53774","17.423897"],
    [36,"2024-01-02 11:00:00","18","grottaglie","13.87","1","54.96","1","0.0","1","null","6","null","6","null","6","1003.49","1","40.53774","17.423897"],
    [37,"2024-01-02 12:00:00","18","grottaglie","15.45","1","47.39","1","0.0","1","null","6","null","6","null","6","1002.9","1","40.53774","17.423897"],
    [38,"2024-01-02 13:00:00","18","grottaglie","17.12","1","42.56","1","0.0","1","null","6","null","6","null","6","1002.56","1","40.53774","17.423897"],
    [39,"2024-01-02 14:00:00","18","grottaglie","17.09","1","44.35","1","0.2","1","null","6","null","6","null","6","1002.15","1","40.53774","17.423897"],
    [40,"2024-01-02 15:00:00","18","grottaglie","17.21","1","43.46","1","0.0","1","null","6","null","6","null","6","1002.31","1","40.53774","17.423897"],
    [41,"2024-01-02 16:00:00","18","grottaglie","16.97","1","42.7","1","0.0","1","null","6","null","6","null","6","1002.51","1","40.53774","17.423897"],
    [42,"2024-01-02 17:00:00","18","grottaglie","15.37","1","51.13","1","0.0","1","null","6","null","6","null","6","1002.5","1","40.53774","17.423897"],
    [43,"2024-01-02 18:00:00","18","grottaglie","12.04","1","67.11","1","0.0","1","null","6","null","6","null","6","1002.92","1","40.53774","17.423897"],
    [44,"2024-01-02 19:00:00","18","grottaglie","11.09","1","72.68","1","0.0","1","null","6","null","6","null","6","1003.25","1","40.53774","17.423897"],
    [45,"2024-01-02 20:00:00","18","grottaglie","10.64","1","76.6","1","0.0","1","null","6","null","6","null","6","1003.57","1","40.53774","17.423897"],
    [46,"2024-01-02 21:00:00","18","grottaglie","10.17","1","78.74","1","0.0","1","null","6","null","6","null","6","1003.72","1","40.53774","17.423897"],
    [47,"2024-01-02 22:00:00","18","grottaglie","9.61","1","77.72","1","0.0","1","null","6","null","6","null","6","1003.7","1","40.53774","17.423897"],
    [48,"2024-01-02 23:00:00","18","grottaglie","9.76","1","73.59","1","0.0","1","null","6","null","6","null","6","1003.52","1","40.53774","17.423897"],
    [49,"2024-01-03 00:00:00","18","grottaglie","9.38","1","74.44","1","0.0","1","null","6","null","6","null","6","1003.08","1","40.53774","17.423897"],
    [50,"2024-01-03 01:00:00","18","grottaglie","9.06","1","76.08","1","0.0","1","null","6","null","6","null","6","1002.48","1","40.53774","17.423897"],
    [51,"2024-01-03 02:00:00","18","grottaglie","8.97","1","76.6","1","0.0","1","null","6","null","6","null","6","1002.12","1","40.53774","17.423897"],
    [52,"2024-01-03 03:00:00","18","grottaglie","8.36","1","80.06","1","0.0","1","null","6","null","6","null","6","1002.03","1","40.53774","17.423897"],
    [53,"2024-01-03 04:00:00","18","grottaglie","8.74","1","81.33","1","0.0","1","null","6","null","6","null","6","1001.9","1","40.53774","17.423897"],
    [54,"2024-01-03 05:00:00","18","grottaglie","9.63","1","75.76","1","0.0","1","null","6","null","6","null","6","1001.2","1","40.53774","17.423897"],
    [55,"2024-01-03 06:00:00","18","grottaglie","10.23","1","72.54","1","0.0","1","null","6","null","6","null","6","1000.8","1","40.53774","17.423897"],
    [56,"2024-01-03 07:00:00","18","grottaglie","10.31","1","73.59","1","0.0","1","null","6","null","6","null","6","1000.99","1","40.53774","17.423897"],
    [57,"2024-01-03 08:00:00","18","grottaglie","10.21","1","75.2","1","0.0","1","null","6","null","6","null","6","1000.8","1","40.53774","17.423897"],
    [58,"2024-01-03 09:00:00","18","grottaglie","10.83","1","74.51","1","0.0","1","null","6","null","6","null","6","1000.75","1","40.53774","17.423897"],
    [59,"2024-01-03 10:00:00","18","grottaglie","12.29","1","71.41","1","0.0","1","null","6","null","6","null","6","1000.62","1","40.53774","17.423897"],
    [60,"2024-01-03 11:00:00","18","grottaglie","14.24","1","63.03","1","0.0","1","null","6","null","6","null","6","1000.35","1","40.53774","17.423897"],
    [61,"2024-01-03 12:00:00","18","grottaglie","14.89","1","60.42","1","0.0","1","null","6","null","6","null","6","999.78","1","40.53774","17.423897"],
    [62,"2024-01-03 13:00:00","18","grottaglie","15.45","1","61.21","1","0.0","1","null","6","null","6","null","6","998.95","1","40.53774","17.423897"],
    [63,"2024-01-03 14:00:00","18","grottaglie","16.43","1","52.98","1","0.0","1","null","6","null","6","null","6","998.17","1","40.53774","17.423897"],
    [64,"2024-01-03 15:00:00","18","grottaglie","16.16","1","53.86","1","0.0","1","null","6","null","6","null","6","997.94","1","40.53774","17.423897"],
    [65,"2024-01-03 16:00:00","18","grottaglie","16.06","1","57.19","1","0.0","1","null","6","null","6","null","6","997.95","1","40.53774","17.423897"],
    [66,"2024-01-03 17:00:00","18","grottaglie","14.73","1","61.45","1","0.0","1","null","6","null","6","null","6","997.89","1","40.53774","17.423897"],
    [67,"2024-01-03 18:00:00","18","grottaglie","12.96","1","71.48","1","0.0","1","null","6","null","6","null","6","997.96","1","40.53774","17.423897"],
    [68,"2024-01-03 19:00:00","18","grottaglie","12.32","1","73.74","1","0.0","1","null","6","null","6","null","6","998.34","1","40.53774","17.423897"],
    [69,"2024-01-03 20:00:00","18","grottaglie","11.88","1","74.25","1","0.0","1","null","6","null","6","null","6","998.63","1","40.53774","17.423897"],
    [70,"2024-01-03 21:00:00","18","grottaglie","11.7","1","75.11","1","0.0","1","null","6","null","6","null","6","998.35","1","40.53774","17.423897"],
    [71,"2024-01-03 22:00:00","18","grottaglie","11.78","1","77.92","1","0.0","1","null","6","null","6","null","6","998.34","1","40.53774","17.423897"],
    [72,"2024-01-03 23:00:00","18","grottaglie","11.23","1","77.42","1","0.0","1","null","6","null","6","null","6","997.99","1","40.53774","17.423897"],
    [73,"2024-01-04 00:00:00","18","grottaglie","10.81","1","79.08","1","0.0","1","null","6","null","6","null","6","997.82","1","40.53774","17.423897"],
    [74,"2024-01-04 01:00:00","18","grottaglie","10.91","1","79.3","1","0.0","1","null","6","null","6","null","6","997.6","1","40.53774","17.423897"],
    [75,"2024-01-04 02:00:00","18","grottaglie","11.22","1","79.81","1","0.0","1","null","6","null","6","null","6","997.21","1","40.53774","17.423897"],
    [76,"2024-01-04 03:00:00","18","grottaglie","10.91","1","82.08","1","0.0","1","null","6","null","6","null","6","996.99","1","40.53774","17.423897"],
    [77,"2024-01-04 04:00:00","18","grottaglie","10.86","1","82.84","1","0.0","1","null","6","null","6","null","6","996.7","1","40.53774","17.423897"],
    [78,"2024-01-04 05:00:00","18","grottaglie","10.44","1","80.84","1","0.0","1","null","6","null","6","null","6","996.24","1","40.53774","17.423897"],
    [79,"2024-01-04 06:00:00","18","grottaglie","10.28","1","83.08","1","0.0","1","null","6","null","6","null","6","996.26","1","40.53774","17.423897"],
    [80,"2024-01-04 07:00:00","18","grottaglie","10.71","1","85.42","1","0.0","1","null","6","null","6","null","6","996.54","1","40.53774","17.423897"],
    [81,"2024-01-04 08:00:00","18","grottaglie","10.29","1","86.41","1","0.0","1","null","6","null","6","null","6","996.82","1","40.53774","17.423897"],
    [82,"2024-01-04 09:00:00","18","grottaglie","10.82","1","85.38","1","0.0","1","null","6","null","6","null","6","997.21","1","40.53774","17.423897"],
    [83,"2024-01-04 10:00:00","18","grottaglie","13.18","1","75.87","1","0.0","1","null","6","null","6","null","6","997.44","1","40.53774","17.423897"],
    [84,"2024-01-04 11:00:00","18","grottaglie","15.62","1","63.09","1","0.0","1","null","6","null","6","null","6","997.48","1","40.53774","17.423897"],
    [85,"2024-01-04 12:00:00","18","grottaglie","17.21","1","53.27","1","0.0","1","null","6","null","6","null","6","996.82","1","40.53774","17.423897"],
    [86,"2024-01-04 13:00:00","18","grottaglie","18.54","1","47.89","1","0.0","1","null","6","null","6","null","6","996.42","1","40.53774","17.423897"],
    [87,"2024-01-04 14:00:00","18","grottaglie","19.15","1","45.12","1","0.0","1","null","6","null","6","null","6","995.98","1","40.53774","17.423897"],
    [88,"2024-01-04 15:00:00","18","grottaglie","20.4","1","38.09","1","0.0","1","null","6","null","6","null","6","996.42","1","40.53774","17.423897"],
    [89,"2024-01-04 16:00:00","18","grottaglie","20.3","1","37.12","1","0.0","1","null","6","null","6","null","6","996.9","1","40.53774","17.423897"],
    [90,"2024-01-04 17:00:00","18","grottaglie","17.57","1","48.46","1","0.0","1","null","6","null","6","null","6","997.08","1","40.53774","17.423897"],
    [91,"2024-01-04 18:00:00","18","grottaglie","14.48","1","58.29","1","0.0","1","null","6","null","6","null","6","997.97","1","40.53774","17.423897"],
    [92,"2024-01-04 19:00:00","18","grottaglie","12.86","1","66.27","1","0.0","1","null","6","null","6","null","6","999.09","1","40.53774","17.423897"],
    [93,"2024-01-04 20:00:00","18","grottaglie","12.8","1","65.47","1","0.0","1","null","6","null","6","null","6","999.82","1","40.53774","17.423897"],
    [94,"2024-01-04 21:00:00","18","grottaglie","11.12","1","70.56","1","0.0","1","null","6","null","6","null","6","1000.44","1","40.53774","17.423897"],
    [95,"2024-01-04 22:00:00","18","grottaglie","10.85","1","72.22","1","0.0","1","null","6","null","6","null","6","1000.64","1","40.53774","17.423897"],
    [96,"2024-01-04 23:00:00","18","grottaglie","11.0","1","68.55","1","0.0","1","null","6","null","6","null","6","1000.89","1","40.53774","17.423897"],
    [97,"2024-01-05 00:00:00","18","grottaglie","10.38","1","68.43","1","0.0","1","null","6","null","6","null","6","1000.88","1","40.53774","17.423897"],
    [98,"2024-01-05 01:00:00","18","grottaglie","9.88","1","69.51","1","0.0","1","null","6","null","6","null","6","1000.83","1","40.53774","17.423897"],
    [99,"2024-01-05 02:00:00","18","grottaglie","10.64","1","65.6","1","0.0","1","null","6","null","6","null","6","1000.87","1","40.53774","17.423897"],
    [100,"2024-01-05 03:00:00","18","grottaglie","10.13","1","72.45","1","0.0","1","null","6","null","6","null","6","1000.9","1","40.53774","17.423897"],
    [101,"2024-01-05 04:00:00","18","grottaglie","10.21","1","77.37","1","0.0","1","null","6","null","6","null","6","1000.45","1","40.53774","17.423897"],
    [102,"2024-01-05 05:00:00","18","grottaglie","10.05","1","79.76","1","0.0","1","null","6","null","6","null","6","1000.01","1","40.53774","17.423897"],
    [103,"2024-01-05 06:00:00","18","grottaglie","10.03","1","81.34","1","0.0","1","null","6","null","6","null","6","999.82","1","40.53774","17.423897"],
    [104,"2024-01-05 07:00:00","18","grottaglie","9.93","1","84.17","1","0.0","1","null","6","null","6","null","6","1000.06","1","40.53774","17.423897"],
    [105,"2024-01-05 08:00:00","18","grottaglie","10.48","1","85.28","1","0.0","1","null","6","null","6","null","6","1000.17","1","40.53774","17.423897"],
    [106,"2024-01-05 09:00:00","18","grottaglie","12.44","1","82.28","1","0.0","1","null","6","null","6","null","6","1000.2","1","40.53774","17.423897"],
    [107,"2024-01-05 10:00:00","18","grottaglie","14.2","1","80.36","1","0.0","1","null","6","null","6","null","6","1000.12","1","40.53774","17.423897"],
    [108,"2024-01-05 11:00:00","18","grottaglie","15.76","1","75.8","1","0.0","1","null","6","null","6","null","6","999.54","1","40.53774","17.423897"],
    [109,"2024-01-05 12:00:00","18","grottaglie","15.89","1","73.1","1","0.0","1","null","6","null","6","null","6","998.64","1","40.53774","17.423897"],
    [110,"2024-01-05 13:00:00","18","grottaglie","16.01","1","71.01","1","0.0","1","null","6","null","6","null","6","997.94","1","40.53774","17.423897"],
    [111,"2024-01-05 14:00:00","18","grottaglie","15.42","1","77.28","1","0.0","1","null","6","null","6","null","6","997.41","1","40.53774","17.423897"],
    [112,"2024-01-05 15:00:00","18","grottaglie","15.43","1","78.98","1","0.0","1","null","6","null","6","null","6","996.93","1","40.53774","17.423897"],
    [113,"2024-01-05 16:00:00","18","grottaglie","14.99","1","80.76","1","0.0","1","null","6","null","6","null","6","996.64","1","40.53774","17.423897"],
    [114,"2024-01-05 17:00:00","18","grottaglie","14.46","1","84.07","1","0.0","1","null","6","null","6","null","6","996.43","1","40.53774","17.423897"],
    [115,"2024-01-05 18:00:00","18","grottaglie","14.26","1","86.09","1","0.0","1","null","6","null","6","null","6","996.28","1","40.53774","17.423897"],
    [116,"2024-01-05 19:00:00","18","grottaglie","14.36","1","85.98","1","0.0","1","null","6","null","6","null","6","996.28","1","40.53774","17.423897"],
    [117,"2024-01-05 20:00:00","18","grottaglie","14.47","1","85.1","1","0.0","1","null","6","null","6","null","6","996.29","1","40.53774","17.423897"],
    [118,"2024-01-05 21:00:00","18","grottaglie","14.37","1","83.83","1","0.0","1","null","6","null","6","null","6","996.0","1","40.53774","17.423897"],
    [119,"2024-01-05 22:00:00","18","grottaglie","14.35","1","83.37","1","0.0","1","null","6","null","6","null","6","995.52","1","40.53774","17.423897"],
    [120,"2024-01-05 23:00:00","18","grottaglie","14.43","1","83.37","1","0.0","1","null","6","null","6","null","6","995.04","1","40.53774","17.423897"],
    [121,"2024-01-06 00:00:00","18","grottaglie","14.27","1","82.95","1","0.0","1","null","6","null","6","null","6","994.39","1","40.53774","17.423897"],
    [122,"2024-01-06 01:00:00","18","grottaglie","14.4","1","83.55","1","0.0","1","null","6","null","6","null","6","993.71","1","40.53774","17.423897"],
    [123,"2024-01-06 02:00:00","18","grottaglie","14.59","1","83.72","1","0.0","1","null","6","null","6","null","6","993.54","1","40.53774","17.423897"],
    [124,"2024-01-06 03:00:00","18","grottaglie","14.56","1","84.57","1","0.0","1","null","6","null","6","null","6","993.26","1","40.53774","17.423897"],
    [125,"2024-01-06 04:00:00","18","grottaglie","14.47","1","84.34","1","0.0","1","null","6","null","6","null","6","992.57","1","40.53774","17.423897"],
    [126,"2024-01-06 05:00:00","18","grottaglie","14.42","1","84.75","1","0.0","1","null","6","null","6","null","6","991.92","1","40.53774","17.423897"],
    [127,"2024-01-06 06:00:00","18","grottaglie","14.38","1","86.18","1","0.0","1","null","6","null","6","null","6","991.53","1","40.53774","17.423897"],
    [128,"2024-01-06 07:00:00","18","grottaglie","14.44","1","86.21","1","0.0","1","null","6","null","6","null","6","991.33","1","40.53774","17.423897"],
    [129,"2024-01-06 08:00:00","18","grottaglie","14.59","1","86.34","1","0.0","1","null","6","null","6","null","6","990.75","1","40.53774","17.423897"],
    [130,"2024-01-06 09:00:00","18","grottaglie","14.95","1","84.61","1","0.0","1","null","6","null","6","null","6","990.59","1","40.53774","17.423897"],
    [131,"2024-01-06 10:00:00","18","grottaglie","15.38","1","83.37","1","0.0","1","null","6","null","6","null","6","990.37","1","40.53774","17.423897"],
    [132,"2024-01-06 11:00:00","18","grottaglie","15.95","1","79.99","1","0.0","1","null","6","null","6","null","6","989.63","1","40.53774","17.423897"],
    [133,"2024-01-06 12:00:00","18","grottaglie","15.8","1","80.12","1","0.0","1","null","6","null","6","null","6","988.21","1","40.53774","17.423897"],
    [134,"2024-01-06 13:00:00","18","grottaglie","15.54","1","81.14","1","0.0","1","null","6","null","6","null","6","985.93","1","40.53774","17.423897"],
    [135,"2024-01-06 14:00:00","18","grottaglie","15.4","1","83.0","1","0.4","1","null","6","null","6","null","6","983.84","1","40.53774","17.423897"],
    [136,"2024-01-06 15:00:00","18","grottaglie","15.75","1","81.36","1","0.0","1","null","6","null","6","null","6","982.64","1","40.53774","17.423897"],
    [137,"2024-01-06 16:00:00","18","grottaglie","15.36","1","81.47","1","0.0","1","null","6","null","6","null","6","981.53","1","40.53774","17.423897"],
    [138,"2024-01-06 17:00:00","18","grottaglie","12.88","1","85.97","1","9.4","1","null","6","null","6","null","6","981.15","1","40.53774","17.423897"],
    [139,"2024-01-06 18:00:00","18","grottaglie","10.45","1","89.64","1","4.8","1","null","6","null","6","null","6","981.37","1","40.53774","17.423897"],
    [140,"2024-01-06 19:00:00","18","grottaglie","10.49","1","90.73","1","1.8","1","null","6","null","6","null","6","980.71","1","40.53774","17.423897"],
    [141,"2024-01-06 20:00:00","18","grottaglie","10.17","1","91.15","1","0.0","1","null","6","null","6","null","6","979.86","1","40.53774","17.423897"],
    [142,"2024-01-06 21:00:00","18","grottaglie","9.83","1","90.08","1","0.0","1","null","6","null","6","null","6","979.33","1","40.53774","17.423897"],
    [143,"2024-01-06 22:00:00","18","grottaglie","9.83","1","89.07","1","0.0","1","null","6","null","6","null","6","979.33","1","40.53774","17.423897"],
    [144,"2024-01-06 23:00:00","18","grottaglie","10.11","1","87.39","1","0.0","1","null","6","null","6","null","6","978.86","1","40.53774","17.423897"],
    [145,"2024-01-07 00:00:00","18","grottaglie","10.25","1","86.52","1","0.0","1","null","6","null","6","null","6","978.43","1","40.53774","17.423897"],
    [146,"2024-01-07 01:00:00","18","grottaglie","10.18","1","86.94","1","0.2","1","null","6","null","6","null","6","978.53","1","40.53774","17.423897"],
    [147,"2024-01-07 02:00:00","18","grottaglie","9.96","1","87.59","1","0.0","1","null","6","null","6","null","6","978.38","1","40.53774","17.423897"],
    [148,"2024-01-07 03:00:00","18","grottaglie","10.26","1","87.9","1","1.8","1","null","6","null","6","null","6","978.34","1","40.53774","17.423897"],
    [149,"2024-01-07 04:00:00","18","grottaglie","10.25","1","91.6","1","0.2","1","null","6","null","6","null","6","978.11","1","40.53774","17.423897"],
    [150,"2024-01-07 05:00:00","18","grottaglie","10.08","1","92.81","1","0.0","1","null","6","null","6","null","6","977.85","1","40.53774","17.423897"],
    [151,"2024-01-07 06:00:00","18","grottaglie","10.13","1","93.4","1","0.2","1","null","6","null","6","null","6","978.12","1","40.53774","17.423897"],
    [152,"2024-01-07 07:00:00","18","grottaglie","10.16","1","93.63","1","0.2","1","null","6","null","6","null","6","978.85","1","40.53774","17.423897"],
    [153,"2024-01-07 08:00:00","18","grottaglie","9.92","1","93.49","1","0.0","1","null","6","null","6","null","6","979.4","1","40.53774","17.423897"],
    [154,"2024-01-07 09:00:00","18","grottaglie","10.37","1","92.54","1","0.0","1","null","6","null","6","null","6","979.91","1","40.53774","17.423897"],
    [155,"2024-01-07 10:00:00","18","grottaglie","11.02","1","91.3","1","0.0","1","null","6","null","6","null","6","980.45","1","40.53774","17.423897"],
    [156,"2024-01-07 11:00:00","18","grottaglie","11.32","1","88.68","1","0.0","1","null","6","null","6","null","6","980.91","1","40.53774","17.423897"],
    [157,"2024-01-07 12:00:00","18","grottaglie","11.43","1","85.89","1","0.0","1","null","6","null","6","null","6","981.28","1","40.53774","17.423897"],
    [158,"2024-01-07 13:00:00","18","grottaglie","11.76","1","79.29","1","0.0","1","null","6","null","6","null","6","981.04","1","40.53774","17.423897"],
    [159,"2024-01-07 14:00:00","18","grottaglie","11.94","1","73.37","1","0.0","1","null","6","null","6","null","6","980.98","1","40.53774","17.423897"],
    [160,"2024-01-07 15:00:00","18","grottaglie","11.9","1","67.38","1","0.0","1","null","6","null","6","null","6","981.42","1","40.53774","17.423897"],
    [161,"2024-01-07 16:00:00","18","grottaglie","11.76","1","60.46","1","0.0","1","null","6","null","6","null","6","982.06","1","40.53774","17.423897"],
    [162,"2024-01-07 17:00:00","18","grottaglie","11.13","1","61.19","1","0.0","1","null","6","null","6","null","6","982.61","1","40.53774","17.423897"],
    [163,"2024-01-07 18:00:00","18","grottaglie","10.84","1","61.26","1","0.0","1","null","6","null","6","null","6","983.4","1","40.53774","17.423897"],
    [164,"2024-01-07 19:00:00","18","grottaglie","10.13","1","72.33","1","0.6","1","null","6","null","6","null","6","984.36","1","40.53774","17.423897"],
    [165,"2024-01-07 20:00:00","18","grottaglie","9.42","1","80.23","1","1.2","1","null","6","null","6","null","6","985.02","1","40.53774","17.423897"],
    [166,"2024-01-07 21:00:00","18","grottaglie","9.43","1","78.23","1","0.0","1","null","6","null","6","null","6","985.47","1","40.53774","17.423897"],
    [167,"2024-01-07 22:00:00","18","grottaglie","9.38","1","76.47","1","0.0","1","null","6","null","6","null","6","985.84","1","40.53774","17.423897"],
    [168,"2024-01-07 23:00:00","18","grottaglie","9.22","1","77.26","1","0.0","1","null","6","null","6","null","6","986.25","1","40.53774","17.423897"],
    [169,"2024-01-08 00:00:00","18","grottaglie","9.05","1","76.77","1","0.0","1","null","6","null","6","null","6","986.57","1","40.53774","17.423897"],
    [170,"2024-01-08 01:00:00","18","grottaglie","8.49","1","80.09","1","0.0","1","null","6","null","6","null","6","986.84","1","40.53774","17.423897"],
    [171,"2024-01-08 02:00:00","18","grottaglie","8.39","1","81.9","1","0.0","1","null","6","null","6","null","6","986.97","1","40.53774","17.423897"],
    [172,"2024-01-08 03:00:00","18","grottaglie","7.82","1","83.43","1","0.0","1","null","6","null","6","null","6","987.26","1","40.53774","17.423897"],
    [173,"2024-01-08 04:00:00","18","grottaglie","7.79","1","83.79","1","0.0","1","null","6","null","6","null","6","987.14","1","40.53774","17.423897"],
    [174,"2024-01-08 05:00:00","18","grottaglie","7.97","1","83.66","1","0.0","1","null","6","null","6","null","6","987.22","1","40.53774","17.423897"],
    [175,"2024-01-08 06:00:00","18","grottaglie","8.41","1","80.94","1","0.0","1","null","6","null","6","null","6","987.6","1","40.53774","17.423897"],
    [176,"2024-01-08 07:00:00","18","grottaglie","8.29","1","81.65","1","0.0","1","null","6","null","6","null","6","987.97","1","40.53774","17.423897"],
    [177,"2024-01-08 08:00:00","18","grottaglie","7.94","1","83.68","1","0.0","1","null","6","null","6","null","6","988.45","1","40.53774","17.423897"],
    [178,"2024-01-08 09:00:00","18","grottaglie","8.62","1","83.0","1","0.2","1","null","6","null","6","null","6","988.96","1","40.53774","17.423897"],
    [179,"2024-01-08 10:00:00","18","grottaglie","9.91","1","80.06","1","0.0","1","null","6","null","6","null","6","989.54","1","40.53774","17.423897"],
    [180,"2024-01-08 11:00:00","18","grottaglie","11.9","1","73.81","1","0.0","1","null","6","null","6","null","6","989.66","1","40.53774","17.423897"],
    [181,"2024-01-08 12:00:00","18","grottaglie","12.19","1","66.03","1","0.0","1","null","6","null","6","null","6","989.42","1","40.53774","17.423897"],
    [182,"2024-01-08 13:00:00","18","grottaglie","11.85","1","64.78","1","0.0","1","null","6","null","6","null","6","989.12","1","40.53774","17.423897"],
    [183,"2024-01-08 14:00:00","18","grottaglie","12.04","1","66.49","1","0.0","1","null","6","null","6","null","6","988.86","1","40.53774","17.423897"],
    [184,"2024-01-08 15:00:00","18","grottaglie","13.04","1","64.34","1","0.0","1","null","6","null","6","null","6","988.98","1","40.53774","17.423897"],
    [185,"2024-01-08 16:00:00","18","grottaglie","11.94","1","66.97","1","0.0","1","null","6","null","6","null","6","989.48","1","40.53774","17.423897"],
    [186,"2024-01-08 17:00:00","18","grottaglie","11.01","1","73.91","1","0.0","1","null","6","null","6","null","6","989.98","1","40.53774","17.423897"],
    [187,"2024-01-08 18:00:00","18","grottaglie","10.34","1","75.79","1","0.0","1","null","6","null","6","null","6","990.57","1","40.53774","17.423897"],
    [188,"2024-01-08 19:00:00","18","grottaglie","9.5","1","79.53","1","0.0","1","null","6","null","6","null","6","991.05","1","40.53774","17.423897"],
    [189,"2024-01-08 20:00:00","18","grottaglie","9.1","1","77.72","1","0.0","1","null","6","null","6","null","6","991.68","1","40.53774","17.423897"],
    [190,"2024-01-08 21:00:00","18","grottaglie","9.23","1","73.71","1","0.0","1","null","6","null","6","null","6","992.42","1","40.53774","17.423897"],
    [191,"2024-01-08 22:00:00","18","grottaglie","9.46","1","72.02","1","0.0","1","null","6","null","6","null","6","992.84","1","40.53774","17.423897"],
    [192,"2024-01-08 23:00:00","18","grottaglie","9.19","1","77.23","1","0.0","1","null","6","null","6","null","6","993.4","1","40.53774","17.423897"],
    [193,"2024-01-09 00:00:00","18","grottaglie","8.68","1","79.45","1","1.6","1","null","6","null","6","null","6","993.9","1","40.53774","17.423897"],
    [194,"2024-01-09 01:00:00","18","grottaglie","8.08","1","83.81","1","1.0","1","null","6","null","6","null","6","994.47","1","40.53774","17.423897"],
    [195,"2024-01-09 02:00:00","18","grottaglie","7.78","1","85.29","1","0.6","1","null","6","null","6","null","6","994.58","1","40.53774","17.423897"],
    [196,"2024-01-09 03:00:00","18","grottaglie","7.52","1","83.54","1","0.0","1","null","6","null","6","null","6","994.89","1","40.53774","17.423897"],
    [197,"2024-01-09 04:00:00","18","grottaglie","7.66","1","83.81","1","0.0","1","null","6","null","6","null","6","995.29","1","40.53774","17.423897"],
    [198,"2024-01-09 05:00:00","18","grottaglie","7.62","1","82.16","1","0.0","1","null","6","null","6","null","6","995.77","1","40.53774","17.423897"],
    [199,"2024-01-09 06:00:00","18","grottaglie","7.7","1","84.24","1","0.0","1","null","6","null","6","null","6","996.33","1","40.53774","17.423897"],
    [200,"2024-01-09 07:00:00","18","grottaglie","7.58","1","86.08","1","0.0","1","null","6","null","6","null","6","997.07","1","40.53774","17.423897"],
    [201,"2024-01-09 08:00:00","18","grottaglie","7.88","1","85.32","1","0.0","1","null","6","null","6","null","6","997.96","1","40.53774","17.423897"],
    [202,"2024-01-09 09:00:00","18","grottaglie","8.55","1","79.99","1","0.0","1","null","6","null","6","null","6","998.94","1","40.53774","17.423897"],
    [203,"2024-01-09 10:00:00","18","grottaglie","9.9","1","69.34","1","0.0","1","null","6","null","6","null","6","999.8","1","40.53774","17.423897"],
    [204,"2024-01-09 11:00:00","18","grottaglie","11.09","1","61.8","1","0.0","1","null","6","null","6","null","6","1000.63","1","40.53774","17.423897"],
    [205,"2024-01-09 12:00:00","18","grottaglie","10.79","1","62.86","1","0.0","1","null","6","null","6","null","6","1001.04","1","40.53774","17.423897"],
    [206,"2024-01-09 13:00:00","18","grottaglie","10.56","1","66.84","1","0.0","1","null","6","null","6","null","6","1001.2","1","40.53774","17.423897"],
    [207,"2024-01-09 14:00:00","18","grottaglie","10.0","1","70.92","1","0.0","1","null","6","null","6","null","6","1001.56","1","40.53774","17.423897"],
    [208,"2024-01-09 15:00:00","18","grottaglie","10.07","1","71.97","1","0.0","1","null","6","null","6","null","6","1002.32","1","40.53774","17.423897"],
    [209,"2024-01-09 16:00:00","18","grottaglie","9.71","1","70.45","1","0.0","1","null","6","null","6","null","6","1002.88","1","40.53774","17.423897"],
    [210,"2024-01-09 17:00:00","18","grottaglie","9.34","1","69.19","1","0.0","1","null","6","null","6","null","6","1003.6","1","40.53774","17.423897"],
    [211,"2024-01-09 18:00:00","18","grottaglie","8.92","1","71.59","1","0.0","1","null","6","null","6","null","6","1004.25","1","40.53774","17.423897"],
    [212,"2024-01-09 19:00:00","18","grottaglie","7.87","1","75.82","1","0.0","1","null","6","null","6","null","6","1004.88","1","40.53774","17.423897"],
    [213,"2024-01-09 20:00:00","18","grottaglie","7.09","1","79.13","1","0.0","1","null","6","null","6","null","6","1005.51","1","40.53774","17.423897"],
    [214,"2024-01-09 21:00:00","18","grottaglie","7.31","1","77.55","1","0.0","1","null","6","null","6","null","6","1006.1","1","40.53774","17.423897"],
    [215,"2024-01-09 22:00:00","18","grottaglie","7.22","1","75.1","1","0.0","1","null","6","null","6","null","6","1006.58","1","40.53774","17.423897"],
    [216,"2024-01-09 23:00:00","18","grottaglie","7.19","1","73.82","1","0.0","1","null","6","null","6","null","6","1006.92","1","40.53774","17.423897"],
    [217,"2024-01-10 00:00:00","18","grottaglie","7.55","1","71.46","1","0.0","1","null","6","null","6","null","6","1007.15","1","40.53774","17.423897"],
    [218,"2024-01-10 01:00:00","18","grottaglie","7.71","1","69.58","1","0.0","1","null","6","null","6","null","6","1007.11","1","40.53774","17.423897"],
    [219,"2024-01-10 02:00:00","18","grottaglie","7.8","1","68.3","1","0.0","1","null","6","null","6","null","6","1007.41","1","40.53774","17.423897"],
    [220,"2024-01-10 03:00:00","18","grottaglie","7.74","1","69.86","1","0.0","1","null","6","null","6","null","6","1008.01","1","40.53774","17.423897"],
    [221,"2024-01-10 04:00:00","18","grottaglie","7.74","1","70.0","1","0.0","1","null","6","null","6","null","6","1008.02","1","40.53774","17.423897"],
    [222,"2024-01-10 05:00:00","18","grottaglie","7.92","1","68.98","1","0.0","1","null","6","null","6","null","6","1007.92","1","40.53774","17.423897"],
    [223,"2024-01-10 06:00:00","18","grottaglie","8.03","1","68.45","1","0.0","1","null","6","null","6","null","6","1008.26","1","40.53774","17.423897"],
    [224,"2024-01-10 07:00:00","18","grottaglie","8.14","1","67.51","1","0.0","1","null","6","null","6","null","6","1008.73","1","40.53774","17.423897"],
    [225,"2024-01-10 08:00:00","18","grottaglie","8.28","1","65.79","1","0.0","1","null","6","null","6","null","6","1009.06","1","40.53774","17.423897"],
    [226,"2024-01-10 09:00:00","18","grottaglie","8.48","1","65.91","1","0.0","1","null","6","null","6","null","6","1009.71","1","40.53774","17.423897"],
    [227,"2024-01-10 10:00:00","18","grottaglie","8.92","1","65.45","1","0.0","1","null","6","null","6","null","6","1010.28","1","40.53774","17.423897"],
    [228,"2024-01-10 11:00:00","18","grottaglie","9.45","1","63.21","1","0.0","1","null","6","null","6","null","6","1010.32","1","40.53774","17.423897"],
    [229,"2024-01-10 12:00:00","18","grottaglie","9.97","1","62.0","1","0.0","1","null","6","null","6","null","6","1010.1","1","40.53774","17.423897"],
    [230,"2024-01-10 13:00:00","18","grottaglie","10.67","1","60.01","1","0.0","1","null","6","null","6","null","6","1009.75","1","40.53774","17.423897"],
    [231,"2024-01-10 14:00:00","18","grottaglie","10.85","1","58.87","1","0.0","1","null","6","null","6","null","6","1009.36","1","40.53774","17.423897"],
    [232,"2024-01-10 15:00:00","18","grottaglie","10.63","1","59.89","1","0.0","1","null","6","null","6","null","6","1009.41","1","40.53774","17.423897"],
    [233,"2024-01-10 16:00:00","18","grottaglie","10.16","1","63.68","1","0.0","1","null","6","null","6","null","6","1009.59","1","40.53774","17.423897"],
    [234,"2024-01-10 17:00:00","18","grottaglie","9.73","1","66.06","1","0.0","1","null","6","null","6","null","6","1009.76","1","40.53774","17.423897"],
    [235,"2024-01-10 18:00:00","18","grottaglie","9.15","1","70.28","1","0.0","1","null","6","null","6","null","6","1010.11","1","40.53774","17.423897"],
    [236,"2024-01-10 19:00:00","18","grottaglie","8.28","1","74.93","1","0.0","1","null","6","null","6","null","6","1010.07","1","40.53774","17.423897"],
    [237,"2024-01-10 20:00:00","18","grottaglie","7.89","1","78.39","1","0.0","1","null","6","null","6","null","6","1009.95","1","40.53774","17.423897"],
    [238,"2024-01-10 21:00:00","18","grottaglie","7.77","1","80.61","1","0.0","1","null","6","null","6","null","6","1010.17","1","40.53774","17.423897"],
    [239,"2024-01-10 22:00:00","18","grottaglie","8.08","1","79.52","1","0.0","1","null","6","null","6","null","6","1010.14","1","40.53774","17.423897"],
    [240,"2024-01-10 23:00:00","18","grottaglie","8.42","1","74.67","1","0.0","1","null","6","null","6","null","6","1009.79","1","40.53774","17.423897"],
    [241,"2024-01-11 00:00:00","18","grottaglie","8.4","1","72.44","1","0.0","1","null","6","null","6","null","6","1009.45","1","40.53774","17.423897"],
    [242,"2024-01-11 01:00:00","18","grottaglie","7.81","1","76.08","1","0.0","1","null","6","null","6","null","6","1009.09","1","40.53774","17.423897"],
    [243,"2024-01-11 02:00:00","18","grottaglie","8.04","1","71.22","1","0.0","1","null","6","null","6","null","6","1008.64","1","40.53774","17.423897"],
    [244,"2024-01-11 03:00:00","18","grottaglie","7.69","1","72.66","1","0.0","1","null","6","null","6","null","6","1008.69","1","40.53774","17.423897"],
    [245,"2024-01-11 04:00:00","18","grottaglie","7.91","1","73.25","1","0.0","1","null","6","null","6","null","6","1008.22","1","40.53774","17.423897"],
    [246,"2024-01-11 05:00:00","18","grottaglie","8.28","1","70.86","1","0.0","1","null","6","null","6","null","6","1007.84","1","40.53774","17.423897"],
    [247,"2024-01-11 06:00:00","18","grottaglie","8.19","1","71.34","1","0.0","1","null","6","null","6","null","6","1007.46","1","40.53774","17.423897"],
    [248,"2024-01-11 07:00:00","18","grottaglie","8.26","1","70.29","1","0.0","1","null","6","null","6","null","6","1007.54","1","40.53774","17.423897"],
    [249,"2024-01-11 08:00:00","18","grottaglie","8.29","1","75.06","1","0.0","1","null","6","null","6","null","6","1007.62","1","40.53774","17.423897"],
    [250,"2024-01-11 09:00:00","18","grottaglie","8.77","1","75.76","1","0.0","1","null","6","null","6","null","6","1007.57","1","40.53774","17.423897"],
    [251,"2024-01-11 10:00:00","18","grottaglie","9.68","1","71.96","1","0.0","1","null","6","null","6","null","6","1007.44","1","40.53774","17.423897"],
    [252,"2024-01-11 11:00:00","18","grottaglie","11.45","1","61.75","1","0.0","1","null","6","null","6","null","6","1006.91","1","40.53774","17.423897"],
    [253,"2024-01-11 12:00:00","18","grottaglie","11.52","1","59.57","1","0.0","1","null","6","null","6","null","6","1005.96","1","40.53774","17.423897"],
    [254,"2024-01-11 13:00:00","18","grottaglie","11.47","1","59.16","1","0.0","1","null","6","null","6","null","6","1005.32","1","40.53774","17.423897"],
    [255,"2024-01-11 14:00:00","18","grottaglie","12.0","1","58.19","1","0.0","1","null","6","null","6","null","6","1004.68","1","40.53774","17.423897"],
    [256,"2024-01-11 15:00:00","18","grottaglie","12.42","1","56.75","1","0.0","1","null","6","null","6","null","6","1004.03","1","40.53774","17.423897"],
    [257,"2024-01-11 16:00:00","18","grottaglie","11.09","1","60.27","1","0.0","1","null","6","null","6","null","6","1003.98","1","40.53774","17.423897"],
    [258,"2024-01-11 17:00:00","18","grottaglie","10.12","1","63.5","1","0.0","1","null","6","null","6","null","6","1003.94","1","40.53774","17.423897"],
    [259,"2024-01-11 18:00:00","18","grottaglie","9.69","1","66.29","1","0.0","1","null","6","null","6","null","6","1003.84","1","40.53774","17.423897"],
    [260,"2024-01-11 19:00:00","18","grottaglie","9.37","1","67.72","1","0.0","1","null","6","null","6","null","6","1003.72","1","40.53774","17.423897"],
    [261,"2024-01-11 20:00:00","18","grottaglie","8.67","1","72.82","1","0.0","1","null","6","null","6","null","6","1003.54","1","40.53774","17.423897"],
    [262,"2024-01-11 21:00:00","18","grottaglie","8.37","1","75.2","1","0.0","1","null","6","null","6","null","6","1003.29","1","40.53774","17.423897"],
    [263,"2024-01-11 22:00:00","18","grottaglie","8.27","1","75.07","1","0.0","1","null","6","null","6","null","6","1003.29","1","40.53774","17.423897"],
    [264,"2024-01-11 23:00:00","18","grottaglie","8.38","1","74.66","1","0.0","1","null","6","null","6","null","6","1003.15","1","40.53774","17.423897"],
    [265,"2024-01-12 00:00:00","18","grottaglie","8.35","1","74.32","1","0.0","1","null","6","null","6","null","6","1002.77","1","40.53774","17.423897"],
    [266,"2024-01-12 01:00:00","18","grottaglie","7.24","1","78.15","1","0.0","1","null","6","null","6","null","6","1002.45","1","40.53774","17.423897"],
    [267,"2024-01-12 02:00:00","18","grottaglie","6.58","1","81.63","1","0.0","1","null","6","null","6","null","6","1002.09","1","40.53774","17.423897"],
    [268,"2024-01-12 03:00:00","18","grottaglie","6.68","1","80.86","1","0.0","1","null","6","null","6","null","6","1001.84","1","40.53774","17.423897"],
    [269,"2024-01-12 04:00:00","18","grottaglie","6.58","1","82.07","1","0.0","1","null","6","null","6","null","6","1001.51","1","40.53774","17.423897"],
    [270,"2024-01-12 05:00:00","18","grottaglie","7.37","1","83.19","1","0.0","1","null","6","null","6","null","6","1001.12","1","40.53774","17.423897"],
    [271,"2024-01-12 06:00:00","18","grottaglie","7.65","1","79.16","1","0.0","1","null","6","null","6","null","6","1000.86","1","40.53774","17.423897"],
    [272,"2024-01-12 07:00:00","18","grottaglie","7.33","1","77.48","1","0.0","1","null","6","null","6","null","6","1001.12","1","40.53774","17.423897"],
    [273,"2024-01-12 08:00:00","18","grottaglie","7.29","1","77.81","1","0.0","1","null","6","null","6","null","6","1001.36","1","40.53774","17.423897"],
    [274,"2024-01-12 09:00:00","18","grottaglie","7.29","1","74.97","1","0.0","1","null","6","null","6","null","6","1001.72","1","40.53774","17.423897"],
    [275,"2024-01-12 10:00:00","18","grottaglie","8.82","1","65.92","1","0.0","1","null","6","null","6","null","6","1001.71","1","40.53774","17.423897"],
    [276,"2024-01-12 11:00:00","18","grottaglie","9.95","1","59.67","1","0.0","1","null","6","null","6","null","6","1001.83","1","40.53774","17.423897"],
    [277,"2024-01-12 12:00:00","18","grottaglie","11.15","1","43.21","1","0.0","1","null","6","null","6","null","6","1001.51","1","40.53774","17.423897"],
    [278,"2024-01-12 13:00:00","18","grottaglie","12.23","1","40.2","1","0.0","1","null","6","null","6","null","6","1000.85","1","40.53774","17.423897"],
    [279,"2024-01-12 14:00:00","18","grottaglie","12.44","1","41.06","1","0.0","1","null","6","null","6","null","6","1000.75","1","40.53774","17.423897"],
    [280,"2024-01-12 15:00:00","18","grottaglie","12.3","1","42.73","1","0.0","1","null","6","null","6","null","6","1000.91","1","40.53774","17.423897"],
    [281,"2024-01-12 16:00:00","18","grottaglie","11.04","1","45.32","1","0.0","1","null","6","null","6","null","6","1001.66","1","40.53774","17.423897"],
    [282,"2024-01-12 17:00:00","18","grottaglie","9.69","1","48.22","1","0.0","1","null","6","null","6","null","6","1002.06","1","40.53774","17.423897"],
    [283,"2024-01-12 18:00:00","18","grottaglie","7.58","1","55.56","1","0.0","1","null","6","null","6","null","6","1002.4","1","40.53774","17.423897"],
    [284,"2024-01-12 19:00:00","18","grottaglie","6.93","1","57.63","1","0.0","1","null","6","null","6","null","6","1002.73","1","40.53774","17.423897"],
    [285,"2024-01-12 20:00:00","18","grottaglie","6.44","1","57.68","1","0.0","1","null","6","null","6","null","6","1003.03","1","40.53774","17.423897"],
    [286,"2024-01-12 21:00:00","18","grottaglie","5.54","1","61.09","1","0.0","1","null","6","null","6","null","6","1003.52","1","40.53774","17.423897"],
    [287,"2024-01-12 22:00:00","18","grottaglie","4.53","1","71.13","1","0.0","1","null","6","null","6","null","6","1004.11","1","40.53774","17.423897"],
    [288,"2024-01-12 23:00:00","18","grottaglie","4.67","1","78.11","1","0.0","1","null","6","null","6","null","6","1004.49","1","40.53774","17.423897"],
    [289,"2024-01-13 00:00:00","18","grottaglie","4.7","1","78.08","1","0.0","1","null","6","null","6","null","6","1004.4","1","40.53774","17.423897"],
    [290,"2024-01-13 01:00:00","18","grottaglie","4.61","1","75.56","1","0.0","1","null","6","null","6","null","6","1004.41","1","40.53774","17.423897"],
    [291,"2024-01-13 02:00:00","18","grottaglie","4.27","1","72.24","1","0.0","1","null","6","null","6","null","6","1004.6","1","40.53774","17.423897"],
    [292,"2024-01-13 03:00:00","18","grottaglie","3.75","1","71.82","1","0.0","1","null","6","null","6","null","6","1004.75","1","40.53774","17.423897"],
    [293,"2024-01-13 04:00:00","18","grottaglie","3.76","1","72.7","1","0.0","1","null","6","null","6","null","6","1004.63","1","40.53774","17.423897"],
    [294,"2024-01-13 05:00:00","18","grottaglie","4.71","1","70.27","1","0.0","1","null","6","null","6","null","6","1004.57","1","40.53774","17.423897"],
    [295,"2024-01-13 06:00:00","18","grottaglie","5.18","1","66.97","1","0.0","1","null","6","null","6","null","6","1004.86","1","40.53774","17.423897"],
    [296,"2024-01-13 07:00:00","18","grottaglie","4.3","1","69.14","1","0.0","1","null","6","null","6","null","6","1005.35","1","40.53774","17.423897"],
    [297,"2024-01-13 08:00:00","18","grottaglie","3.54","1","71.66","1","0.0","1","null","6","null","6","null","6","1005.73","1","40.53774","17.423897"],
    [298,"2024-01-13 09:00:00","18","grottaglie","4.26","1","69.83","1","0.0","1","null","6","null","6","null","6","1006.43","1","40.53774","17.423897"],
    [299,"2024-01-13 10:00:00","18","grottaglie","6.02","1","64.85","1","0.0","1","null","6","null","6","null","6","1006.69","1","40.53774","17.423897"],
    [300,"2024-01-13 11:00:00","18","grottaglie","8.05","1","55.75","1","0.0","1","null","6","null","6","null","6","1006.79","1","40.53774","17.423897"],
    [301,"2024-01-13 12:00:00","18","grottaglie","9.29","1","49.36","1","0.0","1","null","6","null","6","null","6","1006.4","1","40.53774","17.423897"],
    [302,"2024-01-13 13:00:00","18","grottaglie","9.68","1","47.64","1","0.0","1","null","6","null","6","null","6","1005.94","1","40.53774","17.423897"],
    [303,"2024-01-13 14:00:00","18","grottaglie","9.64","1","47.32","1","0.0","1","null","6","null","6","null","6","1005.68","1","40.53774","17.423897"],
    [304,"2024-01-13 15:00:00","18","grottaglie","10.09","1","46.72","1","0.0","1","null","6","null","6","null","6","1005.54","1","40.53774","17.423897"],
    [305,"2024-01-13 16:00:00","18","grottaglie","9.79","1","49.32","1","0.0","1","null","6","null","6","null","6","1005.65","1","40.53774","17.423897"],
    [306,"2024-01-13 17:00:00","18","grottaglie","8.45","1","55.4","1","0.0","1","null","6","null","6","null","6","1005.64","1","40.53774","17.423897"],
    [307,"2024-01-13 18:00:00","18","grottaglie","6.43","1","62.64","1","0.0","1","null","6","null","6","null","6","1005.81","1","40.53774","17.423897"],
    [308,"2024-01-13 19:00:00","18","grottaglie","5.55","1","66.11","1","0.0","1","null","6","null","6","null","6","1005.96","1","40.53774","17.423897"],
    [309,"2024-01-13 20:00:00","18","grottaglie","4.81","1","68.57","1","0.0","1","null","6","null","6","null","6","1006.03","1","40.53774","17.423897"],
    [310,"2024-01-13 21:00:00","18","grottaglie","4.37","1","71.1","1","0.0","1","null","6","null","6","null","6","1006.12","1","40.53774","17.423897"],
    [311,"2024-01-13 22:00:00","18","grottaglie","4.21","1","74.17","1","0.0","1","null","6","null","6","null","6","1006.05","1","40.53774","17.423897"],
    [312,"2024-01-13 23:00:00","18","grottaglie","4.07","1","75.54","1","0.0","1","null","6","null","6","null","6","1005.96","1","40.53774","17.423897"],
    [313,"2024-01-14 00:00:00","18","grottaglie","2.75","1","79.29","1","0.0","1","null","6","null","6","null","6","1005.94","1","40.53774","17.423897"],
    [314,"2024-01-14 01:00:00","18","grottaglie","2.7","1","79.75","1","0.0","1","null","6","null","6","null","6","1005.45","1","40.53774","17.423897"],
    [315,"2024-01-14 02:00:00","18","grottaglie","1.47","1","82.46","1","0.0","1","null","6","null","6","null","6","1005.23","1","40.53774","17.423897"],
    [316,"2024-01-14 03:00:00","18","grottaglie","2.36","1","82.58","1","0.0","1","null","6","null","6","null","6","1004.78","1","40.53774","17.423897"],
    [317,"2024-01-14 04:00:00","18","grottaglie","3.45","1","74.17","1","0.0","1","null","6","null","6","null","6","1004.18","1","40.53774","17.423897"],
    [318,"2024-01-14 05:00:00","18","grottaglie","3.93","1","66.94","1","0.0","1","null","6","null","6","null","6","1003.64","1","40.53774","17.423897"],
    [319,"2024-01-14 06:00:00","18","grottaglie","2.25","1","68.94","1","0.0","1","null","6","null","6","null","6","1003.64","1","40.53774","17.423897"],
    [320,"2024-01-14 07:00:00","18","grottaglie","3.01","1","62.25","1","0.0","1","null","6","null","6","null","6","1003.62","1","40.53774","17.423897"],
    [321,"2024-01-14 08:00:00","18","grottaglie","1.49","1","68.94","1","0.0","1","null","6","null","6","null","6","1003.73","1","40.53774","17.423897"],
    [322,"2024-01-14 09:00:00","18","grottaglie","3.85","1","57.92","1","0.0","1","null","6","null","6","null","6","1003.89","1","40.53774","17.423897"],
    [323,"2024-01-14 10:00:00","18","grottaglie","6.21","1","57.48","1","0.0","1","null","6","null","6","null","6","1003.76","1","40.53774","17.423897"],
    [324,"2024-01-14 11:00:00","18","grottaglie","8.05","1","48.03","1","0.0","1","null","6","null","6","null","6","1003.84","1","40.53774","17.423897"],
    [325,"2024-01-14 12:00:00","18","grottaglie","9.61","1","43.99","1","0.0","1","null","6","null","6","null","6","1002.96","1","40.53774","17.423897"],
    [326,"2024-01-14 13:00:00","18","grottaglie","10.73","1","42.0","1","0.0","1","null","6","null","6","null","6","1002.11","1","40.53774","17.423897"],
    [327,"2024-01-14 14:00:00","18","grottaglie","11.23","1","45.48","1","0.0","1","null","6","null","6","null","6","1001.12","1","40.53774","17.423897"],
    [328,"2024-01-14 15:00:00","18","grottaglie","11.71","1","50.09","1","0.0","1","null","6","null","6","null","6","1000.99","1","40.53774","17.423897"],
    [329,"2024-01-14 16:00:00","18","grottaglie","11.34","1","60.15","1","0.0","1","null","6","null","6","null","6","1000.28","1","40.53774","17.423897"],
    [330,"2024-01-14 17:00:00","18","grottaglie","9.89","1","69.5","1","0.0","1","null","6","null","6","null","6","1000.23","1","40.53774","17.423897"],
    [331,"2024-01-14 18:00:00","18","grottaglie","9.54","1","67.6","1","0.0","1","null","6","null","6","null","6","999.88","1","40.53774","17.423897"],
    [332,"2024-01-14 19:00:00","18","grottaglie","9.38","1","65.73","1","0.0","1","null","6","null","6","null","6","999.42","1","40.53774","17.423897"],
    [333,"2024-01-14 20:00:00","18","grottaglie","9.59","1","64.45","1","0.0","1","null","6","null","6","null","6","999.19","1","40.53774","17.423897"],
    [334,"2024-01-14 21:00:00","18","grottaglie","9.26","1","69.22","1","0.0","1","null","6","null","6","null","6","998.99","1","40.53774","17.423897"],
    [335,"2024-01-14 22:00:00","18","grottaglie","8.34","1","74.6","1","0.0","1","null","6","null","6","null","6","998.68","1","40.53774","17.423897"],
    [336,"2024-01-14 23:00:00","18","grottaglie","8.06","1","74.32","1","0.0","1","null","6","null","6","null","6","998.21","1","40.53774","17.423897"],
    [337,"2024-01-15 00:00:00","18","grottaglie","8.56","1","70.59","1","0.0","1","null","6","null","6","null","6","997.73","1","40.53774","17.423897"],
    [338,"2024-01-15 01:00:00","18","grottaglie","8.53","1","71.16","1","0.0","1","null","6","null","6","null","6","997.11","1","40.53774","17.423897"],
    [339,"2024-01-15 02:00:00","18","grottaglie","8.9","1","70.19","1","0.0","1","null","6","null","6","null","6","996.26","1","40.53774","17.423897"],
    [340,"2024-01-15 03:00:00","18","grottaglie","9.19","1","72.19","1","0.0","1","null","6","null","6","null","6","995.62","1","40.53774","17.423897"],
    [341,"2024-01-15 04:00:00","18","grottaglie","9.3","1","75.81","1","0.0","1","null","6","null","6","null","6","994.85","1","40.53774","17.423897"],
    [342,"2024-01-15 05:00:00","18","grottaglie","9.59","1","78.08","1","0.0","1","null","6","null","6","null","6","993.82","1","40.53774","17.423897"],
    [343,"2024-01-15 06:00:00","18","grottaglie","10.02","1","81.39","1","0.0","1","null","6","null","6","null","6","993.2","1","40.53774","17.423897"],
    [344,"2024-01-15 07:00:00","18","grottaglie","9.83","1","81.84","1","0.0","1","null","6","null","6","null","6","992.68","1","40.53774","17.423897"],
    [345,"2024-01-15 08:00:00","18","grottaglie","9.85","1","84.13","1","0.4","1","null","6","null","6","null","6","992.14","1","40.53774","17.423897"],
    [346,"2024-01-15 09:00:00","18","grottaglie","10.31","1","82.36","1","0.0","1","null","6","null","6","null","6","991.74","1","40.53774","17.423897"],
    [347,"2024-01-15 10:00:00","18","grottaglie","11.25","1","83.35","1","0.0","1","null","6","null","6","null","6","991.5","1","40.53774","17.423897"],
    [348,"2024-01-15 11:00:00","18","grottaglie","11.49","1","83.68","1","0.4","1","null","6","null","6","null","6","990.97","1","40.53774","17.423897"],
    [349,"2024-01-15 12:00:00","18","grottaglie","11.76","1","78.14","1","0.4","1","null","6","null","6","null","6","990.14","1","40.53774","17.423897"],
    [350,"2024-01-15 13:00:00","18","grottaglie","12.03","1","80.42","1","0.0","1","null","6","null","6","null","6","989.34","1","40.53774","17.423897"],
    [351,"2024-01-15 14:00:00","18","grottaglie","12.98","1","74.79","1","0.0","1","null","6","null","6","null","6","988.3","1","40.53774","17.423897"],
    [352,"2024-01-15 15:00:00","18","grottaglie","12.92","1","73.57","1","0.0","1","null","6","null","6","null","6","987.89","1","40.53774","17.423897"],
    [353,"2024-01-15 16:00:00","18","grottaglie","12.85","1","73.71","1","0.2","1","null","6","null","6","null","6","987.85","1","40.53774","17.423897"],
    [354,"2024-01-15 17:00:00","18","grottaglie","12.57","1","76.46","1","0.0","1","null","6","null","6","null","6","987.77","1","40.53774","17.423897"],
    [355,"2024-01-15 18:00:00","18","grottaglie","11.3","1","79.93","1","0.0","1","null","6","null","6","null","6","987.81","1","40.53774","17.423897"],
    [356,"2024-01-15 19:00:00","18","grottaglie","10.59","1","84.16","1","0.0","1","null","6","null","6","null","6","988.33","1","40.53774","17.423897"],
    [357,"2024-01-15 20:00:00","18","grottaglie","9.94","1","86.52","1","0.0","1","null","6","null","6","null","6","988.41","1","40.53774","17.423897"],
    [358,"2024-01-15 21:00:00","18","grottaglie","9.87","1","86.97","1","0.0","1","null","6","null","6","null","6","988.46","1","40.53774","17.423897"],
    [359,"2024-01-15 22:00:00","18","grottaglie","9.52","1","87.03","1","0.0","1","null","6","null","6","null","6","988.78","1","40.53774","17.423897"],
    [360,"2024-01-15 23:00:00","18","grottaglie","9.1","1","86.54","1","0.0","1","null","6","null","6","null","6","988.84","1","40.53774","17.423897"],
    [361,"2024-01-16 00:00:00","18","grottaglie","8.56","1","86.57","1","0.0","1","null","6","null","6","null","6","989.12","1","40.53774","17.423897"],
    [362,"2024-01-16 01:00:00","18","grottaglie","8.68","1","85.82","1","0.0","1","null","6","null","6","null","6","989.36","1","40.53774","17.423897"],
    [363,"2024-01-16 02:00:00","18","grottaglie","8.85","1","81.19","1","0.0","1","null","6","null","6","null","6","989.83","1","40.53774","17.423897"],
    [364,"2024-01-16 03:00:00","18","grottaglie","8.28","1","78.51","1","0.0","1","null","6","null","6","null","6","990.18","1","40.53774","17.423897"],
    [365,"2024-01-16 04:00:00","18","grottaglie","8.14","1","81.0","1","0.0","1","null","6","null","6","null","6","990.4","1","40.53774","17.423897"],
    [366,"2024-01-16 05:00:00","18","grottaglie","8.44","1","76.63","1","0.0","1","null","6","null","6","null","6","990.83","1","40.53774","17.423897"],
    [367,"2024-01-16 06:00:00","18","grottaglie","8.7","1","74.94","1","0.0","1","null","6","null","6","null","6","991.49","1","40.53774","17.423897"],
    [368,"2024-01-16 07:00:00","18","grottaglie","9.11","1","73.99","1","0.0","1","null","6","null","6","null","6","992.31","1","40.53774","17.423897"],
    [369,"2024-01-16 08:00:00","18","grottaglie","9.45","1","72.98","1","0.0","1","null","6","null","6","null","6","992.94","1","40.53774","17.423897"],
    [370,"2024-01-16 09:00:00","18","grottaglie","10.19","1","71.23","1","0.0","1","null","6","null","6","null","6","993.92","1","40.53774","17.423897"],
    [371,"2024-01-16 10:00:00","18","grottaglie","11.86","1","67.53","1","0.0","1","null","6","null","6","null","6","994.88","1","40.53774","17.423897"],
    [372,"2024-01-16 11:00:00","18","grottaglie","13.49","1","63.02","1","0.0","1","null","6","null","6","null","6","995.36","1","40.53774","17.423897"],
    [373,"2024-01-16 12:00:00","18","grottaglie","14.88","1","60.18","1","0.0","1","null","6","null","6","null","6","994.92","1","40.53774","17.423897"],
    [374,"2024-01-16 13:00:00","18","grottaglie","17.69","1","50.1","1","0.0","1","null","6","null","6","null","6","994.84","1","40.53774","17.423897"],
    [375,"2024-01-16 14:00:00","18","grottaglie","20.11","1","40.58","1","0.0","1","null","6","null","6","null","6","994.87","1","40.53774","17.423897"],
    [376,"2024-01-16 15:00:00","18","grottaglie","20.0","1","34.7","1","0.0","1","null","6","null","6","null","6","994.82","1","40.53774","17.423897"],
    [377,"2024-01-16 16:00:00","18","grottaglie","17.45","1","42.91","1","0.0","1","null","6","null","6","null","6","995.09","1","40.53774","17.423897"],
    [378,"2024-01-16 17:00:00","18","grottaglie","14.72","1","56.25","1","0.0","1","null","6","null","6","null","6","996.1","1","40.53774","17.423897"],
    [379,"2024-01-16 18:00:00","18","grottaglie","13.14","1","68.86","1","0.4","1","null","6","null","6","null","6","997.14","1","40.53774","17.423897"],
    [380,"2024-01-16 19:00:00","18","grottaglie","11.85","1","74.0","1","0.0","1","null","6","null","6","null","6","997.43","1","40.53774","17.423897"],
    [381,"2024-01-16 20:00:00","18","grottaglie","11.12","1","76.21","1","0.0","1","null","6","null","6","null","6","997.54","1","40.53774","17.423897"],
    [382,"2024-01-16 21:00:00","18","grottaglie","11.33","1","75.65","1","0.0","1","null","6","null","6","null","6","997.78","1","40.53774","17.423897"],
    [383,"2024-01-16 22:00:00","18","grottaglie","10.42","1","78.6","1","0.0","1","null","6","null","6","null","6","998.31","1","40.53774","17.423897"],
    [384,"2024-01-16 23:00:00","18","grottaglie","10.19","1","85.26","1","0.0","1","null","6","null","6","null","6","998.69","1","40.53774","17.423897"],
    [385,"2024-01-17 00:00:00","18","grottaglie","10.24","1","88.53","1","0.0","1","null","6","null","6","null","6","998.55","1","40.53774","17.423897"],
    [386,"2024-01-17 01:00:00","18","grottaglie","9.95","1","90.04","1","0.0","1","null","6","null","6","null","6","998.06","1","40.53774","17.423897"],
    [387,"2024-01-17 02:00:00","18","grottaglie","9.74","1","90.93","1","0.0","1","null","6","null","6","null","6","998.21","1","40.53774","17.423897"],
    [388,"2024-01-17 03:00:00","18","grottaglie","9.63","1","91.08","1","0.0","1","null","6","null","6","null","6","998.71","1","40.53774","17.423897"],
    [389,"2024-01-17 04:00:00","18","grottaglie","9.56","1","91.34","1","0.0","1","null","6","null","6","null","6","998.71","1","40.53774","17.423897"],
    [390,"2024-01-17 05:00:00","18","grottaglie","9.65","1","91.71","1","0.0","1","null","6","null","6","null","6","998.46","1","40.53774","17.423897"],
    [391,"2024-01-17 06:00:00","18","grottaglie","9.7","1","91.75","1","0.0","1","null","6","null","6","null","6","998.34","1","40.53774","17.423897"],
    [392,"2024-01-17 07:00:00","18","grottaglie","9.87","1","92.13","1","0.0","1","null","6","null","6","null","6","998.67","1","40.53774","17.423897"],
    [393,"2024-01-17 08:00:00","18","grottaglie","9.81","1","91.62","1","0.0","1","null","6","null","6","null","6","999.17","1","40.53774","17.423897"],
    [394,"2024-01-17 09:00:00","18","grottaglie","10.97","1","89.82","1","0.0","1","null","6","null","6","null","6","999.52","1","40.53774","17.423897"],
    [395,"2024-01-17 10:00:00","18","grottaglie","12.66","1","83.0","1","0.0","1","null","6","null","6","null","6","999.46","1","40.53774","17.423897"],
    [396,"2024-01-17 11:00:00","18","grottaglie","14.4","1","75.06","1","0.0","1","null","6","null","6","null","6","999.41","1","40.53774","17.423897"],
    [397,"2024-01-17 12:00:00","18","grottaglie","15.75","1","66.84","1","0.0","1","null","6","null","6","null","6","998.66","1","40.53774","17.423897"],
    [398,"2024-01-17 13:00:00","18","grottaglie","15.97","1","61.69","1","0.0","1","null","6","null","6","null","6","997.91","1","40.53774","17.423897"],
    [399,"2024-01-17 14:00:00","18","grottaglie","17.15","1","53.4","1","0.0","1","null","6","null","6","null","6","997.03","1","40.53774","17.423897"],
    [400,"2024-01-17 15:00:00","18","grottaglie","15.17","1","70.09","1","0.0","1","null","6","null","6","null","6","996.57","1","40.53774","17.423897"],
    [401,"2024-01-17 16:00:00","18","grottaglie","14.53","1","74.49","1","0.0","1","null","6","null","6","null","6","996.37","1","40.53774","17.423897"],
    [402,"2024-01-17 17:00:00","18","grottaglie","13.94","1","80.24","1","0.0","1","null","6","null","6","null","6","996.42","1","40.53774","17.423897"],
    [403,"2024-01-17 18:00:00","18","grottaglie","13.55","1","82.99","1","0.0","1","null","6","null","6","null","6","996.93","1","40.53774","17.423897"],
    [404,"2024-01-17 19:00:00","18","grottaglie","13.23","1","87.93","1","0.6","1","null","6","null","6","null","6","997.35","1","40.53774","17.423897"],
    [405,"2024-01-17 20:00:00","18","grottaglie","12.98","1","89.68","1","0.0","1","null","6","null","6","null","6","997.0","1","40.53774","17.423897"],
    [406,"2024-01-17 21:00:00","18","grottaglie","12.62","1","90.24","1","0.0","1","null","6","null","6","null","6","996.66","1","40.53774","17.423897"],
    [407,"2024-01-17 22:00:00","18","grottaglie","12.53","1","90.93","1","0.0","1","null","6","null","6","null","6","996.77","1","40.53774","17.423897"],
    [408,"2024-01-17 23:00:00","18","grottaglie","12.69","1","92.04","1","0.2","1","null","6","null","6","null","6","995.84","1","40.53774","17.423897"],
    [409,"2024-01-18 00:00:00","18","grottaglie","13.25","1","93.34","1","0.0","1","null","6","null","6","null","6","995.36","1","40.53774","17.423897"],
    [410,"2024-01-18 01:00:00","18","grottaglie","13.22","1","94.15","1","0.0","1","null","6","null","6","null","6","994.61","1","40.53774","17.423897"],
    [411,"2024-01-18 02:00:00","18","grottaglie","13.26","1","95.13","1","0.0","1","null","6","null","6","null","6","994.39","1","40.53774","17.423897"],
    [412,"2024-01-18 03:00:00","18","grottaglie","13.37","1","95.94","1","0.0","1","null","6","null","6","null","6","993.68","1","40.53774","17.423897"],
    [413,"2024-01-18 04:00:00","18","grottaglie","13.26","1","96.27","1","0.0","1","null","6","null","6","null","6","992.87","1","40.53774","17.423897"],
    [414,"2024-01-18 05:00:00","18","grottaglie","12.99","1","96.42","1","0.0","1","null","6","null","6","null","6","992.34","1","40.53774","17.423897"],
    [415,"2024-01-18 06:00:00","18","grottaglie","12.93","1","96.19","1","0.0","1","null","6","null","6","null","6","991.85","1","40.53774","17.423897"],
    [416,"2024-01-18 07:00:00","18","grottaglie","12.35","1","96.29","1","0.0","1","null","6","null","6","null","6","991.28","1","40.53774","17.423897"],
    [417,"2024-01-18 08:00:00","18","grottaglie","11.78","1","95.09","1","0.0","1","null","6","null","6","null","6","991.69","1","40.53774","17.423897"],
    [418,"2024-01-18 09:00:00","18","grottaglie","12.14","1","94.37","1","0.0","1","null","6","null","6","null","6","991.2","1","40.53774","17.423897"],
    [419,"2024-01-18 10:00:00","18","grottaglie","15.05","1","73.67","1","0.0","1","null","6","null","6","null","6","991.13","1","40.53774","17.423897"],
    [420,"2024-01-18 11:00:00","18","grottaglie","17.86","1","56.77","1","0.0","1","null","6","null","6","null","6","991.33","1","40.53774","17.423897"],
    [421,"2024-01-18 12:00:00","18","grottaglie","18.22","1","59.68","1","0.0","1","null","6","null","6","null","6","990.84","1","40.53774","17.423897"],
    [422,"2024-01-18 13:00:00","18","grottaglie","18.84","1","59.12","1","0.0","1","null","6","null","6","null","6","989.77","1","40.53774","17.423897"],
    [423,"2024-01-18 14:00:00","18","grottaglie","18.38","1","60.91","1","0.0","1","null","6","null","6","null","6","989.62","1","40.53774","17.423897"],
    [424,"2024-01-18 15:00:00","18","grottaglie","18.32","1","60.88","1","0.0","1","null","6","null","6","null","6","989.62","1","40.53774","17.423897"],
    [425,"2024-01-18 16:00:00","18","grottaglie","18.49","1","55.01","1","0.0","1","null","6","null","6","null","6","989.94","1","40.53774","17.423897"],
    [426,"2024-01-18 17:00:00","18","grottaglie","16.6","1","59.49","1","0.0","1","null","6","null","6","null","6","989.86","1","40.53774","17.423897"],
    [427,"2024-01-18 18:00:00","18","grottaglie","16.03","1","55.36","1","0.0","1","null","6","null","6","null","6","990.37","1","40.53774","17.423897"],
    [428,"2024-01-18 19:00:00","18","grottaglie","15.42","1","56.25","1","0.0","1","null","6","null","6","null","6","990.88","1","40.53774","17.423897"],
    [429,"2024-01-18 20:00:00","18","grottaglie","15.18","1","58.78","1","0.0","1","null","6","null","6","null","6","991.15","1","40.53774","17.423897"],
    [430,"2024-01-18 21:00:00","18","grottaglie","14.01","1","67.11","1","0.0","1","null","6","null","6","null","6","991.44","1","40.53774","17.423897"],
    [431,"2024-01-18 22:00:00","18","grottaglie","12.97","1","72.6","1","0.0","1","null","6","null","6","null","6","991.94","1","40.53774","17.423897"],
    [432,"2024-01-18 23:00:00","18","grottaglie","13.13","1","66.34","1","0.0","1","null","6","null","6","null","6","992.3","1","40.53774","17.423897"],
    [433,"2024-01-19 00:00:00","18","grottaglie","13.43","1","60.35","1","0.0","1","null","6","null","6","null","6","992.38","1","40.53774","17.423897"],
    [434,"2024-01-19 01:00:00","18","grottaglie","12.67","1","61.47","1","0.0","1","null","6","null","6","null","6","992.45","1","40.53774","17.423897"],
    [435,"2024-01-19 02:00:00","18","grottaglie","12.92","1","59.89","1","0.0","1","null","6","null","6","null","6","992.6","1","40.53774","17.423897"],
    [436,"2024-01-19 03:00:00","18","grottaglie","11.74","1","66.67","1","0.0","1","null","6","null","6","null","6","992.61","1","40.53774","17.423897"],
    [437,"2024-01-19 04:00:00","18","grottaglie","11.99","1","66.48","1","0.0","1","null","6","null","6","null","6","992.93","1","40.53774","17.423897"],
    [438,"2024-01-19 05:00:00","18","grottaglie","12.18","1","67.53","1","0.0","1","null","6","null","6","null","6","993.13","1","40.53774","17.423897"],
    [439,"2024-01-19 06:00:00","18","grottaglie","12.12","1","67.75","1","0.0","1","null","6","null","6","null","6","993.32","1","40.53774","17.423897"],
    [440,"2024-01-19 07:00:00","18","grottaglie","11.93","1","67.23","1","0.0","1","null","6","null","6","null","6","993.89","1","40.53774","17.423897"],
    [441,"2024-01-19 08:00:00","18","grottaglie","10.99","1","71.94","1","0.0","1","null","6","null","6","null","6","994.53","1","40.53774","17.423897"],
    [442,"2024-01-19 09:00:00","18","grottaglie","12.14","1","73.43","1","0.0","1","null","6","null","6","null","6","994.77","1","40.53774","17.423897"],
    [443,"2024-01-19 10:00:00","18","grottaglie","14.56","1","69.26","1","0.0","1","null","6","null","6","null","6","995.01","1","40.53774","17.423897"],
    [444,"2024-01-19 11:00:00","18","grottaglie","16.15","1","65.79","1","0.0","1","null","6","null","6","null","6","995.36","1","40.53774","17.423897"],
    [445,"2024-01-19 12:00:00","18","grottaglie","17.3","1","59.53","1","0.0","1","null","6","null","6","null","6","995.29","1","40.53774","17.423897"],
    [446,"2024-01-19 13:00:00","18","grottaglie","17.2","1","59.49","1","0.0","1","null","6","null","6","null","6","995.08","1","40.53774","17.423897"],
    [447,"2024-01-19 14:00:00","18","grottaglie","16.94","1","61.04","1","0.0","1","null","6","null","6","null","6","994.31","1","40.53774","17.423897"],
    [448,"2024-01-19 15:00:00","18","grottaglie","16.36","1","61.94","1","0.0","1","null","6","null","6","null","6","994.14","1","40.53774","17.423897"],
    [449,"2024-01-19 16:00:00","18","grottaglie","16.32","1","64.03","1","0.0","1","null","6","null","6","null","6","994.54","1","40.53774","17.423897"],
    [450,"2024-01-19 17:00:00","18","grottaglie","16.59","1","64.57","1","0.0","1","null","6","null","6","null","6","994.43","1","40.53774","17.423897"],
    [451,"2024-01-19 18:00:00","18","grottaglie","14.81","1","68.0","1","0.0","1","null","6","null","6","null","6","994.71","1","40.53774","17.423897"],
    [452,"2024-01-19 19:00:00","18","grottaglie","14.28","1","66.73","1","0.0","1","null","6","null","6","null","6","994.93","1","40.53774","17.423897"],
    [453,"2024-01-19 20:00:00","18","grottaglie","13.89","1","68.49","1","0.0","1","null","6","null","6","null","6","995.19","1","40.53774","17.423897"],
    [454,"2024-01-19 21:00:00","18","grottaglie","13.14","1","72.07","1","0.0","1","null","6","null","6","null","6","995.44","1","40.53774","17.423897"],
    [455,"2024-01-19 22:00:00","18","grottaglie","12.87","1","76.7","1","0.0","1","null","6","null","6","null","6","995.85","1","40.53774","17.423897"],
    [456,"2024-01-19 23:00:00","18","grottaglie","12.88","1","79.39","1","0.0","1","null","6","null","6","null","6","996.09","1","40.53774","17.423897"],
    [457,"2024-01-20 00:00:00","18","grottaglie","13.0","1","76.57","1","0.0","1","null","6","null","6","null","6","996.13","1","40.53774","17.423897"],
    [458,"2024-01-20 01:00:00","18","grottaglie","13.37","1","71.74","1","0.0","1","null","6","null","6","null","6","995.96","1","40.53774","17.423897"],
    [459,"2024-01-20 02:00:00","18","grottaglie","13.64","1","69.87","1","0.0","1","null","6","null","6","null","6","996.07","1","40.53774","17.423897"],
    [460,"2024-01-20 03:00:00","18","grottaglie","12.76","1","75.52","1","0.2","1","null","6","null","6","null","6","996.29","1","40.53774","17.423897"],
    [461,"2024-01-20 04:00:00","18","grottaglie","11.51","1","79.05","1","0.0","1","null","6","null","6","null","6","996.52","1","40.53774","17.423897"],
    [462,"2024-01-20 05:00:00","18","grottaglie","10.9","1","76.66","1","0.0","1","null","6","null","6","null","6","996.85","1","40.53774","17.423897"],
    [463,"2024-01-20 06:00:00","18","grottaglie","9.87","1","72.42","1","0.0","1","null","6","null","6","null","6","997.54","1","40.53774","17.423897"],
    [464,"2024-01-20 07:00:00","18","grottaglie","9.32","1","72.22","1","0.0","1","null","6","null","6","null","6","998.51","1","40.53774","17.423897"],
    [465,"2024-01-20 08:00:00","18","grottaglie","8.91","1","72.16","1","0.0","1","null","6","null","6","null","6","999.31","1","40.53774","17.423897"],
    [466,"2024-01-20 09:00:00","18","grottaglie","8.41","1","73.47","1","0.0","1","null","6","null","6","null","6","1000.17","1","40.53774","17.423897"],
    [467,"2024-01-20 10:00:00","18","grottaglie","7.87","1","77.5","1","0.2","1","null","6","null","6","null","6","1001.0","1","40.53774","17.423897"],
    [468,"2024-01-20 11:00:00","18","grottaglie","7.63","1","77.11","1","0.0","1","null","6","null","6","null","6","1001.91","1","40.53774","17.423897"],
    [469,"2024-01-20 12:00:00","18","grottaglie","7.47","1","74.38","1","0.2","1","null","6","null","6","null","6","1002.01","1","40.53774","17.423897"],
    [470,"2024-01-20 13:00:00","18","grottaglie","6.61","1","74.67","1","0.2","1","null","6","null","6","null","6","1002.48","1","40.53774","17.423897"],
    [471,"2024-01-20 14:00:00","18","grottaglie","6.18","1","75.05","1","0.0","1","null","6","null","6","null","6","1001.9","1","40.53774","17.423897"],
    [472,"2024-01-20 15:00:00","18","grottaglie","6.46","1","73.91","1","0.0","1","null","6","null","6","null","6","1002.08","1","40.53774","17.423897"],
    [473,"2024-01-20 16:00:00","18","grottaglie","5.91","1","74.31","1","0.0","1","null","6","null","6","null","6","1003.08","1","40.53774","17.423897"],
    [474,"2024-01-20 17:00:00","18","grottaglie","6.16","1","71.77","1","0.0","1","null","6","null","6","null","6","1003.56","1","40.53774","17.423897"],
    [475,"2024-01-20 18:00:00","18","grottaglie","6.67","1","64.98","1","0.0","1","null","6","null","6","null","6","1004.04","1","40.53774","17.423897"],
    [476,"2024-01-20 19:00:00","18","grottaglie","6.76","1","60.08","1","0.0","1","null","6","null","6","null","6","1004.45","1","40.53774","17.423897"],
    [477,"2024-01-20 20:00:00","18","grottaglie","6.69","1","59.81","1","0.0","1","null","6","null","6","null","6","1004.78","1","40.53774","17.423897"],
    [478,"2024-01-20 21:00:00","18","grottaglie","6.62","1","63.16","1","0.0","1","null","6","null","6","null","6","1005.19","1","40.53774","17.423897"],
    [479,"2024-01-20 22:00:00","18","grottaglie","5.51","1","70.64","1","0.2","1","null","6","null","6","null","6","1005.33","1","40.53774","17.423897"],
    [480,"2024-01-20 23:00:00","18","grottaglie","6.22","1","63.06","1","0.0","1","null","6","null","6","null","6","1005.49","1","40.53774","17.423897"],
    [481,"2024-01-21 00:00:00","18","grottaglie","6.63","1","58.63","1","0.0","1","null","6","null","6","null","6","1005.88","1","40.53774","17.423897"],
    [482,"2024-01-21 01:00:00","18","grottaglie","6.71","1","51.97","1","0.0","1","null","6","null","6","null","6","1006.03","1","40.53774","17.423897"],
    [483,"2024-01-21 02:00:00","18","grottaglie","6.49","1","52.65","1","0.0","1","null","6","null","6","null","6","1006.32","1","40.53774","17.423897"],
    [484,"2024-01-21 03:00:00","18","grottaglie","6.73","1","51.3","1","0.0","1","null","6","null","6","null","6","1006.68","1","40.53774","17.423897"],
    [485,"2024-01-21 04:00:00","18","grottaglie","6.24","1","53.91","1","0.0","1","null","6","null","6","null","6","1007.01","1","40.53774","17.423897"],
    [486,"2024-01-21 05:00:00","18","grottaglie","5.08","1","70.21","1","0.6","1","null","6","null","6","null","6","1007.42","1","40.53774","17.423897"],
    [487,"2024-01-21 06:00:00","18","grottaglie","5.33","1","66.53","1","0.0","1","null","6","null","6","null","6","1007.67","1","40.53774","17.423897"],
    [488,"2024-01-21 07:00:00","18","grottaglie","6.04","1","61.27","1","0.0","1","null","6","null","6","null","6","1008.17","1","40.53774","17.423897"],
    [489,"2024-01-21 08:00:00","18","grottaglie","6.46","1","59.25","1","0.0","1","null","6","null","6","null","6","1008.89","1","40.53774","17.423897"],
    [490,"2024-01-21 09:00:00","18","grottaglie","6.92","1","57.68","1","0.0","1","null","6","null","6","null","6","1009.46","1","40.53774","17.423897"],
    [491,"2024-01-21 10:00:00","18","grottaglie","8.16","1","55.49","1","0.0","1","null","6","null","6","null","6","1010.09","1","40.53774","17.423897"],
    [492,"2024-01-21 11:00:00","18","grottaglie","8.99","1","51.31","1","0.0","1","null","6","null","6","null","6","1010.58","1","40.53774","17.423897"],
    [493,"2024-01-21 12:00:00","18","grottaglie","9.57","1","47.74","1","0.0","1","null","6","null","6","null","6","1010.63","1","40.53774","17.423897"],
    [494,"2024-01-21 13:00:00","18","grottaglie","10.2","1","40.88","1","0.0","1","null","6","null","6","null","6","1010.8","1","40.53774","17.423897"],
    [495,"2024-01-21 14:00:00","18","grottaglie","11.45","1","34.99","1","0.0","1","null","6","null","6","null","6","1010.66","1","40.53774","17.423897"],
    [496,"2024-01-21 15:00:00","18","grottaglie","11.7","1","34.85","1","0.0","1","null","6","null","6","null","6","1010.79","1","40.53774","17.423897"],
    [497,"2024-01-21 16:00:00","18","grottaglie","11.47","1","33.65","1","0.0","1","null","6","null","6","null","6","1011.44","1","40.53774","17.423897"],
    [498,"2024-01-21 17:00:00","18","grottaglie","10.33","1","37.52","1","0.0","1","null","6","null","6","null","6","1012.08","1","40.53774","17.423897"],
    [499,"2024-01-21 18:00:00","18","grottaglie","7.54","1","47.92","1","0.0","1","null","6","null","6","null","6","1012.62","1","40.53774","17.423897"],
    [500,"2024-01-21 19:00:00","18","grottaglie","6.14","1","51.61","1","0.0","1","null","6","null","6","null","6","1013.47","1","40.53774","17.423897"],
    [501,"2024-01-21 20:00:00","18","grottaglie","5.52","1","52.7","1","0.0","1","null","6","null","6","null","6","1014.08","1","40.53774","17.423897"],
    [502,"2024-01-21 21:00:00","18","grottaglie","5.79","1","53.96","1","0.0","1","null","6","null","6","null","6","1014.23","1","40.53774","17.423897"],
    [503,"2024-01-21 22:00:00","18","grottaglie","5.65","1","53.14","1","0.0","1","null","6","null","6","null","6","1014.59","1","40.53774","17.423897"],
    [504,"2024-01-21 23:00:00","18","grottaglie","6.2","1","47.35","1","0.0","1","null","6","null","6","null","6","1014.98","1","40.53774","17.423897"],
    [505,"2024-01-22 00:00:00","18","grottaglie","6.26","1","48.74","1","0.0","1","null","6","null","6","null","6","1014.94","1","40.53774","17.423897"],
    [506,"2024-01-22 01:00:00","18","grottaglie","6.09","1","51.86","1","0.0","1","null","6","null","6","null","6","1014.91","1","40.53774","17.423897"],
    [507,"2024-01-22 02:00:00","18","grottaglie","5.39","1","56.56","1","0.0","1","null","6","null","6","null","6","1015.23","1","40.53774","17.423897"],
    [508,"2024-01-22 03:00:00","18","grottaglie","4.79","1","61.24","1","0.0","1","null","6","null","6","null","6","1015.41","1","40.53774","17.423897"],
    [509,"2024-01-22 04:00:00","18","grottaglie","4.74","1","62.51","1","0.0","1","null","6","null","6","null","6","1015.52","1","40.53774","17.423897"],
    [510,"2024-01-22 05:00:00","18","grottaglie","4.6","1","63.66","1","0.0","1","null","6","null","6","null","6","1015.7","1","40.53774","17.423897"],
    [511,"2024-01-22 06:00:00","18","grottaglie","4.8","1","63.8","1","0.0","1","null","6","null","6","null","6","1015.95","1","40.53774","17.423897"],
    [512,"2024-01-22 07:00:00","18","grottaglie","4.65","1","67.53","1","0.0","1","null","6","null","6","null","6","1016.11","1","40.53774","17.423897"],
    [513,"2024-01-22 08:00:00","18","grottaglie","4.41","1","69.81","1","0.0","1","null","6","null","6","null","6","1016.45","1","40.53774","17.423897"],
    [514,"2024-01-22 09:00:00","18","grottaglie","5.79","1","64.92","1","0.0","1","null","6","null","6","null","6","1016.89","1","40.53774","17.423897"],
    [515,"2024-01-22 10:00:00","18","grottaglie","8.48","1","55.71","1","0.0","1","null","6","null","6","null","6","1017.24","1","40.53774","17.423897"],
    [516,"2024-01-22 11:00:00","18","grottaglie","10.72","1","51.19","1","0.0","1","null","6","null","6","null","6","1017.29","1","40.53774","17.423897"],
    [517,"2024-01-22 12:00:00","18","grottaglie","12.05","1","39.12","1","0.0","1","null","6","null","6","null","6","1016.6","1","40.53774","17.423897"],
    [518,"2024-01-22 13:00:00","18","grottaglie","13.77","1","36.07","1","0.0","1","null","6","null","6","null","6","1016.22","1","40.53774","17.423897"],
    [519,"2024-01-22 14:00:00","18","grottaglie","14.52","1","37.48","1","0.0","1","null","6","null","6","null","6","1015.84","1","40.53774","17.423897"],
    [520,"2024-01-22 15:00:00","18","grottaglie","14.65","1","38.57","1","0.0","1","null","6","null","6","null","6","1015.51","1","40.53774","17.423897"],
    [521,"2024-01-22 16:00:00","18","grottaglie","14.27","1","41.18","1","0.0","1","null","6","null","6","null","6","1015.28","1","40.53774","17.423897"],
    [522,"2024-01-22 17:00:00","18","grottaglie","12.38","1","48.2","1","0.0","1","null","6","null","6","null","6","1014.83","1","40.53774","17.423897"],
    [523,"2024-01-22 18:00:00","18","grottaglie","9.21","1","61.64","1","0.0","1","null","6","null","6","null","6","1014.58","1","40.53774","17.423897"],
    [524,"2024-01-22 19:00:00","18","grottaglie","8.03","1","65.82","1","0.0","1","null","6","null","6","null","6","1014.7","1","40.53774","17.423897"],
    [525,"2024-01-22 20:00:00","18","grottaglie","7.21","1","64.66","1","0.0","1","null","6","null","6","null","6","1014.73","1","40.53774","17.423897"],
    [526,"2024-01-22 21:00:00","18","grottaglie","5.0","1","75.08","1","0.0","1","null","6","null","6","null","6","1014.72","1","40.53774","17.423897"],
    [527,"2024-01-22 22:00:00","18","grottaglie","4.45","1","80.29","1","0.0","1","null","6","null","6","null","6","1014.53","1","40.53774","17.423897"],
    [528,"2024-01-22 23:00:00","18","grottaglie","4.38","1","80.29","1","0.0","1","null","6","null","6","null","6","1014.33","1","40.53774","17.423897"],
    [529,"2024-01-23 00:00:00","18","grottaglie","4.46","1","76.13","1","0.0","1","null","6","null","6","null","6","1013.92","1","40.53774","17.423897"],
    [530,"2024-01-23 01:00:00","18","grottaglie","5.49","1","67.29","1","0.0","1","null","6","null","6","null","6","1013.43","1","40.53774","17.423897"],
    [531,"2024-01-23 02:00:00","18","grottaglie","6.47","1","58.4","1","0.0","1","null","6","null","6","null","6","1012.7","1","40.53774","17.423897"],
    [532,"2024-01-23 03:00:00","18","grottaglie","5.98","1","62.43","1","0.0","1","null","6","null","6","null","6","1012.18","1","40.53774","17.423897"],
    [533,"2024-01-23 04:00:00","18","grottaglie","4.15","1","73.3","1","0.0","1","null","6","null","6","null","6","1011.69","1","40.53774","17.423897"],
    [534,"2024-01-23 05:00:00","18","grottaglie","5.22","1","75.06","1","0.0","1","null","6","null","6","null","6","1011.44","1","40.53774","17.423897"],
    [535,"2024-01-23 06:00:00","18","grottaglie","4.74","1","67.65","1","0.0","1","null","6","null","6","null","6","1011.57","1","40.53774","17.423897"],
    [536,"2024-01-23 07:00:00","18","grottaglie","6.42","1","53.29","1","0.0","1","null","6","null","6","null","6","1011.52","1","40.53774","17.423897"],
    [537,"2024-01-23 08:00:00","18","grottaglie","6.32","1","52.74","1","0.0","1","null","6","null","6","null","6","1011.58","1","40.53774","17.423897"],
    [538,"2024-01-23 09:00:00","18","grottaglie","5.81","1","56.62","1","0.0","1","null","6","null","6","null","6","1011.57","1","40.53774","17.423897"],
    [539,"2024-01-23 10:00:00","18","grottaglie","8.65","1","54.08","1","0.0","1","null","6","null","6","null","6","1011.71","1","40.53774","17.423897"],
    [540,"2024-01-23 11:00:00","18","grottaglie","11.65","1","43.35","1","0.0","1","null","6","null","6","null","6","1011.42","1","40.53774","17.423897"],
    [541,"2024-01-23 12:00:00","18","grottaglie","12.16","1","43.56","1","0.0","1","null","6","null","6","null","6","1010.99","1","40.53774","17.423897"],
    [542,"2024-01-23 13:00:00","18","grottaglie","12.1","1","50.71","1","0.0","1","null","6","null","6","null","6","1010.5","1","40.53774","17.423897"],
    [543,"2024-01-23 14:00:00","18","grottaglie","10.89","1","60.14","1","0.0","1","null","6","null","6","null","6","1010.42","1","40.53774","17.423897"],
    [544,"2024-01-23 15:00:00","18","grottaglie","10.49","1","67.26","1","0.0","1","null","6","null","6","null","6","1010.59","1","40.53774","17.423897"],
    [545,"2024-01-23 16:00:00","18","grottaglie","9.31","1","77.24","1","0.0","1","null","6","null","6","null","6","1010.96","1","40.53774","17.423897"],
    [546,"2024-01-23 17:00:00","18","grottaglie","8.69","1","79.61","1","0.0","1","null","6","null","6","null","6","1011.22","1","40.53774","17.423897"],
    [547,"2024-01-23 18:00:00","18","grottaglie","8.61","1","76.32","1","0.0","1","null","6","null","6","null","6","1011.62","1","40.53774","17.423897"],
    [548,"2024-01-23 19:00:00","18","grottaglie","8.39","1","71.77","1","0.0","1","null","6","null","6","null","6","1011.91","1","40.53774","17.423897"],
    [549,"2024-01-23 20:00:00","18","grottaglie","8.46","1","70.65","1","0.0","1","null","6","null","6","null","6","1012.44","1","40.53774","17.423897"],
    [550,"2024-01-23 21:00:00","18","grottaglie","8.35","1","67.21","1","0.0","1","null","6","null","6","null","6","1012.88","1","40.53774","17.423897"],
    [551,"2024-01-23 22:00:00","18","grottaglie","8.51","1","67.13","1","0.0","1","null","6","null","6","null","6","1012.98","1","40.53774","17.423897"],
    [552,"2024-01-23 23:00:00","18","grottaglie","9.48","1","66.27","1","0.0","1","null","6","null","6","null","6","1012.88","1","40.53774","17.423897"],
    [553,"2024-01-24 00:00:00","18","grottaglie","9.81","1","57.83","1","0.0","1","null","6","null","6","null","6","1013.0","1","40.53774","17.423897"],
    [554,"2024-01-24 01:00:00","18","grottaglie","9.72","1","50.62","1","0.0","1","null","6","null","6","null","6","1012.99","1","40.53774","17.423897"],
    [555,"2024-01-24 02:00:00","18","grottaglie","8.78","1","53.13","1","0.0","1","null","6","null","6","null","6","1013.26","1","40.53774","17.423897"],
    [556,"2024-01-24 03:00:00","18","grottaglie","8.98","1","50.24","1","0.0","1","null","6","null","6","null","6","1013.31","1","40.53774","17.423897"],
    [557,"2024-01-24 04:00:00","18","grottaglie","8.56","1","50.23","1","0.0","1","null","6","null","6","null","6","1013.31","1","40.53774","17.423897"],
    [558,"2024-01-24 05:00:00","18","grottaglie","7.8","1","50.91","1","0.0","1","null","6","null","6","null","6","1013.46","1","40.53774","17.423897"],
    [559,"2024-01-24 06:00:00","18","grottaglie","7.44","1","50.49","1","0.0","1","null","6","null","6","null","6","1013.85","1","40.53774","17.423897"],
    [560,"2024-01-24 07:00:00","18","grottaglie","7.17","1","52.37","1","0.0","1","null","6","null","6","null","6","1014.19","1","40.53774","17.423897"],
    [561,"2024-01-24 08:00:00","18","grottaglie","7.21","1","54.85","1","0.0","1","null","6","null","6","null","6","1014.31","1","40.53774","17.423897"],
    [562,"2024-01-24 09:00:00","18","grottaglie","7.88","1","56.34","1","0.0","1","null","6","null","6","null","6","1014.66","1","40.53774","17.423897"],
    [563,"2024-01-24 10:00:00","18","grottaglie","10.58","1","48.15","1","0.0","1","null","6","null","6","null","6","1015.04","1","40.53774","17.423897"],
    [564,"2024-01-24 11:00:00","18","grottaglie","12.33","1","42.34","1","0.0","1","null","6","null","6","null","6","1014.95","1","40.53774","17.423897"],
    [565,"2024-01-24 12:00:00","18","grottaglie","13.08","1","33.3","1","0.0","1","null","6","null","6","null","6","1013.99","1","40.53774","17.423897"],
    [566,"2024-01-24 13:00:00","18","grottaglie","14.25","1","34.03","1","0.0","1","null","6","null","6","null","6","1013.34","1","40.53774","17.423897"],
    [567,"2024-01-24 14:00:00","18","grottaglie","15.12","1","35.39","1","0.0","1","null","6","null","6","null","6","1013.35","1","40.53774","17.423897"],
    [568,"2024-01-24 15:00:00","18","grottaglie","15.3","1","33.29","1","0.0","1","null","6","null","6","null","6","1013.57","1","40.53774","17.423897"],
    [569,"2024-01-24 16:00:00","18","grottaglie","15.34","1","31.62","1","0.0","1","null","6","null","6","null","6","1013.14","1","40.53774","17.423897"],
    [570,"2024-01-24 17:00:00","18","grottaglie","14.2","1","34.59","1","0.0","1","null","6","null","6","null","6","1012.7","1","40.53774","17.423897"],
    [571,"2024-01-24 18:00:00","18","grottaglie","11.57","1","39.3","1","0.0","1","null","6","null","6","null","6","1012.09","1","40.53774","17.423897"],
    [572,"2024-01-24 19:00:00","18","grottaglie","10.4","1","42.05","1","0.0","1","null","6","null","6","null","6","1012.42","1","40.53774","17.423897"],
    [573,"2024-01-24 20:00:00","18","grottaglie","9.81","1","39.62","1","0.0","1","null","6","null","6","null","6","1012.25","1","40.53774","17.423897"],
    [574,"2024-01-24 21:00:00","18","grottaglie","9.71","1","36.64","1","0.0","1","null","6","null","6","null","6","1012.02","1","40.53774","17.423897"],
    [575,"2024-01-24 22:00:00","18","grottaglie","7.49","1","47.42","1","0.0","1","null","6","null","6","null","6","1012.18","1","40.53774","17.423897"],
    [576,"2024-01-24 23:00:00","18","grottaglie","7.77","1","45.2","1","0.0","1","null","6","null","6","null","6","1011.78","1","40.53774","17.423897"],
    [577,"2024-01-25 00:00:00","18","grottaglie","9.34","1","42.83","1","0.0","1","null","6","null","6","null","6","1011.16","1","40.53774","17.423897"],
    [578,"2024-01-25 01:00:00","18","grottaglie","8.97","1","47.83","1","0.0","1","null","6","null","6","null","6","1010.36","1","40.53774","17.423897"],
    [579,"2024-01-25 02:00:00","18","grottaglie","7.84","1","54.69","1","0.0","1","null","6","null","6","null","6","1009.64","1","40.53774","17.423897"],
    [580,"2024-01-25 03:00:00","18","grottaglie","6.35","1","60.5","1","0.0","1","null","6","null","6","null","6","1009.69","1","40.53774","17.423897"],
    [581,"2024-01-25 04:00:00","18","grottaglie","6.6","1","61.95","1","0.0","1","null","6","null","6","null","6","1008.95","1","40.53774","17.423897"],
    [582,"2024-01-25 05:00:00","18","grottaglie","7.1","1","59.91","1","0.0","1","null","6","null","6","null","6","1008.83","1","40.53774","17.423897"],
    [583,"2024-01-25 06:00:00","18","grottaglie","6.39","1","62.61","1","0.0","1","null","6","null","6","null","6","1008.84","1","40.53774","17.423897"],
    [584,"2024-01-25 07:00:00","18","grottaglie","6.36","1","62.16","1","0.0","1","null","6","null","6","null","6","1009.22","1","40.53774","17.423897"],
    [585,"2024-01-25 08:00:00","18","grottaglie","7.16","1","56.73","1","0.0","1","null","6","null","6","null","6","1009.0","1","40.53774","17.423897"],
    [586,"2024-01-25 09:00:00","18","grottaglie","7.18","1","62.95","1","0.0","1","null","6","null","6","null","6","1008.99","1","40.53774","17.423897"],
    [587,"2024-01-25 10:00:00","18","grottaglie","10.3","1","52.04","1","0.0","1","null","6","null","6","null","6","1008.57","1","40.53774","17.423897"],
    [588,"2024-01-25 11:00:00","18","grottaglie","13.09","1","46.54","1","0.0","1","null","6","null","6","null","6","1008.44","1","40.53774","17.423897"],
    [589,"2024-01-25 12:00:00","18","grottaglie","15.0","1","43.25","1","0.0","1","null","6","null","6","null","6","1007.5","1","40.53774","17.423897"],
    [590,"2024-01-25 13:00:00","18","grottaglie","17.73","1","32.79","1","0.0","1","null","6","null","6","null","6","1007.32","1","40.53774","17.423897"],
    [591,"2024-01-25 14:00:00","18","grottaglie","18.42","1","26.78","1","0.0","1","null","6","null","6","null","6","1007.41","1","40.53774","17.423897"],
    [592,"2024-01-25 15:00:00","18","grottaglie","17.04","1","42.97","1","0.0","1","null","6","null","6","null","6","1008.13","1","40.53774","17.423897"],
    [593,"2024-01-25 16:00:00","18","grottaglie","15.46","1","47.26","1","0.0","1","null","6","null","6","null","6","1008.57","1","40.53774","17.423897"],
    [594,"2024-01-25 17:00:00","18","grottaglie","14.1","1","52.23","1","0.0","1","null","6","null","6","null","6","1008.67","1","40.53774","17.423897"],
    [595,"2024-01-25 18:00:00","18","grottaglie","11.12","1","65.86","1","0.0","1","null","6","null","6","null","6","1008.68","1","40.53774","17.423897"],
    [596,"2024-01-25 19:00:00","18","grottaglie","9.74","1","70.44","1","0.0","1","null","6","null","6","null","6","1008.91","1","40.53774","17.423897"],
    [597,"2024-01-25 20:00:00","18","grottaglie","9.47","1","65.05","1","0.0","1","null","6","null","6","null","6","1009.16","1","40.53774","17.423897"],
    [598,"2024-01-25 21:00:00","18","grottaglie","10.29","1","61.04","1","0.0","1","null","6","null","6","null","6","1009.39","1","40.53774","17.423897"],
    [599,"2024-01-25 22:00:00","18","grottaglie","9.76","1","64.62","1","0.0","1","null","6","null","6","null","6","1009.34","1","40.53774","17.423897"],
    [600,"2024-01-25 23:00:00","18","grottaglie","9.65","1","68.46","1","0.0","1","null","6","null","6","null","6","1009.41","1","40.53774","17.423897"],
    [601,"2024-01-26 00:00:00","18","grottaglie","9.04","1","76.36","1","0.0","1","null","6","null","6","null","6","1009.67","1","40.53774","17.423897"],
    [602,"2024-01-26 01:00:00","18","grottaglie","8.49","1","75.37","1","0.0","1","null","6","null","6","null","6","1009.74","1","40.53774","17.423897"],
    [603,"2024-01-26 02:00:00","18","grottaglie","8.96","1","73.34","1","0.0","1","null","6","null","6","null","6","1009.58","1","40.53774","17.423897"],
    [604,"2024-01-26 03:00:00","18","grottaglie","9.28","1","72.13","1","0.0","1","null","6","null","6","null","6","1009.73","1","40.53774","17.423897"],
    [605,"2024-01-26 04:00:00","18","grottaglie","8.95","1","78.61","1","0.0","1","null","6","null","6","null","6","1009.86","1","40.53774","17.423897"],
    [606,"2024-01-26 05:00:00","18","grottaglie","9.09","1","78.72","1","0.0","1","null","6","null","6","null","6","1009.81","1","40.53774","17.423897"],
    [607,"2024-01-26 06:00:00","18","grottaglie","8.15","1","81.9","1","0.0","1","null","6","null","6","null","6","1009.91","1","40.53774","17.423897"],
    [608,"2024-01-26 07:00:00","18","grottaglie","8.03","1","84.62","1","0.0","1","null","6","null","6","null","6","1010.38","1","40.53774","17.423897"],
    [609,"2024-01-26 08:00:00","18","grottaglie","7.49","1","85.04","1","0.0","1","null","6","null","6","null","6","1010.78","1","40.53774","17.423897"],
    [610,"2024-01-26 09:00:00","18","grottaglie","7.67","1","86.29","1","0.0","1","null","6","null","6","null","6","1011.3","1","40.53774","17.423897"],
    [611,"2024-01-26 10:00:00","18","grottaglie","9.31","1","80.46","1","0.0","1","null","6","null","6","null","6","1011.43","1","40.53774","17.423897"],
    [612,"2024-01-26 11:00:00","18","grottaglie","12.16","1","66.14","1","0.0","1","null","6","null","6","null","6","1011.51","1","40.53774","17.423897"],
    [613,"2024-01-26 12:00:00","18","grottaglie","14.4","1","50.66","1","0.0","1","null","6","null","6","null","6","1010.65","1","40.53774","17.423897"],
    [614,"2024-01-26 13:00:00","18","grottaglie","17.78","1","37.85","1","0.0","1","null","6","null","6","null","6","1010.06","1","40.53774","17.423897"],
    [615,"2024-01-26 14:00:00","18","grottaglie","19.46","1","22.22","1","0.0","1","null","6","null","6","null","6","1009.69","1","40.53774","17.423897"],
    [616,"2024-01-26 15:00:00","18","grottaglie","19.55","1","28.1","1","0.0","1","null","6","null","6","null","6","1009.57","1","40.53774","17.423897"],
    [617,"2024-01-26 16:00:00","18","grottaglie","18.1","1","35.73","1","0.0","1","null","6","null","6","null","6","1009.59","1","40.53774","17.423897"],
    [618,"2024-01-26 17:00:00","18","grottaglie","17.02","1","38.05","1","0.0","1","null","6","null","6","null","6","1009.59","1","40.53774","17.423897"],
    [619,"2024-01-26 18:00:00","18","grottaglie","13.9","1","43.73","1","0.0","1","null","6","null","6","null","6","1009.67","1","40.53774","17.423897"],
    [620,"2024-01-26 19:00:00","18","grottaglie","11.04","1","52.83","1","0.0","1","null","6","null","6","null","6","1010.08","1","40.53774","17.423897"],
    [621,"2024-01-26 20:00:00","18","grottaglie","9.02","1","61.21","1","0.0","1","null","6","null","6","null","6","1010.33","1","40.53774","17.423897"],
    [622,"2024-01-26 21:00:00","18","grottaglie","9.66","1","53.39","1","0.0","1","null","6","null","6","null","6","1010.18","1","40.53774","17.423897"],
    [623,"2024-01-26 22:00:00","18","grottaglie","9.11","1","51.02","1","0.0","1","null","6","null","6","null","6","1010.21","1","40.53774","17.423897"],
    [624,"2024-01-26 23:00:00","18","grottaglie","9.0","1","46.65","1","0.0","1","null","6","null","6","null","6","1010.08","1","40.53774","17.423897"],
    [625,"2024-01-27 00:00:00","18","grottaglie","9.02","1","42.12","1","0.0","1","null","6","null","6","null","6","1010.1","1","40.53774","17.423897"],
    [626,"2024-01-27 01:00:00","18","grottaglie","10.67","1","28.86","1","0.0","1","null","6","null","6","null","6","1009.82","1","40.53774","17.423897"],
    [627,"2024-01-27 02:00:00","18","grottaglie","8.64","1","41.46","1","0.0","1","null","6","null","6","null","6","1009.7","1","40.53774","17.423897"],
    [628,"2024-01-27 03:00:00","18","grottaglie","7.8","1","44.66","1","0.0","1","null","6","null","6","null","6","1009.88","1","40.53774","17.423897"],
    [629,"2024-01-27 04:00:00","18","grottaglie","7.25","1","45.87","1","0.0","1","null","6","null","6","null","6","1009.91","1","40.53774","17.423897"],
    [630,"2024-01-27 05:00:00","18","grottaglie","8.08","1","46.79","1","0.0","1","null","6","null","6","null","6","1009.71","1","40.53774","17.423897"],
    [631,"2024-01-27 06:00:00","18","grottaglie","7.4","1","57.83","1","0.0","1","null","6","null","6","null","6","1009.86","1","40.53774","17.423897"],
    [632,"2024-01-27 07:00:00","18","grottaglie","8.01","1","72.6","1","0.0","1","null","6","null","6","null","6","1010.79","1","40.53774","17.423897"],
    [633,"2024-01-27 08:00:00","18","grottaglie","9.82","1","75.52","1","0.0","1","null","6","null","6","null","6","1010.86","1","40.53774","17.423897"],
    [634,"2024-01-27 09:00:00","18","grottaglie","11.16","1","67.69","1","0.0","1","null","6","null","6","null","6","1011.02","1","40.53774","17.423897"],
    [635,"2024-01-27 10:00:00","18","grottaglie","11.49","1","67.81","1","0.0","1","null","6","null","6","null","6","1010.84","1","40.53774","17.423897"],
    [636,"2024-01-27 11:00:00","18","grottaglie","13.44","1","61.53","1","0.0","1","null","6","null","6","null","6","1011.83","1","40.53774","17.423897"],
    [637,"2024-01-27 12:00:00","18","grottaglie","13.87","1","64.12","1","0.0","1","null","6","null","6","null","6","1011.78","1","40.53774","17.423897"],
    [638,"2024-01-27 13:00:00","18","grottaglie","15.06","1","57.46","1","0.0","1","null","6","null","6","null","6","1011.59","1","40.53774","17.423897"],
    [639,"2024-01-27 14:00:00","18","grottaglie","15.85","1","53.96","1","0.0","1","null","6","null","6","null","6","1011.22","1","40.53774","17.423897"],
    [640,"2024-01-27 15:00:00","18","grottaglie","15.68","1","54.8","1","0.0","1","null","6","null","6","null","6","1011.18","1","40.53774","17.423897"],
    [641,"2024-01-27 16:00:00","18","grottaglie","14.69","1","56.04","1","0.0","1","null","6","null","6","null","6","1010.64","1","40.53774","17.423897"],
    [642,"2024-01-27 17:00:00","18","grottaglie","12.92","1","62.18","1","0.0","1","null","6","null","6","null","6","1010.82","1","40.53774","17.423897"],
    [643,"2024-01-27 18:00:00","18","grottaglie","11.46","1","66.32","1","0.0","1","null","6","null","6","null","6","1011.95","1","40.53774","17.423897"],
    [644,"2024-01-27 19:00:00","18","grottaglie","10.65","1","51.92","1","0.0","1","null","6","null","6","null","6","1012.85","1","40.53774","17.423897"],
    [645,"2024-01-27 20:00:00","18","grottaglie","10.0","1","51.7","1","0.0","1","null","6","null","6","null","6","1013.29","1","40.53774","17.423897"],
    [646,"2024-01-27 21:00:00","18","grottaglie","9.45","1","63.73","1","0.0","1","null","6","null","6","null","6","1013.9","1","40.53774","17.423897"],
    [647,"2024-01-27 22:00:00","18","grottaglie","9.69","1","73.97","1","0.0","1","null","6","null","6","null","6","1014.29","1","40.53774","17.423897"],
    [648,"2024-01-27 23:00:00","18","grottaglie","9.31","1","76.95","1","0.0","1","null","6","null","6","null","6","1014.52","1","40.53774","17.423897"],
    [649,"2024-01-28 00:00:00","18","grottaglie","9.01","1","79.4","1","0.0","1","null","6","null","6","null","6","1014.92","1","40.53774","17.423897"],
    [650,"2024-01-28 01:00:00","18","grottaglie","8.54","1","80.73","1","0.0","1","null","6","null","6","null","6","1015.13","1","40.53774","17.423897"],
    [651,"2024-01-28 02:00:00","18","grottaglie","7.43","1","81.26","1","0.0","1","null","6","null","6","null","6","1015.42","1","40.53774","17.423897"],
    [652,"2024-01-28 03:00:00","18","grottaglie","6.33","1","79.21","1","0.0","1","null","6","null","6","null","6","1015.57","1","40.53774","17.423897"],
    [653,"2024-01-28 04:00:00","18","grottaglie","5.34","1","68.77","1","0.0","1","null","6","null","6","null","6","1015.67","1","40.53774","17.423897"],
    [654,"2024-01-28 05:00:00","18","grottaglie","4.22","1","65.61","1","0.0","1","null","6","null","6","null","6","1015.93","1","40.53774","17.423897"],
    [655,"2024-01-28 06:00:00","18","grottaglie","5.26","1","56.7","1","0.0","1","null","6","null","6","null","6","1016.21","1","40.53774","17.423897"],
    [656,"2024-01-28 07:00:00","18","grottaglie","7.31","1","46.73","1","0.0","1","null","6","null","6","null","6","1016.62","1","40.53774","17.423897"],
    [657,"2024-01-28 08:00:00","18","grottaglie","7.95","1","45.61","1","0.0","1","null","6","null","6","null","6","1017.08","1","40.53774","17.423897"],
    [658,"2024-01-28 09:00:00","18","grottaglie","8.92","1","43.27","1","0.0","1","null","6","null","6","null","6","1017.36","1","40.53774","17.423897"],
    [659,"2024-01-28 10:00:00","18","grottaglie","9.71","1","41.48","1","0.0","1","null","6","null","6","null","6","1017.71","1","40.53774","17.423897"],
    [660,"2024-01-28 11:00:00","18","grottaglie","10.82","1","38.54","1","0.0","1","null","6","null","6","null","6","1018.03","1","40.53774","17.423897"],
    [661,"2024-01-28 12:00:00","18","grottaglie","11.0","1","37.19","1","0.0","1","null","6","null","6","null","6","1017.9","1","40.53774","17.423897"],
    [662,"2024-01-28 13:00:00","18","grottaglie","11.48","1","37.15","1","0.0","1","null","6","null","6","null","6","1017.64","1","40.53774","17.423897"],
    [663,"2024-01-28 14:00:00","18","grottaglie","11.16","1","38.09","1","0.0","1","null","6","null","6","null","6","1017.48","1","40.53774","17.423897"],
    [664,"2024-01-28 15:00:00","18","grottaglie","11.76","1","36.77","1","0.0","1","null","6","null","6","null","6","1017.51","1","40.53774","17.423897"],
    [665,"2024-01-28 16:00:00","18","grottaglie","9.94","1","41.4","1","0.0","1","null","6","null","6","null","6","1017.46","1","40.53774","17.423897"],
    [666,"2024-01-28 17:00:00","18","grottaglie","9.25","1","44.08","1","0.0","1","null","6","null","6","null","6","1017.57","1","40.53774","17.423897"],
    [667,"2024-01-28 18:00:00","18","grottaglie","8.06","1","49.84","1","0.0","1","null","6","null","6","null","6","1018.08","1","40.53774","17.423897"],
    [668,"2024-01-28 19:00:00","18","grottaglie","7.4","1","52.17","1","0.0","1","null","6","null","6","null","6","1018.34","1","40.53774","17.423897"],
    [669,"2024-01-28 20:00:00","18","grottaglie","7.04","1","55.52","1","0.0","1","null","6","null","6","null","6","1018.59","1","40.53774","17.423897"],
    [670,"2024-01-28 21:00:00","18","grottaglie","6.78","1","58.1","1","0.0","1","null","6","null","6","null","6","1018.71","1","40.53774","17.423897"],
    [671,"2024-01-28 22:00:00","18","grottaglie","7.24","1","54.8","1","0.0","1","null","6","null","6","null","6","1018.63","1","40.53774","17.423897"],
    [672,"2024-01-28 23:00:00","18","grottaglie","5.09","1","60.38","1","0.0","1","null","6","null","6","null","6","1018.68","1","40.53774","17.423897"],
    [673,"2024-01-29 00:00:00","18","grottaglie","5.77","1","57.83","1","0.0","1","null","6","null","6","null","6","1018.7","1","40.53774","17.423897"],
    [674,"2024-01-29 01:00:00","18","grottaglie","6.4","1","55.4","1","0.0","1","null","6","null","6","null","6","1018.44","1","40.53774","17.423897"],
    [675,"2024-01-29 02:00:00","18","grottaglie","6.89","1","55.91","1","0.0","1","null","6","null","6","null","6","1018.56","1","40.53774","17.423897"],
    [676,"2024-01-29 03:00:00","18","grottaglie","6.41","1","58.56","1","0.0","1","null","6","null","6","null","6","1018.64","1","40.53774","17.423897"],
    [677,"2024-01-29 04:00:00","18","grottaglie","5.85","1","59.32","1","0.0","1","null","6","null","6","null","6","1018.55","1","40.53774","17.423897"],
    [678,"2024-01-29 05:00:00","18","grottaglie","5.58","1","61.45","1","0.0","1","null","6","null","6","null","6","1018.68","1","40.53774","17.423897"],
    [679,"2024-01-29 06:00:00","18","grottaglie","6.18","1","60.7","1","0.0","1","null","6","null","6","null","6","1018.82","1","40.53774","17.423897"],
    [680,"2024-01-29 07:00:00","18","grottaglie","6.33","1","60.92","1","0.0","1","null","6","null","6","null","6","1019.14","1","40.53774","17.423897"],
    [681,"2024-01-29 08:00:00","18","grottaglie","6.56","1","60.91","1","0.0","1","null","6","null","6","null","6","1019.41","1","40.53774","17.423897"],
    [682,"2024-01-29 09:00:00","18","grottaglie","7.18","1","61.19","1","0.0","1","null","6","null","6","null","6","1019.55","1","40.53774","17.423897"],
    [683,"2024-01-29 10:00:00","18","grottaglie","7.95","1","62.43","1","0.0","1","null","6","null","6","null","6","1019.88","1","40.53774","17.423897"],
    [684,"2024-01-29 11:00:00","18","grottaglie","9.22","1","58.07","1","0.0","1","null","6","null","6","null","6","1020.08","1","40.53774","17.423897"],
    [685,"2024-01-29 12:00:00","18","grottaglie","10.26","1","49.57","1","0.0","1","null","6","null","6","null","6","1019.68","1","40.53774","17.423897"],
    [686,"2024-01-29 13:00:00","18","grottaglie","10.54","1","45.74","1","0.0","1","null","6","null","6","null","6","1019.2","1","40.53774","17.423897"],
    [687,"2024-01-29 14:00:00","18","grottaglie","10.67","1","45.3","1","0.0","1","null","6","null","6","null","6","1018.82","1","40.53774","17.423897"],
    [688,"2024-01-29 15:00:00","18","grottaglie","10.95","1","45.2","1","0.0","1","null","6","null","6","null","6","1018.72","1","40.53774","17.423897"],
    [689,"2024-01-29 16:00:00","18","grottaglie","11.54","1","44.12","1","0.0","1","null","6","null","6","null","6","1018.53","1","40.53774","17.423897"],
    [690,"2024-01-29 17:00:00","18","grottaglie","10.72","1","46.83","1","0.0","1","null","6","null","6","null","6","1018.45","1","40.53774","17.423897"],
    [691,"2024-01-29 18:00:00","18","grottaglie","8.23","1","54.04","1","0.0","1","null","6","null","6","null","6","1018.52","1","40.53774","17.423897"],
    [692,"2024-01-29 19:00:00","18","grottaglie","6.84","1","59.85","1","0.0","1","null","6","null","6","null","6","1018.94","1","40.53774","17.423897"],
    [693,"2024-01-29 20:00:00","18","grottaglie","5.52","1","63.15","1","0.0","1","null","6","null","6","null","6","1019.36","1","40.53774","17.423897"],
    [694,"2024-01-29 21:00:00","18","grottaglie","5.03","1","68.52","1","0.0","1","null","6","null","6","null","6","1019.7","1","40.53774","17.423897"],
    [695,"2024-01-29 22:00:00","18","grottaglie","5.08","1","69.74","1","0.0","1","null","6","null","6","null","6","1019.85","1","40.53774","17.423897"],
    [696,"2024-01-29 23:00:00","18","grottaglie","5.76","1","67.54","1","0.0","1","null","6","null","6","null","6","1019.97","1","40.53774","17.423897"],
    [697,"2024-01-30 00:00:00","18","grottaglie","5.84","1","68.2","1","0.0","1","null","6","null","6","null","6","1020.09","1","40.53774","17.423897"],
    [698,"2024-01-30 01:00:00","18","grottaglie","5.98","1","69.06","1","0.0","1","null","6","null","6","null","6","1019.93","1","40.53774","17.423897"],
    [699,"2024-01-30 02:00:00","18","grottaglie","5.88","1","66.44","1","0.0","1","null","6","null","6","null","6","1019.85","1","40.53774","17.423897"],
    [700,"2024-01-30 03:00:00","18","grottaglie","5.54","1","63.98","1","0.0","1","null","6","null","6","null","6","1019.77","1","40.53774","17.423897"],
    [701,"2024-01-30 04:00:00","18","grottaglie","5.2","1","64.66","1","0.0","1","null","6","null","6","null","6","1019.56","1","40.53774","17.423897"],
    [702,"2024-01-30 05:00:00","18","grottaglie","4.66","1","65.09","1","0.0","1","null","6","null","6","null","6","1019.49","1","40.53774","17.423897"],
    [703,"2024-01-30 06:00:00","18","grottaglie","4.93","1","63.24","1","0.0","1","null","6","null","6","null","6","1019.52","1","40.53774","17.423897"],
    [704,"2024-01-30 07:00:00","18","grottaglie","5.07","1","61.89","1","0.0","1","null","6","null","6","null","6","1019.78","1","40.53774","17.423897"],
    [705,"2024-01-30 08:00:00","18","grottaglie","4.41","1","63.44","1","0.0","1","null","6","null","6","null","6","1020.21","1","40.53774","17.423897"],
    [706,"2024-01-30 09:00:00","18","grottaglie","5.22","1","62.58","1","0.0","1","null","6","null","6","null","6","1020.61","1","40.53774","17.423897"],
    [707,"2024-01-30 10:00:00","18","grottaglie","8.39","1","47.54","1","0.0","1","null","6","null","6","null","6","1020.59","1","40.53774","17.423897"],
    [708,"2024-01-30 11:00:00","18","grottaglie","9.71","1","43.12","1","0.0","1","null","6","null","6","null","6","1020.58","1","40.53774","17.423897"],
    [709,"2024-01-30 12:00:00","18","grottaglie","10.17","1","41.44","1","0.0","1","null","6","null","6","null","6","1019.93","1","40.53774","17.423897"],
    [710,"2024-01-30 13:00:00","18","grottaglie","11.2","1","39.29","1","0.0","1","null","6","null","6","null","6","1019.44","1","40.53774","17.423897"],
    [711,"2024-01-30 14:00:00","18","grottaglie","11.73","1","38.14","1","0.0","1","null","6","null","6","null","6","1019.29","1","40.53774","17.423897"],
    [712,"2024-01-30 15:00:00","18","grottaglie","11.73","1","37.33","1","0.0","1","null","6","null","6","null","6","1019.31","1","40.53774","17.423897"],
    [713,"2024-01-30 16:00:00","18","grottaglie","11.69","1","39.61","1","0.0","1","null","6","null","6","null","6","1019.42","1","40.53774","17.423897"],
    [714,"2024-01-30 17:00:00","18","grottaglie","10.86","1","41.4","1","0.0","1","null","6","null","6","null","6","1019.35","1","40.53774","17.423897"],
    [715,"2024-01-30 18:00:00","18","grottaglie","7.67","1","51.74","1","0.0","1","null","6","null","6","null","6","1019.32","1","40.53774","17.423897"],
    [716,"2024-01-30 19:00:00","18","grottaglie","6.77","1","55.24","1","0.0","1","null","6","null","6","null","6","1019.67","1","40.53774","17.423897"],
    [717,"2024-01-30 20:00:00","18","grottaglie","5.8","1","57.25","1","0.0","1","null","6","null","6","null","6","1019.82","1","40.53774","17.423897"],
    [718,"2024-01-30 21:00:00","18","grottaglie","4.82","1","59.92","1","0.0","1","null","6","null","6","null","6","1019.96","1","40.53774","17.423897"],
    [719,"2024-01-30 22:00:00","18","grottaglie","4.07","1","63.5","1","0.0","1","null","6","null","6","null","6","1020.04","1","40.53774","17.423897"],
    [720,"2024-01-30 23:00:00","18","grottaglie","3.7","1","68.4","1","0.0","1","null","6","null","6","null","6","1019.84","1","40.53774","17.423897"],
    [721,"2024-01-31 00:00:00","18","grottaglie","4.26","1","67.9","1","0.0","1","null","6","null","6","null","6","1019.74","1","40.53774","17.423897"],
    [722,"2024-01-31 01:00:00","18","grottaglie","3.58","1","70.17","1","0.0","1","null","6","null","6","null","6","1019.45","1","40.53774","17.423897"],
    [723,"2024-01-31 02:00:00","18","grottaglie","3.31","1","73.36","1","0.0","1","null","6","null","6","null","6","1019.29","1","40.53774","17.423897"],
    [724,"2024-01-31 03:00:00","18","grottaglie","2.58","1","76.12","1","0.0","1","null","6","null","6","null","6","1019.16","1","40.53774","17.423897"],
    [725,"2024-01-31 04:00:00","18","grottaglie","2.45","1","79.28","1","0.0","1","null","6","null","6","null","6","1018.97","1","40.53774","17.423897"],
    [726,"2024-01-31 05:00:00","18","grottaglie","4.36","1","80.3","1","0.0","1","null","6","null","6","null","6","1018.45","1","40.53774","17.423897"],
    [727,"2024-01-31 06:00:00","18","grottaglie","4.0","1","82.43","1","0.0","1","null","6","null","6","null","6","1018.43","1","40.53774","17.423897"],
    [728,"2024-01-31 07:00:00","18","grottaglie","4.25","1","83.33","1","0.0","1","null","6","null","6","null","6","1018.63","1","40.53774","17.423897"],
    [729,"2024-01-31 08:00:00","18","grottaglie","4.37","1","85.05","1","0.0","1","null","6","null","6","null","6","1018.9","1","40.53774","17.423897"],
    [730,"2024-01-31 09:00:00","18","grottaglie","5.62","1","83.23","1","0.0","1","null","6","null","6","null","6","1018.89","1","40.53774","17.423897"],
    [731,"2024-01-31 10:00:00","18","grottaglie","9.24","1","67.12","1","0.0","1","null","6","null","6","null","6","1018.51","1","40.53774","17.423897"],
    [732,"2024-01-31 11:00:00","18","grottaglie","11.11","1","59.46","1","0.0","1","null","6","null","6","null","6","1018.15","1","40.53774","17.423897"],
    [733,"2024-01-31 12:00:00","18","grottaglie","12.49","1","52.59","1","0.0","1","null","6","null","6","null","6","1017.39","1","40.53774","17.423897"],
    [734,"2024-01-31 13:00:00","18","grottaglie","13.99","1","46.16","1","0.0","1","null","6","null","6","null","6","1016.92","1","40.53774","17.423897"],
    [735,"2024-01-31 14:00:00","18","grottaglie","14.73","1","40.77","1","0.0","1","null","6","null","6","null","6","1016.68","1","40.53774","17.423897"],
    [736,"2024-01-31 15:00:00","18","grottaglie","14.9","1","41.01","1","0.0","1","null","6","null","6","null","6","1016.48","1","40.53774","17.423897"],
    [737,"2024-01-31 16:00:00","18","grottaglie","14.54","1","45.03","1","0.0","1","null","6","null","6","null","6","1016.5","1","40.53774","17.423897"],
    [738,"2024-01-31 17:00:00","18","grottaglie","13.04","1","52.38","1","0.0","1","null","6","null","6","null","6","1016.35","1","40.53774","17.423897"],
    [739,"2024-01-31 18:00:00","18","grottaglie","9.87","1","60.82","1","0.0","1","null","6","null","6","null","6","1016.28","1","40.53774","17.423897"],
    [740,"2024-01-31 19:00:00","18","grottaglie","8.46","1","71.82","1","0.0","1","null","6","null","6","null","6","1016.58","1","40.53774","17.423897"],
    [741,"2024-01-31 20:00:00","18","grottaglie","6.89","1","78.32","1","0.0","1","null","6","null","6","null","6","1016.24","1","40.53774","17.423897"],
    [742,"2024-01-31 21:00:00","18","grottaglie","6.78","1","79.31","1","0.0","1","null","6","null","6","null","6","1016.02","1","40.53774","17.423897"],
    [743,"2024-01-31 22:00:00","18","grottaglie","6.46","1","79.68","1","0.0","1","null","6","null","6","null","6","1015.91","1","40.53774","17.423897"],
    [744,"2024-01-31 23:00:00","18","grottaglie","5.44","1","81.92","1","0.0","1","null","6","null","6","null","6","1016.05","1","40.53774","17.423897"],
    [745,"2024-02-01 00:00:00","18","grottaglie","5.17","1","84.39","1","0.0","1","null","6","null","6","null","6","1015.93","1","40.53774","17.423897"],
    [746,"2024-02-01 01:00:00","18","grottaglie","5.19","1","84.54","1","0.0","1","null","6","null","6","null","6","1015.75","1","40.53774","17.423897"],
    [747,"2024-02-01 02:00:00","18","grottaglie","4.49","1","85.36","1","0.0","1","null","6","null","6","null","6","1015.59","1","40.53774","17.423897"],
    [748,"2024-02-01 03:00:00","18","grottaglie","4.6","1","87.4","1","0.0","1","null","6","null","6","null","6","1015.34","1","40.53774","17.423897"],
    [749,"2024-02-01 04:00:00","18","grottaglie","4.12","1","87.86","1","0.0","1","null","6","null","6","null","6","1014.87","1","40.53774","17.423897"],
    [750,"2024-02-01 05:00:00","18","grottaglie","3.65","1","88.78","1","0.0","1","null","6","null","6","null","6","1014.61","1","40.53774","17.423897"],
    [751,"2024-02-01 06:00:00","18","grottaglie","4.41","1","89.83","1","0.0","1","null","6","null","6","null","6","1014.51","1","40.53774","17.423897"],
    [752,"2024-02-01 07:00:00","18","grottaglie","5.28","1","86.87","1","0.0","1","null","6","null","6","null","6","1014.31","1","40.53774","17.423897"],
    [753,"2024-02-01 08:00:00","18","grottaglie","4.3","1","84.01","1","0.0","1","null","6","null","6","null","6","1014.42","1","40.53774","17.423897"],
    [754,"2024-02-01 09:00:00","18","grottaglie","6.78","1","78.92","1","0.0","1","null","6","null","6","null","6","1014.6","1","40.53774","17.423897"],
    [755,"2024-02-01 10:00:00","18","grottaglie","8.78","1","71.44","1","0.0","1","null","6","null","6","null","6","1014.55","1","40.53774","17.423897"],
    [756,"2024-02-01 11:00:00","18","grottaglie","10.3","1","64.66","1","0.0","1","null","6","null","6","null","6","1014.31","1","40.53774","17.423897"],
    [757,"2024-02-01 12:00:00","18","grottaglie","11.91","1","52.76","1","0.0","1","null","6","null","6","null","6","1013.13","1","40.53774","17.423897"],
    [758,"2024-02-01 13:00:00","18","grottaglie","13.41","1","43.6","1","0.0","1","null","6","null","6","null","6","1012.43","1","40.53774","17.423897"],
    [759,"2024-02-01 14:00:00","18","grottaglie","14.4","1","41.19","1","0.0","1","null","6","null","6","null","6","1011.72","1","40.53774","17.423897"],
    [760,"2024-02-01 15:00:00","18","grottaglie","15.33","1","39.89","1","0.0","1","null","6","null","6","null","6","1011.23","1","40.53774","17.423897"],
    [761,"2024-02-01 16:00:00","18","grottaglie","15.03","1","40.97","1","0.0","1","null","6","null","6","null","6","1010.7","1","40.53774","17.423897"],
    [762,"2024-02-01 17:00:00","18","grottaglie","14.08","1","42.41","1","0.0","1","null","6","null","6","null","6","1010.4","1","40.53774","17.423897"],
    [763,"2024-02-01 18:00:00","18","grottaglie","10.93","1","56.13","1","0.0","1","null","6","null","6","null","6","1010.55","1","40.53774","17.423897"],
    [764,"2024-02-01 19:00:00","18","grottaglie","8.09","1","66.48","1","0.0","1","null","6","null","6","null","6","1011.07","1","40.53774","17.423897"],
    [765,"2024-02-01 20:00:00","18","grottaglie","6.39","1","71.47","1","0.0","1","null","6","null","6","null","6","1011.16","1","40.53774","17.423897"],
    [766,"2024-02-01 21:00:00","18","grottaglie","5.71","1","76.14","1","0.0","1","null","6","null","6","null","6","1011.08","1","40.53774","17.423897"],
    [767,"2024-02-01 22:00:00","18","grottaglie","6.51","1","71.91","1","0.0","1","null","6","null","6","null","6","1010.69","1","40.53774","17.423897"],
    [768,"2024-02-01 23:00:00","18","grottaglie","6.49","1","67.82","1","0.0","1","null","6","null","6","null","6","1010.42","1","40.53774","17.423897"],
    [769,"2024-02-02 00:00:00","18","grottaglie","6.61","1","66.99","1","0.0","1","null","6","null","6","null","6","1010.5","1","40.53774","17.423897"],
    [770,"2024-02-02 01:00:00","18","grottaglie","7.25","1","65.42","1","0.0","1","null","6","null","6","null","6","1010.39","1","40.53774","17.423897"],
    [771,"2024-02-02 02:00:00","18","grottaglie","6.85","1","65.14","1","0.0","1","null","6","null","6","null","6","1010.02","1","40.53774","17.423897"],
    [772,"2024-02-02 03:00:00","18","grottaglie","6.1","1","72.77","1","0.0","1","null","6","null","6","null","6","1009.92","1","40.53774","17.423897"],
    [773,"2024-02-02 04:00:00","18","grottaglie","5.38","1","76.25","1","0.0","1","null","6","null","6","null","6","1009.65","1","40.53774","17.423897"],
    [774,"2024-02-02 05:00:00","18","grottaglie","3.48","1","82.8","1","0.0","1","null","6","null","6","null","6","1009.69","1","40.53774","17.423897"],
    [775,"2024-02-02 06:00:00","18","grottaglie","4.19","1","86.11","1","0.0","1","null","6","null","6","null","6","1009.78","1","40.53774","17.423897"],
    [776,"2024-02-02 07:00:00","18","grottaglie","4.09","1","87.48","1","0.0","1","null","6","null","6","null","6","1010.13","1","40.53774","17.423897"],
    [777,"2024-02-02 08:00:00","18","grottaglie","4.46","1","87.94","1","0.0","1","null","6","null","6","null","6","1010.56","1","40.53774","17.423897"],
    [778,"2024-02-02 09:00:00","18","grottaglie","5.71","1","87.56","1","0.0","1","null","6","null","6","null","6","1010.83","1","40.53774","17.423897"],
    [779,"2024-02-02 10:00:00","18","grottaglie","9.8","1","72.3","1","0.0","1","null","6","null","6","null","6","1010.68","1","40.53774","17.423897"],
    [780,"2024-02-02 11:00:00","18","grottaglie","12.36","1","61.13","1","0.0","1","null","6","null","6","null","6","1010.53","1","40.53774","17.423897"],
    [781,"2024-02-02 12:00:00","18","grottaglie","12.18","1","60.61","1","0.0","1","null","6","null","6","null","6","1010.54","1","40.53774","17.423897"],
    [782,"2024-02-02 13:00:00","18","grottaglie","13.76","1","51.94","1","0.0","1","null","6","null","6","null","6","1010.11","1","40.53774","17.423897"],
    [783,"2024-02-02 14:00:00","18","grottaglie","13.83","1","50.99","1","0.0","1","null","6","null","6","null","6","1009.71","1","40.53774","17.423897"],
    [784,"2024-02-02 15:00:00","18","grottaglie","13.68","1","49.12","1","0.0","1","null","6","null","6","null","6","1009.76","1","40.53774","17.423897"],
    [785,"2024-02-02 16:00:00","18","grottaglie","14.76","1","41.19","1","0.0","1","null","6","null","6","null","6","1009.97","1","40.53774","17.423897"],
    [786,"2024-02-02 17:00:00","18","grottaglie","13.08","1","46.1","1","0.0","1","null","6","null","6","null","6","1010.01","1","40.53774","17.423897"],
    [787,"2024-02-02 18:00:00","18","grottaglie","10.43","1","50.15","1","0.0","1","null","6","null","6","null","6","1010.22","1","40.53774","17.423897"],
    [788,"2024-02-02 19:00:00","18","grottaglie","8.79","1","53.14","1","0.0","1","null","6","null","6","null","6","1010.74","1","40.53774","17.423897"],
    [789,"2024-02-02 20:00:00","18","grottaglie","8.7","1","54.77","1","0.0","1","null","6","null","6","null","6","1011.02","1","40.53774","17.423897"],
    [790,"2024-02-02 21:00:00","18","grottaglie","8.78","1","56.64","1","0.0","1","null","6","null","6","null","6","1011.2","1","40.53774","17.423897"],
    [791,"2024-02-02 22:00:00","18","grottaglie","8.66","1","59.96","1","0.0","1","null","6","null","6","null","6","1011.2","1","40.53774","17.423897"],
    [792,"2024-02-02 23:00:00","18","grottaglie","6.41","1","71.02","1","0.0","1","null","6","null","6","null","6","1011.29","1","40.53774","17.423897"],
    [793,"2024-02-03 00:00:00","18","grottaglie","5.92","1","78.7","1","0.0","1","null","6","null","6","null","6","1011.27","1","40.53774","17.423897"],
    [794,"2024-02-03 01:00:00","18","grottaglie","5.53","1","82.17","1","0.0","1","null","6","null","6","null","6","1011.26","1","40.53774","17.423897"],
    [795,"2024-02-03 02:00:00","18","grottaglie","4.97","1","83.87","1","0.0","1","null","6","null","6","null","6","1011.2","1","40.53774","17.423897"],
    [796,"2024-02-03 03:00:00","18","grottaglie","4.39","1","84.76","1","0.0","1","null","6","null","6","null","6","1011.35","1","40.53774","17.423897"],
    [797,"2024-02-03 04:00:00","18","grottaglie","4.0","1","83.61","1","0.0","1","null","6","null","6","null","6","1011.33","1","40.53774","17.423897"],
    [798,"2024-02-03 05:00:00","18","grottaglie","4.11","1","79.12","1","0.0","1","null","6","null","6","null","6","1011.49","1","40.53774","17.423897"],
    [799,"2024-02-03 06:00:00","18","grottaglie","4.18","1","71.94","1","0.0","1","null","6","null","6","null","6","1011.62","1","40.53774","17.423897"],
    [800,"2024-02-03 07:00:00","18","grottaglie","3.52","1","75.36","1","0.0","1","null","6","null","6","null","6","1011.91","1","40.53774","17.423897"],
    [801,"2024-02-03 08:00:00","18","grottaglie","4.51","1","75.18","1","0.0","1","null","6","null","6","null","6","1012.31","1","40.53774","17.423897"],
    [802,"2024-02-03 09:00:00","18","grottaglie","6.21","1","71.03","1","0.0","1","null","6","null","6","null","6","1012.4","1","40.53774","17.423897"],
    [803,"2024-02-03 10:00:00","18","grottaglie","8.64","1","66.85","1","0.0","1","null","6","null","6","null","6","1012.44","1","40.53774","17.423897"],
    [804,"2024-02-03 11:00:00","18","grottaglie","13.09","1","45.98","1","0.0","1","null","6","null","6","null","6","1012.3","1","40.53774","17.423897"],
    [805,"2024-02-03 12:00:00","18","grottaglie","14.43","1","37.51","1","0.0","1","null","6","null","6","null","6","1011.78","1","40.53774","17.423897"],
    [806,"2024-02-03 13:00:00","18","grottaglie","16.15","1","34.88","1","0.0","1","null","6","null","6","null","6","1011.58","1","40.53774","17.423897"],
    [807,"2024-02-03 14:00:00","18","grottaglie","16.97","1","35.44","1","0.0","1","null","6","null","6","null","6","1011.15","1","40.53774","17.423897"],
    [808,"2024-02-03 15:00:00","18","grottaglie","17.74","1","32.34","1","0.0","1","null","6","null","6","null","6","1010.93","1","40.53774","17.423897"],
    [809,"2024-02-03 16:00:00","18","grottaglie","18.21","1","28.58","1","0.0","1","null","6","null","6","null","6","1010.83","1","40.53774","17.423897"],
    [810,"2024-02-03 17:00:00","18","grottaglie","17.51","1","29.52","1","0.0","1","null","6","null","6","null","6","1010.43","1","40.53774","17.423897"],
    [811,"2024-02-03 18:00:00","18","grottaglie","14.2","1","36.7","1","0.0","1","null","6","null","6","null","6","1009.95","1","40.53774","17.423897"],
    [812,"2024-02-03 19:00:00","18","grottaglie","11.16","1","47.84","1","0.0","1","null","6","null","6","null","6","1010.62","1","40.53774","17.423897"],
    [813,"2024-02-03 20:00:00","18","grottaglie","9.33","1","54.6","1","0.0","1","null","6","null","6","null","6","1010.91","1","40.53774","17.423897"],
    [814,"2024-02-03 21:00:00","18","grottaglie","8.69","1","59.88","1","0.0","1","null","6","null","6","null","6","1011.3","1","40.53774","17.423897"],
    [815,"2024-02-03 22:00:00","18","grottaglie","10.87","1","50.44","1","0.0","1","null","6","null","6","null","6","1011.05","1","40.53774","17.423897"],
    [816,"2024-02-03 23:00:00","18","grottaglie","10.55","1","49.7","1","0.0","1","null","6","null","6","null","6","1010.78","1","40.53774","17.423897"],
    [817,"2024-02-04 00:00:00","18","grottaglie","7.37","1","61.25","1","0.0","1","null","6","null","6","null","6","1010.68","1","40.53774","17.423897"],
    [818,"2024-02-04 01:00:00","18","grottaglie","6.89","1","65.21","1","0.0","1","null","6","null","6","null","6","1010.65","1","40.53774","17.423897"],
    [819,"2024-02-04 02:00:00","18","grottaglie","7.22","1","69.53","1","0.0","1","null","6","null","6","null","6","1010.44","1","40.53774","17.423897"],
    [820,"2024-02-04 03:00:00","18","grottaglie","7.35","1","72.83","1","0.0","1","null","6","null","6","null","6","1010.58","1","40.53774","17.423897"],
    [821,"2024-02-04 04:00:00","18","grottaglie","7.44","1","71.21","1","0.0","1","null","6","null","6","null","6","1010.24","1","40.53774","17.423897"],
    [822,"2024-02-04 05:00:00","18","grottaglie","7.39","1","66.56","1","0.0","1","null","6","null","6","null","6","1010.02","1","40.53774","17.423897"],
    [823,"2024-02-04 06:00:00","18","grottaglie","8.39","1","61.45","1","0.0","1","null","6","null","6","null","6","1009.67","1","40.53774","17.423897"],
    [824,"2024-02-04 07:00:00","18","grottaglie","8.11","1","61.87","1","0.0","1","null","6","null","6","null","6","1009.78","1","40.53774","17.423897"],
    [825,"2024-02-04 08:00:00","18","grottaglie","7.54","1","60.9","1","0.0","1","null","6","null","6","null","6","1010.08","1","40.53774","17.423897"],
    [826,"2024-02-04 09:00:00","18","grottaglie","10.14","1","52.52","1","0.0","1","null","6","null","6","null","6","1010.19","1","40.53774","17.423897"],
    [827,"2024-02-04 10:00:00","18","grottaglie","11.98","1","52.38","1","0.0","1","null","6","null","6","null","6","1009.99","1","40.53774","17.423897"],
    [828,"2024-02-04 11:00:00","18","grottaglie","13.14","1","47.0","1","0.0","1","null","6","null","6","null","6","1010.3","1","40.53774","17.423897"],
    [829,"2024-02-04 12:00:00","18","grottaglie","15.04","1","43.12","1","0.0","1","null","6","null","6","null","6","1009.95","1","40.53774","17.423897"],
    [830,"2024-02-04 13:00:00","18","grottaglie","18.35","1","36.25","1","0.0","1","null","6","null","6","null","6","1009.44","1","40.53774","17.423897"],
    [831,"2024-02-04 14:00:00","18","grottaglie","19.3","1","34.23","1","0.0","1","null","6","null","6","null","6","1009.01","1","40.53774","17.423897"],
    [832,"2024-02-04 15:00:00","18","grottaglie","19.6","1","33.41","1","0.0","1","null","6","null","6","null","6","1008.75","1","40.53774","17.423897"],
    [833,"2024-02-04 16:00:00","18","grottaglie","19.78","1","33.84","1","0.0","1","null","6","null","6","null","6","1008.7","1","40.53774","17.423897"],
    [834,"2024-02-04 17:00:00","18","grottaglie","18.35","1","38.1","1","0.0","1","null","6","null","6","null","6","1008.38","1","40.53774","17.423897"],
    [835,"2024-02-04 18:00:00","18","grottaglie","14.88","1","49.39","1","0.0","1","null","6","null","6","null","6","1008.8","1","40.53774","17.423897"],
    [836,"2024-02-04 19:00:00","18","grottaglie","13.01","1","55.33","1","0.0","1","null","6","null","6","null","6","1009.59","1","40.53774","17.423897"],
    [837,"2024-02-04 20:00:00","18","grottaglie","12.06","1","57.3","1","0.0","1","null","6","null","6","null","6","1009.77","1","40.53774","17.423897"],
    [838,"2024-02-04 21:00:00","18","grottaglie","10.82","1","60.42","1","0.0","1","null","6","null","6","null","6","1009.93","1","40.53774","17.423897"],
    [839,"2024-02-04 22:00:00","18","grottaglie","9.12","1","66.43","1","0.0","1","null","6","null","6","null","6","1010.29","1","40.53774","17.423897"],
    [840,"2024-02-04 23:00:00","18","grottaglie","8.7","1","67.31","1","0.0","1","null","6","null","6","null","6","1010.38","1","40.53774","17.423897"],
    [841,"2024-02-05 00:00:00","18","grottaglie","9.66","1","61.13","1","0.0","1","null","6","null","6","null","6","1010.42","1","40.53774","17.423897"],
    [842,"2024-02-05 01:00:00","18","grottaglie","8.73","1","64.89","1","0.0","1","null","6","null","6","null","6","1010.46","1","40.53774","17.423897"],
    [843,"2024-02-05 02:00:00","18","grottaglie","8.59","1","67.72","1","0.0","1","null","6","null","6","null","6","1010.47","1","40.53774","17.423897"],
    [844,"2024-02-05 03:00:00","18","grottaglie","8.05","1","71.79","1","0.0","1","null","6","null","6","null","6","1010.51","1","40.53774","17.423897"],
    [845,"2024-02-05 04:00:00","18","grottaglie","9.12","1","67.46","1","0.0","1","null","6","null","6","null","6","1010.16","1","40.53774","17.423897"],
    [846,"2024-02-05 05:00:00","18","grottaglie","9.72","1","65.24","1","0.0","1","null","6","null","6","null","6","1010.21","1","40.53774","17.423897"],
    [847,"2024-02-05 06:00:00","18","grottaglie","8.03","1","71.64","1","0.0","1","null","6","null","6","null","6","1010.23","1","40.53774","17.423897"],
    [848,"2024-02-05 07:00:00","18","grottaglie","7.88","1","74.37","1","0.0","1","null","6","null","6","null","6","1010.47","1","40.53774","17.423897"],
    [849,"2024-02-05 08:00:00","18","grottaglie","8.68","1","72.1","1","0.0","1","null","6","null","6","null","6","1010.5","1","40.53774","17.423897"],
    [850,"2024-02-05 09:00:00","18","grottaglie","10.37","1","70.43","1","0.0","1","null","6","null","6","null","6","1010.54","1","40.53774","17.423897"],
    [851,"2024-02-05 10:00:00","18","grottaglie","12.45","1","60.98","1","0.0","1","null","6","null","6","null","6","1010.81","1","40.53774","17.423897"],
    [852,"2024-02-05 11:00:00","18","grottaglie","13.74","1","55.0","1","0.0","1","null","6","null","6","null","6","1010.88","1","40.53774","17.423897"],
    [853,"2024-02-05 12:00:00","18","grottaglie","14.36","1","51.87","1","0.0","1","null","6","null","6","null","6","1010.56","1","40.53774","17.423897"],
    [854,"2024-02-05 13:00:00","18","grottaglie","16.36","1","47.13","1","0.0","1","null","6","null","6","null","6","1009.97","1","40.53774","17.423897"],
    [855,"2024-02-05 14:00:00","18","grottaglie","17.39","1","42.0","1","0.0","1","null","6","null","6","null","6","1009.37","1","40.53774","17.423897"],
    [856,"2024-02-05 15:00:00","18","grottaglie","17.51","1","39.65","1","0.0","1","null","6","null","6","null","6","1009.08","1","40.53774","17.423897"],
    [857,"2024-02-05 16:00:00","18","grottaglie","17.93","1","40.64","1","0.0","1","null","6","null","6","null","6","1009.18","1","40.53774","17.423897"],
    [858,"2024-02-05 17:00:00","18","grottaglie","15.64","1","47.81","1","0.0","1","null","6","null","6","null","6","1009.15","1","40.53774","17.423897"],
    [859,"2024-02-05 18:00:00","18","grottaglie","13.79","1","52.95","1","0.0","1","null","6","null","6","null","6","1009.45","1","40.53774","17.423897"],
    [860,"2024-02-05 19:00:00","18","grottaglie","11.61","1","59.33","1","0.0","1","null","6","null","6","null","6","1010.23","1","40.53774","17.423897"],
    [861,"2024-02-05 20:00:00","18","grottaglie","10.67","1","62.73","1","0.0","1","null","6","null","6","null","6","1010.54","1","40.53774","17.423897"],
    [862,"2024-02-05 21:00:00","18","grottaglie","9.29","1","68.16","1","0.0","1","null","6","null","6","null","6","1010.57","1","40.53774","17.423897"],
    [863,"2024-02-05 22:00:00","18","grottaglie","8.8","1","72.19","1","0.0","1","null","6","null","6","null","6","1010.46","1","40.53774","17.423897"],
    [864,"2024-02-05 23:00:00","18","grottaglie","8.67","1","74.85","1","0.0","1","null","6","null","6","null","6","1010.4","1","40.53774","17.423897"],
    [865,"2024-02-06 00:00:00","18","grottaglie","9.34","1","76.62","1","0.0","1","null","6","null","6","null","6","1010.61","1","40.53774","17.423897"],
    [866,"2024-02-06 01:00:00","18","grottaglie","10.16","1","81.83","1","0.0","1","null","6","null","6","null","6","1010.57","1","40.53774","17.423897"],
    [867,"2024-02-06 02:00:00","18","grottaglie","9.2","1","84.95","1","0.0","1","null","6","null","6","null","6","1010.35","1","40.53774","17.423897"],
    [868,"2024-02-06 03:00:00","18","grottaglie","8.62","1","86.79","1","0.0","1","null","6","null","6","null","6","1010.28","1","40.53774","17.423897"],
    [869,"2024-02-06 04:00:00","18","grottaglie","8.61","1","88.59","1","0.0","1","null","6","null","6","null","6","1009.9","1","40.53774","17.423897"],
    [870,"2024-02-06 05:00:00","18","grottaglie","8.23","1","85.68","1","0.0","1","null","6","null","6","null","6","1009.71","1","40.53774","17.423897"],
    [871,"2024-02-06 06:00:00","18","grottaglie","5.68","1","86.06","1","0.0","1","null","6","null","6","null","6","1009.78","1","40.53774","17.423897"],
    [872,"2024-02-06 07:00:00","18","grottaglie","7.34","1","88.62","1","0.0","1","null","6","null","6","null","6","1009.89","1","40.53774","17.423897"],
    [873,"2024-02-06 08:00:00","18","grottaglie","8.44","1","86.62","1","0.0","1","null","6","null","6","null","6","1009.72","1","40.53774","17.423897"],
    [874,"2024-02-06 09:00:00","18","grottaglie","8.79","1","85.19","1","0.0","1","null","6","null","6","null","6","1009.74","1","40.53774","17.423897"],
    [875,"2024-02-06 10:00:00","18","grottaglie","11.3","1","86.61","1","0.0","1","null","6","null","6","null","6","1009.84","1","40.53774","17.423897"],
    [876,"2024-02-06 11:00:00","18","grottaglie","13.52","1","74.61","1","0.0","1","null","6","null","6","null","6","1009.64","1","40.53774","17.423897"],
    [877,"2024-02-06 12:00:00","18","grottaglie","15.07","1","60.05","1","0.0","1","null","6","null","6","null","6","1008.81","1","40.53774","17.423897"],
    [878,"2024-02-06 13:00:00","18","grottaglie","16.49","1","51.59","1","0.0","1","null","6","null","6","null","6","1008.19","1","40.53774","17.423897"],
    [879,"2024-02-06 14:00:00","18","grottaglie","18.11","1","46.65","1","0.0","1","null","6","null","6","null","6","1007.81","1","40.53774","17.423897"],
    [880,"2024-02-06 15:00:00","18","grottaglie","18.6","1","43.99","1","0.0","1","null","6","null","6","null","6","1007.53","1","40.53774","17.423897"],
    [881,"2024-02-06 16:00:00","18","grottaglie","18.39","1","45.3","1","0.0","1","null","6","null","6","null","6","1007.32","1","40.53774","17.423897"],
    [882,"2024-02-06 17:00:00","18","grottaglie","17.41","1","51.0","1","0.0","1","null","6","null","6","null","6","1007.04","1","40.53774","17.423897"],
    [883,"2024-02-06 18:00:00","18","grottaglie","12.97","1","67.73","1","0.0","1","null","6","null","6","null","6","1007.27","1","40.53774","17.423897"],
    [884,"2024-02-06 19:00:00","18","grottaglie","10.77","1","76.71","1","0.0","1","null","6","null","6","null","6","1007.9","1","40.53774","17.423897"],
    [885,"2024-02-06 20:00:00","18","grottaglie","10.38","1","80.11","1","0.0","1","null","6","null","6","null","6","1008.08","1","40.53774","17.423897"],
    [886,"2024-02-06 21:00:00","18","grottaglie","10.11","1","83.12","1","0.0","1","null","6","null","6","null","6","1008.01","1","40.53774","17.423897"],
    [887,"2024-02-06 22:00:00","18","grottaglie","9.19","1","84.68","1","0.0","1","null","6","null","6","null","6","1007.78","1","40.53774","17.423897"],
    [888,"2024-02-06 23:00:00","18","grottaglie","9.5","1","87.95","1","0.0","1","null","6","null","6","null","6","1007.57","1","40.53774","17.423897"],
    [889,"2024-02-07 00:00:00","18","grottaglie","9.79","1","88.86","1","0.0","1","null","6","null","6","null","6","1007.06","1","40.53774","17.423897"],
    [890,"2024-02-07 01:00:00","18","grottaglie","9.4","1","88.42","1","0.0","1","null","6","null","6","null","6","1006.88","1","40.53774","17.423897"],
    [891,"2024-02-07 02:00:00","18","grottaglie","10.28","1","88.31","1","0.0","1","null","6","null","6","null","6","1006.4","1","40.53774","17.423897"],
    [892,"2024-02-07 03:00:00","18","grottaglie","10.6","1","87.53","1","0.0","1","null","6","null","6","null","6","1005.81","1","40.53774","17.423897"],
    [893,"2024-02-07 04:00:00","18","grottaglie","10.68","1","87.64","1","0.0","1","null","6","null","6","null","6","1005.26","1","40.53774","17.423897"],
    [894,"2024-02-07 05:00:00","18","grottaglie","10.57","1","88.11","1","0.0","1","null","6","null","6","null","6","1004.78","1","40.53774","17.423897"],
    [895,"2024-02-07 06:00:00","18","grottaglie","10.15","1","88.71","1","0.0","1","null","6","null","6","null","6","1004.34","1","40.53774","17.423897"],
    [896,"2024-02-07 07:00:00","18","grottaglie","10.13","1","89.97","1","0.0","1","null","6","null","6","null","6","1004.34","1","40.53774","17.423897"],
    [897,"2024-02-07 08:00:00","18","grottaglie","9.89","1","90.92","1","0.0","1","null","6","null","6","null","6","1004.38","1","40.53774","17.423897"],
    [898,"2024-02-07 09:00:00","18","grottaglie","10.53","1","91.64","1","0.0","1","null","6","null","6","null","6","1004.23","1","40.53774","17.423897"],
    [899,"2024-02-07 10:00:00","18","grottaglie","12.44","1","87.09","1","0.0","1","null","6","null","6","null","6","1003.83","1","40.53774","17.423897"],
    [900,"2024-02-07 11:00:00","18","grottaglie","14.56","1","73.54","1","0.0","1","null","6","null","6","null","6","1003.19","1","40.53774","17.423897"],
    [901,"2024-02-07 12:00:00","18","grottaglie","15.69","1","65.02","1","0.0","1","null","6","null","6","null","6","1002.34","1","40.53774","17.423897"],
    [902,"2024-02-07 13:00:00","18","grottaglie","17.04","1","58.99","1","0.0","1","null","6","null","6","null","6","1001.44","1","40.53774","17.423897"],
    [903,"2024-02-07 14:00:00","18","grottaglie","17.99","1","54.27","1","0.0","1","null","6","null","6","null","6","1000.73","1","40.53774","17.423897"],
    [904,"2024-02-07 15:00:00","18","grottaglie","17.64","1","55.21","1","0.0","1","null","6","null","6","null","6","999.88","1","40.53774","17.423897"],
    [905,"2024-02-07 16:00:00","18","grottaglie","15.25","1","65.83","1","0.0","1","null","6","null","6","null","6","999.49","1","40.53774","17.423897"],
    [906,"2024-02-07 17:00:00","18","grottaglie","13.75","1","74.38","1","0.0","1","null","6","null","6","null","6","999.57","1","40.53774","17.423897"],
    [907,"2024-02-07 18:00:00","18","grottaglie","12.55","1","80.39","1","0.0","1","null","6","null","6","null","6","999.69","1","40.53774","17.423897"],
    [908,"2024-02-07 19:00:00","18","grottaglie","12.32","1","84.01","1","0.0","1","null","6","null","6","null","6","999.91","1","40.53774","17.423897"],
    [909,"2024-02-07 20:00:00","18","grottaglie","11.79","1","87.19","1","0.0","1","null","6","null","6","null","6","999.83","1","40.53774","17.423897"],
    [910,"2024-02-07 21:00:00","18","grottaglie","11.71","1","89.22","1","0.0","1","null","6","null","6","null","6","999.43","1","40.53774","17.423897"],
    [911,"2024-02-07 22:00:00","18","grottaglie","11.52","1","90.73","1","0.0","1","null","6","null","6","null","6","999.15","1","40.53774","17.423897"],
    [912,"2024-02-07 23:00:00","18","grottaglie","11.75","1","91.71","1","0.0","1","null","6","null","6","null","6","998.81","1","40.53774","17.423897"],
    [913,"2024-02-08 00:00:00","18","grottaglie","11.89","1","92.66","1","0.0","1","null","6","null","6","null","6","998.65","1","40.53774","17.423897"],
    [914,"2024-02-08 01:00:00","18","grottaglie","11.78","1","93.21","1","0.0","1","null","6","null","6","null","6","998.45","1","40.53774","17.423897"],
    [915,"2024-02-08 02:00:00","18","grottaglie","11.63","1","93.76","1","0.0","1","null","6","null","6","null","6","998.26","1","40.53774","17.423897"],
    [916,"2024-02-08 03:00:00","18","grottaglie","10.81","1","94.48","1","0.0","1","null","6","null","6","null","6","998.19","1","40.53774","17.423897"],
    [917,"2024-02-08 04:00:00","18","grottaglie","9.8","1","94.76","1","0.0","1","null","6","null","6","null","6","997.72","1","40.53774","17.423897"],
    [918,"2024-02-08 05:00:00","18","grottaglie","8.29","1","94.42","1","0.0","1","null","6","null","6","null","6","997.86","1","40.53774","17.423897"],
    [919,"2024-02-08 06:00:00","18","grottaglie","7.24","1","94.63","1","0.0","1","null","6","null","6","null","6","998.06","1","40.53774","17.423897"],
    [920,"2024-02-08 07:00:00","18","grottaglie","6.33","1","94.5","1","0.0","1","null","6","null","6","null","6","998.26","1","40.53774","17.423897"],
    [921,"2024-02-08 08:00:00","18","grottaglie","6.47","1","94.96","1","0.0","1","null","6","null","6","null","6","998.88","1","40.53774","17.423897"],
    [922,"2024-02-08 09:00:00","18","grottaglie","8.71","1","91.32","1","0.0","1","null","6","null","6","null","6","999.21","1","40.53774","17.423897"],
    [923,"2024-02-08 10:00:00","18","grottaglie","11.49","1","74.14","1","0.0","1","null","6","null","6","null","6","999.29","1","40.53774","17.423897"],
    [924,"2024-02-08 11:00:00","18","grottaglie","14.61","1","52.6","1","0.0","1","null","6","null","6","null","6","999.3","1","40.53774","17.423897"],
    [925,"2024-02-08 12:00:00","18","grottaglie","14.96","1","51.08","1","0.0","1","null","6","null","6","null","6","999.07","1","40.53774","17.423897"],
    [926,"2024-02-08 13:00:00","18","grottaglie","16.83","1","46.07","1","0.0","1","null","6","null","6","null","6","998.37","1","40.53774","17.423897"],
    [927,"2024-02-08 14:00:00","18","grottaglie","17.93","1","42.79","1","0.0","1","null","6","null","6","null","6","997.95","1","40.53774","17.423897"],
    [928,"2024-02-08 15:00:00","18","grottaglie","18.31","1","41.8","1","0.0","1","null","6","null","6","null","6","997.69","1","40.53774","17.423897"],
    [929,"2024-02-08 16:00:00","18","grottaglie","17.23","1","50.97","1","0.0","1","null","6","null","6","null","6","997.73","1","40.53774","17.423897"],
    [930,"2024-02-08 17:00:00","18","grottaglie","16.46","1","60.03","1","0.0","1","null","6","null","6","null","6","997.7","1","40.53774","17.423897"],
    [931,"2024-02-08 18:00:00","18","grottaglie","13.74","1","72.27","1","0.0","1","null","6","null","6","null","6","997.53","1","40.53774","17.423897"],
    [932,"2024-02-08 19:00:00","18","grottaglie","12.79","1","75.43","1","0.0","1","null","6","null","6","null","6","998.03","1","40.53774","17.423897"],
    [933,"2024-02-08 20:00:00","18","grottaglie","12.0","1","74.79","1","0.0","1","null","6","null","6","null","6","998.28","1","40.53774","17.423897"],
    [934,"2024-02-08 21:00:00","18","grottaglie","10.38","1","76.71","1","0.0","1","null","6","null","6","null","6","998.45","1","40.53774","17.423897"],
    [935,"2024-02-08 22:00:00","18","grottaglie","9.61","1","81.35","1","0.0","1","null","6","null","6","null","6","998.65","1","40.53774","17.423897"],
    [936,"2024-02-08 23:00:00","18","grottaglie","8.55","1","85.01","1","0.0","1","null","6","null","6","null","6","998.91","1","40.53774","17.423897"],
    [937,"2024-02-09 00:00:00","18","grottaglie","8.49","1","87.54","1","0.0","1","null","6","null","6","null","6","999.01","1","40.53774","17.423897"],
    [938,"2024-02-09 01:00:00","18","grottaglie","8.25","1","89.33","1","0.0","1","null","6","null","6","null","6","998.98","1","40.53774","17.423897"],
    [939,"2024-02-09 02:00:00","18","grottaglie","8.46","1","89.87","1","0.0","1","null","6","null","6","null","6","998.64","1","40.53774","17.423897"],
    [940,"2024-02-09 03:00:00","18","grottaglie","8.22","1","90.31","1","0.0","1","null","6","null","6","null","6","998.43","1","40.53774","17.423897"],
    [941,"2024-02-09 04:00:00","18","grottaglie","8.29","1","89.56","1","0.0","1","null","6","null","6","null","6","998.21","1","40.53774","17.423897"],
    [942,"2024-02-09 05:00:00","18","grottaglie","7.92","1","88.93","1","0.0","1","null","6","null","6","null","6","998.23","1","40.53774","17.423897"],
    [943,"2024-02-09 06:00:00","18","grottaglie","7.54","1","85.65","1","0.0","1","null","6","null","6","null","6","998.05","1","40.53774","17.423897"],
    [944,"2024-02-09 07:00:00","18","grottaglie","8.21","1","78.2","1","0.0","1","null","6","null","6","null","6","997.98","1","40.53774","17.423897"],
    [945,"2024-02-09 08:00:00","18","grottaglie","9.18","1","80.03","1","0.0","1","null","6","null","6","null","6","998.41","1","40.53774","17.423897"],
    [946,"2024-02-09 09:00:00","18","grottaglie","11.05","1","75.7","1","0.0","1","null","6","null","6","null","6","998.46","1","40.53774","17.423897"],
    [947,"2024-02-09 10:00:00","18","grottaglie","12.91","1","68.7","1","0.0","1","null","6","null","6","null","6","998.11","1","40.53774","17.423897"],
    [948,"2024-02-09 11:00:00","18","grottaglie","15.1","1","58.61","1","0.0","1","null","6","null","6","null","6","997.84","1","40.53774","17.423897"],
    [949,"2024-02-09 12:00:00","18","grottaglie","15.89","1","56.74","1","0.0","1","null","6","null","6","null","6","997.21","1","40.53774","17.423897"],
    [950,"2024-02-09 13:00:00","18","grottaglie","17.09","1","53.63","1","0.0","1","null","6","null","6","null","6","996.52","1","40.53774","17.423897"],
    [951,"2024-02-09 14:00:00","18","grottaglie","18.18","1","51.94","1","0.0","1","null","6","null","6","null","6","995.85","1","40.53774","17.423897"],
    [952,"2024-02-09 15:00:00","18","grottaglie","16.51","1","58.29","1","0.0","1","null","6","null","6","null","6","994.98","1","40.53774","17.423897"],
    [953,"2024-02-09 16:00:00","18","grottaglie","14.04","1","72.36","1","0.0","1","null","6","null","6","null","6","994.91","1","40.53774","17.423897"],
    [954,"2024-02-09 17:00:00","18","grottaglie","13.94","1","77.05","1","0.0","1","null","6","null","6","null","6","994.74","1","40.53774","17.423897"],
    [955,"2024-02-09 18:00:00","18","grottaglie","12.85","1","82.53","1","0.0","1","null","6","null","6","null","6","994.07","1","40.53774","17.423897"],
    [956,"2024-02-09 19:00:00","18","grottaglie","12.14","1","87.52","1","0.0","1","null","6","null","6","null","6","993.95","1","40.53774","17.423897"],
    [957,"2024-02-09 20:00:00","18","grottaglie","11.94","1","88.27","1","0.0","1","null","6","null","6","null","6","993.85","1","40.53774","17.423897"],
    [958,"2024-02-09 21:00:00","18","grottaglie","12.27","1","88.6","1","0.0","1","null","6","null","6","null","6","993.97","1","40.53774","17.423897"],
    [959,"2024-02-09 22:00:00","18","grottaglie","12.81","1","88.36","1","0.0","1","null","6","null","6","null","6","993.41","1","40.53774","17.423897"],
    [960,"2024-02-09 23:00:00","18","grottaglie","12.98","1","87.56","1","0.0","1","null","6","null","6","null","6","993.44","1","40.53774","17.423897"],
    [961,"2024-02-10 00:00:00","18","grottaglie","13.18","1","87.12","1","0.0","1","null","6","null","6","null","6","993.35","1","40.53774","17.423897"],
    [962,"2024-02-10 01:00:00","18","grottaglie","13.3","1","86.75","1","0.0","1","null","6","null","6","null","6","992.69","1","40.53774","17.423897"],
    [963,"2024-02-10 02:00:00","18","grottaglie","13.35","1","86.06","1","0.0","1","null","6","null","6","null","6","992.32","1","40.53774","17.423897"],
    [964,"2024-02-10 03:00:00","18","grottaglie","13.25","1","86.89","1","0.0","1","null","6","null","6","null","6","991.94","1","40.53774","17.423897"],
    [965,"2024-02-10 04:00:00","18","grottaglie","13.08","1","88.71","1","0.0","1","null","6","null","6","null","6","991.3","1","40.53774","17.423897"],
    [966,"2024-02-10 05:00:00","18","grottaglie","12.97","1","90.53","1","0.0","1","null","6","null","6","null","6","991.45","1","40.53774","17.423897"],
    [967,"2024-02-10 06:00:00","18","grottaglie","12.8","1","91.54","1","0.0","1","null","6","null","6","null","6","991.25","1","40.53774","17.423897"],
    [968,"2024-02-10 07:00:00","18","grottaglie","12.72","1","92.25","1","0.0","1","null","6","null","6","null","6","990.94","1","40.53774","17.423897"],
    [969,"2024-02-10 08:00:00","18","grottaglie","12.95","1","92.11","1","0.0","1","null","6","null","6","null","6","991.15","1","40.53774","17.423897"],
    [970,"2024-02-10 09:00:00","18","grottaglie","13.3","1","90.62","1","0.0","1","null","6","null","6","null","6","990.89","1","40.53774","17.423897"],
    [971,"2024-02-10 10:00:00","18","grottaglie","14.27","1","85.44","1","0.0","1","null","6","null","6","null","6","990.88","1","40.53774","17.423897"],
    [972,"2024-02-10 11:00:00","18","grottaglie","14.69","1","78.12","1","0.0","1","null","6","null","6","null","6","990.7","1","40.53774","17.423897"],
    [973,"2024-02-10 12:00:00","18","grottaglie","14.68","1","78.68","1","0.0","1","null","6","null","6","null","6","990.48","1","40.53774","17.423897"],
    [974,"2024-02-10 13:00:00","18","grottaglie","14.59","1","79.5","1","0.0","1","null","6","null","6","null","6","989.68","1","40.53774","17.423897"],
    [975,"2024-02-10 14:00:00","18","grottaglie","14.43","1","81.67","1","0.0","1","null","6","null","6","null","6","988.84","1","40.53774","17.423897"],
    [976,"2024-02-10 15:00:00","18","grottaglie","14.13","1","84.86","1","0.0","1","null","6","null","6","null","6","988.05","1","40.53774","17.423897"],
    [977,"2024-02-10 16:00:00","18","grottaglie","14.02","1","83.26","1","0.0","1","null","6","null","6","null","6","987.72","1","40.53774","17.423897"],
    [978,"2024-02-10 17:00:00","18","grottaglie","13.98","1","86.69","1","0.0","1","null","6","null","6","null","6","987.04","1","40.53774","17.423897"],
    [979,"2024-02-10 18:00:00","18","grottaglie","13.77","1","87.73","1","0.0","1","null","6","null","6","null","6","986.08","1","40.53774","17.423897"],
    [980,"2024-02-10 19:00:00","18","grottaglie","13.87","1","85.98","1","0.0","1","null","6","null","6","null","6","985.2","1","40.53774","17.423897"],
    [981,"2024-02-10 20:00:00","18","grottaglie","14.22","1","80.43","1","0.0","1","null","6","null","6","null","6","985.77","1","40.53774","17.423897"],
    [982,"2024-02-10 21:00:00","18","grottaglie","13.98","1","82.71","1","0.0","1","null","6","null","6","null","6","986.41","1","40.53774","17.423897"],
    [983,"2024-02-10 22:00:00","18","grottaglie","13.47","1","87.32","1","0.6","1","null","6","null","6","null","6","986.89","1","40.53774","17.423897"],
    [984,"2024-02-10 23:00:00","18","grottaglie","13.39","1","87.91","1","0.0","1","null","6","null","6","null","6","986.45","1","40.53774","17.423897"],
    [985,"2024-02-11 00:00:00","18","grottaglie","13.59","1","87.39","1","0.0","1","null","6","null","6","null","6","985.58","1","40.53774","17.423897"],
    [986,"2024-02-11 01:00:00","18","grottaglie","13.69","1","87.22","1","0.0","1","null","6","null","6","null","6","985.31","1","40.53774","17.423897"],
    [987,"2024-02-11 02:00:00","18","grottaglie","13.39","1","87.11","1","0.0","1","null","6","null","6","null","6","985.88","1","40.53774","17.423897"],
    [988,"2024-02-11 03:00:00","18","grottaglie","12.74","1","87.4","1","0.0","1","null","6","null","6","null","6","985.37","1","40.53774","17.423897"],
    [989,"2024-02-11 04:00:00","18","grottaglie","12.46","1","88.22","1","0.0","1","null","6","null","6","null","6","984.26","1","40.53774","17.423897"],
    [990,"2024-02-11 05:00:00","18","grottaglie","13.25","1","90.29","1","0.0","1","null","6","null","6","null","6","983.97","1","40.53774","17.423897"],
    [991,"2024-02-11 06:00:00","18","grottaglie","12.7","1","90.6","1","0.0","1","null","6","null","6","null","6","983.6","1","40.53774","17.423897"],
    [992,"2024-02-11 07:00:00","18","grottaglie","11.55","1","86.41","1","0.0","1","null","6","null","6","null","6","983.37","1","40.53774","17.423897"],
    [993,"2024-02-11 08:00:00","18","grottaglie","11.36","1","79.95","1","0.0","1","null","6","null","6","null","6","983.89","1","40.53774","17.423897"],
    [994,"2024-02-11 09:00:00","18","grottaglie","13.2","1","68.52","1","0.0","1","null","6","null","6","null","6","984.31","1","40.53774","17.423897"],
    [995,"2024-02-11 10:00:00","18","grottaglie","14.42","1","56.69","1","0.0","1","null","6","null","6","null","6","984.71","1","40.53774","17.423897"],
    [996,"2024-02-11 11:00:00","18","grottaglie","15.36","1","52.16","1","0.0","1","null","6","null","6","null","6","985.46","1","40.53774","17.423897"],
    [997,"2024-02-11 12:00:00","18","grottaglie","16.09","1","46.9","1","0.0","1","null","6","null","6","null","6","985.16","1","40.53774","17.423897"],
    [998,"2024-02-11 13:00:00","18","grottaglie","16.33","1","47.43","1","0.0","1","null","6","null","6","null","6","984.96","1","40.53774","17.423897"],
    [999,"2024-02-11 14:00:00","18","grottaglie","15.73","1","51.03","1","0.0","1","null","6","null","6","null","6","984.67","1","40.53774","17.423897"],
    [1000,"2024-02-11 15:00:00","18","grottaglie","14.75","1","56.17","1","0.0","1","null","6","null","6","null","6","984.81","1","40.53774","17.423897"],
    [1001,"2024-02-11 16:00:00","18","grottaglie","14.04","1","54.96","1","0.0","1","null","6","null","6","null","6","984.95","1","40.53774","17.423897"],
    [1002,"2024-02-11 17:00:00","18","grottaglie","13.26","1","63.32","1","0.0","1","null","6","null","6","null","6","985.1","1","40.53774","17.423897"],
    [1003,"2024-02-11 18:00:00","18","grottaglie","12.06","1","69.92","1","0.0","1","null","6","null","6","null","6","985.28","1","40.53774","17.423897"],
    [1004,"2024-02-11 19:00:00","18","grottaglie","11.59","1","73.15","1","0.0","1","null","6","null","6","null","6","985.82","1","40.53774","17.423897"],
    [1005,"2024-02-11 20:00:00","18","grottaglie","11.43","1","73.99","1","0.0","1","null","6","null","6","null","6","986.08","1","40.53774","17.423897"],
    [1006,"2024-02-11 21:00:00","18","grottaglie","11.04","1","75.4","1","0.0","1","null","6","null","6","null","6","986.64","1","40.53774","17.423897"],
    [1007,"2024-02-11 22:00:00","18","grottaglie","10.34","1","73.17","1","0.0","1","null","6","null","6","null","6","987.18","1","40.53774","17.423897"],
    [1008,"2024-02-11 23:00:00","18","grottaglie","9.44","1","80.41","1","0.0","1","null","6","null","6","null","6","987.53","1","40.53774","17.423897"],
    [1009,"2024-02-12 00:00:00","18","grottaglie","8.96","1","80.53","1","0.0","1","null","6","null","6","null","6","987.45","1","40.53774","17.423897"],
    [1010,"2024-02-12 01:00:00","18","grottaglie","8.96","1","71.69","1","0.0","1","null","6","null","6","null","6","987.56","1","40.53774","17.423897"],
    [1011,"2024-02-12 02:00:00","18","grottaglie","8.8","1","65.72","1","0.0","1","null","6","null","6","null","6","987.83","1","40.53774","17.423897"],
    [1012,"2024-02-12 03:00:00","18","grottaglie","8.87","1","63.43","1","0.0","1","null","6","null","6","null","6","987.89","1","40.53774","17.423897"],
    [1013,"2024-02-12 04:00:00","18","grottaglie","8.54","1","65.38","1","0.0","1","null","6","null","6","null","6","987.85","1","40.53774","17.423897"],
    [1014,"2024-02-12 05:00:00","18","grottaglie","8.48","1","65.39","1","0.0","1","null","6","null","6","null","6","988.12","1","40.53774","17.423897"],
    [1015,"2024-02-12 06:00:00","18","grottaglie","7.17","1","71.27","1","0.0","1","null","6","null","6","null","6","988.43","1","40.53774","17.423897"],
    [1016,"2024-02-12 07:00:00","18","grottaglie","7.56","1","73.73","1","0.0","1","null","6","null","6","null","6","988.75","1","40.53774","17.423897"],
    [1017,"2024-02-12 08:00:00","18","grottaglie","7.22","1","75.74","1","0.0","1","null","6","null","6","null","6","989.19","1","40.53774","17.423897"],
    [1018,"2024-02-12 09:00:00","18","grottaglie","8.33","1","76.83","1","0.0","1","null","6","null","6","null","6","989.69","1","40.53774","17.423897"],
    [1019,"2024-02-12 10:00:00","18","grottaglie","10.78","1","72.58","1","0.0","1","null","6","null","6","null","6","990.15","1","40.53774","17.423897"],
    [1020,"2024-02-12 11:00:00","18","grottaglie","12.56","1","61.31","1","0.0","1","null","6","null","6","null","6","990.25","1","40.53774","17.423897"],
    [1021,"2024-02-12 12:00:00","18","grottaglie","13.09","1","58.25","1","0.0","1","null","6","null","6","null","6","989.81","1","40.53774","17.423897"],
    [1022,"2024-02-12 13:00:00","18","grottaglie","15.27","1","46.68","1","0.0","1","null","6","null","6","null","6","989.39","1","40.53774","17.423897"],
    [1023,"2024-02-12 14:00:00","18","grottaglie","15.75","1","45.16","1","0.0","1","null","6","null","6","null","6","989.14","1","40.53774","17.423897"],
    [1024,"2024-02-12 15:00:00","18","grottaglie","15.89","1","44.5","1","0.0","1","null","6","null","6","null","6","988.94","1","40.53774","17.423897"],
    [1025,"2024-02-12 16:00:00","18","grottaglie","14.79","1","50.35","1","0.0","1","null","6","null","6","null","6","989.52","1","40.53774","17.423897"],
    [1026,"2024-02-12 17:00:00","18","grottaglie","13.82","1","56.07","1","0.0","1","null","6","null","6","null","6","989.99","1","40.53774","17.423897"],
    [1027,"2024-02-12 18:00:00","18","grottaglie","12.68","1","61.55","1","0.0","1","null","6","null","6","null","6","990.89","1","40.53774","17.423897"],
    [1028,"2024-02-12 19:00:00","18","grottaglie","11.58","1","66.03","1","0.0","1","null","6","null","6","null","6","991.93","1","40.53774","17.423897"],
    [1029,"2024-02-12 20:00:00","18","grottaglie","11.16","1","69.76","1","0.0","1","null","6","null","6","null","6","992.51","1","40.53774","17.423897"],
    [1030,"2024-02-12 21:00:00","18","grottaglie","11.4","1","68.77","1","0.0","1","null","6","null","6","null","6","993.01","1","40.53774","17.423897"],
    [1031,"2024-02-12 22:00:00","18","grottaglie","10.28","1","74.06","1","0.0","1","null","6","null","6","null","6","993.52","1","40.53774","17.423897"],
    [1032,"2024-02-12 23:00:00","18","grottaglie","9.26","1","77.3","1","0.0","1","null","6","null","6","null","6","993.96","1","40.53774","17.423897"],
    [1033,"2024-02-13 00:00:00","18","grottaglie","9.23","1","74.73","1","0.0","1","null","6","null","6","null","6","994.33","1","40.53774","17.423897"],
    [1034,"2024-02-13 01:00:00","18","grottaglie","9.86","1","65.84","1","0.0","1","null","6","null","6","null","6","994.47","1","40.53774","17.423897"],
    [1035,"2024-02-13 02:00:00","18","grottaglie","9.02","1","67.99","1","0.0","1","null","6","null","6","null","6","994.63","1","40.53774","17.423897"],
    [1036,"2024-02-13 03:00:00","18","grottaglie","9.62","1","69.79","1","0.0","1","null","6","null","6","null","6","994.57","1","40.53774","17.423897"],
    [1037,"2024-02-13 04:00:00","18","grottaglie","9.08","1","73.03","1","0.0","1","null","6","null","6","null","6","994.8","1","40.53774","17.423897"],
    [1038,"2024-02-13 05:00:00","18","grottaglie","7.64","1","77.41","1","0.0","1","null","6","null","6","null","6","995.29","1","40.53774","17.423897"],
    [1039,"2024-02-13 06:00:00","18","grottaglie","7.58","1","78.69","1","0.0","1","null","6","null","6","null","6","995.65","1","40.53774","17.423897"],
    [1040,"2024-02-13 07:00:00","18","grottaglie","7.45","1","81.77","1","0.0","1","null","6","null","6","null","6","996.28","1","40.53774","17.423897"],
    [1041,"2024-02-13 08:00:00","18","grottaglie","8.55","1","78.13","1","0.0","1","null","6","null","6","null","6","997.15","1","40.53774","17.423897"],
    [1042,"2024-02-13 09:00:00","18","grottaglie","10.26","1","73.68","1","0.0","1","null","6","null","6","null","6","997.75","1","40.53774","17.423897"],
    [1043,"2024-02-13 10:00:00","18","grottaglie","12.27","1","67.5","1","0.0","1","null","6","null","6","null","6","997.99","1","40.53774","17.423897"],
    [1044,"2024-02-13 11:00:00","18","grottaglie","12.92","1","62.79","1","0.0","1","null","6","null","6","null","6","998.29","1","40.53774","17.423897"],
    [1045,"2024-02-13 12:00:00","18","grottaglie","13.78","1","56.2","1","0.0","1","null","6","null","6","null","6","998.12","1","40.53774","17.423897"],
    [1046,"2024-02-13 13:00:00","18","grottaglie","13.68","1","55.5","1","0.0","1","null","6","null","6","null","6","997.65","1","40.53774","17.423897"],
    [1047,"2024-02-13 14:00:00","18","grottaglie","12.74","1","57.89","1","0.0","1","null","6","null","6","null","6","997.61","1","40.53774","17.423897"],
    [1048,"2024-02-13 15:00:00","18","grottaglie","12.35","1","59.38","1","0.0","1","null","6","null","6","null","6","997.84","1","40.53774","17.423897"],
    [1049,"2024-02-13 16:00:00","18","grottaglie","11.62","1","66.14","1","0.0","1","null","6","null","6","null","6","998.25","1","40.53774","17.423897"],
    [1050,"2024-02-13 17:00:00","18","grottaglie","10.7","1","67.01","1","0.0","1","null","6","null","6","null","6","998.65","1","40.53774","17.423897"],
    [1051,"2024-02-13 18:00:00","18","grottaglie","10.1","1","72.51","1","0.0","1","null","6","null","6","null","6","999.38","1","40.53774","17.423897"],
    [1052,"2024-02-13 19:00:00","18","grottaglie","9.87","1","70.87","1","0.0","1","null","6","null","6","null","6","1000.24","1","40.53774","17.423897"],
    [1053,"2024-02-13 20:00:00","18","grottaglie","10.18","1","66.99","1","0.0","1","null","6","null","6","null","6","1000.62","1","40.53774","17.423897"],
    [1054,"2024-02-13 21:00:00","18","grottaglie","10.22","1","67.67","1","0.0","1","null","6","null","6","null","6","1000.92","1","40.53774","17.423897"],
    [1055,"2024-02-13 22:00:00","18","grottaglie","9.83","1","71.26","1","0.0","1","null","6","null","6","null","6","1001.32","1","40.53774","17.423897"],
    [1056,"2024-02-13 23:00:00","18","grottaglie","9.5","1","72.94","1","0.0","1","null","6","null","6","null","6","1001.33","1","40.53774","17.423897"],
    [1057,"2024-02-14 00:00:00","18","grottaglie","9.81","1","69.6","1","0.0","1","null","6","null","6","null","6","1001.36","1","40.53774","17.423897"],
    [1058,"2024-02-14 01:00:00","18","grottaglie","9.29","1","69.38","1","0.0","1","null","6","null","6","null","6","1001.52","1","40.53774","17.423897"],
    [1059,"2024-02-14 02:00:00","18","grottaglie","9.23","1","67.88","1","0.0","1","null","6","null","6","null","6","1001.98","1","40.53774","17.423897"],
    [1060,"2024-02-14 03:00:00","18","grottaglie","8.28","1","68.71","1","0.0","1","null","6","null","6","null","6","1002.21","1","40.53774","17.423897"],
    [1061,"2024-02-14 04:00:00","18","grottaglie","7.23","1","69.19","1","0.0","1","null","6","null","6","null","6","1002.58","1","40.53774","17.423897"],
    [1062,"2024-02-14 05:00:00","18","grottaglie","6.83","1","70.88","1","0.0","1","null","6","null","6","null","6","1003.02","1","40.53774","17.423897"],
    [1063,"2024-02-14 06:00:00","18","grottaglie","6.92","1","70.94","1","0.0","1","null","6","null","6","null","6","1003.59","1","40.53774","17.423897"],
    [1064,"2024-02-14 07:00:00","18","grottaglie","6.45","1","75.03","1","0.0","1","null","6","null","6","null","6","1004.09","1","40.53774","17.423897"],
    [1065,"2024-02-14 08:00:00","18","grottaglie","6.14","1","77.79","1","0.0","1","null","6","null","6","null","6","1004.6","1","40.53774","17.423897"],
    [1066,"2024-02-14 09:00:00","18","grottaglie","8.67","1","62.74","1","0.0","1","null","6","null","6","null","6","1005.01","1","40.53774","17.423897"],
    [1067,"2024-02-14 10:00:00","18","grottaglie","11.45","1","44.08","1","0.0","1","null","6","null","6","null","6","1005.13","1","40.53774","17.423897"],
    [1068,"2024-02-14 11:00:00","18","grottaglie","12.61","1","40.0","1","0.0","1","null","6","null","6","null","6","1005.02","1","40.53774","17.423897"],
    [1069,"2024-02-14 12:00:00","18","grottaglie","12.95","1","39.4","1","0.0","1","null","6","null","6","null","6","1004.62","1","40.53774","17.423897"],
    [1070,"2024-02-14 13:00:00","18","grottaglie","13.79","1","35.33","1","0.0","1","null","6","null","6","null","6","1004.65","1","40.53774","17.423897"],
    [1071,"2024-02-14 14:00:00","18","grottaglie","14.33","1","35.91","1","0.0","1","null","6","null","6","null","6","1004.59","1","40.53774","17.423897"],
    [1072,"2024-02-14 15:00:00","18","grottaglie","13.09","1","38.91","1","0.0","1","null","6","null","6","null","6","1004.56","1","40.53774","17.423897"],
    [1073,"2024-02-14 16:00:00","18","grottaglie","13.21","1","37.91","1","0.0","1","null","6","null","6","null","6","1005.13","1","40.53774","17.423897"],
    [1074,"2024-02-14 17:00:00","18","grottaglie","12.06","1","43.17","1","0.0","1","null","6","null","6","null","6","1005.27","1","40.53774","17.423897"],
    [1075,"2024-02-14 18:00:00","18","grottaglie","10.85","1","48.88","1","0.0","1","null","6","null","6","null","6","1005.57","1","40.53774","17.423897"],
    [1076,"2024-02-14 19:00:00","18","grottaglie","10.35","1","52.91","1","0.0","1","null","6","null","6","null","6","1005.57","1","40.53774","17.423897"],
    [1077,"2024-02-14 20:00:00","18","grottaglie","10.38","1","54.38","1","0.0","1","null","6","null","6","null","6","1005.51","1","40.53774","17.423897"],
    [1078,"2024-02-14 21:00:00","18","grottaglie","10.33","1","57.68","1","0.0","1","null","6","null","6","null","6","1006.18","1","40.53774","17.423897"],
    [1079,"2024-02-14 22:00:00","18","grottaglie","10.1","1","61.63","1","0.0","1","null","6","null","6","null","6","1006.6","1","40.53774","17.423897"],
    [1080,"2024-02-14 23:00:00","18","grottaglie","9.67","1","67.88","1","0.0","1","null","6","null","6","null","6","1006.57","1","40.53774","17.423897"],
    [1081,"2024-02-15 00:00:00","18","grottaglie","9.31","1","66.4","1","0.0","1","null","6","null","6","null","6","1006.61","1","40.53774","17.423897"],
    [1082,"2024-02-15 01:00:00","18","grottaglie","9.03","1","65.88","1","0.0","1","null","6","null","6","null","6","1006.58","1","40.53774","17.423897"],
    [1083,"2024-02-15 02:00:00","18","grottaglie","9.07","1","68.73","1","0.0","1","null","6","null","6","null","6","1006.51","1","40.53774","17.423897"],
    [1084,"2024-02-15 03:00:00","18","grottaglie","8.89","1","71.24","1","0.0","1","null","6","null","6","null","6","1006.47","1","40.53774","17.423897"],
    [1085,"2024-02-15 04:00:00","18","grottaglie","8.47","1","75.15","1","0.0","1","null","6","null","6","null","6","1006.43","1","40.53774","17.423897"],
    [1086,"2024-02-15 05:00:00","18","grottaglie","8.06","1","77.67","1","0.0","1","null","6","null","6","null","6","1006.62","1","40.53774","17.423897"],
    [1087,"2024-02-15 06:00:00","18","grottaglie","8.01","1","77.35","1","0.0","1","null","6","null","6","null","6","1006.79","1","40.53774","17.423897"],
    [1088,"2024-02-15 07:00:00","18","grottaglie","7.96","1","77.11","1","0.0","1","null","6","null","6","null","6","1006.95","1","40.53774","17.423897"],
    [1089,"2024-02-15 08:00:00","18","grottaglie","8.72","1","76.08","1","0.0","1","null","6","null","6","null","6","1007.36","1","40.53774","17.423897"],
    [1090,"2024-02-15 09:00:00","18","grottaglie","10.68","1","67.89","1","0.0","1","null","6","null","6","null","6","1007.38","1","40.53774","17.423897"],
    [1091,"2024-02-15 10:00:00","18","grottaglie","12.53","1","57.63","1","0.0","1","null","6","null","6","null","6","1007.42","1","40.53774","17.423897"],
    [1092,"2024-02-15 11:00:00","18","grottaglie","14.42","1","43.97","1","0.0","1","null","6","null","6","null","6","1007.41","1","40.53774","17.423897"],
    [1093,"2024-02-15 12:00:00","18","grottaglie","15.02","1","35.5","1","0.0","1","null","6","null","6","null","6","1006.92","1","40.53774","17.423897"],
    [1094,"2024-02-15 13:00:00","18","grottaglie","15.82","1","29.84","1","0.0","1","null","6","null","6","null","6","1006.69","1","40.53774","17.423897"],
    [1095,"2024-02-15 14:00:00","18","grottaglie","16.4","1","35.86","1","0.0","1","null","6","null","6","null","6","1006.36","1","40.53774","17.423897"],
    [1096,"2024-02-15 15:00:00","18","grottaglie","16.67","1","40.92","1","0.0","1","null","6","null","6","null","6","1006.01","1","40.53774","17.423897"],
    [1097,"2024-02-15 16:00:00","18","grottaglie","16.15","1","45.18","1","0.0","1","null","6","null","6","null","6","1005.69","1","40.53774","17.423897"],
    [1098,"2024-02-15 17:00:00","18","grottaglie","14.68","1","49.62","1","0.0","1","null","6","null","6","null","6","1005.76","1","40.53774","17.423897"],
    [1099,"2024-02-15 18:00:00","18","grottaglie","12.52","1","59.75","1","0.0","1","null","6","null","6","null","6","1005.86","1","40.53774","17.423897"],
    [1100,"2024-02-15 19:00:00","18","grottaglie","11.18","1","68.15","1","0.0","1","null","6","null","6","null","6","1006.19","1","40.53774","17.423897"],
    [1101,"2024-02-15 20:00:00","18","grottaglie","10.19","1","70.82","1","0.0","1","null","6","null","6","null","6","1006.61","1","40.53774","17.423897"],
    [1102,"2024-02-15 21:00:00","18","grottaglie","9.3","1","72.6","1","0.0","1","null","6","null","6","null","6","1006.9","1","40.53774","17.423897"],
    [1103,"2024-02-15 22:00:00","18","grottaglie","8.73","1","74.0","1","0.0","1","null","6","null","6","null","6","1007.0","1","40.53774","17.423897"],
    [1104,"2024-02-15 23:00:00","18","grottaglie","8.37","1","75.1","1","0.0","1","null","6","null","6","null","6","1006.98","1","40.53774","17.423897"],
    [1105,"2024-02-16 00:00:00","18","grottaglie","8.84","1","78.0","1","0.0","1","null","6","null","6","null","6","1006.91","1","40.53774","17.423897"],
    [1106,"2024-02-16 01:00:00","18","grottaglie","9.1","1","78.2","1","0.0","1","null","6","null","6","null","6","1006.5","1","40.53774","17.423897"],
    [1107,"2024-02-16 02:00:00","18","grottaglie","7.88","1","80.73","1","0.0","1","null","6","null","6","null","6","1006.53","1","40.53774","17.423897"],
    [1108,"2024-02-16 03:00:00","18","grottaglie","7.17","1","82.22","1","0.0","1","null","6","null","6","null","6","1006.42","1","40.53774","17.423897"],
    [1109,"2024-02-16 04:00:00","18","grottaglie","8.29","1","82.3","1","0.0","1","null","6","null","6","null","6","1006.06","1","40.53774","17.423897"],
    [1110,"2024-02-16 05:00:00","18","grottaglie","8.67","1","75.2","1","0.0","1","null","6","null","6","null","6","1005.98","1","40.53774","17.423897"],
    [1111,"2024-02-16 06:00:00","18","grottaglie","8.21","1","70.47","1","0.0","1","null","6","null","6","null","6","1006.2","1","40.53774","17.423897"],
    [1112,"2024-02-16 07:00:00","18","grottaglie","7.26","1","76.91","1","0.0","1","null","6","null","6","null","6","1006.38","1","40.53774","17.423897"],
    [1113,"2024-02-16 08:00:00","18","grottaglie","7.64","1","82.09","1","0.0","1","null","6","null","6","null","6","1006.56","1","40.53774","17.423897"],
    [1114,"2024-02-16 09:00:00","18","grottaglie","10.02","1","80.76","1","0.0","1","null","6","null","6","null","6","1006.75","1","40.53774","17.423897"],
    [1115,"2024-02-16 10:00:00","18","grottaglie","13.1","1","65.01","1","0.0","1","null","6","null","6","null","6","1006.82","1","40.53774","17.423897"],
    [1116,"2024-02-16 11:00:00","18","grottaglie","15.79","1","48.96","1","0.0","1","null","6","null","6","null","6","1006.67","1","40.53774","17.423897"],
    [1117,"2024-02-16 12:00:00","18","grottaglie","16.6","1","33.55","1","0.0","1","null","6","null","6","null","6","1006.16","1","40.53774","17.423897"],
    [1118,"2024-02-16 13:00:00","18","grottaglie","18.66","1","28.12","1","0.0","1","null","6","null","6","null","6","1005.89","1","40.53774","17.423897"],
    [1119,"2024-02-16 14:00:00","18","grottaglie","19.76","1","25.14","1","0.0","1","null","6","null","6","null","6","1005.68","1","40.53774","17.423897"],
    [1120,"2024-02-16 15:00:00","18","grottaglie","20.73","1","22.7","1","0.0","1","null","6","null","6","null","6","1005.68","1","40.53774","17.423897"],
    [1121,"2024-02-16 16:00:00","18","grottaglie","20.72","1","23.3","1","0.0","1","null","6","null","6","null","6","1005.67","1","40.53774","17.423897"],
    [1122,"2024-02-16 17:00:00","18","grottaglie","19.48","1","25.72","1","0.0","1","null","6","null","6","null","6","1005.72","1","40.53774","17.423897"],
    [1123,"2024-02-16 18:00:00","18","grottaglie","15.14","1","37.03","1","0.0","1","null","6","null","6","null","6","1005.63","1","40.53774","17.423897"],
    [1124,"2024-02-16 19:00:00","18","grottaglie","12.05","1","48.72","1","0.0","1","null","6","null","6","null","6","1006.52","1","40.53774","17.423897"],
    [1125,"2024-02-16 20:00:00","18","grottaglie","9.01","1","59.03","1","0.0","1","null","6","null","6","null","6","1007.13","1","40.53774","17.423897"],
    [1126,"2024-02-16 21:00:00","18","grottaglie","8.76","1","60.9","1","0.0","1","null","6","null","6","null","6","1007.64","1","40.53774","17.423897"],
    [1127,"2024-02-16 22:00:00","18","grottaglie","7.67","1","60.75","1","0.0","1","null","6","null","6","null","6","1008.0","1","40.53774","17.423897"],
    [1128,"2024-02-16 23:00:00","18","grottaglie","7.34","1","67.07","1","0.0","1","null","6","null","6","null","6","1008.38","1","40.53774","17.423897"],
    [1129,"2024-02-17 00:00:00","18","grottaglie","6.64","1","68.16","1","0.0","1","null","6","null","6","null","6","1008.73","1","40.53774","17.423897"],
    [1130,"2024-02-17 01:00:00","18","grottaglie","7.01","1","74.06","1","0.0","1","null","6","null","6","null","6","1008.64","1","40.53774","17.423897"],
    [1131,"2024-02-17 02:00:00","18","grottaglie","8.37","1","78.92","1","0.0","1","null","6","null","6","null","6","1008.67","1","40.53774","17.423897"],
    [1132,"2024-02-17 03:00:00","18","grottaglie","6.75","1","80.96","1","0.0","1","null","6","null","6","null","6","1008.52","1","40.53774","17.423897"],
    [1133,"2024-02-17 04:00:00","18","grottaglie","8.02","1","84.53","1","0.0","1","null","6","null","6","null","6","1008.44","1","40.53774","17.423897"],
    [1134,"2024-02-17 05:00:00","18","grottaglie","8.84","1","79.03","1","0.0","1","null","6","null","6","null","6","1008.55","1","40.53774","17.423897"],
    [1135,"2024-02-17 06:00:00","18","grottaglie","7.74","1","79.2","1","0.0","1","null","6","null","6","null","6","1008.9","1","40.53774","17.423897"],
    [1136,"2024-02-17 07:00:00","18","grottaglie","8.22","1","78.7","1","0.0","1","null","6","null","6","null","6","1009.36","1","40.53774","17.423897"],
    [1137,"2024-02-17 08:00:00","18","grottaglie","5.35","1","82.75","1","0.0","1","null","6","null","6","null","6","1010.09","1","40.53774","17.423897"],
    [1138,"2024-02-17 09:00:00","18","grottaglie","7.28","1","86.46","1","0.0","1","null","6","null","6","null","6","1010.79","1","40.53774","17.423897"],
    [1139,"2024-02-17 10:00:00","18","grottaglie","10.78","1","77.07","1","0.0","1","null","6","null","6","null","6","1011.08","1","40.53774","17.423897"],
    [1140,"2024-02-17 11:00:00","18","grottaglie","15.38","1","51.7","1","0.0","1","null","6","null","6","null","6","1010.9","1","40.53774","17.423897"],
    [1141,"2024-02-17 12:00:00","18","grottaglie","16.23","1","43.42","1","0.0","1","null","6","null","6","null","6","1010.55","1","40.53774","17.423897"],
    [1142,"2024-02-17 13:00:00","18","grottaglie","19.28","1","33.3","1","0.0","1","null","6","null","6","null","6","1010.38","1","40.53774","17.423897"],
    [1143,"2024-02-17 14:00:00","18","grottaglie","21.02","1","29.51","1","0.0","1","null","6","null","6","null","6","1010.3","1","40.53774","17.423897"],
    [1144,"2024-02-17 15:00:00","18","grottaglie","20.44","1","34.62","1","0.0","1","null","6","null","6","null","6","1010.57","1","40.53774","17.423897"],
    [1145,"2024-02-17 16:00:00","18","grottaglie","19.53","1","35.65","1","0.0","1","null","6","null","6","null","6","1011.09","1","40.53774","17.423897"],
    [1146,"2024-02-17 17:00:00","18","grottaglie","17.43","1","41.26","1","0.0","1","null","6","null","6","null","6","1011.36","1","40.53774","17.423897"],
    [1147,"2024-02-17 18:00:00","18","grottaglie","14.22","1","51.33","1","0.0","1","null","6","null","6","null","6","1011.62","1","40.53774","17.423897"],
    [1148,"2024-02-17 19:00:00","18","grottaglie","11.92","1","59.62","1","0.0","1","null","6","null","6","null","6","1012.53","1","40.53774","17.423897"],
    [1149,"2024-02-17 20:00:00","18","grottaglie","9.91","1","61.12","1","0.0","1","null","6","null","6","null","6","1013.03","1","40.53774","17.423897"],
    [1150,"2024-02-17 21:00:00","18","grottaglie","8.82","1","58.56","1","0.0","1","null","6","null","6","null","6","1013.76","1","40.53774","17.423897"],
    [1151,"2024-02-17 22:00:00","18","grottaglie","8.22","1","63.56","1","0.0","1","null","6","null","6","null","6","1014.28","1","40.53774","17.423897"],
    [1152,"2024-02-17 23:00:00","18","grottaglie","9.26","1","56.33","1","0.0","1","null","6","null","6","null","6","1014.46","1","40.53774","17.423897"],
    [1153,"2024-02-18 00:00:00","18","grottaglie","9.94","1","61.31","1","0.0","1","null","6","null","6","null","6","1014.63","1","40.53774","17.423897"],
    [1154,"2024-02-18 01:00:00","18","grottaglie","9.13","1","67.15","1","0.0","1","null","6","null","6","null","6","1014.8","1","40.53774","17.423897"],
    [1155,"2024-02-18 02:00:00","18","grottaglie","8.28","1","74.67","1","0.0","1","null","6","null","6","null","6","1014.82","1","40.53774","17.423897"],
    [1156,"2024-02-18 03:00:00","18","grottaglie","8.78","1","80.51","1","0.0","1","null","6","null","6","null","6","1014.62","1","40.53774","17.423897"],
    [1157,"2024-02-18 04:00:00","18","grottaglie","7.28","1","82.68","1","0.0","1","null","6","null","6","null","6","1014.67","1","40.53774","17.423897"],
    [1158,"2024-02-18 05:00:00","18","grottaglie","7.25","1","85.49","1","0.0","1","null","6","null","6","null","6","1014.85","1","40.53774","17.423897"],
    [1159,"2024-02-18 06:00:00","18","grottaglie","6.97","1","86.62","1","0.0","1","null","6","null","6","null","6","1015.04","1","40.53774","17.423897"],
    [1160,"2024-02-18 07:00:00","18","grottaglie","6.38","1","88.54","1","0.0","1","null","6","null","6","null","6","1015.38","1","40.53774","17.423897"],
    [1161,"2024-02-18 08:00:00","18","grottaglie","8.37","1","87.92","1","0.0","1","null","6","null","6","null","6","1015.94","1","40.53774","17.423897"],
    [1162,"2024-02-18 09:00:00","18","grottaglie","9.32","1","83.55","1","0.0","1","null","6","null","6","null","6","1016.2","1","40.53774","17.423897"],
    [1163,"2024-02-18 10:00:00","18","grottaglie","10.74","1","75.1","1","0.0","1","null","6","null","6","null","6","1016.09","1","40.53774","17.423897"],
    [1164,"2024-02-18 11:00:00","18","grottaglie","12.8","1","65.4","1","0.0","1","null","6","null","6","null","6","1015.6","1","40.53774","17.423897"],
    [1165,"2024-02-18 12:00:00","18","grottaglie","14.8","1","56.14","1","0.0","1","null","6","null","6","null","6","1014.76","1","40.53774","17.423897"],
    [1166,"2024-02-18 13:00:00","18","grottaglie","17.43","1","47.77","1","0.0","1","null","6","null","6","null","6","1014.29","1","40.53774","17.423897"],
    [1167,"2024-02-18 14:00:00","18","grottaglie","18.8","1","41.38","1","0.0","1","null","6","null","6","null","6","1013.64","1","40.53774","17.423897"],
    [1168,"2024-02-18 15:00:00","18","grottaglie","19.49","1","38.83","1","0.0","1","null","6","null","6","null","6","1013.15","1","40.53774","17.423897"],
    [1169,"2024-02-18 16:00:00","18","grottaglie","19.15","1","45.72","1","0.0","1","null","6","null","6","null","6","1012.99","1","40.53774","17.423897"],
    [1170,"2024-02-18 17:00:00","18","grottaglie","16.92","1","56.15","1","0.0","1","null","6","null","6","null","6","1012.72","1","40.53774","17.423897"],
    [1171,"2024-02-18 18:00:00","18","grottaglie","14.22","1","63.35","1","0.0","1","null","6","null","6","null","6","1012.36","1","40.53774","17.423897"],
    [1172,"2024-02-18 19:00:00","18","grottaglie","11.92","1","70.99","1","0.0","1","null","6","null","6","null","6","1012.78","1","40.53774","17.423897"],
    [1173,"2024-02-18 20:00:00","18","grottaglie","11.0","1","77.11","1","0.0","1","null","6","null","6","null","6","1012.8","1","40.53774","17.423897"],
    [1174,"2024-02-18 21:00:00","18","grottaglie","10.46","1","80.07","1","0.0","1","null","6","null","6","null","6","1012.53","1","40.53774","17.423897"],
    [1175,"2024-02-18 22:00:00","18","grottaglie","10.14","1","80.64","1","0.0","1","null","6","null","6","null","6","1012.34","1","40.53774","17.423897"],
    [1176,"2024-02-18 23:00:00","18","grottaglie","10.43","1","71.5","1","0.0","1","null","6","null","6","null","6","1011.95","1","40.53774","17.423897"],
    [1177,"2024-02-19 00:00:00","18","grottaglie","10.89","1","67.82","1","0.0","1","null","6","null","6","null","6","1011.65","1","40.53774","17.423897"],
    [1178,"2024-02-19 01:00:00","18","grottaglie","9.94","1","68.93","1","0.0","1","null","6","null","6","null","6","1011.44","1","40.53774","17.423897"],
    [1179,"2024-02-19 02:00:00","18","grottaglie","8.95","1","75.06","1","0.0","1","null","6","null","6","null","6","1011.23","1","40.53774","17.423897"],
    [1180,"2024-02-19 03:00:00","18","grottaglie","10.32","1","63.7","1","0.0","1","null","6","null","6","null","6","1010.58","1","40.53774","17.423897"],
    [1181,"2024-02-19 04:00:00","18","grottaglie","10.35","1","62.34","1","0.0","1","null","6","null","6","null","6","1009.91","1","40.53774","17.423897"],
    [1182,"2024-02-19 05:00:00","18","grottaglie","8.51","1","70.37","1","0.0","1","null","6","null","6","null","6","1009.71","1","40.53774","17.423897"],
    [1183,"2024-02-19 06:00:00","18","grottaglie","8.47","1","71.38","1","0.0","1","null","6","null","6","null","6","1009.64","1","40.53774","17.423897"],
    [1184,"2024-02-19 07:00:00","18","grottaglie","7.75","1","72.68","1","0.0","1","null","6","null","6","null","6","1009.57","1","40.53774","17.423897"],
    [1185,"2024-02-19 08:00:00","18","grottaglie","7.99","1","74.88","1","0.0","1","null","6","null","6","null","6","1009.74","1","40.53774","17.423897"],
    [1186,"2024-02-19 09:00:00","18","grottaglie","11.72","1","58.0","1","0.0","1","null","6","null","6","null","6","1009.65","1","40.53774","17.423897"],
    [1187,"2024-02-19 10:00:00","18","grottaglie","13.79","1","51.58","1","0.0","1","null","6","null","6","null","6","1009.2","1","40.53774","17.423897"],
    [1188,"2024-02-19 11:00:00","18","grottaglie","15.88","1","42.62","1","0.0","1","null","6","null","6","null","6","1008.73","1","40.53774","17.423897"],
    [1189,"2024-02-19 12:00:00","18","grottaglie","16.45","1","39.97","1","0.0","1","null","6","null","6","null","6","1008.18","1","40.53774","17.423897"],
    [1190,"2024-02-19 13:00:00","18","grottaglie","17.69","1","38.16","1","0.0","1","null","6","null","6","null","6","1007.58","1","40.53774","17.423897"],
    [1191,"2024-02-19 14:00:00","18","grottaglie","19.9","1","32.78","1","0.0","1","null","6","null","6","null","6","1006.9","1","40.53774","17.423897"],
    [1192,"2024-02-19 15:00:00","18","grottaglie","20.85","1","31.42","1","0.0","1","null","6","null","6","null","6","1006.47","1","40.53774","17.423897"],
    [1193,"2024-02-19 16:00:00","18","grottaglie","19.21","1","37.39","1","0.0","1","null","6","null","6","null","6","1006.12","1","40.53774","17.423897"],
    [1194,"2024-02-19 17:00:00","18","grottaglie","16.34","1","43.29","1","0.0","1","null","6","null","6","null","6","1006.06","1","40.53774","17.423897"],
    [1195,"2024-02-19 18:00:00","18","grottaglie","14.22","1","49.11","1","0.0","1","null","6","null","6","null","6","1006.52","1","40.53774","17.423897"],
    [1196,"2024-02-19 19:00:00","18","grottaglie","13.11","1","56.67","1","0.0","1","null","6","null","6","null","6","1006.85","1","40.53774","17.423897"],
    [1197,"2024-02-19 20:00:00","18","grottaglie","12.38","1","65.94","1","0.0","1","null","6","null","6","null","6","1007.08","1","40.53774","17.423897"],
    [1198,"2024-02-19 21:00:00","18","grottaglie","11.65","1","68.19","1","0.0","1","null","6","null","6","null","6","1007.22","1","40.53774","17.423897"],
    [1199,"2024-02-19 22:00:00","18","grottaglie","11.85","1","69.05","1","0.0","1","null","6","null","6","null","6","1007.12","1","40.53774","17.423897"],
    [1200,"2024-02-19 23:00:00","18","grottaglie","10.99","1","70.84","1","0.0","1","null","6","null","6","null","6","1006.98","1","40.53774","17.423897"],
    [1201,"2024-02-20 00:00:00","18","grottaglie","10.42","1","74.11","1","0.0","1","null","6","null","6","null","6","1006.77","1","40.53774","17.423897"],
    [1202,"2024-02-20 01:00:00","18","grottaglie","11.16","1","66.47","1","0.0","1","null","6","null","6","null","6","1006.62","1","40.53774","17.423897"],
    [1203,"2024-02-20 02:00:00","18","grottaglie","11.12","1","67.66","1","0.0","1","null","6","null","6","null","6","1006.28","1","40.53774","17.423897"],
    [1204,"2024-02-20 03:00:00","18","grottaglie","11.35","1","68.36","1","0.0","1","null","6","null","6","null","6","1005.79","1","40.53774","17.423897"],
    [1205,"2024-02-20 04:00:00","18","grottaglie","10.97","1","78.61","1","0.0","1","null","6","null","6","null","6","1005.39","1","40.53774","17.423897"],
    [1206,"2024-02-20 05:00:00","18","grottaglie","10.8","1","78.83","1","0.0","1","null","6","null","6","null","6","1005.35","1","40.53774","17.423897"],
    [1207,"2024-02-20 06:00:00","18","grottaglie","10.73","1","75.61","1","0.0","1","null","6","null","6","null","6","1005.43","1","40.53774","17.423897"],
    [1208,"2024-02-20 07:00:00","18","grottaglie","10.27","1","78.72","1","0.0","1","null","6","null","6","null","6","1005.69","1","40.53774","17.423897"],
    [1209,"2024-02-20 08:00:00","18","grottaglie","10.81","1","79.38","1","0.0","1","null","6","null","6","null","6","1006.14","1","40.53774","17.423897"],
    [1210,"2024-02-20 09:00:00","18","grottaglie","11.53","1","78.15","1","0.0","1","null","6","null","6","null","6","1006.6","1","40.53774","17.423897"],
    [1211,"2024-02-20 10:00:00","18","grottaglie","13.74","1","67.84","1","0.0","1","null","6","null","6","null","6","1006.54","1","40.53774","17.423897"],
    [1212,"2024-02-20 11:00:00","18","grottaglie","14.46","1","62.11","1","0.0","1","null","6","null","6","null","6","1006.52","1","40.53774","17.423897"],
    [1213,"2024-02-20 12:00:00","18","grottaglie","15.28","1","57.2","1","0.0","1","null","6","null","6","null","6","1006.32","1","40.53774","17.423897"],
    [1214,"2024-02-20 13:00:00","18","grottaglie","16.05","1","49.91","1","0.0","1","null","6","null","6","null","6","1005.52","1","40.53774","17.423897"],
    [1215,"2024-02-20 14:00:00","18","grottaglie","15.97","1","47.67","1","0.0","1","null","6","null","6","null","6","1005.0","1","40.53774","17.423897"],
    [1216,"2024-02-20 15:00:00","18","grottaglie","15.43","1","49.73","1","0.0","1","null","6","null","6","null","6","1004.79","1","40.53774","17.423897"],
    [1217,"2024-02-20 16:00:00","18","grottaglie","14.36","1","54.49","1","0.0","1","null","6","null","6","null","6","1004.97","1","40.53774","17.423897"],
    [1218,"2024-02-20 17:00:00","18","grottaglie","14.41","1","56.46","1","0.0","1","null","6","null","6","null","6","1005.3","1","40.53774","17.423897"],
    [1219,"2024-02-20 18:00:00","18","grottaglie","12.86","1","64.83","1","0.0","1","null","6","null","6","null","6","1005.54","1","40.53774","17.423897"],
    [1220,"2024-02-20 19:00:00","18","grottaglie","10.79","1","76.32","1","0.0","1","null","6","null","6","null","6","1006.23","1","40.53774","17.423897"],
    [1221,"2024-02-20 20:00:00","18","grottaglie","9.66","1","81.13","1","0.0","1","null","6","null","6","null","6","1006.66","1","40.53774","17.423897"],
    [1222,"2024-02-20 21:00:00","18","grottaglie","10.08","1","82.23","1","0.0","1","null","6","null","6","null","6","1006.9","1","40.53774","17.423897"],
    [1223,"2024-02-20 22:00:00","18","grottaglie","9.7","1","82.04","1","0.0","1","null","6","null","6","null","6","1007.11","1","40.53774","17.423897"],
    [1224,"2024-02-20 23:00:00","18","grottaglie","10.16","1","74.56","1","0.0","1","null","6","null","6","null","6","1007.22","1","40.53774","17.423897"],
    [1225,"2024-02-21 00:00:00","18","grottaglie","10.17","1","68.25","1","0.0","1","null","6","null","6","null","6","1007.4","1","40.53774","17.423897"],
    [1226,"2024-02-21 01:00:00","18","grottaglie","9.91","1","67.85","1","0.0","1","null","6","null","6","null","6","1007.73","1","40.53774","17.423897"],
    [1227,"2024-02-21 02:00:00","18","grottaglie","9.54","1","70.48","1","0.0","1","null","6","null","6","null","6","1007.56","1","40.53774","17.423897"],
    [1228,"2024-02-21 03:00:00","18","grottaglie","9.52","1","76.53","1","0.0","1","null","6","null","6","null","6","1007.14","1","40.53774","17.423897"],
    [1229,"2024-02-21 04:00:00","18","grottaglie","9.27","1","76.93","1","0.0","1","null","6","null","6","null","6","1006.66","1","40.53774","17.423897"],
    [1230,"2024-02-21 05:00:00","18","grottaglie","8.75","1","75.17","1","0.0","1","null","6","null","6","null","6","1006.59","1","40.53774","17.423897"],
    [1231,"2024-02-21 06:00:00","18","grottaglie","9.01","1","75.8","1","0.0","1","null","6","null","6","null","6","1006.67","1","40.53774","17.423897"],
    [1232,"2024-02-21 07:00:00","18","grottaglie","8.99","1","78.59","1","0.0","1","null","6","null","6","null","6","1007.15","1","40.53774","17.423897"],
    [1233,"2024-02-21 08:00:00","18","grottaglie","9.6","1","78.61","1","0.0","1","null","6","null","6","null","6","1007.88","1","40.53774","17.423897"],
    [1234,"2024-02-21 09:00:00","18","grottaglie","11.56","1","69.79","1","0.0","1","null","6","null","6","null","6","1008.52","1","40.53774","17.423897"],
    [1235,"2024-02-21 10:00:00","18","grottaglie","13.03","1","64.38","1","0.0","1","null","6","null","6","null","6","1008.94","1","40.53774","17.423897"],
    [1236,"2024-02-21 11:00:00","18","grottaglie","14.83","1","54.93","1","0.0","1","null","6","null","6","null","6","1009.06","1","40.53774","17.423897"],
    [1237,"2024-02-21 12:00:00","18","grottaglie","15.35","1","48.02","1","0.0","1","null","6","null","6","null","6","1008.68","1","40.53774","17.423897"],
    [1238,"2024-02-21 13:00:00","18","grottaglie","16.64","1","41.34","1","0.0","1","null","6","null","6","null","6","1008.23","1","40.53774","17.423897"],
    [1239,"2024-02-21 14:00:00","18","grottaglie","17.7","1","33.2","1","0.0","1","null","6","null","6","null","6","1007.78","1","40.53774","17.423897"],
    [1240,"2024-02-21 15:00:00","18","grottaglie","17.72","1","29.72","1","0.0","1","null","6","null","6","null","6","1007.57","1","40.53774","17.423897"],
    [1241,"2024-02-21 16:00:00","18","grottaglie","17.29","1","31.08","1","0.0","1","null","6","null","6","null","6","1007.68","1","40.53774","17.423897"],
    [1242,"2024-02-21 17:00:00","18","grottaglie","16.22","1","34.53","1","0.0","1","null","6","null","6","null","6","1007.52","1","40.53774","17.423897"],
    [1243,"2024-02-21 18:00:00","18","grottaglie","13.03","1","47.8","1","0.0","1","null","6","null","6","null","6","1007.52","1","40.53774","17.423897"],
    [1244,"2024-02-21 19:00:00","18","grottaglie","11.46","1","56.94","1","0.0","1","null","6","null","6","null","6","1007.99","1","40.53774","17.423897"],
    [1245,"2024-02-21 20:00:00","18","grottaglie","10.21","1","61.28","1","0.0","1","null","6","null","6","null","6","1008.34","1","40.53774","17.423897"],
    [1246,"2024-02-21 21:00:00","18","grottaglie","9.07","1","67.68","1","0.0","1","null","6","null","6","null","6","1008.58","1","40.53774","17.423897"],
    [1247,"2024-02-21 22:00:00","18","grottaglie","9.02","1","71.27","1","0.0","1","null","6","null","6","null","6","1008.62","1","40.53774","17.423897"],
    [1248,"2024-02-21 23:00:00","18","grottaglie","7.72","1","76.62","1","0.0","1","null","6","null","6","null","6","1008.44","1","40.53774","17.423897"],
    [1249,"2024-02-22 00:00:00","18","grottaglie","6.29","1","81.45","1","0.0","1","null","6","null","6","null","6","1008.47","1","40.53774","17.423897"],
    [1250,"2024-02-22 01:00:00","18","grottaglie","5.71","1","83.64","1","0.0","1","null","6","null","6","null","6","1008.36","1","40.53774","17.423897"],
    [1251,"2024-02-22 02:00:00","18","grottaglie","5.87","1","82.89","1","0.0","1","null","6","null","6","null","6","1008.08","1","40.53774","17.423897"],
    [1252,"2024-02-22 03:00:00","18","grottaglie","5.51","1","83.82","1","0.0","1","null","6","null","6","null","6","1007.58","1","40.53774","17.423897"],
    [1253,"2024-02-22 04:00:00","18","grottaglie","5.26","1","82.86","1","0.0","1","null","6","null","6","null","6","1007.07","1","40.53774","17.423897"],
    [1254,"2024-02-22 05:00:00","18","grottaglie","5.73","1","81.64","1","0.0","1","null","6","null","6","null","6","1006.84","1","40.53774","17.423897"],
    [1255,"2024-02-22 06:00:00","18","grottaglie","6.34","1","77.74","1","0.0","1","null","6","null","6","null","6","1006.73","1","40.53774","17.423897"],
    [1256,"2024-02-22 07:00:00","18","grottaglie","5.43","1","75.85","1","0.0","1","null","6","null","6","null","6","1006.61","1","40.53774","17.423897"],
    [1257,"2024-02-22 08:00:00","18","grottaglie","5.06","1","81.37","1","0.0","1","null","6","null","6","null","6","1006.93","1","40.53774","17.423897"],
    [1258,"2024-02-22 09:00:00","18","grottaglie","7.58","1","80.39","1","0.0","1","null","6","null","6","null","6","1006.89","1","40.53774","17.423897"],
    [1259,"2024-02-22 10:00:00","18","grottaglie","10.86","1","63.73","1","0.0","1","null","6","null","6","null","6","1006.7","1","40.53774","17.423897"],
    [1260,"2024-02-22 11:00:00","18","grottaglie","13.21","1","61.66","1","0.0","1","null","6","null","6","null","6","1006.16","1","40.53774","17.423897"],
    [1261,"2024-02-22 12:00:00","18","grottaglie","13.84","1","58.46","1","0.0","1","null","6","null","6","null","6","1005.58","1","40.53774","17.423897"],
    [1262,"2024-02-22 13:00:00","18","grottaglie","15.27","1","49.82","1","0.0","1","null","6","null","6","null","6","1004.98","1","40.53774","17.423897"],
    [1263,"2024-02-22 14:00:00","18","grottaglie","15.64","1","46.04","1","0.0","1","null","6","null","6","null","6","1004.24","1","40.53774","17.423897"],
    [1264,"2024-02-22 15:00:00","18","grottaglie","16.51","1","42.88","1","0.0","1","null","6","null","6","null","6","1003.46","1","40.53774","17.423897"],
    [1265,"2024-02-22 16:00:00","18","grottaglie","16.56","1","41.03","1","0.0","1","null","6","null","6","null","6","1002.94","1","40.53774","17.423897"],
    [1266,"2024-02-22 17:00:00","18","grottaglie","14.72","1","46.4","1","0.0","1","null","6","null","6","null","6","1002.55","1","40.53774","17.423897"],
    [1267,"2024-02-22 18:00:00","18","grottaglie","12.63","1","54.86","1","0.0","1","null","6","null","6","null","6","1002.58","1","40.53774","17.423897"],
    [1268,"2024-02-22 19:00:00","18","grottaglie","10.62","1","65.97","1","0.0","1","null","6","null","6","null","6","1002.65","1","40.53774","17.423897"],
    [1269,"2024-02-22 20:00:00","18","grottaglie","10.06","1","73.32","1","0.0","1","null","6","null","6","null","6","1002.35","1","40.53774","17.423897"],
    [1270,"2024-02-22 21:00:00","18","grottaglie","9.73","1","76.1","1","0.0","1","null","6","null","6","null","6","1002.06","1","40.53774","17.423897"],
    [1271,"2024-02-22 22:00:00","18","grottaglie","10.15","1","81.92","1","0.0","1","null","6","null","6","null","6","1001.79","1","40.53774","17.423897"],
    [1272,"2024-02-22 23:00:00","18","grottaglie","10.31","1","83.37","1","0.0","1","null","6","null","6","null","6","1001.35","1","40.53774","17.423897"],
    [1273,"2024-02-23 00:00:00","18","grottaglie","9.91","1","85.91","1","0.0","1","null","6","null","6","null","6","1000.88","1","40.53774","17.423897"],
    [1274,"2024-02-23 01:00:00","18","grottaglie","9.57","1","88.43","1","0.0","1","null","6","null","6","null","6","1000.28","1","40.53774","17.423897"],
    [1275,"2024-02-23 02:00:00","18","grottaglie","9.35","1","90.15","1","0.0","1","null","6","null","6","null","6","999.75","1","40.53774","17.423897"],
    [1276,"2024-02-23 03:00:00","18","grottaglie","8.64","1","90.68","1","0.0","1","null","6","null","6","null","6","999.39","1","40.53774","17.423897"],
    [1277,"2024-02-23 04:00:00","18","grottaglie","8.99","1","84.56","1","0.0","1","null","6","null","6","null","6","998.99","1","40.53774","17.423897"],
    [1278,"2024-02-23 05:00:00","18","grottaglie","9.62","1","77.83","1","0.0","1","null","6","null","6","null","6","998.56","1","40.53774","17.423897"],
    [1279,"2024-02-23 06:00:00","18","grottaglie","9.37","1","82.2","1","0.0","1","null","6","null","6","null","6","998.42","1","40.53774","17.423897"],
    [1280,"2024-02-23 07:00:00","18","grottaglie","9.27","1","84.26","1","0.0","1","null","6","null","6","null","6","998.23","1","40.53774","17.423897"],
    [1281,"2024-02-23 08:00:00","18","grottaglie","9.76","1","83.54","1","0.0","1","null","6","null","6","null","6","998.54","1","40.53774","17.423897"],
    [1282,"2024-02-23 09:00:00","18","grottaglie","11.09","1","83.02","1","0.0","1","null","6","null","6","null","6","998.51","1","40.53774","17.423897"],
    [1283,"2024-02-23 10:00:00","18","grottaglie","13.52","1","69.24","1","0.0","1","null","6","null","6","null","6","998.33","1","40.53774","17.423897"],
    [1284,"2024-02-23 11:00:00","18","grottaglie","15.37","1","55.86","1","0.0","1","null","6","null","6","null","6","998.0","1","40.53774","17.423897"],
    [1285,"2024-02-23 12:00:00","18","grottaglie","15.25","1","58.4","1","0.0","1","null","6","null","6","null","6","997.46","1","40.53774","17.423897"],
    [1286,"2024-02-23 13:00:00","18","grottaglie","14.36","1","63.96","1","0.0","1","null","6","null","6","null","6","997.12","1","40.53774","17.423897"],
    [1287,"2024-02-23 14:00:00","18","grottaglie","14.54","1","67.54","1","0.0","1","null","6","null","6","null","6","996.8","1","40.53774","17.423897"],
    [1288,"2024-02-23 15:00:00","18","grottaglie","14.11","1","70.75","1","0.0","1","null","6","null","6","null","6","996.43","1","40.53774","17.423897"],
    [1289,"2024-02-23 16:00:00","18","grottaglie","13.69","1","73.64","1","0.0","1","null","6","null","6","null","6","996.15","1","40.53774","17.423897"],
    [1290,"2024-02-23 17:00:00","18","grottaglie","13.51","1","77.8","1","0.0","1","null","6","null","6","null","6","996.1","1","40.53774","17.423897"],
    [1291,"2024-02-23 18:00:00","18","grottaglie","13.3","1","80.37","1","0.0","1","null","6","null","6","null","6","996.07","1","40.53774","17.423897"],
    [1292,"2024-02-23 19:00:00","18","grottaglie","13.22","1","81.75","1","0.0","1","null","6","null","6","null","6","996.27","1","40.53774","17.423897"],
    [1293,"2024-02-23 20:00:00","18","grottaglie","13.22","1","82.36","1","0.0","1","null","6","null","6","null","6","996.47","1","40.53774","17.423897"],
    [1294,"2024-02-23 21:00:00","18","grottaglie","12.98","1","83.62","1","0.0","1","null","6","null","6","null","6","996.45","1","40.53774","17.423897"],
    [1295,"2024-02-23 22:00:00","18","grottaglie","12.9","1","82.38","1","0.0","1","null","6","null","6","null","6","996.48","1","40.53774","17.423897"],
    [1296,"2024-02-23 23:00:00","18","grottaglie","12.99","1","82.28","1","0.0","1","null","6","null","6","null","6","996.43","1","40.53774","17.423897"],
    [1297,"2024-02-24 00:00:00","18","grottaglie","13.02","1","83.43","1","0.0","1","null","6","null","6","null","6","996.42","1","40.53774","17.423897"],
    [1298,"2024-02-24 01:00:00","18","grottaglie","12.79","1","84.38","1","0.0","1","null","6","null","6","null","6","996.37","1","40.53774","17.423897"],
    [1299,"2024-02-24 02:00:00","18","grottaglie","12.79","1","84.8","1","0.0","1","null","6","null","6","null","6","996.41","1","40.53774","17.423897"],
    [1300,"2024-02-24 03:00:00","18","grottaglie","12.73","1","85.91","1","0.0","1","null","6","null","6","null","6","996.23","1","40.53774","17.423897"],
    [1301,"2024-02-24 04:00:00","18","grottaglie","12.87","1","86.97","1","0.0","1","null","6","null","6","null","6","996.23","1","40.53774","17.423897"],
    [1302,"2024-02-24 05:00:00","18","grottaglie","12.76","1","88.87","1","0.2","1","null","6","null","6","null","6","996.36","1","40.53774","17.423897"],
    [1303,"2024-02-24 06:00:00","18","grottaglie","12.29","1","91.26","1","1.6","1","null","6","null","6","null","6","996.71","1","40.53774","17.423897"],
    [1304,"2024-02-24 07:00:00","18","grottaglie","11.95","1","92.01","1","1.8","1","null","6","null","6","null","6","997.26","1","40.53774","17.423897"],
    [1305,"2024-02-24 08:00:00","18","grottaglie","12.03","1","93.09","1","0.4","1","null","6","null","6","null","6","997.6","1","40.53774","17.423897"],
    [1306,"2024-02-24 09:00:00","18","grottaglie","12.49","1","93.79","1","0.4","1","null","6","null","6","null","6","997.86","1","40.53774","17.423897"],
    [1307,"2024-02-24 10:00:00","18","grottaglie","13.15","1","94.12","1","0.4","1","null","6","null","6","null","6","997.98","1","40.53774","17.423897"],
    [1308,"2024-02-24 11:00:00","18","grottaglie","13.09","1","90.85","1","0.0","1","null","6","null","6","null","6","998.15","1","40.53774","17.423897"],
    [1309,"2024-02-24 12:00:00","18","grottaglie","13.37","1","86.19","1","0.0","1","null","6","null","6","null","6","998.34","1","40.53774","17.423897"],
    [1310,"2024-02-24 13:00:00","18","grottaglie","13.21","1","89.2","1","0.4","1","null","6","null","6","null","6","998.1","1","40.53774","17.423897"],
    [1311,"2024-02-24 14:00:00","18","grottaglie","13.58","1","91.1","1","0.0","1","null","6","null","6","null","6","997.47","1","40.53774","17.423897"],
    [1312,"2024-02-24 15:00:00","18","grottaglie","14.02","1","88.79","1","0.0","1","null","6","null","6","null","6","997.26","1","40.53774","17.423897"],
    [1313,"2024-02-24 16:00:00","18","grottaglie","13.93","1","89.6","1","0.0","1","null","6","null","6","null","6","997.17","1","40.53774","17.423897"],
    [1314,"2024-02-24 17:00:00","18","grottaglie","14.01","1","89.38","1","0.0","1","null","6","null","6","null","6","996.95","1","40.53774","17.423897"],
    [1315,"2024-02-24 18:00:00","18","grottaglie","13.85","1","89.15","1","0.0","1","null","6","null","6","null","6","996.98","1","40.53774","17.423897"],
    [1316,"2024-02-24 19:00:00","18","grottaglie","13.77","1","89.61","1","0.0","1","null","6","null","6","null","6","997.34","1","40.53774","17.423897"],
    [1317,"2024-02-24 20:00:00","18","grottaglie","13.78","1","89.8","1","0.0","1","null","6","null","6","null","6","998.0","1","40.53774","17.423897"],
    [1318,"2024-02-24 21:00:00","18","grottaglie","13.74","1","90.73","1","0.0","1","null","6","null","6","null","6","998.32","1","40.53774","17.423897"],
    [1319,"2024-02-24 22:00:00","18","grottaglie","12.11","1","82.41","1","0.0","1","null","6","null","6","null","6","998.63","1","40.53774","17.423897"],
    [1320,"2024-02-24 23:00:00","18","grottaglie","13.01","1","81.77","1","0.0","1","null","6","null","6","null","6","998.61","1","40.53774","17.423897"],
    [1321,"2024-02-25 00:00:00","18","grottaglie","13.59","1","90.65","1","0.0","1","null","6","null","6","null","6","998.34","1","40.53774","17.423897"],
    [1322,"2024-02-25 01:00:00","18","grottaglie","13.56","1","90.74","1","0.0","1","null","6","null","6","null","6","997.9","1","40.53774","17.423897"],
    [1323,"2024-02-25 02:00:00","18","grottaglie","13.61","1","89.85","1","0.0","1","null","6","null","6","null","6","997.71","1","40.53774","17.423897"],
    [1324,"2024-02-25 03:00:00","18","grottaglie","13.54","1","90.26","1","0.0","1","null","6","null","6","null","6","997.31","1","40.53774","17.423897"],
    [1325,"2024-02-25 04:00:00","18","grottaglie","13.38","1","90.72","1","0.0","1","null","6","null","6","null","6","996.62","1","40.53774","17.423897"],
    [1326,"2024-02-25 05:00:00","18","grottaglie","13.37","1","89.74","1","0.0","1","null","6","null","6","null","6","996.1","1","40.53774","17.423897"],
    [1327,"2024-02-25 06:00:00","18","grottaglie","13.41","1","88.64","1","0.0","1","null","6","null","6","null","6","995.81","1","40.53774","17.423897"],
    [1328,"2024-02-25 07:00:00","18","grottaglie","13.43","1","88.08","1","0.0","1","null","6","null","6","null","6","995.55","1","40.53774","17.423897"],
    [1329,"2024-02-25 08:00:00","18","grottaglie","13.72","1","88.06","1","0.0","1","null","6","null","6","null","6","995.62","1","40.53774","17.423897"],
    [1330,"2024-02-25 09:00:00","18","grottaglie","14.22","1","87.14","1","0.0","1","null","6","null","6","null","6","995.59","1","40.53774","17.423897"],
    [1331,"2024-02-25 10:00:00","18","grottaglie","14.47","1","87.61","1","0.8","1","null","6","null","6","null","6","995.24","1","40.53774","17.423897"],
    [1332,"2024-02-25 11:00:00","18","grottaglie","14.79","1","86.62","1","2.2","1","null","6","null","6","null","6","994.43","1","40.53774","17.423897"],
    [1333,"2024-02-25 12:00:00","18","grottaglie","12.34","1","88.55","1","7.6","1","null","6","null","6","null","6","994.32","1","40.53774","17.423897"],
    [1334,"2024-02-25 13:00:00","18","grottaglie","10.98","1","93.11","1","10.6","1","null","6","null","6","null","6","993.91","1","40.53774","17.423897"],
    [1335,"2024-02-25 14:00:00","18","grottaglie","10.82","1","95.0","1","11.2","1","null","6","null","6","null","6","992.86","1","40.53774","17.423897"],
    [1336,"2024-02-25 15:00:00","18","grottaglie","10.37","1","95.7","1","18.2","1","null","6","null","6","null","6","992.7","1","40.53774","17.423897"],
    [1337,"2024-02-25 16:00:00","18","grottaglie","9.91","1","96.34","1","9.2","1","null","6","null","6","null","6","992.56","1","40.53774","17.423897"],
    [1338,"2024-02-25 17:00:00","18","grottaglie","9.64","1","96.52","1","11.2","1","null","6","null","6","null","6","992.83","1","40.53774","17.423897"],
    [1339,"2024-02-25 18:00:00","18","grottaglie","9.64","1","96.33","1","1.8","1","null","6","null","6","null","6","992.87","1","40.53774","17.423897"],
    [1340,"2024-02-25 19:00:00","18","grottaglie","9.66","1","96.12","1","1.0","1","null","6","null","6","null","6","993.26","1","40.53774","17.423897"],
    [1341,"2024-02-25 20:00:00","18","grottaglie","9.78","1","95.65","1","0.2","1","null","6","null","6","null","6","992.89","1","40.53774","17.423897"],
    [1342,"2024-02-25 21:00:00","18","grottaglie","9.81","1","95.19","1","0.0","1","null","6","null","6","null","6","992.57","1","40.53774","17.423897"],
    [1343,"2024-02-25 22:00:00","18","grottaglie","10.01","1","94.39","1","0.0","1","null","6","null","6","null","6","992.73","1","40.53774","17.423897"],
    [1344,"2024-02-25 23:00:00","18","grottaglie","10.19","1","91.19","1","0.0","1","null","6","null","6","null","6","992.78","1","40.53774","17.423897"],
    [1345,"2024-02-26 00:00:00","18","grottaglie","10.32","1","88.4","1","0.0","1","null","6","null","6","null","6","992.88","1","40.53774","17.423897"],
    [1346,"2024-02-26 01:00:00","18","grottaglie","10.4","1","86.61","1","0.0","1","null","6","null","6","null","6","992.85","1","40.53774","17.423897"],
    [1347,"2024-02-26 02:00:00","18","grottaglie","10.4","1","83.81","1","0.0","1","null","6","null","6","null","6","992.74","1","40.53774","17.423897"],
    [1348,"2024-02-26 03:00:00","18","grottaglie","10.22","1","83.81","1","0.0","1","null","6","null","6","null","6","992.45","1","40.53774","17.423897"],
    [1349,"2024-02-26 04:00:00","18","grottaglie","9.98","1","84.45","1","0.0","1","null","6","null","6","null","6","992.16","1","40.53774","17.423897"],
    [1350,"2024-02-26 05:00:00","18","grottaglie","9.98","1","84.5","1","0.0","1","null","6","null","6","null","6","992.11","1","40.53774","17.423897"],
    [1351,"2024-02-26 06:00:00","18","grottaglie","9.98","1","84.84","1","0.0","1","null","6","null","6","null","6","992.3","1","40.53774","17.423897"],
    [1352,"2024-02-26 07:00:00","18","grottaglie","9.69","1","88.94","1","0.0","1","null","6","null","6","null","6","992.56","1","40.53774","17.423897"],
    [1353,"2024-02-26 08:00:00","18","grottaglie","10.04","1","88.61","1","0.0","1","null","6","null","6","null","6","993.2","1","40.53774","17.423897"],
    [1354,"2024-02-26 09:00:00","18","grottaglie","11.88","1","79.61","1","0.0","1","null","6","null","6","null","6","993.48","1","40.53774","17.423897"],
    [1355,"2024-02-26 10:00:00","18","grottaglie","14.04","1","68.27","1","0.0","1","null","6","null","6","null","6","993.73","1","40.53774","17.423897"],
    [1356,"2024-02-26 11:00:00","18","grottaglie","15.7","1","59.22","1","0.0","1","null","6","null","6","null","6","993.54","1","40.53774","17.423897"],
    [1357,"2024-02-26 12:00:00","18","grottaglie","16.48","1","58.05","1","0.0","1","null","6","null","6","null","6","993.28","1","40.53774","17.423897"],
    [1358,"2024-02-26 13:00:00","18","grottaglie","17.46","1","57.41","1","0.0","1","null","6","null","6","null","6","993.04","1","40.53774","17.423897"],
    [1359,"2024-02-26 14:00:00","18","grottaglie","18.66","1","55.07","1","0.0","1","null","6","null","6","null","6","992.82","1","40.53774","17.423897"],
    [1360,"2024-02-26 15:00:00","18","grottaglie","19.35","1","51.18","1","0.0","1","null","6","null","6","null","6","992.8","1","40.53774","17.423897"],
    [1361,"2024-02-26 16:00:00","18","grottaglie","18.37","1","52.53","1","0.0","1","null","6","null","6","null","6","993.02","1","40.53774","17.423897"],
    [1362,"2024-02-26 17:00:00","18","grottaglie","16.48","1","57.7","1","0.0","1","null","6","null","6","null","6","992.89","1","40.53774","17.423897"],
    [1363,"2024-02-26 18:00:00","18","grottaglie","14.06","1","65.6","1","0.0","1","null","6","null","6","null","6","993.32","1","40.53774","17.423897"],
    [1364,"2024-02-26 19:00:00","18","grottaglie","13.13","1","69.59","1","0.0","1","null","6","null","6","null","6","994.06","1","40.53774","17.423897"],
    [1365,"2024-02-26 20:00:00","18","grottaglie","12.29","1","72.44","1","0.0","1","null","6","null","6","null","6","994.47","1","40.53774","17.423897"],
    [1366,"2024-02-26 21:00:00","18","grottaglie","11.1","1","79.36","1","0.0","1","null","6","null","6","null","6","994.97","1","40.53774","17.423897"],
    [1367,"2024-02-26 22:00:00","18","grottaglie","10.7","1","84.38","1","0.0","1","null","6","null","6","null","6","995.65","1","40.53774","17.423897"],
    [1368,"2024-02-26 23:00:00","18","grottaglie","11.29","1","80.82","1","0.0","1","null","6","null","6","null","6","995.86","1","40.53774","17.423897"],
    [1369,"2024-02-27 00:00:00","18","grottaglie","11.14","1","80.99","1","0.0","1","null","6","null","6","null","6","995.92","1","40.53774","17.423897"],
    [1370,"2024-02-27 01:00:00","18","grottaglie","10.95","1","85.88","1","0.0","1","null","6","null","6","null","6","996.02","1","40.53774","17.423897"],
    [1371,"2024-02-27 02:00:00","18","grottaglie","10.85","1","89.69","1","0.0","1","null","6","null","6","null","6","996.0","1","40.53774","17.423897"],
    [1372,"2024-02-27 03:00:00","18","grottaglie","10.55","1","92.01","1","0.0","1","null","6","null","6","null","6","996.07","1","40.53774","17.423897"],
    [1373,"2024-02-27 04:00:00","18","grottaglie","10.56","1","93.09","1","0.0","1","null","6","null","6","null","6","995.83","1","40.53774","17.423897"],
    [1374,"2024-02-27 05:00:00","18","grottaglie","10.24","1","93.03","1","0.0","1","null","6","null","6","null","6","996.2","1","40.53774","17.423897"],
    [1375,"2024-02-27 06:00:00","18","grottaglie","10.8","1","92.75","1","0.0","1","null","6","null","6","null","6","996.45","1","40.53774","17.423897"],
    [1376,"2024-02-27 07:00:00","18","grottaglie","10.78","1","94.16","1","0.0","1","null","6","null","6","null","6","996.47","1","40.53774","17.423897"],
    [1377,"2024-02-27 08:00:00","18","grottaglie","11.48","1","94.55","1","0.0","1","null","6","null","6","null","6","996.9","1","40.53774","17.423897"],
    [1378,"2024-02-27 09:00:00","18","grottaglie","12.73","1","91.03","1","0.0","1","null","6","null","6","null","6","997.08","1","40.53774","17.423897"],
    [1379,"2024-02-27 10:00:00","18","grottaglie","14.07","1","77.98","1","0.0","1","null","6","null","6","null","6","997.33","1","40.53774","17.423897"],
    [1380,"2024-02-27 11:00:00","18","grottaglie","15.43","1","67.46","1","0.0","1","null","6","null","6","null","6","997.6","1","40.53774","17.423897"],
    [1381,"2024-02-27 12:00:00","18","grottaglie","15.85","1","66.46","1","0.0","1","null","6","null","6","null","6","997.66","1","40.53774","17.423897"],
    [1382,"2024-02-27 13:00:00","18","grottaglie","16.4","1","64.53","1","0.0","1","null","6","null","6","null","6","997.38","1","40.53774","17.423897"],
    [1383,"2024-02-27 14:00:00","18","grottaglie","16.12","1","65.72","1","0.0","1","null","6","null","6","null","6","997.12","1","40.53774","17.423897"],
    [1384,"2024-02-27 15:00:00","18","grottaglie","16.3","1","65.95","1","0.0","1","null","6","null","6","null","6","996.78","1","40.53774","17.423897"],
    [1385,"2024-02-27 16:00:00","18","grottaglie","15.39","1","69.61","1","0.0","1","null","6","null","6","null","6","996.37","1","40.53774","17.423897"],
    [1386,"2024-02-27 17:00:00","18","grottaglie","14.19","1","76.48","1","0.0","1","null","6","null","6","null","6","996.5","1","40.53774","17.423897"],
    [1387,"2024-02-27 18:00:00","18","grottaglie","13.46","1","80.09","1","0.0","1","null","6","null","6","null","6","997.06","1","40.53774","17.423897"],
    [1388,"2024-02-27 19:00:00","18","grottaglie","13.19","1","83.17","1","0.0","1","null","6","null","6","null","6","997.6","1","40.53774","17.423897"],
    [1389,"2024-02-27 20:00:00","18","grottaglie","13.24","1","83.97","1","0.0","1","null","6","null","6","null","6","997.91","1","40.53774","17.423897"],
    [1390,"2024-02-27 21:00:00","18","grottaglie","13.3","1","84.17","1","0.0","1","null","6","null","6","null","6","998.3","1","40.53774","17.423897"],
    [1391,"2024-02-27 22:00:00","18","grottaglie","13.19","1","84.71","1","0.0","1","null","6","null","6","null","6","998.72","1","40.53774","17.423897"],
    [1392,"2024-02-27 23:00:00","18","grottaglie","13.15","1","86.29","1","0.0","1","null","6","null","6","null","6","998.83","1","40.53774","17.423897"],
    [1393,"2024-02-28 00:00:00","18","grottaglie","12.98","1","87.82","1","0.0","1","null","6","null","6","null","6","998.97","1","40.53774","17.423897"],
    [1394,"2024-02-28 01:00:00","18","grottaglie","12.88","1","88.23","1","0.0","1","null","6","null","6","null","6","999.36","1","40.53774","17.423897"],
    [1395,"2024-02-28 02:00:00","18","grottaglie","12.91","1","87.56","1","0.0","1","null","6","null","6","null","6","999.71","1","40.53774","17.423897"],
    [1396,"2024-02-28 03:00:00","18","grottaglie","12.72","1","87.24","1","0.0","1","null","6","null","6","null","6","999.8","1","40.53774","17.423897"],
    [1397,"2024-02-28 04:00:00","18","grottaglie","12.55","1","88.52","1","0.0","1","null","6","null","6","null","6","999.92","1","40.53774","17.423897"],
    [1398,"2024-02-28 05:00:00","18","grottaglie","12.31","1","89.54","1","0.0","1","null","6","null","6","null","6","999.98","1","40.53774","17.423897"],
    [1399,"2024-02-28 06:00:00","18","grottaglie","12.2","1","90.59","1","0.0","1","null","6","null","6","null","6","999.84","1","40.53774","17.423897"],
    [1400,"2024-02-28 07:00:00","18","grottaglie","12.11","1","89.84","1","0.0","1","null","6","null","6","null","6","999.71","1","40.53774","17.423897"],
    [1401,"2024-02-28 08:00:00","18","grottaglie","12.38","1","88.41","1","0.0","1","null","6","null","6","null","6","1000.04","1","40.53774","17.423897"],
    [1402,"2024-02-28 09:00:00","18","grottaglie","13.49","1","83.36","1","0.0","1","null","6","null","6","null","6","1000.22","1","40.53774","17.423897"],
    [1403,"2024-02-28 10:00:00","18","grottaglie","14.64","1","77.64","1","0.0","1","null","6","null","6","null","6","1000.1","1","40.53774","17.423897"],
    [1404,"2024-02-28 11:00:00","18","grottaglie","16.25","1","68.42","1","0.0","1","null","6","null","6","null","6","1000.05","1","40.53774","17.423897"],
    [1405,"2024-02-28 12:00:00","18","grottaglie","16.94","1","65.49","1","0.0","1","null","6","null","6","null","6","999.87","1","40.53774","17.423897"],
    [1406,"2024-02-28 13:00:00","18","grottaglie","17.6","1","59.65","1","0.0","1","null","6","null","6","null","6","999.12","1","40.53774","17.423897"],
    [1407,"2024-02-28 14:00:00","18","grottaglie","18.0","1","58.1","1","0.0","1","null","6","null","6","null","6","998.74","1","40.53774","17.423897"],
    [1408,"2024-02-28 15:00:00","18","grottaglie","18.56","1","56.95","1","0.0","1","null","6","null","6","null","6","998.6","1","40.53774","17.423897"],
    [1409,"2024-02-28 16:00:00","18","grottaglie","17.92","1","58.96","1","0.0","1","null","6","null","6","null","6","998.31","1","40.53774","17.423897"],
    [1410,"2024-02-28 17:00:00","18","grottaglie","16.89","1","60.9","1","0.0","1","null","6","null","6","null","6","998.0","1","40.53774","17.423897"],
    [1411,"2024-02-28 18:00:00","18","grottaglie","15.57","1","63.13","1","0.0","1","null","6","null","6","null","6","997.85","1","40.53774","17.423897"],
    [1412,"2024-02-28 19:00:00","18","grottaglie","15.3","1","63.08","1","0.0","1","null","6","null","6","null","6","997.87","1","40.53774","17.423897"],
    [1413,"2024-02-28 20:00:00","18","grottaglie","15.23","1","66.09","1","0.0","1","null","6","null","6","null","6","998.2","1","40.53774","17.423897"],
    [1414,"2024-02-28 21:00:00","18","grottaglie","14.96","1","68.17","1","0.0","1","null","6","null","6","null","6","998.9","1","40.53774","17.423897"],
    [1415,"2024-02-28 22:00:00","18","grottaglie","15.11","1","64.21","1","0.0","1","null","6","null","6","null","6","999.34","1","40.53774","17.423897"],
    [1416,"2024-02-28 23:00:00","18","grottaglie","14.89","1","65.03","1","0.0","1","null","6","null","6","null","6","999.1","1","40.53774","17.423897"],
    [1417,"2024-02-29 00:00:00","18","grottaglie","14.28","1","73.18","1","0.2","1","null","6","null","6","null","6","999.0","1","40.53774","17.423897"],
    [1418,"2024-02-29 01:00:00","18","grottaglie","13.53","1","82.56","1","0.0","1","null","6","null","6","null","6","998.78","1","40.53774","17.423897"],
    [1419,"2024-02-29 02:00:00","18","grottaglie","13.65","1","82.73","1","0.0","1","null","6","null","6","null","6","998.55","1","40.53774","17.423897"],
    [1420,"2024-02-29 03:00:00","18","grottaglie","13.62","1","83.36","1","0.0","1","null","6","null","6","null","6","997.89","1","40.53774","17.423897"],
    [1421,"2024-02-29 04:00:00","18","grottaglie","13.61","1","82.86","1","0.0","1","null","6","null","6","null","6","997.3","1","40.53774","17.423897"],
    [1422,"2024-02-29 05:00:00","18","grottaglie","13.73","1","80.42","1","0.0","1","null","6","null","6","null","6","996.84","1","40.53774","17.423897"],
    [1423,"2024-02-29 06:00:00","18","grottaglie","13.69","1","79.07","1","0.0","1","null","6","null","6","null","6","996.1","1","40.53774","17.423897"],
    [1424,"2024-02-29 07:00:00","18","grottaglie","13.87","1","74.94","1","0.0","1","null","6","null","6","null","6","995.58","1","40.53774","17.423897"],
    [1425,"2024-02-29 08:00:00","18","grottaglie","14.32","1","70.51","1","0.0","1","null","6","null","6","null","6","995.56","1","40.53774","17.423897"],
    [1426,"2024-02-29 09:00:00","18","grottaglie","15.22","1","65.58","1","0.0","1","null","6","null","6","null","6","995.62","1","40.53774","17.423897"],
    [1427,"2024-02-29 10:00:00","18","grottaglie","15.83","1","64.89","1","0.0","1","null","6","null","6","null","6","995.99","1","40.53774","17.423897"],
    [1428,"2024-02-29 11:00:00","18","grottaglie","15.8","1","66.37","1","0.2","1","null","6","null","6","null","6","995.99","1","40.53774","17.423897"],
    [1429,"2024-02-29 12:00:00","18","grottaglie","16.96","1","60.24","1","0.0","1","null","6","null","6","null","6","995.46","1","40.53774","17.423897"],
    [1430,"2024-02-29 13:00:00","18","grottaglie","16.39","1","62.48","1","0.0","1","null","6","null","6","null","6","994.7","1","40.53774","17.423897"],
    [1431,"2024-02-29 14:00:00","18","grottaglie","15.72","1","68.65","1","0.2","1","null","6","null","6","null","6","993.94","1","40.53774","17.423897"],
    [1432,"2024-02-29 15:00:00","18","grottaglie","14.67","1","78.09","1","1.4","1","null","6","null","6","null","6","993.82","1","40.53774","17.423897"],
    [1433,"2024-02-29 16:00:00","18","grottaglie","13.27","1","89.14","1","5.4","1","null","6","null","6","null","6","994.01","1","40.53774","17.423897"],
    [1434,"2024-02-29 17:00:00","18","grottaglie","11.83","1","92.42","1","2.0","1","null","6","null","6","null","6","993.71","1","40.53774","17.423897"],
    [1435,"2024-02-29 18:00:00","18","grottaglie","11.8","1","94.34","1","2.4","1","null","6","null","6","null","6","993.29","1","40.53774","17.423897"],
    [1436,"2024-02-29 19:00:00","18","grottaglie","11.31","1","94.88","1","4.2","1","null","6","null","6","null","6","993.42","1","40.53774","17.423897"],
    [1437,"2024-02-29 20:00:00","18","grottaglie","11.0","1","95.52","1","5.4","1","null","6","null","6","null","6","993.45","1","40.53774","17.423897"],
    [1438,"2024-02-29 21:00:00","18","grottaglie","10.85","1","95.96","1","4.4","1","null","6","null","6","null","6","992.92","1","40.53774","17.423897"],
    [1439,"2024-02-29 22:00:00","18","grottaglie","10.44","1","95.92","1","0.0","1","null","6","null","6","null","6","992.73","1","40.53774","17.423897"],
    [1440,"2024-02-29 23:00:00","18","grottaglie","9.8","1","95.75","1","0.0","1","null","6","null","6","null","6","992.95","1","40.53774","17.423897"],
    [1441,"2024-03-01 00:00:00","18","grottaglie","9.59","1","95.38","1","0.0","1","null","6","null","6","null","6","992.63","1","40.53774","17.423897"],
    [1442,"2024-03-01 01:00:00","18","grottaglie","9.55","1","95.41","1","0.0","1","null","6","null","6","null","6","992.59","1","40.53774","17.423897"],
    [1443,"2024-03-01 02:00:00","18","grottaglie","9.5","1","95.57","1","0.0","1","null","6","null","6","null","6","992.15","1","40.53774","17.423897"],
    [1444,"2024-03-01 03:00:00","18","grottaglie","9.19","1","95.83","1","0.0","1","null","6","null","6","null","6","992.14","1","40.53774","17.423897"],
    [1445,"2024-03-01 04:00:00","18","grottaglie","9.39","1","95.53","1","0.0","1","null","6","null","6","null","6","992.03","1","40.53774","17.423897"],
    [1446,"2024-03-01 05:00:00","18","grottaglie","9.62","1","94.91","1","0.0","1","null","6","null","6","null","6","992.49","1","40.53774","17.423897"],
    [1447,"2024-03-01 06:00:00","18","grottaglie","9.74","1","94.64","1","0.0","1","null","6","null","6","null","6","992.76","1","40.53774","17.423897"],
    [1448,"2024-03-01 07:00:00","18","grottaglie","9.57","1","93.12","1","0.0","1","null","6","null","6","null","6","993.1","1","40.53774","17.423897"],
    [1449,"2024-03-01 08:00:00","18","grottaglie","9.89","1","86.75","1","0.0","1","null","6","null","6","null","6","993.28","1","40.53774","17.423897"],
    [1450,"2024-03-01 09:00:00","18","grottaglie","12.24","1","78.8","1","0.0","1","null","6","null","6","null","6","993.71","1","40.53774","17.423897"],
    [1451,"2024-03-01 10:00:00","18","grottaglie","13.57","1","74.21","1","0.0","1","null","6","null","6","null","6","993.67","1","40.53774","17.423897"],
    [1452,"2024-03-01 11:00:00","18","grottaglie","13.03","1","78.02","1","0.0","1","null","6","null","6","null","6","993.92","1","40.53774","17.423897"],
    [1453,"2024-03-01 12:00:00","18","grottaglie","13.74","1","76.83","1","0.0","1","null","6","null","6","null","6","994.0","1","40.53774","17.423897"],
    [1454,"2024-03-01 13:00:00","18","grottaglie","14.87","1","64.77","1","0.0","1","null","6","null","6","null","6","993.57","1","40.53774","17.423897"],
    [1455,"2024-03-01 14:00:00","18","grottaglie","15.15","1","63.27","1","0.2","1","null","6","null","6","null","6","993.53","1","40.53774","17.423897"],
    [1456,"2024-03-01 15:00:00","18","grottaglie","15.73","1","59.04","1","0.0","1","null","6","null","6","null","6","993.42","1","40.53774","17.423897"],
    [1457,"2024-03-01 16:00:00","18","grottaglie","16.76","1","51.77","1","0.0","1","null","6","null","6","null","6","993.55","1","40.53774","17.423897"],
    [1458,"2024-03-01 17:00:00","18","grottaglie","15.33","1","58.8","1","0.0","1","null","6","null","6","null","6","993.5","1","40.53774","17.423897"],
    [1459,"2024-03-01 18:00:00","18","grottaglie","13.46","1","72.28","1","0.0","1","null","6","null","6","null","6","993.8","1","40.53774","17.423897"],
    [1460,"2024-03-01 19:00:00","18","grottaglie","11.82","1","76.28","1","0.0","1","null","6","null","6","null","6","994.16","1","40.53774","17.423897"],
    [1461,"2024-03-01 20:00:00","18","grottaglie","11.17","1","79.34","1","0.0","1","null","6","null","6","null","6","994.43","1","40.53774","17.423897"],
    [1462,"2024-03-01 21:00:00","18","grottaglie","10.71","1","82.6","1","0.0","1","null","6","null","6","null","6","994.59","1","40.53774","17.423897"],
    [1463,"2024-03-01 22:00:00","18","grottaglie","10.52","1","84.5","1","0.0","1","null","6","null","6","null","6","994.51","1","40.53774","17.423897"],
    [1464,"2024-03-01 23:00:00","18","grottaglie","10.52","1","86.2","1","0.0","1","null","6","null","6","null","6","994.56","1","40.53774","17.423897"],
    [1465,"2024-03-02 00:00:00","18","grottaglie","10.24","1","87.0","1","0.0","1","null","6","null","6","null","6","994.38","1","40.53774","17.423897"],
    [1466,"2024-03-02 01:00:00","18","grottaglie","10.12","1","87.49","1","0.0","1","null","6","null","6","null","6","994.38","1","40.53774","17.423897"],
    [1467,"2024-03-02 02:00:00","18","grottaglie","9.88","1","88.18","1","0.0","1","null","6","null","6","null","6","994.5","1","40.53774","17.423897"],
    [1468,"2024-03-02 03:00:00","18","grottaglie","9.81","1","89.4","1","0.0","1","null","6","null","6","null","6","994.52","1","40.53774","17.423897"],
    [1469,"2024-03-02 04:00:00","18","grottaglie","9.74","1","90.66","1","0.0","1","null","6","null","6","null","6","994.43","1","40.53774","17.423897"],
    [1470,"2024-03-02 05:00:00","18","grottaglie","9.1","1","91.69","1","0.0","1","null","6","null","6","null","6","994.53","1","40.53774","17.423897"],
    [1471,"2024-03-02 06:00:00","18","grottaglie","7.95","1","92.71","1","0.0","1","null","6","null","6","null","6","994.94","1","40.53774","17.423897"],
    [1472,"2024-03-02 07:00:00","18","grottaglie","6.57","1","92.96","1","0.0","1","null","6","null","6","null","6","995.56","1","40.53774","17.423897"],
    [1473,"2024-03-02 08:00:00","18","grottaglie","7.02","1","94.22","1","0.0","1","null","6","null","6","null","6","996.22","1","40.53774","17.423897"],
    [1474,"2024-03-02 09:00:00","18","grottaglie","9.24","1","95.4","1","0.0","1","null","6","null","6","null","6","997.01","1","40.53774","17.423897"],
    [1475,"2024-03-02 10:00:00","18","grottaglie","10.87","1","94.58","1","0.2","1","null","6","null","6","null","6","997.58","1","40.53774","17.423897"],
    [1476,"2024-03-02 11:00:00","18","grottaglie","13.13","1","79.8","1","0.0","1","null","6","null","6","null","6","997.39","1","40.53774","17.423897"],
    [1477,"2024-03-02 12:00:00","18","grottaglie","14.58","1","54.59","1","0.0","1","null","6","null","6","null","6","997.43","1","40.53774","17.423897"],
    [1478,"2024-03-02 13:00:00","18","grottaglie","16.33","1","50.23","1","0.0","1","null","6","null","6","null","6","997.13","1","40.53774","17.423897"],
    [1479,"2024-03-02 14:00:00","18","grottaglie","16.85","1","50.89","1","0.0","1","null","6","null","6","null","6","997.06","1","40.53774","17.423897"],
    [1480,"2024-03-02 15:00:00","18","grottaglie","16.67","1","52.75","1","0.0","1","null","6","null","6","null","6","997.4","1","40.53774","17.423897"],
    [1481,"2024-03-02 16:00:00","18","grottaglie","16.61","1","53.95","1","0.0","1","null","6","null","6","null","6","997.56","1","40.53774","17.423897"],
    [1482,"2024-03-02 17:00:00","18","grottaglie","15.88","1","57.89","1","0.0","1","null","6","null","6","null","6","997.63","1","40.53774","17.423897"],
    [1483,"2024-03-02 18:00:00","18","grottaglie","13.58","1","67.7","1","0.0","1","null","6","null","6","null","6","997.82","1","40.53774","17.423897"],
    [1484,"2024-03-02 19:00:00","18","grottaglie","12.09","1","75.86","1","0.0","1","null","6","null","6","null","6","998.41","1","40.53774","17.423897"],
    [1485,"2024-03-02 20:00:00","18","grottaglie","12.16","1","76.7","1","0.0","1","null","6","null","6","null","6","998.67","1","40.53774","17.423897"],
    [1486,"2024-03-02 21:00:00","18","grottaglie","12.22","1","77.41","1","0.0","1","null","6","null","6","null","6","998.82","1","40.53774","17.423897"],
    [1487,"2024-03-02 22:00:00","18","grottaglie","11.88","1","79.8","1","0.0","1","null","6","null","6","null","6","998.95","1","40.53774","17.423897"],
    [1488,"2024-03-02 23:00:00","18","grottaglie","11.32","1","83.65","1","0.0","1","null","6","null","6","null","6","998.94","1","40.53774","17.423897"],
    [1489,"2024-03-03 00:00:00","18","grottaglie","9.98","1","87.26","1","0.0","1","null","6","null","6","null","6","999.31","1","40.53774","17.423897"],
    [1490,"2024-03-03 01:00:00","18","grottaglie","9.52","1","88.98","1","0.0","1","null","6","null","6","null","6","999.42","1","40.53774","17.423897"],
    [1491,"2024-03-03 02:00:00","18","grottaglie","8.95","1","90.79","1","0.0","1","null","6","null","6","null","6","999.4","1","40.53774","17.423897"],
    [1492,"2024-03-03 03:00:00","18","grottaglie","8.51","1","92.21","1","0.0","1","null","6","null","6","null","6","999.06","1","40.53774","17.423897"],
    [1493,"2024-03-03 04:00:00","18","grottaglie","8.72","1","93.57","1","0.0","1","null","6","null","6","null","6","998.91","1","40.53774","17.423897"],
    [1494,"2024-03-03 05:00:00","18","grottaglie","8.52","1","93.58","1","0.0","1","null","6","null","6","null","6","998.84","1","40.53774","17.423897"],
    [1495,"2024-03-03 06:00:00","18","grottaglie","8.09","1","94.56","1","0.0","1","null","6","null","6","null","6","999.01","1","40.53774","17.423897"],
    [1496,"2024-03-03 07:00:00","18","grottaglie","8.24","1","94.76","1","0.0","1","null","6","null","6","null","6","998.8","1","40.53774","17.423897"],
    [1497,"2024-03-03 08:00:00","18","grottaglie","7.88","1","94.73","1","0.0","1","null","6","null","6","null","6","998.97","1","40.53774","17.423897"],
    [1498,"2024-03-03 09:00:00","18","grottaglie","9.67","1","93.06","1","0.0","1","null","6","null","6","null","6","999.13","1","40.53774","17.423897"],
    [1499,"2024-03-03 10:00:00","18","grottaglie","12.97","1","63.27","1","0.0","1","null","6","null","6","null","6","999.36","1","40.53774","17.423897"],
    [1500,"2024-03-03 11:00:00","18","grottaglie","14.55","1","50.61","1","0.0","1","null","6","null","6","null","6","998.82","1","40.53774","17.423897"],
    [1501,"2024-03-03 12:00:00","18","grottaglie","15.02","1","54.46","1","0.0","1","null","6","null","6","null","6","998.4","1","40.53774","17.423897"],
    [1502,"2024-03-03 13:00:00","18","grottaglie","16.84","1","51.27","1","0.0","1","null","6","null","6","null","6","997.83","1","40.53774","17.423897"],
    [1503,"2024-03-03 14:00:00","18","grottaglie","16.67","1","48.6","1","0.0","1","null","6","null","6","null","6","997.29","1","40.53774","17.423897"],
    [1504,"2024-03-03 15:00:00","18","grottaglie","17.55","1","49.09","1","0.0","1","null","6","null","6","null","6","997.01","1","40.53774","17.423897"],
    [1505,"2024-03-03 16:00:00","18","grottaglie","16.91","1","52.74","1","0.0","1","null","6","null","6","null","6","996.77","1","40.53774","17.423897"],
    [1506,"2024-03-03 17:00:00","18","grottaglie","16.87","1","48.91","1","0.0","1","null","6","null","6","null","6","996.55","1","40.53774","17.423897"],
    [1507,"2024-03-03 18:00:00","18","grottaglie","13.71","1","66.11","1","0.0","1","null","6","null","6","null","6","995.98","1","40.53774","17.423897"],
    [1508,"2024-03-03 19:00:00","18","grottaglie","11.72","1","79.98","1","0.0","1","null","6","null","6","null","6","996.37","1","40.53774","17.423897"],
    [1509,"2024-03-03 20:00:00","18","grottaglie","11.45","1","79.85","1","0.0","1","null","6","null","6","null","6","996.42","1","40.53774","17.423897"],
    [1510,"2024-03-03 21:00:00","18","grottaglie","11.75","1","79.39","1","0.0","1","null","6","null","6","null","6","996.29","1","40.53774","17.423897"],
    [1511,"2024-03-03 22:00:00","18","grottaglie","12.29","1","78.15","1","0.0","1","null","6","null","6","null","6","996.04","1","40.53774","17.423897"],
    [1512,"2024-03-03 23:00:00","18","grottaglie","12.63","1","79.56","1","0.0","1","null","6","null","6","null","6","995.56","1","40.53774","17.423897"],
    [1513,"2024-03-04 00:00:00","18","grottaglie","12.78","1","82.71","1","0.0","1","null","6","null","6","null","6","995.05","1","40.53774","17.423897"],
    [1514,"2024-03-04 01:00:00","18","grottaglie","12.92","1","84.74","1","0.0","1","null","6","null","6","null","6","994.78","1","40.53774","17.423897"],
    [1515,"2024-03-04 02:00:00","18","grottaglie","13.1","1","84.44","1","0.0","1","null","6","null","6","null","6","994.24","1","40.53774","17.423897"],
    [1516,"2024-03-04 03:00:00","18","grottaglie","13.2","1","83.99","1","0.0","1","null","6","null","6","null","6","993.67","1","40.53774","17.423897"],
    [1517,"2024-03-04 04:00:00","18","grottaglie","13.18","1","83.6","1","0.0","1","null","6","null","6","null","6","993.08","1","40.53774","17.423897"],
    [1518,"2024-03-04 05:00:00","18","grottaglie","13.06","1","82.91","1","0.0","1","null","6","null","6","null","6","992.58","1","40.53774","17.423897"],
    [1519,"2024-03-04 06:00:00","18","grottaglie","13.13","1","82.35","1","0.0","1","null","6","null","6","null","6","992.54","1","40.53774","17.423897"],
    [1520,"2024-03-04 07:00:00","18","grottaglie","13.08","1","82.49","1","0.0","1","null","6","null","6","null","6","992.18","1","40.53774","17.423897"],
    [1521,"2024-03-04 08:00:00","18","grottaglie","13.3","1","81.47","1","0.0","1","null","6","null","6","null","6","991.64","1","40.53774","17.423897"],
    [1522,"2024-03-04 09:00:00","18","grottaglie","13.65","1","80.06","1","0.0","1","null","6","null","6","null","6","991.05","1","40.53774","17.423897"],
    [1523,"2024-03-04 10:00:00","18","grottaglie","11.91","1","83.3","1","6.4","1","null","6","null","6","null","6","991.12","1","40.53774","17.423897"],
    [1524,"2024-03-04 11:00:00","18","grottaglie","7.81","1","90.98","1","7.8","1","null","6","null","6","null","6","992.85","1","40.53774","17.423897"],
    [1525,"2024-03-04 12:00:00","18","grottaglie","8.05","1","92.5","1","0.6","1","null","6","null","6","null","6","991.93","1","40.53774","17.423897"],
    [1526,"2024-03-04 13:00:00","18","grottaglie","8.94","1","88.73","1","0.2","1","null","6","null","6","null","6","991.61","1","40.53774","17.423897"],
    [1527,"2024-03-04 14:00:00","18","grottaglie","9.75","1","74.65","1","0.0","1","null","6","null","6","null","6","991.38","1","40.53774","17.423897"],
    [1528,"2024-03-04 15:00:00","18","grottaglie","9.75","1","73.55","1","0.2","1","null","6","null","6","null","6","991.47","1","40.53774","17.423897"],
    [1529,"2024-03-04 16:00:00","18","grottaglie","10.79","1","68.53","1","0.0","1","null","6","null","6","null","6","991.15","1","40.53774","17.423897"],
    [1530,"2024-03-04 17:00:00","18","grottaglie","12.71","1","58.32","1","0.0","1","null","6","null","6","null","6","991.21","1","40.53774","17.423897"],
    [1531,"2024-03-04 18:00:00","18","grottaglie","11.38","1","62.32","1","0.0","1","null","6","null","6","null","6","991.15","1","40.53774","17.423897"],
    [1532,"2024-03-04 19:00:00","18","grottaglie","8.66","1","75.09","1","0.0","1","null","6","null","6","null","6","991.68","1","40.53774","17.423897"],
    [1533,"2024-03-04 20:00:00","18","grottaglie","8.24","1","78.99","1","0.0","1","null","6","null","6","null","6","992.06","1","40.53774","17.423897"],
    [1534,"2024-03-04 21:00:00","18","grottaglie","7.83","1","79.76","1","0.0","1","null","6","null","6","null","6","991.76","1","40.53774","17.423897"],
    [1535,"2024-03-04 22:00:00","18","grottaglie","7.2","1","82.16","1","0.0","1","null","6","null","6","null","6","991.69","1","40.53774","17.423897"],
    [1536,"2024-03-04 23:00:00","18","grottaglie","7.1","1","84.17","1","0.0","1","null","6","null","6","null","6","992.01","1","40.53774","17.423897"],
    [1537,"2024-03-05 00:00:00","18","grottaglie","6.91","1","81.93","1","0.0","1","null","6","null","6","null","6","992.35","1","40.53774","17.423897"],
    [1538,"2024-03-05 01:00:00","18","grottaglie","6.17","1","86.14","1","0.0","1","null","6","null","6","null","6","992.74","1","40.53774","17.423897"],
    [1539,"2024-03-05 02:00:00","18","grottaglie","6.73","1","83.94","1","0.0","1","null","6","null","6","null","6","993.07","1","40.53774","17.423897"],
    [1540,"2024-03-05 03:00:00","18","grottaglie","7.28","1","74.17","1","0.0","1","null","6","null","6","null","6","992.93","1","40.53774","17.423897"],
    [1541,"2024-03-05 04:00:00","18","grottaglie","7.64","1","66.79","1","0.0","1","null","6","null","6","null","6","992.95","1","40.53774","17.423897"],
    [1542,"2024-03-05 05:00:00","18","grottaglie","6.48","1","70.37","1","0.0","1","null","6","null","6","null","6","993.37","1","40.53774","17.423897"],
    [1543,"2024-03-05 06:00:00","18","grottaglie","5.01","1","80.42","1","0.0","1","null","6","null","6","null","6","993.78","1","40.53774","17.423897"],
    [1544,"2024-03-05 07:00:00","18","grottaglie","4.99","1","85.09","1","0.0","1","null","6","null","6","null","6","993.91","1","40.53774","17.423897"],
    [1545,"2024-03-05 08:00:00","18","grottaglie","6.13","1","87.77","1","0.0","1","null","6","null","6","null","6","994.51","1","40.53774","17.423897"],
    [1546,"2024-03-05 09:00:00","18","grottaglie","8.82","1","84.45","1","0.0","1","null","6","null","6","null","6","995.41","1","40.53774","17.423897"],
    [1547,"2024-03-05 10:00:00","18","grottaglie","11.95","1","69.03","1","0.0","1","null","6","null","6","null","6","995.6","1","40.53774","17.423897"],
    [1548,"2024-03-05 11:00:00","18","grottaglie","13.58","1","57.79","1","0.0","1","null","6","null","6","null","6","995.53","1","40.53774","17.423897"],
    [1549,"2024-03-05 12:00:00","18","grottaglie","13.96","1","53.76","1","0.2","1","null","6","null","6","null","6","995.93","1","40.53774","17.423897"],
    [1550,"2024-03-05 13:00:00","18","grottaglie","13.4","1","59.69","1","0.0","1","null","6","null","6","null","6","996.12","1","40.53774","17.423897"],
    [1551,"2024-03-05 14:00:00","18","grottaglie","12.79","1","65.16","1","0.0","1","null","6","null","6","null","6","996.47","1","40.53774","17.423897"],
    [1552,"2024-03-05 15:00:00","18","grottaglie","12.98","1","62.86","1","0.0","1","null","6","null","6","null","6","996.47","1","40.53774","17.423897"],
    [1553,"2024-03-05 16:00:00","18","grottaglie","13.6","1","58.8","1","0.0","1","null","6","null","6","null","6","996.71","1","40.53774","17.423897"],
    [1554,"2024-03-05 17:00:00","18","grottaglie","14.71","1","57.84","1","0.0","1","null","6","null","6","null","6","997.24","1","40.53774","17.423897"],
    [1555,"2024-03-05 18:00:00","18","grottaglie","13.99","1","61.2","1","0.0","1","null","6","null","6","null","6","997.58","1","40.53774","17.423897"],
    [1556,"2024-03-05 19:00:00","18","grottaglie","11.82","1","67.77","1","0.0","1","null","6","null","6","null","6","998.13","1","40.53774","17.423897"],
    [1557,"2024-03-05 20:00:00","18","grottaglie","10.75","1","72.62","1","0.0","1","null","6","null","6","null","6","998.73","1","40.53774","17.423897"],
    [1558,"2024-03-05 21:00:00","18","grottaglie","8.85","1","79.61","1","0.0","1","null","6","null","6","null","6","999.36","1","40.53774","17.423897"],
    [1559,"2024-03-05 22:00:00","18","grottaglie","7.95","1","85.18","1","0.0","1","null","6","null","6","null","6","999.82","1","40.53774","17.423897"],
    [1560,"2024-03-05 23:00:00","18","grottaglie","7.27","1","88.01","1","0.0","1","null","6","null","6","null","6","1000.26","1","40.53774","17.423897"],
    [1561,"2024-03-06 00:00:00","18","grottaglie","8.27","1","88.25","1","0.0","1","null","6","null","6","null","6","1000.28","1","40.53774","17.423897"],
    [1562,"2024-03-06 01:00:00","18","grottaglie","9.0","1","83.82","1","0.0","1","null","6","null","6","null","6","1000.52","1","40.53774","17.423897"],
    [1563,"2024-03-06 02:00:00","18","grottaglie","8.89","1","80.75","1","0.0","1","null","6","null","6","null","6","1000.49","1","40.53774","17.423897"],
    [1564,"2024-03-06 03:00:00","18","grottaglie","9.25","1","76.5","1","0.0","1","null","6","null","6","null","6","1000.44","1","40.53774","17.423897"],
    [1565,"2024-03-06 04:00:00","18","grottaglie","8.53","1","76.41","1","0.0","1","null","6","null","6","null","6","1000.52","1","40.53774","17.423897"],
    [1566,"2024-03-06 05:00:00","18","grottaglie","8.51","1","75.12","1","0.0","1","null","6","null","6","null","6","1000.57","1","40.53774","17.423897"],
    [1567,"2024-03-06 06:00:00","18","grottaglie","7.61","1","79.73","1","0.0","1","null","6","null","6","null","6","1000.66","1","40.53774","17.423897"],
    [1568,"2024-03-06 07:00:00","18","grottaglie","7.53","1","79.11","1","0.0","1","null","6","null","6","null","6","1000.96","1","40.53774","17.423897"],
    [1569,"2024-03-06 08:00:00","18","grottaglie","7.34","1","80.95","1","0.0","1","null","6","null","6","null","6","1001.62","1","40.53774","17.423897"],
    [1570,"2024-03-06 09:00:00","18","grottaglie","10.25","1","72.02","1","0.0","1","null","6","null","6","null","6","1001.9","1","40.53774","17.423897"],
    [1571,"2024-03-06 10:00:00","18","grottaglie","13.8","1","56.91","1","0.0","1","null","6","null","6","null","6","1001.95","1","40.53774","17.423897"],
    [1572,"2024-03-06 11:00:00","18","grottaglie","15.73","1","50.34","1","0.0","1","null","6","null","6","null","6","1001.41","1","40.53774","17.423897"],
    [1573,"2024-03-06 12:00:00","18","grottaglie","15.81","1","46.47","1","0.0","1","null","6","null","6","null","6","1001.41","1","40.53774","17.423897"],
    [1574,"2024-03-06 13:00:00","18","grottaglie","16.87","1","46.57","1","0.0","1","null","6","null","6","null","6","1001.07","1","40.53774","17.423897"],
    [1575,"2024-03-06 14:00:00","18","grottaglie","18.22","1","44.25","1","0.0","1","null","6","null","6","null","6","1000.58","1","40.53774","17.423897"],
    [1576,"2024-03-06 15:00:00","18","grottaglie","15.36","1","57.58","1","1.4","1","null","6","null","6","null","6","1000.46","1","40.53774","17.423897"],
    [1577,"2024-03-06 16:00:00","18","grottaglie","17.17","1","58.33","1","0.0","1","null","6","null","6","null","6","1000.82","1","40.53774","17.423897"],
    [1578,"2024-03-06 17:00:00","18","grottaglie","18.72","1","51.74","1","0.0","1","null","6","null","6","null","6","1000.25","1","40.53774","17.423897"],
    [1579,"2024-03-06 18:00:00","18","grottaglie","16.18","1","60.78","1","0.0","1","null","6","null","6","null","6","999.74","1","40.53774","17.423897"],
    [1580,"2024-03-06 19:00:00","18","grottaglie","13.04","1","69.9","1","0.0","1","null","6","null","6","null","6","1000.21","1","40.53774","17.423897"],
    [1581,"2024-03-06 20:00:00","18","grottaglie","12.0","1","52.12","1","0.0","1","null","6","null","6","null","6","1001.2","1","40.53774","17.423897"],
    [1582,"2024-03-06 21:00:00","18","grottaglie","10.18","1","52.23","1","0.0","1","null","6","null","6","null","6","1001.77","1","40.53774","17.423897"],
    [1583,"2024-03-06 22:00:00","18","grottaglie","9.27","1","55.49","1","0.0","1","null","6","null","6","null","6","1002.38","1","40.53774","17.423897"],
    [1584,"2024-03-06 23:00:00","18","grottaglie","9.12","1","56.33","1","0.0","1","null","6","null","6","null","6","1002.71","1","40.53774","17.423897"],
    [1585,"2024-03-07 00:00:00","18","grottaglie","9.01","1","57.27","1","0.0","1","null","6","null","6","null","6","1002.65","1","40.53774","17.423897"],
    [1586,"2024-03-07 01:00:00","18","grottaglie","9.01","1","57.42","1","0.0","1","null","6","null","6","null","6","1002.43","1","40.53774","17.423897"],
    [1587,"2024-03-07 02:00:00","18","grottaglie","8.0","1","63.13","1","0.0","1","null","6","null","6","null","6","1002.37","1","40.53774","17.423897"],
    [1588,"2024-03-07 03:00:00","18","grottaglie","7.51","1","66.49","1","0.0","1","null","6","null","6","null","6","1001.95","1","40.53774","17.423897"],
    [1589,"2024-03-07 04:00:00","18","grottaglie","7.37","1","68.97","1","0.0","1","null","6","null","6","null","6","1001.55","1","40.53774","17.423897"],
    [1590,"2024-03-07 05:00:00","18","grottaglie","7.46","1","69.1","1","0.0","1","null","6","null","6","null","6","1001.47","1","40.53774","17.423897"],
    [1591,"2024-03-07 06:00:00","18","grottaglie","7.1","1","70.1","1","0.0","1","null","6","null","6","null","6","1001.39","1","40.53774","17.423897"],
    [1592,"2024-03-07 07:00:00","18","grottaglie","6.95","1","67.81","1","0.0","1","null","6","null","6","null","6","1001.34","1","40.53774","17.423897"],
    [1593,"2024-03-07 08:00:00","18","grottaglie","7.65","1","64.7","1","0.0","1","null","6","null","6","null","6","1001.63","1","40.53774","17.423897"],
    [1594,"2024-03-07 09:00:00","18","grottaglie","9.59","1","60.9","1","0.0","1","null","6","null","6","null","6","1001.94","1","40.53774","17.423897"],
    [1595,"2024-03-07 10:00:00","18","grottaglie","11.88","1","54.28","1","0.0","1","null","6","null","6","null","6","1001.91","1","40.53774","17.423897"],
    [1596,"2024-03-07 11:00:00","18","grottaglie","13.04","1","49.87","1","0.0","1","null","6","null","6","null","6","1001.49","1","40.53774","17.423897"],
    [1597,"2024-03-07 12:00:00","18","grottaglie","13.85","1","40.28","1","0.0","1","null","6","null","6","null","6","1001.18","1","40.53774","17.423897"],
    [1598,"2024-03-07 13:00:00","18","grottaglie","14.76","1","39.55","1","0.0","1","null","6","null","6","null","6","1000.83","1","40.53774","17.423897"],
    [1599,"2024-03-07 14:00:00","18","grottaglie","15.28","1","36.88","1","0.0","1","null","6","null","6","null","6","1000.18","1","40.53774","17.423897"],
    [1600,"2024-03-07 15:00:00","18","grottaglie","14.46","1","38.56","1","0.0","1","null","6","null","6","null","6","999.86","1","40.53774","17.423897"],
    [1601,"2024-03-07 16:00:00","18","grottaglie","13.86","1","46.67","1","0.0","1","null","6","null","6","null","6","1000.4","1","40.53774","17.423897"],
    [1602,"2024-03-07 17:00:00","18","grottaglie","14.81","1","47.09","1","0.0","1","null","6","null","6","null","6","1000.62","1","40.53774","17.423897"],
    [1603,"2024-03-07 18:00:00","18","grottaglie","10.81","1","64.67","1","0.6","1","null","6","null","6","null","6","1000.91","1","40.53774","17.423897"],
    [1604,"2024-03-07 19:00:00","18","grottaglie","8.98","1","69.96","1","0.0","1","null","6","null","6","null","6","1001.57","1","40.53774","17.423897"],
    [1605,"2024-03-07 20:00:00","18","grottaglie","8.77","1","71.86","1","0.0","1","null","6","null","6","null","6","1001.89","1","40.53774","17.423897"],
    [1606,"2024-03-07 21:00:00","18","grottaglie","7.32","1","82.38","1","0.0","1","null","6","null","6","null","6","1002.41","1","40.53774","17.423897"],
    [1607,"2024-03-07 22:00:00","18","grottaglie","6.87","1","85.64","1","0.0","1","null","6","null","6","null","6","1002.67","1","40.53774","17.423897"],
    [1608,"2024-03-07 23:00:00","18","grottaglie","6.47","1","85.2","1","0.0","1","null","6","null","6","null","6","1002.69","1","40.53774","17.423897"],
    [1609,"2024-03-08 00:00:00","18","grottaglie","6.29","1","85.75","1","0.0","1","null","6","null","6","null","6","1002.88","1","40.53774","17.423897"],
    [1610,"2024-03-08 01:00:00","18","grottaglie","6.36","1","84.26","1","0.0","1","null","6","null","6","null","6","1002.94","1","40.53774","17.423897"],
    [1611,"2024-03-08 02:00:00","18","grottaglie","6.09","1","85.23","1","0.0","1","null","6","null","6","null","6","1002.96","1","40.53774","17.423897"],
    [1612,"2024-03-08 03:00:00","18","grottaglie","5.9","1","85.84","1","0.0","1","null","6","null","6","null","6","1002.62","1","40.53774","17.423897"],
    [1613,"2024-03-08 04:00:00","18","grottaglie","5.74","1","86.45","1","0.0","1","null","6","null","6","null","6","1002.55","1","40.53774","17.423897"],
    [1614,"2024-03-08 05:00:00","18","grottaglie","5.63","1","86.0","1","0.0","1","null","6","null","6","null","6","1002.46","1","40.53774","17.423897"],
    [1615,"2024-03-08 06:00:00","18","grottaglie","5.15","1","86.44","1","0.0","1","null","6","null","6","null","6","1002.47","1","40.53774","17.423897"],
    [1616,"2024-03-08 07:00:00","18","grottaglie","5.24","1","88.36","1","0.0","1","null","6","null","6","null","6","1002.67","1","40.53774","17.423897"],
    [1617,"2024-03-08 08:00:00","18","grottaglie","6.46","1","87.65","1","0.0","1","null","6","null","6","null","6","1002.93","1","40.53774","17.423897"],
    [1618,"2024-03-08 09:00:00","18","grottaglie","8.81","1","81.41","1","0.0","1","null","6","null","6","null","6","1003.12","1","40.53774","17.423897"],
    [1619,"2024-03-08 10:00:00","18","grottaglie","12.39","1","61.24","1","0.0","1","null","6","null","6","null","6","1003.0","1","40.53774","17.423897"],
    [1620,"2024-03-08 11:00:00","18","grottaglie","14.37","1","48.93","1","0.0","1","null","6","null","6","null","6","1002.42","1","40.53774","17.423897"],
    [1621,"2024-03-08 12:00:00","18","grottaglie","14.18","1","49.2","1","0.0","1","null","6","null","6","null","6","1002.4","1","40.53774","17.423897"],
    [1622,"2024-03-08 13:00:00","18","grottaglie","15.06","1","48.26","1","0.0","1","null","6","null","6","null","6","1002.25","1","40.53774","17.423897"],
    [1623,"2024-03-08 14:00:00","18","grottaglie","15.67","1","44.48","1","0.0","1","null","6","null","6","null","6","1001.98","1","40.53774","17.423897"],
    [1624,"2024-03-08 15:00:00","18","grottaglie","15.7","1","43.68","1","0.0","1","null","6","null","6","null","6","1001.97","1","40.53774","17.423897"],
    [1625,"2024-03-08 16:00:00","18","grottaglie","15.71","1","40.17","1","0.0","1","null","6","null","6","null","6","1001.82","1","40.53774","17.423897"],
    [1626,"2024-03-08 17:00:00","18","grottaglie","15.12","1","42.4","1","0.0","1","null","6","null","6","null","6","1001.78","1","40.53774","17.423897"],
    [1627,"2024-03-08 18:00:00","18","grottaglie","12.7","1","57.89","1","0.0","1","null","6","null","6","null","6","1001.54","1","40.53774","17.423897"],
    [1628,"2024-03-08 19:00:00","18","grottaglie","10.52","1","69.01","1","0.0","1","null","6","null","6","null","6","1002.1","1","40.53774","17.423897"],
    [1629,"2024-03-08 20:00:00","18","grottaglie","10.61","1","69.29","1","0.0","1","null","6","null","6","null","6","1002.27","1","40.53774","17.423897"],
    [1630,"2024-03-08 21:00:00","18","grottaglie","10.59","1","71.07","1","0.0","1","null","6","null","6","null","6","1002.4","1","40.53774","17.423897"],
    [1631,"2024-03-08 22:00:00","18","grottaglie","10.92","1","72.52","1","0.0","1","null","6","null","6","null","6","1002.42","1","40.53774","17.423897"],
    [1632,"2024-03-08 23:00:00","18","grottaglie","10.92","1","74.37","1","0.0","1","null","6","null","6","null","6","1002.31","1","40.53774","17.423897"],
    [1633,"2024-03-09 00:00:00","18","grottaglie","11.01","1","73.97","1","0.0","1","null","6","null","6","null","6","1001.86","1","40.53774","17.423897"],
    [1634,"2024-03-09 01:00:00","18","grottaglie","11.16","1","74.3","1","0.0","1","null","6","null","6","null","6","1001.64","1","40.53774","17.423897"],
    [1635,"2024-03-09 02:00:00","18","grottaglie","11.23","1","76.27","1","0.0","1","null","6","null","6","null","6","1001.3","1","40.53774","17.423897"],
    [1636,"2024-03-09 03:00:00","18","grottaglie","11.56","1","79.55","1","0.0","1","null","6","null","6","null","6","1000.83","1","40.53774","17.423897"],
    [1637,"2024-03-09 04:00:00","18","grottaglie","11.33","1","83.21","1","0.4","1","null","6","null","6","null","6","1000.4","1","40.53774","17.423897"],
    [1638,"2024-03-09 05:00:00","18","grottaglie","11.02","1","87.3","1","0.2","1","null","6","null","6","null","6","1000.3","1","40.53774","17.423897"],
    [1639,"2024-03-09 06:00:00","18","grottaglie","11.11","1","89.64","1","1.0","1","null","6","null","6","null","6","1000.35","1","40.53774","17.423897"],
    [1640,"2024-03-09 07:00:00","18","grottaglie","11.14","1","91.14","1","1.2","1","null","6","null","6","null","6","1000.25","1","40.53774","17.423897"],
    [1641,"2024-03-09 08:00:00","18","grottaglie","11.17","1","92.4","1","0.0","1","null","6","null","6","null","6","1000.69","1","40.53774","17.423897"],
    [1642,"2024-03-09 09:00:00","18","grottaglie","11.93","1","92.26","1","0.4","1","null","6","null","6","null","6","1000.73","1","40.53774","17.423897"],
    [1643,"2024-03-09 10:00:00","18","grottaglie","13.53","1","90.92","1","0.0","1","null","6","null","6","null","6","1000.52","1","40.53774","17.423897"],
    [1644,"2024-03-09 11:00:00","18","grottaglie","14.93","1","84.95","1","0.0","1","null","6","null","6","null","6","1000.3","1","40.53774","17.423897"],
    [1645,"2024-03-09 12:00:00","18","grottaglie","15.72","1","75.09","1","0.0","1","null","6","null","6","null","6","1000.28","1","40.53774","17.423897"],
    [1646,"2024-03-09 13:00:00","18","grottaglie","17.06","1","68.5","1","0.0","1","null","6","null","6","null","6","999.89","1","40.53774","17.423897"],
    [1647,"2024-03-09 14:00:00","18","grottaglie","17.27","1","67.65","1","0.0","1","null","6","null","6","null","6","999.59","1","40.53774","17.423897"],
    [1648,"2024-03-09 15:00:00","18","grottaglie","17.14","1","69.44","1","0.0","1","null","6","null","6","null","6","999.41","1","40.53774","17.423897"],
    [1649,"2024-03-09 16:00:00","18","grottaglie","17.35","1","68.26","1","0.0","1","null","6","null","6","null","6","999.13","1","40.53774","17.423897"],
    [1650,"2024-03-09 17:00:00","18","grottaglie","16.41","1","72.58","1","0.0","1","null","6","null","6","null","6","998.61","1","40.53774","17.423897"],
    [1651,"2024-03-09 18:00:00","18","grottaglie","14.46","1","81.1","1","0.0","1","null","6","null","6","null","6","998.77","1","40.53774","17.423897"],
    [1652,"2024-03-09 19:00:00","18","grottaglie","13.6","1","85.9","1","0.0","1","null","6","null","6","null","6","999.16","1","40.53774","17.423897"],
    [1653,"2024-03-09 20:00:00","18","grottaglie","13.21","1","88.43","1","0.0","1","null","6","null","6","null","6","999.53","1","40.53774","17.423897"],
    [1654,"2024-03-09 21:00:00","18","grottaglie","12.86","1","87.25","1","0.0","1","null","6","null","6","null","6","999.73","1","40.53774","17.423897"],
    [1655,"2024-03-09 22:00:00","18","grottaglie","13.11","1","86.35","1","0.0","1","null","6","null","6","null","6","999.6","1","40.53774","17.423897"],
    [1656,"2024-03-09 23:00:00","18","grottaglie","13.17","1","85.45","1","0.0","1","null","6","null","6","null","6","999.68","1","40.53774","17.423897"],
    [1657,"2024-03-10 00:00:00","18","grottaglie","13.15","1","84.56","1","0.0","1","null","6","null","6","null","6","999.57","1","40.53774","17.423897"],
    [1658,"2024-03-10 01:00:00","18","grottaglie","12.86","1","84.53","1","0.0","1","null","6","null","6","null","6","999.2","1","40.53774","17.423897"],
    [1659,"2024-03-10 02:00:00","18","grottaglie","12.79","1","84.04","1","0.0","1","null","6","null","6","null","6","999.18","1","40.53774","17.423897"],
    [1660,"2024-03-10 03:00:00","18","grottaglie","12.93","1","82.22","1","0.0","1","null","6","null","6","null","6","998.98","1","40.53774","17.423897"],
    [1661,"2024-03-10 04:00:00","18","grottaglie","13.0","1","80.97","1","0.0","1","null","6","null","6","null","6","998.93","1","40.53774","17.423897"],
    [1662,"2024-03-10 05:00:00","18","grottaglie","13.13","1","81.14","1","0.0","1","null","6","null","6","null","6","998.82","1","40.53774","17.423897"],
    [1663,"2024-03-10 06:00:00","18","grottaglie","13.09","1","81.88","1","0.0","1","null","6","null","6","null","6","998.92","1","40.53774","17.423897"],
    [1664,"2024-03-10 07:00:00","18","grottaglie","13.18","1","80.97","1","0.0","1","null","6","null","6","null","6","999.09","1","40.53774","17.423897"],
    [1665,"2024-03-10 08:00:00","18","grottaglie","13.47","1","79.5","1","0.0","1","null","6","null","6","null","6","999.46","1","40.53774","17.423897"],
    [1666,"2024-03-10 09:00:00","18","grottaglie","13.97","1","77.2","1","0.0","1","null","6","null","6","null","6","999.77","1","40.53774","17.423897"],
    [1667,"2024-03-10 10:00:00","18","grottaglie","14.39","1","75.48","1","0.0","1","null","6","null","6","null","6","999.49","1","40.53774","17.423897"],
    [1668,"2024-03-10 11:00:00","18","grottaglie","14.33","1","75.46","1","0.0","1","null","6","null","6","null","6","999.81","1","40.53774","17.423897"],
    [1669,"2024-03-10 12:00:00","18","grottaglie","14.95","1","73.05","1","0.0","1","null","6","null","6","null","6","999.34","1","40.53774","17.423897"],
    [1670,"2024-03-10 13:00:00","18","grottaglie","14.67","1","73.37","1","0.0","1","null","6","null","6","null","6","999.19","1","40.53774","17.423897"],
    [1671,"2024-03-10 14:00:00","18","grottaglie","14.79","1","72.1","1","0.0","1","null","6","null","6","null","6","998.79","1","40.53774","17.423897"],
    [1672,"2024-03-10 15:00:00","18","grottaglie","14.93","1","70.94","1","0.0","1","null","6","null","6","null","6","998.09","1","40.53774","17.423897"],
    [1673,"2024-03-10 16:00:00","18","grottaglie","14.78","1","72.18","1","0.0","1","null","6","null","6","null","6","997.43","1","40.53774","17.423897"],
    [1674,"2024-03-10 17:00:00","18","grottaglie","14.31","1","74.61","1","0.0","1","null","6","null","6","null","6","996.72","1","40.53774","17.423897"],
    [1675,"2024-03-10 18:00:00","18","grottaglie","13.82","1","77.87","1","0.0","1","null","6","null","6","null","6","996.16","1","40.53774","17.423897"],
    [1676,"2024-03-10 19:00:00","18","grottaglie","13.6","1","77.08","1","0.0","1","null","6","null","6","null","6","995.72","1","40.53774","17.423897"],
    [1677,"2024-03-10 20:00:00","18","grottaglie","13.59","1","78.6","1","0.0","1","null","6","null","6","null","6","996.33","1","40.53774","17.423897"],
    [1678,"2024-03-10 21:00:00","18","grottaglie","13.6","1","79.06","1","0.0","1","null","6","null","6","null","6","996.51","1","40.53774","17.423897"],
    [1679,"2024-03-10 22:00:00","18","grottaglie","13.62","1","80.06","1","0.0","1","null","6","null","6","null","6","996.54","1","40.53774","17.423897"],
    [1680,"2024-03-10 23:00:00","18","grottaglie","13.57","1","81.42","1","0.0","1","null","6","null","6","null","6","995.92","1","40.53774","17.423897"],
    [1681,"2024-03-11 00:00:00","18","grottaglie","13.54","1","81.9","1","0.0","1","null","6","null","6","null","6","994.9","1","40.53774","17.423897"],
    [1682,"2024-03-11 01:00:00","18","grottaglie","13.43","1","80.86","1","0.0","1","null","6","null","6","null","6","994.12","1","40.53774","17.423897"],
    [1683,"2024-03-11 02:00:00","18","grottaglie","13.44","1","80.91","1","0.0","1","null","6","null","6","null","6","993.47","1","40.53774","17.423897"],
    [1684,"2024-03-11 03:00:00","18","grottaglie","13.43","1","81.37","1","0.0","1","null","6","null","6","null","6","993.06","1","40.53774","17.423897"],
    [1685,"2024-03-11 04:00:00","18","grottaglie","13.55","1","80.43","1","0.0","1","null","6","null","6","null","6","992.84","1","40.53774","17.423897"],
    [1686,"2024-03-11 05:00:00","18","grottaglie","13.61","1","81.03","1","0.0","1","null","6","null","6","null","6","992.01","1","40.53774","17.423897"],
    [1687,"2024-03-11 06:00:00","18","grottaglie","13.65","1","81.3","1","0.0","1","null","6","null","6","null","6","990.73","1","40.53774","17.423897"],
    [1688,"2024-03-11 07:00:00","18","grottaglie","13.78","1","80.91","1","0.0","1","null","6","null","6","null","6","990.6","1","40.53774","17.423897"],
    [1689,"2024-03-11 08:00:00","18","grottaglie","14.08","1","80.08","1","1.8","1","null","6","null","6","null","6","990.5","1","40.53774","17.423897"],
    [1690,"2024-03-11 09:00:00","18","grottaglie","12.68","1","90.49","1","6.0","1","null","6","null","6","null","6","991.43","1","40.53774","17.423897"],
    [1691,"2024-03-11 10:00:00","18","grottaglie","12.56","1","88.17","1","0.0","1","null","6","null","6","null","6","992.31","1","40.53774","17.423897"],
    [1692,"2024-03-11 11:00:00","18","grottaglie","13.29","1","81.75","1","0.0","1","null","6","null","6","null","6","992.73","1","40.53774","17.423897"],
    [1693,"2024-03-11 12:00:00","18","grottaglie","15.55","1","65.2","1","0.0","1","null","6","null","6","null","6","992.5","1","40.53774","17.423897"],
    [1694,"2024-03-11 13:00:00","18","grottaglie","17.19","1","55.92","1","0.0","1","null","6","null","6","null","6","992.14","1","40.53774","17.423897"],
    [1695,"2024-03-11 14:00:00","18","grottaglie","18.05","1","51.01","1","0.0","1","null","6","null","6","null","6","992.02","1","40.53774","17.423897"],
    [1696,"2024-03-11 15:00:00","18","grottaglie","18.3","1","48.98","1","0.0","1","null","6","null","6","null","6","992.2","1","40.53774","17.423897"],
    [1697,"2024-03-11 16:00:00","18","grottaglie","17.93","1","45.37","1","0.0","1","null","6","null","6","null","6","992.68","1","40.53774","17.423897"],
    [1698,"2024-03-11 17:00:00","18","grottaglie","15.62","1","50.69","1","0.0","1","null","6","null","6","null","6","992.93","1","40.53774","17.423897"],
    [1699,"2024-03-11 18:00:00","18","grottaglie","14.04","1","54.8","1","0.0","1","null","6","null","6","null","6","993.74","1","40.53774","17.423897"],
    [1700,"2024-03-11 19:00:00","18","grottaglie","13.61","1","60.09","1","0.0","1","null","6","null","6","null","6","994.3","1","40.53774","17.423897"],
    [1701,"2024-03-11 20:00:00","18","grottaglie","12.84","1","62.71","1","0.0","1","null","6","null","6","null","6","994.9","1","40.53774","17.423897"],
    [1702,"2024-03-11 21:00:00","18","grottaglie","12.39","1","68.82","1","0.0","1","null","6","null","6","null","6","995.3","1","40.53774","17.423897"],
    [1703,"2024-03-11 22:00:00","18","grottaglie","11.36","1","68.83","1","0.0","1","null","6","null","6","null","6","995.68","1","40.53774","17.423897"],
    [1704,"2024-03-11 23:00:00","18","grottaglie","10.57","1","69.95","1","0.0","1","null","6","null","6","null","6","995.74","1","40.53774","17.423897"],
    [1705,"2024-03-12 00:00:00","18","grottaglie","10.62","1","70.42","1","0.0","1","null","6","null","6","null","6","995.64","1","40.53774","17.423897"],
    [1706,"2024-03-12 01:00:00","18","grottaglie","10.39","1","72.13","1","0.0","1","null","6","null","6","null","6","995.69","1","40.53774","17.423897"],
    [1707,"2024-03-12 02:00:00","18","grottaglie","10.16","1","71.77","1","0.0","1","null","6","null","6","null","6","995.9","1","40.53774","17.423897"],
    [1708,"2024-03-12 03:00:00","18","grottaglie","9.99","1","71.29","1","0.0","1","null","6","null","6","null","6","995.45","1","40.53774","17.423897"],
    [1709,"2024-03-12 04:00:00","18","grottaglie","9.68","1","74.93","1","0.0","1","null","6","null","6","null","6","995.03","1","40.53774","17.423897"],
    [1710,"2024-03-12 05:00:00","18","grottaglie","9.36","1","74.31","1","0.0","1","null","6","null","6","null","6","994.94","1","40.53774","17.423897"],
    [1711,"2024-03-12 06:00:00","18","grottaglie","9.3","1","66.88","1","0.0","1","null","6","null","6","null","6","995.13","1","40.53774","17.423897"],
    [1712,"2024-03-12 07:00:00","18","grottaglie","9.2","1","65.53","1","0.0","1","null","6","null","6","null","6","995.6","1","40.53774","17.423897"],
    [1713,"2024-03-12 08:00:00","18","grottaglie","9.91","1","63.27","1","0.0","1","null","6","null","6","null","6","996.29","1","40.53774","17.423897"],
    [1714,"2024-03-12 09:00:00","18","grottaglie","11.33","1","59.07","1","0.0","1","null","6","null","6","null","6","996.57","1","40.53774","17.423897"],
    [1715,"2024-03-12 10:00:00","18","grottaglie","13.54","1","50.33","1","0.0","1","null","6","null","6","null","6","996.68","1","40.53774","17.423897"],
    [1716,"2024-03-12 11:00:00","18","grottaglie","14.34","1","45.84","1","0.0","1","null","6","null","6","null","6","996.55","1","40.53774","17.423897"],
    [1717,"2024-03-12 12:00:00","18","grottaglie","15.01","1","43.35","1","0.0","1","null","6","null","6","null","6","996.64","1","40.53774","17.423897"],
    [1718,"2024-03-12 13:00:00","18","grottaglie","16.55","1","39.44","1","0.0","1","null","6","null","6","null","6","996.34","1","40.53774","17.423897"],
    [1719,"2024-03-12 14:00:00","18","grottaglie","13.5","1","58.36","1","0.2","1","null","6","null","6","null","6","996.45","1","40.53774","17.423897"],
    [1720,"2024-03-12 15:00:00","18","grottaglie","13.05","1","64.1","1","0.0","1","null","6","null","6","null","6","996.95","1","40.53774","17.423897"],
    [1721,"2024-03-12 16:00:00","18","grottaglie","13.14","1","60.44","1","0.0","1","null","6","null","6","null","6","996.89","1","40.53774","17.423897"],
    [1722,"2024-03-12 17:00:00","18","grottaglie","11.68","1","73.13","1","0.8","1","null","6","null","6","null","6","997.35","1","40.53774","17.423897"],
    [1723,"2024-03-12 18:00:00","18","grottaglie","10.76","1","81.78","1","0.2","1","null","6","null","6","null","6","997.72","1","40.53774","17.423897"],
    [1724,"2024-03-12 19:00:00","18","grottaglie","10.02","1","86.64","1","1.0","1","null","6","null","6","null","6","998.04","1","40.53774","17.423897"],
    [1725,"2024-03-12 20:00:00","18","grottaglie","9.5","1","86.69","1","0.0","1","null","6","null","6","null","6","998.64","1","40.53774","17.423897"],
    [1726,"2024-03-12 21:00:00","18","grottaglie","8.93","1","86.47","1","0.0","1","null","6","null","6","null","6","999.15","1","40.53774","17.423897"],
    [1727,"2024-03-12 22:00:00","18","grottaglie","8.31","1","87.06","1","0.0","1","null","6","null","6","null","6","999.31","1","40.53774","17.423897"],
    [1728,"2024-03-12 23:00:00","18","grottaglie","7.62","1","89.11","1","0.2","1","null","6","null","6","null","6","999.65","1","40.53774","17.423897"],
    [1729,"2024-03-13 00:00:00","18","grottaglie","7.35","1","89.38","1","0.0","1","null","6","null","6","null","6","999.83","1","40.53774","17.423897"],
    [1730,"2024-03-13 01:00:00","18","grottaglie","6.68","1","88.46","1","0.0","1","null","6","null","6","null","6","999.93","1","40.53774","17.423897"],
    [1731,"2024-03-13 02:00:00","18","grottaglie","6.34","1","87.26","1","0.0","1","null","6","null","6","null","6","999.79","1","40.53774","17.423897"],
    [1732,"2024-03-13 03:00:00","18","grottaglie","6.37","1","86.63","1","0.0","1","null","6","null","6","null","6","999.72","1","40.53774","17.423897"],
    [1733,"2024-03-13 04:00:00","18","grottaglie","6.51","1","85.76","1","0.0","1","null","6","null","6","null","6","999.63","1","40.53774","17.423897"],
    [1734,"2024-03-13 05:00:00","18","grottaglie","6.4","1","85.6","1","0.0","1","null","6","null","6","null","6","999.35","1","40.53774","17.423897"],
    [1735,"2024-03-13 06:00:00","18","grottaglie","6.47","1","86.37","1","0.0","1","null","6","null","6","null","6","999.49","1","40.53774","17.423897"],
    [1736,"2024-03-13 07:00:00","18","grottaglie","7.17","1","84.21","1","0.0","1","null","6","null","6","null","6","999.7","1","40.53774","17.423897"],
    [1737,"2024-03-13 08:00:00","18","grottaglie","9.1","1","81.23","1","0.0","1","null","6","null","6","null","6","999.88","1","40.53774","17.423897"],
    [1738,"2024-03-13 09:00:00","18","grottaglie","11.79","1","71.06","1","0.0","1","null","6","null","6","null","6","1000.23","1","40.53774","17.423897"],
    [1739,"2024-03-13 10:00:00","18","grottaglie","13.16","1","64.28","1","0.0","1","null","6","null","6","null","6","1000.65","1","40.53774","17.423897"],
    [1740,"2024-03-13 11:00:00","18","grottaglie","15.19","1","52.85","1","0.0","1","null","6","null","6","null","6","1000.63","1","40.53774","17.423897"],
    [1741,"2024-03-13 12:00:00","18","grottaglie","15.58","1","48.08","1","0.0","1","null","6","null","6","null","6","1000.62","1","40.53774","17.423897"],
    [1742,"2024-03-13 13:00:00","18","grottaglie","16.39","1","44.02","1","0.0","1","null","6","null","6","null","6","1000.38","1","40.53774","17.423897"],
    [1743,"2024-03-13 14:00:00","18","grottaglie","15.88","1","45.31","1","0.0","1","null","6","null","6","null","6","1000.17","1","40.53774","17.423897"],
    [1744,"2024-03-13 15:00:00","18","grottaglie","16.8","1","44.33","1","0.0","1","null","6","null","6","null","6","1000.2","1","40.53774","17.423897"],
    [1745,"2024-03-13 16:00:00","18","grottaglie","15.97","1","44.46","1","0.0","1","null","6","null","6","null","6","1000.34","1","40.53774","17.423897"],
    [1746,"2024-03-13 17:00:00","18","grottaglie","15.19","1","45.11","1","0.0","1","null","6","null","6","null","6","1000.43","1","40.53774","17.423897"],
    [1747,"2024-03-13 18:00:00","18","grottaglie","13.64","1","53.04","1","0.0","1","null","6","null","6","null","6","1000.68","1","40.53774","17.423897"],
    [1748,"2024-03-13 19:00:00","18","grottaglie","11.59","1","61.37","1","0.0","1","null","6","null","6","null","6","1001.01","1","40.53774","17.423897"],
    [1749,"2024-03-13 20:00:00","18","grottaglie","10.64","1","69.9","1","0.0","1","null","6","null","6","null","6","1001.64","1","40.53774","17.423897"],
    [1750,"2024-03-13 21:00:00","18","grottaglie","9.31","1","76.66","1","0.0","1","null","6","null","6","null","6","1002.06","1","40.53774","17.423897"],
    [1751,"2024-03-13 22:00:00","18","grottaglie","9.3","1","77.4","1","0.0","1","null","6","null","6","null","6","1002.37","1","40.53774","17.423897"],
    [1752,"2024-03-13 23:00:00","18","grottaglie","8.64","1","79.67","1","0.0","1","null","6","null","6","null","6","1002.4","1","40.53774","17.423897"],
    [1753,"2024-03-14 00:00:00","18","grottaglie","8.26","1","83.66","1","0.0","1","null","6","null","6","null","6","1002.38","1","40.53774","17.423897"],
    [1754,"2024-03-14 01:00:00","18","grottaglie","7.78","1","86.01","1","0.0","1","null","6","null","6","null","6","1002.49","1","40.53774","17.423897"],
    [1755,"2024-03-14 02:00:00","18","grottaglie","7.63","1","86.68","1","0.0","1","null","6","null","6","null","6","1002.49","1","40.53774","17.423897"],
    [1756,"2024-03-14 03:00:00","18","grottaglie","7.08","1","85.52","1","0.0","1","null","6","null","6","null","6","1002.13","1","40.53774","17.423897"],
    [1757,"2024-03-14 04:00:00","18","grottaglie","7.68","1","78.5","1","0.0","1","null","6","null","6","null","6","1002.09","1","40.53774","17.423897"],
    [1758,"2024-03-14 05:00:00","18","grottaglie","8.03","1","70.08","1","0.0","1","null","6","null","6","null","6","1002.1","1","40.53774","17.423897"],
    [1759,"2024-03-14 06:00:00","18","grottaglie","8.45","1","64.66","1","0.0","1","null","6","null","6","null","6","1002.65","1","40.53774","17.423897"],
    [1760,"2024-03-14 07:00:00","18","grottaglie","8.55","1","61.37","1","0.0","1","null","6","null","6","null","6","1003.1","1","40.53774","17.423897"],
    [1761,"2024-03-14 08:00:00","18","grottaglie","10.11","1","55.38","1","0.0","1","null","6","null","6","null","6","1003.43","1","40.53774","17.423897"],
    [1762,"2024-03-14 09:00:00","18","grottaglie","12.69","1","47.78","1","0.0","1","null","6","null","6","null","6","1003.6","1","40.53774","17.423897"],
    [1763,"2024-03-14 10:00:00","18","grottaglie","15.47","1","37.84","1","0.0","1","null","6","null","6","null","6","1003.39","1","40.53774","17.423897"],
    [1764,"2024-03-14 11:00:00","18","grottaglie","16.94","1","33.88","1","0.0","1","null","6","null","6","null","6","1003.03","1","40.53774","17.423897"],
    [1765,"2024-03-14 12:00:00","18","grottaglie","17.35","1","31.27","1","0.0","1","null","6","null","6","null","6","1002.8","1","40.53774","17.423897"],
    [1766,"2024-03-14 13:00:00","18","grottaglie","18.59","1","29.68","1","0.0","1","null","6","null","6","null","6","1002.69","1","40.53774","17.423897"],
    [1767,"2024-03-14 14:00:00","18","grottaglie","19.11","1","29.3","1","0.0","1","null","6","null","6","null","6","1002.52","1","40.53774","17.423897"],
    [1768,"2024-03-14 15:00:00","18","grottaglie","19.08","1","30.87","1","0.0","1","null","6","null","6","null","6","1002.54","1","40.53774","17.423897"],
    [1769,"2024-03-14 16:00:00","18","grottaglie","18.7","1","30.69","1","0.0","1","null","6","null","6","null","6","1002.67","1","40.53774","17.423897"],
    [1770,"2024-03-14 17:00:00","18","grottaglie","17.93","1","32.64","1","0.0","1","null","6","null","6","null","6","1002.52","1","40.53774","17.423897"],
    [1771,"2024-03-14 18:00:00","18","grottaglie","16.05","1","38.52","1","0.0","1","null","6","null","6","null","6","1002.32","1","40.53774","17.423897"],
    [1772,"2024-03-14 19:00:00","18","grottaglie","12.98","1","51.76","1","0.0","1","null","6","null","6","null","6","1002.72","1","40.53774","17.423897"],
    [1773,"2024-03-14 20:00:00","18","grottaglie","11.14","1","56.58","1","0.0","1","null","6","null","6","null","6","1003.36","1","40.53774","17.423897"],
    [1774,"2024-03-14 21:00:00","18","grottaglie","10.65","1","55.2","1","0.0","1","null","6","null","6","null","6","1003.71","1","40.53774","17.423897"],
    [1775,"2024-03-14 22:00:00","18","grottaglie","10.22","1","52.93","1","0.0","1","null","6","null","6","null","6","1003.96","1","40.53774","17.423897"],
    [1776,"2024-03-14 23:00:00","18","grottaglie","9.33","1","54.11","1","0.0","1","null","6","null","6","null","6","1004.01","1","40.53774","17.423897"],
    [1777,"2024-03-15 00:00:00","18","grottaglie","9.37","1","50.48","1","0.0","1","null","6","null","6","null","6","1003.87","1","40.53774","17.423897"],
    [1778,"2024-03-15 01:00:00","18","grottaglie","6.87","1","63.92","1","0.0","1","null","6","null","6","null","6","1003.96","1","40.53774","17.423897"],
    [1779,"2024-03-15 02:00:00","18","grottaglie","6.92","1","62.63","1","0.0","1","null","6","null","6","null","6","1003.86","1","40.53774","17.423897"],
    [1780,"2024-03-15 03:00:00","18","grottaglie","6.56","1","63.45","1","0.0","1","null","6","null","6","null","6","1003.5","1","40.53774","17.423897"],
    [1781,"2024-03-15 04:00:00","18","grottaglie","7.13","1","59.91","1","0.0","1","null","6","null","6","null","6","1003.35","1","40.53774","17.423897"],
    [1782,"2024-03-15 05:00:00","18","grottaglie","6.57","1","62.17","1","0.0","1","null","6","null","6","null","6","1003.45","1","40.53774","17.423897"],
    [1783,"2024-03-15 06:00:00","18","grottaglie","6.88","1","60.32","1","0.0","1","null","6","null","6","null","6","1003.54","1","40.53774","17.423897"],
    [1784,"2024-03-15 07:00:00","18","grottaglie","6.8","1","61.49","1","0.0","1","null","6","null","6","null","6","1003.81","1","40.53774","17.423897"],
    [1785,"2024-03-15 08:00:00","18","grottaglie","8.47","1","56.86","1","0.0","1","null","6","null","6","null","6","1003.99","1","40.53774","17.423897"],
    [1786,"2024-03-15 09:00:00","18","grottaglie","12.05","1","52.53","1","0.0","1","null","6","null","6","null","6","1004.28","1","40.53774","17.423897"],
    [1787,"2024-03-15 10:00:00","18","grottaglie","15.1","1","45.3","1","0.0","1","null","6","null","6","null","6","1004.26","1","40.53774","17.423897"],
    [1788,"2024-03-15 11:00:00","18","grottaglie","17.27","1","35.03","1","0.0","1","null","6","null","6","null","6","1003.8","1","40.53774","17.423897"],
    [1789,"2024-03-15 12:00:00","18","grottaglie","17.67","1","33.52","1","0.0","1","null","6","null","6","null","6","1003.52","1","40.53774","17.423897"],
    [1790,"2024-03-15 13:00:00","18","grottaglie","19.46","1","31.26","1","0.0","1","null","6","null","6","null","6","1003.26","1","40.53774","17.423897"],
    [1791,"2024-03-15 14:00:00","18","grottaglie","20.94","1","29.69","1","0.0","1","null","6","null","6","null","6","1002.93","1","40.53774","17.423897"],
    [1792,"2024-03-15 15:00:00","18","grottaglie","19.12","1","39.48","1","0.0","1","null","6","null","6","null","6","1002.57","1","40.53774","17.423897"],
    [1793,"2024-03-15 16:00:00","18","grottaglie","19.09","1","36.85","1","0.0","1","null","6","null","6","null","6","1002.84","1","40.53774","17.423897"],
    [1794,"2024-03-15 17:00:00","18","grottaglie","18.89","1","36.63","1","0.0","1","null","6","null","6","null","6","1002.73","1","40.53774","17.423897"],
    [1795,"2024-03-15 18:00:00","18","grottaglie","16.27","1","46.66","1","0.0","1","null","6","null","6","null","6","1002.77","1","40.53774","17.423897"],
    [1796,"2024-03-15 19:00:00","18","grottaglie","13.57","1","59.63","1","0.0","1","null","6","null","6","null","6","1003.2","1","40.53774","17.423897"],
    [1797,"2024-03-15 20:00:00","18","grottaglie","12.28","1","71.62","1","0.0","1","null","6","null","6","null","6","1003.87","1","40.53774","17.423897"],
    [1798,"2024-03-15 21:00:00","18","grottaglie","11.86","1","70.61","1","0.0","1","null","6","null","6","null","6","1004.2","1","40.53774","17.423897"],
    [1799,"2024-03-15 22:00:00","18","grottaglie","11.88","1","69.59","1","0.0","1","null","6","null","6","null","6","1004.2","1","40.53774","17.423897"],
    [1800,"2024-03-15 23:00:00","18","grottaglie","11.73","1","70.97","1","0.0","1","null","6","null","6","null","6","1004.11","1","40.53774","17.423897"],
    [1801,"2024-03-16 00:00:00","18","grottaglie","11.82","1","63.45","1","0.0","1","null","6","null","6","null","6","1004.11","1","40.53774","17.423897"],
    [1802,"2024-03-16 01:00:00","18","grottaglie","12.06","1","62.22","1","0.0","1","null","6","null","6","null","6","1004.08","1","40.53774","17.423897"],
    [1803,"2024-03-16 02:00:00","18","grottaglie","9.84","1","72.69","1","0.0","1","null","6","null","6","null","6","1004.13","1","40.53774","17.423897"],
    [1804,"2024-03-16 03:00:00","18","grottaglie","9.31","1","76.64","1","0.0","1","null","6","null","6","null","6","1003.95","1","40.53774","17.423897"],
    [1805,"2024-03-16 04:00:00","18","grottaglie","9.54","1","75.85","1","0.0","1","null","6","null","6","null","6","1003.99","1","40.53774","17.423897"],
    [1806,"2024-03-16 05:00:00","18","grottaglie","9.21","1","76.42","1","0.0","1","null","6","null","6","null","6","1004.14","1","40.53774","17.423897"],
    [1807,"2024-03-16 06:00:00","18","grottaglie","9.24","1","75.06","1","0.0","1","null","6","null","6","null","6","1004.17","1","40.53774","17.423897"],
    [1808,"2024-03-16 07:00:00","18","grottaglie","8.85","1","77.35","1","0.0","1","null","6","null","6","null","6","1004.4","1","40.53774","17.423897"],
    [1809,"2024-03-16 08:00:00","18","grottaglie","9.75","1","77.66","1","0.0","1","null","6","null","6","null","6","1004.85","1","40.53774","17.423897"],
    [1810,"2024-03-16 09:00:00","18","grottaglie","12.67","1","68.16","1","0.0","1","null","6","null","6","null","6","1004.92","1","40.53774","17.423897"],
    [1811,"2024-03-16 10:00:00","18","grottaglie","15.68","1","55.58","1","0.0","1","null","6","null","6","null","6","1004.71","1","40.53774","17.423897"],
    [1812,"2024-03-16 11:00:00","18","grottaglie","16.9","1","51.47","1","0.0","1","null","6","null","6","null","6","1004.57","1","40.53774","17.423897"],
    [1813,"2024-03-16 12:00:00","18","grottaglie","17.57","1","48.27","1","0.0","1","null","6","null","6","null","6","1004.32","1","40.53774","17.423897"],
    [1814,"2024-03-16 13:00:00","18","grottaglie","18.96","1","45.13","1","0.0","1","null","6","null","6","null","6","1003.96","1","40.53774","17.423897"],
    [1815,"2024-03-16 14:00:00","18","grottaglie","19.69","1","44.12","1","0.0","1","null","6","null","6","null","6","1003.37","1","40.53774","17.423897"],
    [1816,"2024-03-16 15:00:00","18","grottaglie","19.35","1","46.46","1","0.0","1","null","6","null","6","null","6","1002.91","1","40.53774","17.423897"],
    [1817,"2024-03-16 16:00:00","18","grottaglie","18.62","1","50.8","1","0.0","1","null","6","null","6","null","6","1002.7","1","40.53774","17.423897"],
    [1818,"2024-03-16 17:00:00","18","grottaglie","16.3","1","57.11","1","0.0","1","null","6","null","6","null","6","1002.79","1","40.53774","17.423897"],
    [1819,"2024-03-16 18:00:00","18","grottaglie","15.03","1","60.89","1","0.2","1","null","6","null","6","null","6","1003.24","1","40.53774","17.423897"],
    [1820,"2024-03-16 19:00:00","18","grottaglie","13.86","1","65.71","1","0.0","1","null","6","null","6","null","6","1003.93","1","40.53774","17.423897"],
    [1821,"2024-03-16 20:00:00","18","grottaglie","12.53","1","73.46","1","0.0","1","null","6","null","6","null","6","1004.62","1","40.53774","17.423897"],
    [1822,"2024-03-16 21:00:00","18","grottaglie","11.18","1","78.34","1","0.0","1","null","6","null","6","null","6","1005.23","1","40.53774","17.423897"],
    [1823,"2024-03-16 22:00:00","18","grottaglie","11.21","1","77.78","1","0.0","1","null","6","null","6","null","6","1005.42","1","40.53774","17.423897"],
    [1824,"2024-03-16 23:00:00","18","grottaglie","11.06","1","79.72","1","0.0","1","null","6","null","6","null","6","1005.58","1","40.53774","17.423897"],
    [1825,"2024-03-17 00:00:00","18","grottaglie","11.27","1","74.39","1","0.0","1","null","6","null","6","null","6","1005.49","1","40.53774","17.423897"],
    [1826,"2024-03-17 01:00:00","18","grottaglie","11.38","1","70.43","1","0.0","1","null","6","null","6","null","6","1005.3","1","40.53774","17.423897"],
    [1827,"2024-03-17 02:00:00","18","grottaglie","11.41","1","72.44","1","0.0","1","null","6","null","6","null","6","1005.21","1","40.53774","17.423897"],
    [1828,"2024-03-17 03:00:00","18","grottaglie","11.03","1","78.53","1","0.0","1","null","6","null","6","null","6","1004.87","1","40.53774","17.423897"],
    [1829,"2024-03-17 04:00:00","18","grottaglie","11.62","1","80.4","1","0.0","1","null","6","null","6","null","6","1004.31","1","40.53774","17.423897"],
    [1830,"2024-03-17 05:00:00","18","grottaglie","12.3","1","78.02","1","0.0","1","null","6","null","6","null","6","1004.22","1","40.53774","17.423897"],
    [1831,"2024-03-17 06:00:00","18","grottaglie","12.41","1","76.85","1","0.0","1","null","6","null","6","null","6","1004.57","1","40.53774","17.423897"],
    [1832,"2024-03-17 07:00:00","18","grottaglie","11.87","1","77.74","1","0.0","1","null","6","null","6","null","6","1005.03","1","40.53774","17.423897"],
    [1833,"2024-03-17 08:00:00","18","grottaglie","12.3","1","76.7","1","0.0","1","null","6","null","6","null","6","1005.42","1","40.53774","17.423897"],
    [1834,"2024-03-17 09:00:00","18","grottaglie","14.16","1","63.01","1","0.0","1","null","6","null","6","null","6","1005.81","1","40.53774","17.423897"],
    [1835,"2024-03-17 10:00:00","18","grottaglie","16.25","1","56.18","1","0.0","1","null","6","null","6","null","6","1005.89","1","40.53774","17.423897"],
    [1836,"2024-03-17 11:00:00","18","grottaglie","17.46","1","51.79","1","0.0","1","null","6","null","6","null","6","1005.77","1","40.53774","17.423897"],
    [1837,"2024-03-17 12:00:00","18","grottaglie","17.96","1","48.26","1","0.0","1","null","6","null","6","null","6","1005.79","1","40.53774","17.423897"],
    [1838,"2024-03-17 13:00:00","18","grottaglie","18.96","1","45.41","1","0.0","1","null","6","null","6","null","6","1005.86","1","40.53774","17.423897"],
    [1839,"2024-03-17 14:00:00","18","grottaglie","19.42","1","45.55","1","0.0","1","null","6","null","6","null","6","1005.53","1","40.53774","17.423897"],
    [1840,"2024-03-17 15:00:00","18","grottaglie","19.22","1","46.32","1","0.0","1","null","6","null","6","null","6","1005.06","1","40.53774","17.423897"],
    [1841,"2024-03-17 16:00:00","18","grottaglie","19.66","1","45.71","1","0.0","1","null","6","null","6","null","6","1005.02","1","40.53774","17.423897"],
    [1842,"2024-03-17 17:00:00","18","grottaglie","18.56","1","49.5","1","0.0","1","null","6","null","6","null","6","1004.83","1","40.53774","17.423897"],
    [1843,"2024-03-17 18:00:00","18","grottaglie","17.04","1","52.75","1","0.0","1","null","6","null","6","null","6","1004.93","1","40.53774","17.423897"],
    [1844,"2024-03-17 19:00:00","18","grottaglie","14.03","1","61.54","1","0.0","1","null","6","null","6","null","6","1005.01","1","40.53774","17.423897"],
    [1845,"2024-03-17 20:00:00","18","grottaglie","12.49","1","66.81","1","0.0","1","null","6","null","6","null","6","1005.48","1","40.53774","17.423897"],
    [1846,"2024-03-17 21:00:00","18","grottaglie","11.93","1","65.52","1","0.0","1","null","6","null","6","null","6","1005.58","1","40.53774","17.423897"],
    [1847,"2024-03-17 22:00:00","18","grottaglie","11.72","1","63.64","1","0.0","1","null","6","null","6","null","6","1005.59","1","40.53774","17.423897"],
    [1848,"2024-03-17 23:00:00","18","grottaglie","10.96","1","67.49","1","0.0","1","null","6","null","6","null","6","1005.79","1","40.53774","17.423897"],
    [1849,"2024-03-18 00:00:00","18","grottaglie","10.54","1","68.0","1","0.0","1","null","6","null","6","null","6","1005.72","1","40.53774","17.423897"],
    [1850,"2024-03-18 01:00:00","18","grottaglie","10.63","1","66.94","1","0.0","1","null","6","null","6","null","6","1005.36","1","40.53774","17.423897"],
    [1851,"2024-03-18 02:00:00","18","grottaglie","9.04","1","73.6","1","0.0","1","null","6","null","6","null","6","1005.29","1","40.53774","17.423897"],
    [1852,"2024-03-18 03:00:00","18","grottaglie","9.27","1","72.57","1","0.0","1","null","6","null","6","null","6","1004.65","1","40.53774","17.423897"],
    [1853,"2024-03-18 04:00:00","18","grottaglie","8.43","1","76.09","1","0.0","1","null","6","null","6","null","6","1004.15","1","40.53774","17.423897"],
    [1854,"2024-03-18 05:00:00","18","grottaglie","8.59","1","78.39","1","0.0","1","null","6","null","6","null","6","1003.96","1","40.53774","17.423897"],
    [1855,"2024-03-18 06:00:00","18","grottaglie","9.91","1","71.7","1","0.0","1","null","6","null","6","null","6","1003.59","1","40.53774","17.423897"],
    [1856,"2024-03-18 07:00:00","18","grottaglie","8.92","1","75.73","1","0.0","1","null","6","null","6","null","6","1003.71","1","40.53774","17.423897"],
    [1857,"2024-03-18 08:00:00","18","grottaglie","10.75","1","77.24","1","0.0","1","null","6","null","6","null","6","1003.63","1","40.53774","17.423897"],
    [1858,"2024-03-18 09:00:00","18","grottaglie","13.16","1","63.14","1","0.0","1","null","6","null","6","null","6","1003.44","1","40.53774","17.423897"],
    [1859,"2024-03-18 10:00:00","18","grottaglie","15.69","1","53.21","1","0.0","1","null","6","null","6","null","6","1003.1","1","40.53774","17.423897"],
    [1860,"2024-03-18 11:00:00","18","grottaglie","16.79","1","48.68","1","0.0","1","null","6","null","6","null","6","1002.36","1","40.53774","17.423897"],
    [1861,"2024-03-18 12:00:00","18","grottaglie","17.3","1","46.59","1","0.0","1","null","6","null","6","null","6","1001.77","1","40.53774","17.423897"],
    [1862,"2024-03-18 13:00:00","18","grottaglie","18.55","1","46.45","1","0.0","1","null","6","null","6","null","6","1001.07","1","40.53774","17.423897"],
    [1863,"2024-03-18 14:00:00","18","grottaglie","19.49","1","43.09","1","0.0","1","null","6","null","6","null","6","1000.21","1","40.53774","17.423897"],
    [1864,"2024-03-18 15:00:00","18","grottaglie","19.09","1","45.14","1","0.0","1","null","6","null","6","null","6","999.7","1","40.53774","17.423897"],
    [1865,"2024-03-18 16:00:00","18","grottaglie","17.98","1","54.24","1","0.0","1","null","6","null","6","null","6","999.34","1","40.53774","17.423897"],
    [1866,"2024-03-18 17:00:00","18","grottaglie","16.76","1","58.88","1","0.0","1","null","6","null","6","null","6","999.15","1","40.53774","17.423897"],
    [1867,"2024-03-18 18:00:00","18","grottaglie","15.27","1","61.9","1","0.0","1","null","6","null","6","null","6","998.99","1","40.53774","17.423897"],
    [1868,"2024-03-18 19:00:00","18","grottaglie","14.6","1","66.68","1","0.0","1","null","6","null","6","null","6","998.78","1","40.53774","17.423897"],
    [1869,"2024-03-18 20:00:00","18","grottaglie","14.39","1","67.03","1","0.0","1","null","6","null","6","null","6","998.87","1","40.53774","17.423897"],
    [1870,"2024-03-18 21:00:00","18","grottaglie","13.87","1","73.38","1","0.0","1","null","6","null","6","null","6","999.13","1","40.53774","17.423897"],
    [1871,"2024-03-18 22:00:00","18","grottaglie","13.39","1","76.72","1","0.6","1","null","6","null","6","null","6","999.17","1","40.53774","17.423897"],
    [1872,"2024-03-18 23:00:00","18","grottaglie","13.03","1","79.16","1","0.6","1","null","6","null","6","null","6","998.74","1","40.53774","17.423897"],
    [1873,"2024-03-19 00:00:00","18","grottaglie","12.63","1","85.0","1","1.2","1","null","6","null","6","null","6","998.48","1","40.53774","17.423897"],
    [1874,"2024-03-19 01:00:00","18","grottaglie","12.1","1","87.4","1","1.6","1","null","6","null","6","null","6","998.28","1","40.53774","17.423897"],
    [1875,"2024-03-19 02:00:00","18","grottaglie","11.8","1","86.9","1","0.6","1","null","6","null","6","null","6","997.74","1","40.53774","17.423897"],
    [1876,"2024-03-19 03:00:00","18","grottaglie","11.62","1","88.99","1","0.2","1","null","6","null","6","null","6","997.2","1","40.53774","17.423897"],
    [1877,"2024-03-19 04:00:00","18","grottaglie","11.58","1","90.08","1","0.0","1","null","6","null","6","null","6","996.63","1","40.53774","17.423897"],
    [1878,"2024-03-19 05:00:00","18","grottaglie","11.7","1","90.5","1","0.0","1","null","6","null","6","null","6","996.5","1","40.53774","17.423897"],
    [1879,"2024-03-19 06:00:00","18","grottaglie","11.58","1","92.26","1","0.2","1","null","6","null","6","null","6","996.63","1","40.53774","17.423897"],
    [1880,"2024-03-19 07:00:00","18","grottaglie","11.32","1","93.88","1","0.0","1","null","6","null","6","null","6","997.0","1","40.53774","17.423897"],
    [1881,"2024-03-19 08:00:00","18","grottaglie","11.53","1","94.51","1","0.0","1","null","6","null","6","null","6","997.45","1","40.53774","17.423897"],
    [1882,"2024-03-19 09:00:00","18","grottaglie","11.72","1","93.61","1","0.2","1","null","6","null","6","null","6","998.08","1","40.53774","17.423897"],
    [1883,"2024-03-19 10:00:00","18","grottaglie","12.93","1","82.8","1","0.0","1","null","6","null","6","null","6","998.4","1","40.53774","17.423897"],
    [1884,"2024-03-19 11:00:00","18","grottaglie","14.5","1","64.44","1","0.0","1","null","6","null","6","null","6","998.44","1","40.53774","17.423897"],
    [1885,"2024-03-19 12:00:00","18","grottaglie","14.88","1","57.45","1","0.0","1","null","6","null","6","null","6","998.67","1","40.53774","17.423897"],
    [1886,"2024-03-19 13:00:00","18","grottaglie","15.98","1","58.17","1","0.2","1","null","6","null","6","null","6","998.67","1","40.53774","17.423897"],
    [1887,"2024-03-19 14:00:00","18","grottaglie","16.94","1","54.16","1","0.0","1","null","6","null","6","null","6","998.55","1","40.53774","17.423897"],
    [1888,"2024-03-19 15:00:00","18","grottaglie","17.13","1","52.45","1","0.0","1","null","6","null","6","null","6","998.91","1","40.53774","17.423897"],
    [1889,"2024-03-19 16:00:00","18","grottaglie","16.73","1","52.22","1","0.0","1","null","6","null","6","null","6","999.16","1","40.53774","17.423897"],
    [1890,"2024-03-19 17:00:00","18","grottaglie","15.65","1","56.18","1","0.0","1","null","6","null","6","null","6","999.22","1","40.53774","17.423897"],
    [1891,"2024-03-19 18:00:00","18","grottaglie","14.88","1","56.48","1","0.0","1","null","6","null","6","null","6","999.86","1","40.53774","17.423897"],
    [1892,"2024-03-19 19:00:00","18","grottaglie","12.53","1","68.88","1","0.0","1","null","6","null","6","null","6","1000.33","1","40.53774","17.423897"],
    [1893,"2024-03-19 20:00:00","18","grottaglie","11.33","1","75.54","1","0.0","1","null","6","null","6","null","6","1001.18","1","40.53774","17.423897"],
    [1894,"2024-03-19 21:00:00","18","grottaglie","10.57","1","77.86","1","0.0","1","null","6","null","6","null","6","1001.65","1","40.53774","17.423897"],
    [1895,"2024-03-19 22:00:00","18","grottaglie","10.77","1","68.66","1","0.0","1","null","6","null","6","null","6","1001.97","1","40.53774","17.423897"],
    [1896,"2024-03-19 23:00:00","18","grottaglie","10.75","1","70.07","1","0.0","1","null","6","null","6","null","6","1002.06","1","40.53774","17.423897"],
    [1897,"2024-03-20 00:00:00","18","grottaglie","10.88","1","67.33","1","0.0","1","null","6","null","6","null","6","1002.36","1","40.53774","17.423897"],
    [1898,"2024-03-20 01:00:00","18","grottaglie","9.99","1","71.88","1","0.0","1","null","6","null","6","null","6","1002.65","1","40.53774","17.423897"],
    [1899,"2024-03-20 02:00:00","18","grottaglie","9.61","1","74.23","1","0.0","1","null","6","null","6","null","6","1002.76","1","40.53774","17.423897"],
    [1900,"2024-03-20 03:00:00","18","grottaglie","9.06","1","72.45","1","0.0","1","null","6","null","6","null","6","1002.61","1","40.53774","17.423897"],
    [1901,"2024-03-20 04:00:00","18","grottaglie","8.77","1","71.09","1","0.0","1","null","6","null","6","null","6","1002.66","1","40.53774","17.423897"],
    [1902,"2024-03-20 05:00:00","18","grottaglie","8.43","1","70.1","1","0.0","1","null","6","null","6","null","6","1003.23","1","40.53774","17.423897"],
    [1903,"2024-03-20 06:00:00","18","grottaglie","7.71","1","71.89","1","0.0","1","null","6","null","6","null","6","1003.81","1","40.53774","17.423897"],
    [1904,"2024-03-20 07:00:00","18","grottaglie","5.83","1","78.12","1","0.0","1","null","6","null","6","null","6","1004.69","1","40.53774","17.423897"],
    [1905,"2024-03-20 08:00:00","18","grottaglie","6.87","1","80.73","1","0.0","1","null","6","null","6","null","6","1005.33","1","40.53774","17.423897"],
    [1906,"2024-03-20 09:00:00","18","grottaglie","10.62","1","60.83","1","0.0","1","null","6","null","6","null","6","1005.69","1","40.53774","17.423897"],
    [1907,"2024-03-20 10:00:00","18","grottaglie","13.9","1","44.84","1","0.0","1","null","6","null","6","null","6","1005.61","1","40.53774","17.423897"],
    [1908,"2024-03-20 11:00:00","18","grottaglie","15.1","1","39.53","1","0.0","1","null","6","null","6","null","6","1005.66","1","40.53774","17.423897"],
    [1909,"2024-03-20 12:00:00","18","grottaglie","15.44","1","37.65","1","0.0","1","null","6","null","6","null","6","1005.71","1","40.53774","17.423897"],
    [1910,"2024-03-20 13:00:00","18","grottaglie","16.78","1","35.04","1","0.0","1","null","6","null","6","null","6","1005.76","1","40.53774","17.423897"],
    [1911,"2024-03-20 14:00:00","18","grottaglie","17.31","1","33.26","1","0.0","1","null","6","null","6","null","6","1005.88","1","40.53774","17.423897"],
    [1912,"2024-03-20 15:00:00","18","grottaglie","17.58","1","33.64","1","0.0","1","null","6","null","6","null","6","1006.06","1","40.53774","17.423897"],
    [1913,"2024-03-20 16:00:00","18","grottaglie","17.11","1","36.78","1","0.0","1","null","6","null","6","null","6","1006.15","1","40.53774","17.423897"],
    [1914,"2024-03-20 17:00:00","18","grottaglie","16.59","1","36.78","1","0.0","1","null","6","null","6","null","6","1006.46","1","40.53774","17.423897"],
    [1915,"2024-03-20 18:00:00","18","grottaglie","15.23","1","39.36","1","0.0","1","null","6","null","6","null","6","1006.42","1","40.53774","17.423897"],
    [1916,"2024-03-20 19:00:00","18","grottaglie","12.09","1","51.04","1","0.0","1","null","6","null","6","null","6","1006.62","1","40.53774","17.423897"],
    [1917,"2024-03-20 20:00:00","18","grottaglie","10.52","1","60.42","1","0.0","1","null","6","null","6","null","6","1007.34","1","40.53774","17.423897"],
    [1918,"2024-03-20 21:00:00","18","grottaglie","9.82","1","65.51","1","0.0","1","null","6","null","6","null","6","1007.89","1","40.53774","17.423897"],
    [1919,"2024-03-20 22:00:00","18","grottaglie","9.35","1","62.39","1","0.0","1","null","6","null","6","null","6","1008.18","1","40.53774","17.423897"],
    [1920,"2024-03-20 23:00:00","18","grottaglie","8.8","1","66.12","1","0.0","1","null","6","null","6","null","6","1008.47","1","40.53774","17.423897"],
    [1921,"2024-03-21 00:00:00","18","grottaglie","7.77","1","67.55","1","0.0","1","null","6","null","6","null","6","1008.51","1","40.53774","17.423897"],
    [1922,"2024-03-21 01:00:00","18","grottaglie","6.7","1","72.3","1","0.0","1","null","6","null","6","null","6","1008.78","1","40.53774","17.423897"],
    [1923,"2024-03-21 02:00:00","18","grottaglie","6.88","1","70.96","1","0.0","1","null","6","null","6","null","6","1008.69","1","40.53774","17.423897"],
    [1924,"2024-03-21 03:00:00","18","grottaglie","6.34","1","73.03","1","0.0","1","null","6","null","6","null","6","1008.39","1","40.53774","17.423897"],
    [1925,"2024-03-21 04:00:00","18","grottaglie","5.76","1","77.77","1","0.0","1","null","6","null","6","null","6","1008.6","1","40.53774","17.423897"],
    [1926,"2024-03-21 05:00:00","18","grottaglie","4.98","1","80.69","1","0.0","1","null","6","null","6","null","6","1008.73","1","40.53774","17.423897"],
    [1927,"2024-03-21 06:00:00","18","grottaglie","4.66","1","83.14","1","0.0","1","null","6","null","6","null","6","1008.86","1","40.53774","17.423897"],
    [1928,"2024-03-21 07:00:00","18","grottaglie","5.88","1","73.28","1","0.0","1","null","6","null","6","null","6","1008.96","1","40.53774","17.423897"],
    [1929,"2024-03-21 08:00:00","18","grottaglie","7.13","1","69.27","1","0.0","1","null","6","null","6","null","6","1009.08","1","40.53774","17.423897"],
    [1930,"2024-03-21 09:00:00","18","grottaglie","9.59","1","59.47","1","0.0","1","null","6","null","6","null","6","1009.38","1","40.53774","17.423897"],
    [1931,"2024-03-21 10:00:00","18","grottaglie","13.71","1","42.61","1","0.0","1","null","6","null","6","null","6","1009.15","1","40.53774","17.423897"],
    [1932,"2024-03-21 11:00:00","18","grottaglie","15.26","1","30.03","1","0.0","1","null","6","null","6","null","6","1008.49","1","40.53774","17.423897"],
    [1933,"2024-03-21 12:00:00","18","grottaglie","16.08","1","27.99","1","0.0","1","null","6","null","6","null","6","1008.06","1","40.53774","17.423897"],
    [1934,"2024-03-21 13:00:00","18","grottaglie","17.96","1","27.12","1","0.0","1","null","6","null","6","null","6","1007.55","1","40.53774","17.423897"],
    [1935,"2024-03-21 14:00:00","18","grottaglie","19.85","1","26.21","1","0.0","1","null","6","null","6","null","6","1007.11","1","40.53774","17.423897"],
    [1936,"2024-03-21 15:00:00","18","grottaglie","21.35","1","25.3","1","0.0","1","null","6","null","6","null","6","1006.51","1","40.53774","17.423897"],
    [1937,"2024-03-21 16:00:00","18","grottaglie","20.08","1","34.72","1","0.0","1","null","6","null","6","null","6","1005.82","1","40.53774","17.423897"],
    [1938,"2024-03-21 17:00:00","18","grottaglie","18.71","1","40.52","1","0.0","1","null","6","null","6","null","6","1005.43","1","40.53774","17.423897"],
    [1939,"2024-03-21 18:00:00","18","grottaglie","15.69","1","51.22","1","0.0","1","null","6","null","6","null","6","1005.23","1","40.53774","17.423897"],
    [1940,"2024-03-21 19:00:00","18","grottaglie","13.17","1","63.9","1","0.0","1","null","6","null","6","null","6","1005.06","1","40.53774","17.423897"],
    [1941,"2024-03-21 20:00:00","18","grottaglie","11.89","1","71.92","1","0.0","1","null","6","null","6","null","6","1005.11","1","40.53774","17.423897"],
    [1942,"2024-03-21 21:00:00","18","grottaglie","11.73","1","73.88","1","0.0","1","null","6","null","6","null","6","1005.07","1","40.53774","17.423897"],
    [1943,"2024-03-21 22:00:00","18","grottaglie","9.96","1","77.47","1","0.0","1","null","6","null","6","null","6","1005.14","1","40.53774","17.423897"],
    [1944,"2024-03-21 23:00:00","18","grottaglie","9.73","1","75.09","1","0.0","1","null","6","null","6","null","6","1005.17","1","40.53774","17.423897"],
    [1945,"2024-03-22 00:00:00","18","grottaglie","11.36","1","53.07","1","0.0","1","null","6","null","6","null","6","1004.52","1","40.53774","17.423897"],
    [1946,"2024-03-22 01:00:00","18","grottaglie","9.71","1","59.36","1","0.0","1","null","6","null","6","null","6","1004.05","1","40.53774","17.423897"],
    [1947,"2024-03-22 02:00:00","18","grottaglie","9.99","1","57.18","1","0.0","1","null","6","null","6","null","6","1003.64","1","40.53774","17.423897"],
    [1948,"2024-03-22 03:00:00","18","grottaglie","10.95","1","60.89","1","0.0","1","null","6","null","6","null","6","1003.03","1","40.53774","17.423897"],
    [1949,"2024-03-22 04:00:00","18","grottaglie","10.34","1","66.63","1","0.0","1","null","6","null","6","null","6","1002.62","1","40.53774","17.423897"],
    [1950,"2024-03-22 05:00:00","18","grottaglie","9.77","1","71.11","1","0.0","1","null","6","null","6","null","6","1002.41","1","40.53774","17.423897"],
    [1951,"2024-03-22 06:00:00","18","grottaglie","10.96","1","69.27","1","0.0","1","null","6","null","6","null","6","1002.55","1","40.53774","17.423897"],
    [1952,"2024-03-22 07:00:00","18","grottaglie","12.2","1","71.3","1","0.0","1","null","6","null","6","null","6","1002.57","1","40.53774","17.423897"],
    [1953,"2024-03-22 08:00:00","18","grottaglie","12.98","1","71.95","1","0.0","1","null","6","null","6","null","6","1002.64","1","40.53774","17.423897"],
    [1954,"2024-03-22 09:00:00","18","grottaglie","14.66","1","60.47","1","0.0","1","null","6","null","6","null","6","1003.01","1","40.53774","17.423897"],
    [1955,"2024-03-22 10:00:00","18","grottaglie","15.7","1","52.72","1","0.0","1","null","6","null","6","null","6","1003.34","1","40.53774","17.423897"],
    [1956,"2024-03-22 11:00:00","18","grottaglie","16.17","1","55.53","1","0.0","1","null","6","null","6","null","6","1003.12","1","40.53774","17.423897"],
    [1957,"2024-03-22 12:00:00","18","grottaglie","15.8","1","55.76","1","0.0","1","null","6","null","6","null","6","1002.93","1","40.53774","17.423897"],
    [1958,"2024-03-22 13:00:00","18","grottaglie","17.24","1","51.75","1","0.0","1","null","6","null","6","null","6","1002.67","1","40.53774","17.423897"],
    [1959,"2024-03-22 14:00:00","18","grottaglie","19.07","1","45.93","1","0.0","1","null","6","null","6","null","6","1002.24","1","40.53774","17.423897"],
    [1960,"2024-03-22 15:00:00","18","grottaglie","18.63","1","45.12","1","0.0","1","null","6","null","6","null","6","1001.63","1","40.53774","17.423897"],
    [1961,"2024-03-22 16:00:00","18","grottaglie","18.7","1","39.84","1","0.0","1","null","6","null","6","null","6","1001.71","1","40.53774","17.423897"],
    [1962,"2024-03-22 17:00:00","18","grottaglie","18.26","1","41.06","1","0.0","1","null","6","null","6","null","6","1001.62","1","40.53774","17.423897"],
    [1963,"2024-03-22 18:00:00","18","grottaglie","16.33","1","53.0","1","0.0","1","null","6","null","6","null","6","1001.52","1","40.53774","17.423897"],
    [1964,"2024-03-22 19:00:00","18","grottaglie","13.43","1","66.37","1","0.0","1","null","6","null","6","null","6","1001.59","1","40.53774","17.423897"],
    [1965,"2024-03-22 20:00:00","18","grottaglie","11.88","1","75.06","1","0.0","1","null","6","null","6","null","6","1001.98","1","40.53774","17.423897"],
    [1966,"2024-03-22 21:00:00","18","grottaglie","11.52","1","78.7","1","0.0","1","null","6","null","6","null","6","1002.27","1","40.53774","17.423897"],
    [1967,"2024-03-22 22:00:00","18","grottaglie","11.4","1","80.67","1","0.0","1","null","6","null","6","null","6","1002.36","1","40.53774","17.423897"],
    [1968,"2024-03-22 23:00:00","18","grottaglie","11.25","1","81.03","1","0.0","1","null","6","null","6","null","6","1002.37","1","40.53774","17.423897"],
    [1969,"2024-03-23 00:00:00","18","grottaglie","11.07","1","80.89","1","0.0","1","null","6","null","6","null","6","1002.3","1","40.53774","17.423897"],
    [1970,"2024-03-23 01:00:00","18","grottaglie","11.15","1","70.97","1","0.0","1","null","6","null","6","null","6","1002.11","1","40.53774","17.423897"],
    [1971,"2024-03-23 02:00:00","18","grottaglie","11.35","1","67.37","1","0.0","1","null","6","null","6","null","6","1001.92","1","40.53774","17.423897"],
    [1972,"2024-03-23 03:00:00","18","grottaglie","11.03","1","64.98","1","0.0","1","null","6","null","6","null","6","1001.72","1","40.53774","17.423897"],
    [1973,"2024-03-23 04:00:00","18","grottaglie","9.28","1","74.39","1","0.0","1","null","6","null","6","null","6","1001.83","1","40.53774","17.423897"],
    [1974,"2024-03-23 05:00:00","18","grottaglie","8.98","1","76.54","1","0.0","1","null","6","null","6","null","6","1001.81","1","40.53774","17.423897"],
    [1975,"2024-03-23 06:00:00","18","grottaglie","8.39","1","77.87","1","0.0","1","null","6","null","6","null","6","1001.95","1","40.53774","17.423897"],
    [1976,"2024-03-23 07:00:00","18","grottaglie","8.53","1","77.23","1","0.0","1","null","6","null","6","null","6","1002.16","1","40.53774","17.423897"],
    [1977,"2024-03-23 08:00:00","18","grottaglie","9.61","1","76.43","1","0.0","1","null","6","null","6","null","6","1002.47","1","40.53774","17.423897"],
    [1978,"2024-03-23 09:00:00","18","grottaglie","12.36","1","64.78","1","0.0","1","null","6","null","6","null","6","1002.67","1","40.53774","17.423897"],
    [1979,"2024-03-23 10:00:00","18","grottaglie","15.44","1","54.36","1","0.0","1","null","6","null","6","null","6","1002.41","1","40.53774","17.423897"],
    [1980,"2024-03-23 11:00:00","18","grottaglie","17.17","1","51.24","1","0.0","1","null","6","null","6","null","6","1002.04","1","40.53774","17.423897"],
    [1981,"2024-03-23 12:00:00","18","grottaglie","17.68","1","43.75","1","0.0","1","null","6","null","6","null","6","1001.61","1","40.53774","17.423897"],
    [1982,"2024-03-23 13:00:00","18","grottaglie","18.67","1","40.32","1","0.0","1","null","6","null","6","null","6","1001.28","1","40.53774","17.423897"],
    [1983,"2024-03-23 14:00:00","18","grottaglie","19.67","1","36.53","1","0.0","1","null","6","null","6","null","6","1000.6","1","40.53774","17.423897"],
    [1984,"2024-03-23 15:00:00","18","grottaglie","19.76","1","37.1","1","0.0","1","null","6","null","6","null","6","1000.05","1","40.53774","17.423897"],
    [1985,"2024-03-23 16:00:00","18","grottaglie","19.7","1","40.11","1","0.0","1","null","6","null","6","null","6","999.77","1","40.53774","17.423897"],
    [1986,"2024-03-23 17:00:00","18","grottaglie","19.05","1","40.58","1","0.0","1","null","6","null","6","null","6","999.46","1","40.53774","17.423897"],
    [1987,"2024-03-23 18:00:00","18","grottaglie","16.08","1","51.06","1","0.0","1","null","6","null","6","null","6","999.47","1","40.53774","17.423897"],
    [1988,"2024-03-23 19:00:00","18","grottaglie","13.37","1","68.9","1","0.0","1","null","6","null","6","null","6","999.54","1","40.53774","17.423897"],
    [1989,"2024-03-23 20:00:00","18","grottaglie","12.6","1","75.44","1","0.0","1","null","6","null","6","null","6","999.56","1","40.53774","17.423897"],
    [1990,"2024-03-23 21:00:00","18","grottaglie","11.98","1","80.86","1","0.0","1","null","6","null","6","null","6","999.48","1","40.53774","17.423897"],
    [1991,"2024-03-23 22:00:00","18","grottaglie","11.9","1","84.84","1","0.0","1","null","6","null","6","null","6","999.08","1","40.53774","17.423897"],
    [1992,"2024-03-23 23:00:00","18","grottaglie","11.73","1","86.17","1","0.0","1","null","6","null","6","null","6","998.52","1","40.53774","17.423897"],
    [1993,"2024-03-24 00:00:00","18","grottaglie","10.87","1","88.58","1","0.0","1","null","6","null","6","null","6","998.29","1","40.53774","17.423897"],
    [1994,"2024-03-24 01:00:00","18","grottaglie","10.84","1","89.6","1","0.0","1","null","6","null","6","null","6","997.84","1","40.53774","17.423897"],
    [1995,"2024-03-24 02:00:00","18","grottaglie","10.82","1","88.52","1","0.0","1","null","6","null","6","null","6","997.37","1","40.53774","17.423897"],
    [1996,"2024-03-24 03:00:00","18","grottaglie","10.83","1","88.07","1","0.0","1","null","6","null","6","null","6","996.98","1","40.53774","17.423897"],
    [1997,"2024-03-24 04:00:00","18","grottaglie","10.6","1","87.45","1","0.0","1","null","6","null","6","null","6","996.53","1","40.53774","17.423897"],
    [1998,"2024-03-24 05:00:00","18","grottaglie","10.37","1","85.87","1","0.0","1","null","6","null","6","null","6","996.41","1","40.53774","17.423897"],
    [1999,"2024-03-24 06:00:00","18","grottaglie","10.63","1","77.58","1","0.0","1","null","6","null","6","null","6","996.09","1","40.53774","17.423897"],
    [2000,"2024-03-24 07:00:00","18","grottaglie","10.01","1","78.68","1","0.0","1","null","6","null","6","null","6","996.11","1","40.53774","17.423897"],
    [2001,"2024-03-24 08:00:00","18","grottaglie","11.58","1","72.1","1","0.0","1","null","6","null","6","null","6","996.34","1","40.53774","17.423897"],
    [2002,"2024-03-24 09:00:00","18","grottaglie","14.28","1","61.05","1","0.0","1","null","6","null","6","null","6","996.24","1","40.53774","17.423897"],
    [2003,"2024-03-24 10:00:00","18","grottaglie","16.89","1","52.0","1","0.0","1","null","6","null","6","null","6","995.54","1","40.53774","17.423897"],
    [2004,"2024-03-24 11:00:00","18","grottaglie","18.14","1","45.9","1","0.0","1","null","6","null","6","null","6","995.4","1","40.53774","17.423897"],
    [2005,"2024-03-24 12:00:00","18","grottaglie","18.76","1","41.33","1","0.0","1","null","6","null","6","null","6","995.17","1","40.53774","17.423897"],
    [2006,"2024-03-24 13:00:00","18","grottaglie","18.28","1","44.3","1","0.0","1","null","6","null","6","null","6","994.53","1","40.53774","17.423897"],
    [2007,"2024-03-24 14:00:00","18","grottaglie","19.36","1","39.64","1","0.0","1","null","6","null","6","null","6","993.16","1","40.53774","17.423897"],
    [2008,"2024-03-24 15:00:00","18","grottaglie","19.42","1","42.32","1","0.0","1","null","6","null","6","null","6","992.34","1","40.53774","17.423897"],
    [2009,"2024-03-24 16:00:00","18","grottaglie","19.92","1","44.13","1","0.0","1","null","6","null","6","null","6","991.65","1","40.53774","17.423897"],
    [2010,"2024-03-24 17:00:00","18","grottaglie","18.86","1","46.83","1","0.0","1","null","6","null","6","null","6","991.09","1","40.53774","17.423897"],
    [2011,"2024-03-24 18:00:00","18","grottaglie","17.24","1","50.12","1","0.0","1","null","6","null","6","null","6","990.56","1","40.53774","17.423897"],
    [2012,"2024-03-24 19:00:00","18","grottaglie","15.74","1","51.96","1","0.0","1","null","6","null","6","null","6","990.51","1","40.53774","17.423897"],
    [2013,"2024-03-24 20:00:00","18","grottaglie","15.15","1","55.97","1","0.0","1","null","6","null","6","null","6","991.06","1","40.53774","17.423897"],
    [2014,"2024-03-24 21:00:00","18","grottaglie","14.14","1","61.44","1","0.0","1","null","6","null","6","null","6","991.41","1","40.53774","17.423897"],
    [2015,"2024-03-24 22:00:00","18","grottaglie","13.72","1","55.3","1","0.0","1","null","6","null","6","null","6","991.78","1","40.53774","17.423897"],
    [2016,"2024-03-24 23:00:00","18","grottaglie","13.2","1","46.4","1","0.0","1","null","6","null","6","null","6","991.65","1","40.53774","17.423897"],
    [2017,"2024-03-25 00:00:00","18","grottaglie","12.93","1","47.71","1","0.0","1","null","6","null","6","null","6","991.72","1","40.53774","17.423897"],
    [2018,"2024-03-25 01:00:00","18","grottaglie","13.19","1","48.86","1","0.0","1","null","6","null","6","null","6","991.75","1","40.53774","17.423897"],
    [2019,"2024-03-25 02:00:00","18","grottaglie","12.78","1","53.88","1","0.0","1","null","6","null","6","null","6","991.54","1","40.53774","17.423897"],
    [2020,"2024-03-25 03:00:00","18","grottaglie","12.4","1","61.09","1","0.0","1","null","6","null","6","null","6","991.35","1","40.53774","17.423897"],
    [2021,"2024-03-25 04:00:00","18","grottaglie","11.14","1","64.52","1","0.0","1","null","6","null","6","null","6","991.39","1","40.53774","17.423897"],
    [2022,"2024-03-25 05:00:00","18","grottaglie","9.4","1","68.36","1","0.0","1","null","6","null","6","null","6","991.49","1","40.53774","17.423897"],
    [2023,"2024-03-25 06:00:00","18","grottaglie","9.01","1","69.62","1","0.0","1","null","6","null","6","null","6","992.05","1","40.53774","17.423897"],
    [2024,"2024-03-25 07:00:00","18","grottaglie","8.56","1","70.87","1","0.0","1","null","6","null","6","null","6","992.85","1","40.53774","17.423897"],
    [2025,"2024-03-25 08:00:00","18","grottaglie","10.67","1","59.69","1","0.0","1","null","6","null","6","null","6","993.6","1","40.53774","17.423897"],
    [2026,"2024-03-25 09:00:00","18","grottaglie","13.43","1","49.76","1","0.0","1","null","6","null","6","null","6","994.22","1","40.53774","17.423897"],
    [2027,"2024-03-25 10:00:00","18","grottaglie","15.76","1","42.11","1","0.0","1","null","6","null","6","null","6","994.55","1","40.53774","17.423897"],
    [2028,"2024-03-25 11:00:00","18","grottaglie","17.14","1","31.12","1","0.0","1","null","6","null","6","null","6","994.65","1","40.53774","17.423897"],
    [2029,"2024-03-25 12:00:00","18","grottaglie","17.52","1","27.51","1","0.0","1","null","6","null","6","null","6","994.84","1","40.53774","17.423897"],
    [2030,"2024-03-25 13:00:00","18","grottaglie","18.81","1","23.84","1","0.0","1","null","6","null","6","null","6","994.95","1","40.53774","17.423897"],
    [2031,"2024-03-25 14:00:00","18","grottaglie","18.92","1","24.87","1","0.0","1","null","6","null","6","null","6","994.7","1","40.53774","17.423897"],
    [2032,"2024-03-25 15:00:00","18","grottaglie","18.52","1","29.78","1","0.0","1","null","6","null","6","null","6","994.77","1","40.53774","17.423897"],
    [2033,"2024-03-25 16:00:00","18","grottaglie","18.01","1","22.41","1","0.0","1","null","6","null","6","null","6","994.48","1","40.53774","17.423897"],
    [2034,"2024-03-25 17:00:00","18","grottaglie","15.55","1","27.15","1","0.0","1","null","6","null","6","null","6","994.52","1","40.53774","17.423897"],
    [2035,"2024-03-25 18:00:00","18","grottaglie","13.89","1","38.8","1","0.0","1","null","6","null","6","null","6","994.87","1","40.53774","17.423897"],
    [2036,"2024-03-25 19:00:00","18","grottaglie","12.81","1","44.93","1","0.0","1","null","6","null","6","null","6","994.61","1","40.53774","17.423897"],
    [2037,"2024-03-25 20:00:00","18","grottaglie","12.37","1","50.38","1","0.0","1","null","6","null","6","null","6","995.36","1","40.53774","17.423897"],
    [2038,"2024-03-25 21:00:00","18","grottaglie","12.04","1","51.15","1","0.0","1","null","6","null","6","null","6","995.36","1","40.53774","17.423897"],
    [2039,"2024-03-25 22:00:00","18","grottaglie","11.89","1","50.67","1","0.0","1","null","6","null","6","null","6","995.55","1","40.53774","17.423897"],
    [2040,"2024-03-25 23:00:00","18","grottaglie","11.02","1","58.31","1","0.0","1","null","6","null","6","null","6","996.18","1","40.53774","17.423897"],
    [2041,"2024-03-26 00:00:00","18","grottaglie","11.55","1","55.11","1","0.0","1","null","6","null","6","null","6","995.57","1","40.53774","17.423897"],
    [2042,"2024-03-26 01:00:00","18","grottaglie","11.71","1","55.18","1","0.0","1","null","6","null","6","null","6","995.11","1","40.53774","17.423897"],
    [2043,"2024-03-26 02:00:00","18","grottaglie","11.76","1","55.43","1","0.0","1","null","6","null","6","null","6","995.19","1","40.53774","17.423897"],
    [2044,"2024-03-26 03:00:00","18","grottaglie","11.66","1","55.25","1","0.0","1","null","6","null","6","null","6","994.2","1","40.53774","17.423897"],
    [2045,"2024-03-26 04:00:00","18","grottaglie","11.48","1","54.8","1","0.0","1","null","6","null","6","null","6","993.46","1","40.53774","17.423897"],
    [2046,"2024-03-26 05:00:00","18","grottaglie","11.66","1","55.96","1","0.0","1","null","6","null","6","null","6","993.43","1","40.53774","17.423897"],
    [2047,"2024-03-26 06:00:00","18","grottaglie","11.97","1","62.53","1","0.0","1","null","6","null","6","null","6","992.77","1","40.53774","17.423897"],
    [2048,"2024-03-26 07:00:00","18","grottaglie","11.82","1","67.17","1","0.0","1","null","6","null","6","null","6","991.89","1","40.53774","17.423897"],
    [2049,"2024-03-26 08:00:00","18","grottaglie","12.08","1","68.01","1","0.0","1","null","6","null","6","null","6","992.2","1","40.53774","17.423897"],
    [2050,"2024-03-26 09:00:00","18","grottaglie","12.8","1","67.76","1","0.0","1","null","6","null","6","null","6","992.36","1","40.53774","17.423897"],
    [2051,"2024-03-26 10:00:00","18","grottaglie","12.28","1","76.81","1","0.8","1","null","6","null","6","null","6","991.89","1","40.53774","17.423897"],
    [2052,"2024-03-26 11:00:00","18","grottaglie","12.42","1","79.8","1","0.0","1","null","6","null","6","null","6","990.77","1","40.53774","17.423897"],
    [2053,"2024-03-26 12:00:00","18","grottaglie","13.21","1","78.05","1","0.0","1","null","6","null","6","null","6","989.56","1","40.53774","17.423897"],
    [2054,"2024-03-26 13:00:00","18","grottaglie","14.14","1","81.0","1","0.0","1","null","6","null","6","null","6","988.65","1","40.53774","17.423897"],
    [2055,"2024-03-26 14:00:00","18","grottaglie","14.45","1","85.14","1","0.6","1","null","6","null","6","null","6","986.97","1","40.53774","17.423897"],
    [2056,"2024-03-26 15:00:00","18","grottaglie","14.7","1","85.46","1","0.2","1","null","6","null","6","null","6","985.85","1","40.53774","17.423897"],
    [2057,"2024-03-26 16:00:00","18","grottaglie","14.52","1","90.22","1","0.2","1","null","6","null","6","null","6","985.22","1","40.53774","17.423897"],
    [2058,"2024-03-26 17:00:00","18","grottaglie","14.38","1","93.76","1","3.4","1","null","6","null","6","null","6","985.07","1","40.53774","17.423897"],
    [2059,"2024-03-26 18:00:00","18","grottaglie","14.17","1","96.76","1","0.0","1","null","6","null","6","null","6","984.26","1","40.53774","17.423897"],
    [2060,"2024-03-26 19:00:00","18","grottaglie","13.9","1","96.99","1","0.0","1","null","6","null","6","null","6","985.01","1","40.53774","17.423897"],
    [2061,"2024-03-26 20:00:00","18","grottaglie","13.83","1","97.0","1","0.0","1","null","6","null","6","null","6","985.91","1","40.53774","17.423897"],
    [2062,"2024-03-26 21:00:00","18","grottaglie","13.83","1","97.0","1","0.4","1","null","6","null","6","null","6","986.43","1","40.53774","17.423897"],
    [2063,"2024-03-26 22:00:00","18","grottaglie","13.82","1","97.0","1","0.0","1","null","6","null","6","null","6","986.88","1","40.53774","17.423897"],
    [2064,"2024-03-26 23:00:00","18","grottaglie","13.3","1","97.07","1","0.0","1","null","6","null","6","null","6","987.08","1","40.53774","17.423897"],
    [2065,"2024-03-27 00:00:00","18","grottaglie","13.34","1","97.07","1","0.0","1","null","6","null","6","null","6","986.86","1","40.53774","17.423897"],
    [2066,"2024-03-27 01:00:00","18","grottaglie","13.53","1","97.05","1","0.0","1","null","6","null","6","null","6","986.56","1","40.53774","17.423897"],
    [2067,"2024-03-27 02:00:00","18","grottaglie","13.75","1","97.01","1","0.0","1","null","6","null","6","null","6","986.41","1","40.53774","17.423897"],
    [2068,"2024-03-27 03:00:00","18","grottaglie","13.78","1","97.0","1","0.0","1","null","6","null","6","null","6","986.51","1","40.53774","17.423897"],
    [2069,"2024-03-27 04:00:00","18","grottaglie","13.83","1","96.99","1","0.0","1","null","6","null","6","null","6","986.51","1","40.53774","17.423897"],
    [2070,"2024-03-27 05:00:00","18","grottaglie","13.74","1","97.0","1","0.0","1","null","6","null","6","null","6","986.55","1","40.53774","17.423897"],
    [2071,"2024-03-27 06:00:00","18","grottaglie","13.73","1","97.01","1","0.0","1","null","6","null","6","null","6","986.84","1","40.53774","17.423897"],
    [2072,"2024-03-27 07:00:00","18","grottaglie","13.9","1","96.98","1","0.0","1","null","6","null","6","null","6","986.62","1","40.53774","17.423897"],
    [2073,"2024-03-27 08:00:00","18","grottaglie","14.08","1","96.95","1","0.0","1","null","6","null","6","null","6","986.32","1","40.53774","17.423897"],
    [2074,"2024-03-27 09:00:00","18","grottaglie","15.01","1","96.75","1","0.0","1","null","6","null","6","null","6","986.07","1","40.53774","17.423897"],
    [2075,"2024-03-27 10:00:00","18","grottaglie","15.67","1","93.38","1","0.0","1","null","6","null","6","null","6","986.19","1","40.53774","17.423897"],
    [2076,"2024-03-27 11:00:00","18","grottaglie","17.04","1","83.2","1","0.0","1","null","6","null","6","null","6","986.42","1","40.53774","17.423897"],
    [2077,"2024-03-27 12:00:00","18","grottaglie","18.28","1","76.18","1","0.0","1","null","6","null","6","null","6","986.09","1","40.53774","17.423897"],
    [2078,"2024-03-27 13:00:00","18","grottaglie","18.45","1","74.76","1","0.0","1","null","6","null","6","null","6","985.73","1","40.53774","17.423897"],
    [2079,"2024-03-27 14:00:00","18","grottaglie","18.78","1","72.48","1","0.0","1","null","6","null","6","null","6","984.96","1","40.53774","17.423897"],
    [2080,"2024-03-27 15:00:00","18","grottaglie","18.68","1","71.75","1","0.0","1","null","6","null","6","null","6","984.2","1","40.53774","17.423897"],
    [2081,"2024-03-27 16:00:00","18","grottaglie","17.31","1","76.6","1","0.0","1","null","6","null","6","null","6","983.41","1","40.53774","17.423897"],
    [2082,"2024-03-27 17:00:00","18","grottaglie","16.63","1","78.75","1","0.0","1","null","6","null","6","null","6","981.98","1","40.53774","17.423897"],
    [2083,"2024-03-27 18:00:00","18","grottaglie","16.07","1","81.38","1","0.0","1","null","6","null","6","null","6","981.28","1","40.53774","17.423897"],
    [2084,"2024-03-27 19:00:00","18","grottaglie","15.53","1","86.42","1","0.0","1","null","6","null","6","null","6","982.96","1","40.53774","17.423897"],
    [2085,"2024-03-27 20:00:00","18","grottaglie","14.86","1","75.79","1","0.0","1","null","6","null","6","null","6","984.51","1","40.53774","17.423897"],
    [2086,"2024-03-27 21:00:00","18","grottaglie","13.4","1","66.89","1","0.2","1","null","6","null","6","null","6","986.24","1","40.53774","17.423897"],
    [2087,"2024-03-27 22:00:00","18","grottaglie","12.66","1","66.44","1","0.0","1","null","6","null","6","null","6","987.17","1","40.53774","17.423897"],
    [2088,"2024-03-27 23:00:00","18","grottaglie","13.07","1","57.0","1","0.0","1","null","6","null","6","null","6","988.21","1","40.53774","17.423897"],
    [2089,"2024-03-28 00:00:00","18","grottaglie","12.15","1","60.62","1","0.0","1","null","6","null","6","null","6","989.49","1","40.53774","17.423897"],
    [2090,"2024-03-28 01:00:00","18","grottaglie","10.71","1","61.07","1","0.0","1","null","6","null","6","null","6","990.61","1","40.53774","17.423897"],
    [2091,"2024-03-28 02:00:00","18","grottaglie","10.39","1","58.63","1","0.0","1","null","6","null","6","null","6","991.49","1","40.53774","17.423897"],
    [2092,"2024-03-28 03:00:00","18","grottaglie","9.93","1","58.78","1","0.0","1","null","6","null","6","null","6","992.25","1","40.53774","17.423897"],
    [2093,"2024-03-28 04:00:00","18","grottaglie","9.3","1","63.98","1","0.0","1","null","6","null","6","null","6","993.27","1","40.53774","17.423897"],
    [2094,"2024-03-28 05:00:00","18","grottaglie","9.47","1","63.89","1","0.0","1","null","6","null","6","null","6","994.17","1","40.53774","17.423897"],
    [2095,"2024-03-28 06:00:00","18","grottaglie","8.64","1","68.63","1","0.0","1","null","6","null","6","null","6","994.9","1","40.53774","17.423897"],
    [2096,"2024-03-28 07:00:00","18","grottaglie","9.2","1","72.63","1","0.0","1","null","6","null","6","null","6","995.95","1","40.53774","17.423897"],
    [2097,"2024-03-28 08:00:00","18","grottaglie","11.71","1","69.37","1","0.0","1","null","6","null","6","null","6","996.83","1","40.53774","17.423897"],
    [2098,"2024-03-28 09:00:00","18","grottaglie","14.61","1","62.13","1","0.0","1","null","6","null","6","null","6","997.15","1","40.53774","17.423897"],
    [2099,"2024-03-28 10:00:00","18","grottaglie","16.13","1","50.54","1","0.0","1","null","6","null","6","null","6","997.75","1","40.53774","17.423897"],
    [2100,"2024-03-28 11:00:00","18","grottaglie","16.94","1","48.79","1","0.0","1","null","6","null","6","null","6","998.28","1","40.53774","17.423897"],
    [2101,"2024-03-28 12:00:00","18","grottaglie","17.81","1","42.88","1","0.0","1","null","6","null","6","null","6","998.47","1","40.53774","17.423897"],
    [2102,"2024-03-28 13:00:00","18","grottaglie","19.07","1","39.17","1","0.0","1","null","6","null","6","null","6","998.61","1","40.53774","17.423897"],
    [2103,"2024-03-28 14:00:00","18","grottaglie","19.99","1","35.46","1","0.0","1","null","6","null","6","null","6","998.78","1","40.53774","17.423897"],
    [2104,"2024-03-28 15:00:00","18","grottaglie","20.03","1","37.7","1","0.0","1","null","6","null","6","null","6","998.93","1","40.53774","17.423897"],
    [2105,"2024-03-28 16:00:00","18","grottaglie","18.92","1","45.42","1","0.0","1","null","6","null","6","null","6","998.95","1","40.53774","17.423897"],
    [2106,"2024-03-28 17:00:00","18","grottaglie","17.58","1","52.65","1","0.0","1","null","6","null","6","null","6","998.97","1","40.53774","17.423897"],
    [2107,"2024-03-28 18:00:00","18","grottaglie","16.44","1","55.97","1","0.0","1","null","6","null","6","null","6","999.54","1","40.53774","17.423897"],
    [2108,"2024-03-28 19:00:00","18","grottaglie","15.24","1","62.77","1","0.0","1","null","6","null","6","null","6","999.82","1","40.53774","17.423897"],
    [2109,"2024-03-28 20:00:00","18","grottaglie","14.69","1","60.93","1","0.0","1","null","6","null","6","null","6","1000.52","1","40.53774","17.423897"],
    [2110,"2024-03-28 21:00:00","18","grottaglie","14.46","1","61.48","1","0.0","1","null","6","null","6","null","6","1000.73","1","40.53774","17.423897"],
    [2111,"2024-03-28 22:00:00","18","grottaglie","14.28","1","58.95","1","0.0","1","null","6","null","6","null","6","1001.06","1","40.53774","17.423897"],
    [2112,"2024-03-28 23:00:00","18","grottaglie","13.83","1","58.19","1","0.0","1","null","6","null","6","null","6","1001.29","1","40.53774","17.423897"],
    [2113,"2024-03-29 00:00:00","18","grottaglie","13.01","1","63.58","1","0.0","1","null","6","null","6","null","6","1001.42","1","40.53774","17.423897"],
    [2114,"2024-03-29 01:00:00","18","grottaglie","12.38","1","68.31","1","0.0","1","null","6","null","6","null","6","1001.65","1","40.53774","17.423897"],
    [2115,"2024-03-29 02:00:00","18","grottaglie","11.76","1","74.5","1","0.0","1","null","6","null","6","null","6","1001.89","1","40.53774","17.423897"],
    [2116,"2024-03-29 03:00:00","18","grottaglie","11.97","1","79.71","1","0.0","1","null","6","null","6","null","6","1002.22","1","40.53774","17.423897"],
    [2117,"2024-03-29 04:00:00","18","grottaglie","12.01","1","84.06","1","0.0","1","null","6","null","6","null","6","1002.17","1","40.53774","17.423897"],
    [2118,"2024-03-29 05:00:00","18","grottaglie","11.55","1","90.78","1","0.0","1","null","6","null","6","null","6","1002.34","1","40.53774","17.423897"],
    [2119,"2024-03-29 06:00:00","18","grottaglie","11.43","1","87.6","1","0.0","1","null","6","null","6","null","6","1002.99","1","40.53774","17.423897"],
    [2120,"2024-03-29 07:00:00","18","grottaglie","11.97","1","81.9","1","0.0","1","null","6","null","6","null","6","1003.51","1","40.53774","17.423897"],
    [2121,"2024-03-29 08:00:00","18","grottaglie","14.26","1","72.03","1","0.0","1","null","6","null","6","null","6","1003.78","1","40.53774","17.423897"],
    [2122,"2024-03-29 09:00:00","18","grottaglie","16.63","1","63.11","1","0.0","1","null","6","null","6","null","6","1003.64","1","40.53774","17.423897"],
    [2123,"2024-03-29 10:00:00","18","grottaglie","19.03","1","54.97","1","0.0","1","null","6","null","6","null","6","1003.65","1","40.53774","17.423897"],
    [2124,"2024-03-29 11:00:00","18","grottaglie","20.45","1","45.62","1","0.0","1","null","6","null","6","null","6","1003.42","1","40.53774","17.423897"],
    [2125,"2024-03-29 12:00:00","18","grottaglie","21.5","1","41.03","1","0.0","1","null","6","null","6","null","6","1002.85","1","40.53774","17.423897"],
    [2126,"2024-03-29 13:00:00","18","grottaglie","23.03","1","37.15","1","0.0","1","null","6","null","6","null","6","1002.49","1","40.53774","17.423897"],
    [2127,"2024-03-29 14:00:00","18","grottaglie","23.57","1","36.03","1","0.0","1","null","6","null","6","null","6","1002.21","1","40.53774","17.423897"],
    [2128,"2024-03-29 15:00:00","18","grottaglie","23.99","1","34.3","1","0.0","1","null","6","null","6","null","6","1002.06","1","40.53774","17.423897"],
    [2129,"2024-03-29 16:00:00","18","grottaglie","23.57","1","41.86","1","0.0","1","null","6","null","6","null","6","1001.81","1","40.53774","17.423897"],
    [2130,"2024-03-29 17:00:00","18","grottaglie","22.04","1","43.48","1","0.0","1","null","6","null","6","null","6","1001.49","1","40.53774","17.423897"],
    [2131,"2024-03-29 18:00:00","18","grottaglie","19.47","1","46.39","1","0.0","1","null","6","null","6","null","6","1001.42","1","40.53774","17.423897"],
    [2132,"2024-03-29 19:00:00","18","grottaglie","15.83","1","63.13","1","0.0","1","null","6","null","6","null","6","1001.38","1","40.53774","17.423897"],
    [2133,"2024-03-29 20:00:00","18","grottaglie","13.96","1","76.89","1","0.0","1","null","6","null","6","null","6","1002.01","1","40.53774","17.423897"],
    [2134,"2024-03-29 21:00:00","18","grottaglie","13.63","1","82.01","1","0.0","1","null","6","null","6","null","6","1001.61","1","40.53774","17.423897"],
    [2135,"2024-03-29 22:00:00","18","grottaglie","13.21","1","84.17","1","0.0","1","null","6","null","6","null","6","1001.28","1","40.53774","17.423897"],
    [2136,"2024-03-29 23:00:00","18","grottaglie","12.96","1","87.24","1","0.0","1","null","6","null","6","null","6","1001.3","1","40.53774","17.423897"],
    [2137,"2024-03-30 00:00:00","18","grottaglie","12.52","1","90.79","1","0.0","1","null","6","null","6","null","6","1001.09","1","40.53774","17.423897"],
    [2138,"2024-03-30 01:00:00","18","grottaglie","12.59","1","93.53","1","0.0","1","null","6","null","6","null","6","1000.94","1","40.53774","17.423897"],
    [2139,"2024-03-30 02:00:00","18","grottaglie","12.84","1","94.29","1","0.0","1","null","6","null","6","null","6","1000.74","1","40.53774","17.423897"],
    [2140,"2024-03-30 03:00:00","18","grottaglie","13.05","1","93.56","1","0.0","1","null","6","null","6","null","6","1000.23","1","40.53774","17.423897"],
    [2141,"2024-03-30 04:00:00","18","grottaglie","13.61","1","91.27","1","0.0","1","null","6","null","6","null","6","1000.08","1","40.53774","17.423897"],
    [2142,"2024-03-30 05:00:00","18","grottaglie","13.62","1","90.16","1","0.0","1","null","6","null","6","null","6","1000.09","1","40.53774","17.423897"],
    [2143,"2024-03-30 06:00:00","18","grottaglie","13.18","1","91.49","1","0.0","1","null","6","null","6","null","6","1000.03","1","40.53774","17.423897"],
    [2144,"2024-03-30 07:00:00","18","grottaglie","12.99","1","91.3","1","0.0","1","null","6","null","6","null","6","1000.07","1","40.53774","17.423897"],
    [2145,"2024-03-30 08:00:00","18","grottaglie","14.3","1","79.74","1","0.0","1","null","6","null","6","null","6","1000.12","1","40.53774","17.423897"],
    [2146,"2024-03-30 09:00:00","18","grottaglie","16.44","1","62.81","1","0.0","1","null","6","null","6","null","6","1000.19","1","40.53774","17.423897"],
    [2147,"2024-03-30 10:00:00","18","grottaglie","18.73","1","49.04","1","0.0","1","null","6","null","6","null","6","1000.03","1","40.53774","17.423897"],
    [2148,"2024-03-30 11:00:00","18","grottaglie","19.92","1","39.59","1","0.0","1","null","6","null","6","null","6","999.75","1","40.53774","17.423897"],
    [2149,"2024-03-30 12:00:00","18","grottaglie","20.71","1","35.39","1","0.0","1","null","6","null","6","null","6","999.77","1","40.53774","17.423897"],
    [2150,"2024-03-30 13:00:00","18","grottaglie","21.32","1","33.25","1","0.0","1","null","6","null","6","null","6","1000.0","1","40.53774","17.423897"],
    [2151,"2024-03-30 14:00:00","18","grottaglie","21.49","1","30.17","1","0.0","1","null","6","null","6","null","6","999.52","1","40.53774","17.423897"],
    [2152,"2024-03-30 15:00:00","18","grottaglie","21.19","1","30.5","1","0.0","1","null","6","null","6","null","6","999.47","1","40.53774","17.423897"],
    [2153,"2024-03-30 16:00:00","18","grottaglie","20.33","1","34.82","1","0.0","1","null","6","null","6","null","6","999.15","1","40.53774","17.423897"],
    [2154,"2024-03-30 17:00:00","18","grottaglie","18.75","1","40.93","1","0.0","1","null","6","null","6","null","6","998.61","1","40.53774","17.423897"],
    [2155,"2024-03-30 18:00:00","18","grottaglie","17.03","1","49.09","1","0.0","1","null","6","null","6","null","6","998.38","1","40.53774","17.423897"],
    [2156,"2024-03-30 19:00:00","18","grottaglie","15.71","1","54.23","1","0.0","1","null","6","null","6","null","6","998.34","1","40.53774","17.423897"],
    [2157,"2024-03-30 20:00:00","18","grottaglie","15.44","1","55.52","1","0.0","1","null","6","null","6","null","6","999.01","1","40.53774","17.423897"],
    [2158,"2024-03-30 21:00:00","18","grottaglie","15.28","1","59.86","1","0.0","1","null","6","null","6","null","6","999.64","1","40.53774","17.423897"],
    [2159,"2024-03-30 22:00:00","18","grottaglie","14.87","1","67.07","1","0.0","1","null","6","null","6","null","6","999.92","1","40.53774","17.423897"],
    [2160,"2024-03-30 23:00:00","18","grottaglie","14.61","1","72.03","1","0.0","1","null","6","null","6","null","6","999.97","1","40.53774","17.423897"],
    [2161,"2024-03-31 00:00:00","18","grottaglie","14.51","1","76.11","1","0.0","1","null","6","null","6","null","6","1000.03","1","40.53774","17.423897"],
    [2162,"2024-03-31 01:00:00","18","grottaglie","14.41","1","79.34","1","0.0","1","null","6","null","6","null","6","999.77","1","40.53774","17.423897"],
    [2163,"2024-03-31 03:00:00","18","grottaglie","14.35","1","81.63","1","0.0","1","null","6","null","6","null","6","999.25","1","40.53774","17.423897"],
    [2164,"2024-03-31 03:00:00","18","grottaglie","14.39","1","81.31","1","0.0","1","null","6","null","6","null","6","998.86","1","40.53774","17.423897"],
    [2165,"2024-03-31 04:00:00","18","grottaglie","14.44","1","80.78","1","0.0","1","null","6","null","6","null","6","999.11","1","40.53774","17.423897"],
    [2166,"2024-03-31 05:00:00","18","grottaglie","14.38","1","80.94","1","0.0","1","null","6","null","6","null","6","999.12","1","40.53774","17.423897"],
    [2167,"2024-03-31 06:00:00","18","grottaglie","14.39","1","81.41","1","0.0","1","null","6","null","6","null","6","998.87","1","40.53774","17.423897"],
    [2168,"2024-03-31 07:00:00","18","grottaglie","14.86","1","80.25","1","0.0","1","null","6","null","6","null","6","999.04","1","40.53774","17.423897"],
    [2169,"2024-03-31 08:00:00","18","grottaglie","15.89","1","76.13","1","0.0","1","null","6","null","6","null","6","999.56","1","40.53774","17.423897"],
    [2170,"2024-03-31 09:00:00","18","grottaglie","17.23","1","69.08","1","0.0","1","null","6","null","6","null","6","999.87","1","40.53774","17.423897"],
    [2171,"2024-03-31 10:00:00","18","grottaglie","18.3","1","64.2","1","0.0","1","null","6","null","6","null","6","1000.34","1","40.53774","17.423897"],
    [2172,"2024-03-31 11:00:00","18","grottaglie","18.83","1","62.03","1","0.0","1","null","6","null","6","null","6","1000.3","1","40.53774","17.423897"],
    [2173,"2024-03-31 12:00:00","18","grottaglie","19.13","1","60.83","1","0.0","1","null","6","null","6","null","6","1000.34","1","40.53774","17.423897"],
    [2174,"2024-03-31 13:00:00","18","grottaglie","18.26","1","65.92","1","0.0","1","null","6","null","6","null","6","1000.49","1","40.53774","17.423897"],
    [2175,"2024-03-31 14:00:00","18","grottaglie","19.51","1","62.35","1","0.0","1","null","6","null","6","null","6","999.96","1","40.53774","17.423897"],
    [2176,"2024-03-31 15:00:00","18","grottaglie","19.0","1","65.55","1","0.0","1","null","6","null","6","null","6","999.35","1","40.53774","17.423897"],
    [2177,"2024-03-31 16:00:00","18","grottaglie","18.72","1","66.78","1","0.0","1","null","6","null","6","null","6","999.12","1","40.53774","17.423897"],
    [2178,"2024-03-31 17:00:00","18","grottaglie","17.45","1","72.42","1","0.0","1","null","6","null","6","null","6","999.23","1","40.53774","17.423897"],
    [2179,"2024-03-31 18:00:00","18","grottaglie","16.52","1","77.35","1","0.0","1","null","6","null","6","null","6","999.73","1","40.53774","17.423897"],
    [2180,"2024-03-31 19:00:00","18","grottaglie","16.16","1","79.77","1","0.0","1","null","6","null","6","null","6","1000.08","1","40.53774","17.423897"],
    [2181,"2024-03-31 20:00:00","18","grottaglie","16.1","1","80.38","1","0.0","1","null","6","null","6","null","6","1000.82","1","40.53774","17.423897"],
    [2182,"2024-03-31 21:00:00","18","grottaglie","15.92","1","81.72","1","0.0","1","null","6","null","6","null","6","1001.11","1","40.53774","17.423897"],
    [2183,"2024-03-31 22:00:00","18","grottaglie","15.81","1","83.16","1","0.0","1","null","6","null","6","null","6","1001.39","1","40.53774","17.423897"],
    [2184,"2024-03-31 23:00:00","18","grottaglie","15.7","1","83.98","1","0.0","1","null","6","null","6","null","6","1001.2","1","40.53774","17.423897"],
    [2185,"2024-04-01 00:00:00","18","grottaglie","15.53","1","84.85","1","0.0","1","null","6","null","6","null","6","1000.82","1","40.53774","17.423897"],
    [2186,"2024-04-01 01:00:00","18","grottaglie","15.23","1","85.68","1","0.0","1","null","6","null","6","null","6","1000.61","1","40.53774","17.423897"],
    [2187,"2024-04-01 02:00:00","18","grottaglie","14.83","1","87.63","1","0.0","1","null","6","null","6","null","6","1000.24","1","40.53774","17.423897"],
    [2188,"2024-04-01 03:00:00","18","grottaglie","14.97","1","88.08","1","0.0","1","null","6","null","6","null","6","999.92","1","40.53774","17.423897"],
    [2189,"2024-04-01 04:00:00","18","grottaglie","15.09","1","87.35","1","0.0","1","null","6","null","6","null","6","999.5","1","40.53774","17.423897"],
    [2190,"2024-04-01 05:00:00","18","grottaglie","15.09","1","87.17","1","0.0","1","null","6","null","6","null","6","999.43","1","40.53774","17.423897"],
    [2191,"2024-04-01 06:00:00","18","grottaglie","15.07","1","87.13","1","0.0","1","null","6","null","6","null","6","999.53","1","40.53774","17.423897"],
    [2192,"2024-04-01 07:00:00","18","grottaglie","15.19","1","86.49","1","0.0","1","null","6","null","6","null","6","999.82","1","40.53774","17.423897"],
    [2193,"2024-04-01 08:00:00","18","grottaglie","15.64","1","83.35","1","0.0","1","null","6","null","6","null","6","999.73","1","40.53774","17.423897"],
    [2194,"2024-04-01 09:00:00","18","grottaglie","16.19","1","80.56","1","0.0","1","null","6","null","6","null","6","999.79","1","40.53774","17.423897"],
    [2195,"2024-04-01 10:00:00","18","grottaglie","17.14","1","76.65","1","0.0","1","null","6","null","6","null","6","999.81","1","40.53774","17.423897"],
    [2196,"2024-04-01 11:00:00","18","grottaglie","18.27","1","70.45","1","0.0","1","null","6","null","6","null","6","999.49","1","40.53774","17.423897"],
    [2197,"2024-04-01 12:00:00","18","grottaglie","19.71","1","63.74","1","0.0","1","null","6","null","6","null","6","999.08","1","40.53774","17.423897"],
    [2198,"2024-04-01 13:00:00","18","grottaglie","20.92","1","58.81","1","0.0","1","null","6","null","6","null","6","998.69","1","40.53774","17.423897"],
    [2199,"2024-04-01 14:00:00","18","grottaglie","21.39","1","58.29","1","0.0","1","null","6","null","6","null","6","998.01","1","40.53774","17.423897"],
    [2200,"2024-04-01 15:00:00","18","grottaglie","21.58","1","58.21","1","0.0","1","null","6","null","6","null","6","997.35","1","40.53774","17.423897"],
    [2201,"2024-04-01 16:00:00","18","grottaglie","20.64","1","61.26","1","0.0","1","null","6","null","6","null","6","996.55","1","40.53774","17.423897"],
    [2202,"2024-04-01 17:00:00","18","grottaglie","19.64","1","64.74","1","0.0","1","null","6","null","6","null","6","995.84","1","40.53774","17.423897"],
    [2203,"2024-04-01 18:00:00","18","grottaglie","18.17","1","69.77","1","0.0","1","null","6","null","6","null","6","995.24","1","40.53774","17.423897"],
    [2204,"2024-04-01 19:00:00","18","grottaglie","16.42","1","77.02","1","0.0","1","null","6","null","6","null","6","994.45","1","40.53774","17.423897"],
    [2205,"2024-04-01 20:00:00","18","grottaglie","15.62","1","81.92","1","0.0","1","null","6","null","6","null","6","994.39","1","40.53774","17.423897"],
    [2206,"2024-04-01 21:00:00","18","grottaglie","15.77","1","82.69","1","0.0","1","null","6","null","6","null","6","996.04","1","40.53774","17.423897"],
    [2207,"2024-04-01 22:00:00","18","grottaglie","15.61","1","83.77","1","0.0","1","null","6","null","6","null","6","997.03","1","40.53774","17.423897"],
    [2208,"2024-04-01 23:00:00","18","grottaglie","14.45","1","88.4","1","0.0","1","null","6","null","6","null","6","997.76","1","40.53774","17.423897"],
    [2209,"2024-04-02 00:00:00","18","grottaglie","13.86","1","90.04","1","0.0","1","null","6","null","6","null","6","999.06","1","40.53774","17.423897"],
    [2210,"2024-04-02 01:00:00","18","grottaglie","14.71","1","63.27","1","0.0","1","null","6","null","6","null","6","999.14","1","40.53774","17.423897"],
    [2211,"2024-04-02 02:00:00","18","grottaglie","14.44","1","64.42","1","0.0","1","null","6","null","6","null","6","999.35","1","40.53774","17.423897"],
    [2212,"2024-04-02 03:00:00","18","grottaglie","13.76","1","68.92","1","0.0","1","null","6","null","6","null","6","999.82","1","40.53774","17.423897"],
    [2213,"2024-04-02 04:00:00","18","grottaglie","13.66","1","67.41","1","0.0","1","null","6","null","6","null","6","1000.37","1","40.53774","17.423897"],
    [2214,"2024-04-02 05:00:00","18","grottaglie","13.16","1","63.49","1","0.0","1","null","6","null","6","null","6","1001.23","1","40.53774","17.423897"],
    [2215,"2024-04-02 06:00:00","18","grottaglie","12.34","1","60.81","1","0.0","1","null","6","null","6","null","6","1001.78","1","40.53774","17.423897"],
    [2216,"2024-04-02 07:00:00","18","grottaglie","12.05","1","61.67","1","0.0","1","null","6","null","6","null","6","1002.21","1","40.53774","17.423897"],
    [2217,"2024-04-02 08:00:00","18","grottaglie","13.36","1","58.69","1","0.0","1","null","6","null","6","null","6","1002.37","1","40.53774","17.423897"],
    [2218,"2024-04-02 09:00:00","18","grottaglie","15.04","1","52.47","1","0.0","1","null","6","null","6","null","6","1002.69","1","40.53774","17.423897"],
    [2219,"2024-04-02 10:00:00","18","grottaglie","17.13","1","41.84","1","0.0","1","null","6","null","6","null","6","1002.66","1","40.53774","17.423897"],
    [2220,"2024-04-02 11:00:00","18","grottaglie","18.68","1","38.9","1","0.0","1","null","6","null","6","null","6","1002.29","1","40.53774","17.423897"],
    [2221,"2024-04-02 12:00:00","18","grottaglie","19.23","1","34.48","1","0.0","1","null","6","null","6","null","6","1001.97","1","40.53774","17.423897"],
    [2222,"2024-04-02 13:00:00","18","grottaglie","21.0","1","27.83","1","0.0","1","null","6","null","6","null","6","1001.75","1","40.53774","17.423897"],
    [2223,"2024-04-02 14:00:00","18","grottaglie","22.07","1","24.03","1","0.0","1","null","6","null","6","null","6","1001.47","1","40.53774","17.423897"],
    [2224,"2024-04-02 15:00:00","18","grottaglie","22.71","1","23.55","1","0.0","1","null","6","null","6","null","6","1001.29","1","40.53774","17.423897"],
    [2225,"2024-04-02 16:00:00","18","grottaglie","22.47","1","31.28","1","0.0","1","null","6","null","6","null","6","1001.7","1","40.53774","17.423897"],
    [2226,"2024-04-02 17:00:00","18","grottaglie","21.43","1","32.56","1","0.0","1","null","6","null","6","null","6","1001.67","1","40.53774","17.423897"],
    [2227,"2024-04-02 18:00:00","18","grottaglie","20.18","1","32.4","1","0.0","1","null","6","null","6","null","6","1001.89","1","40.53774","17.423897"],
    [2228,"2024-04-02 19:00:00","18","grottaglie","17.55","1","39.38","1","0.0","1","null","6","null","6","null","6","1002.03","1","40.53774","17.423897"],
    [2229,"2024-04-02 20:00:00","18","grottaglie","15.61","1","48.29","1","0.0","1","null","6","null","6","null","6","1002.83","1","40.53774","17.423897"],
    [2230,"2024-04-02 21:00:00","18","grottaglie","13.89","1","56.25","1","0.0","1","null","6","null","6","null","6","1003.57","1","40.53774","17.423897"],
    [2231,"2024-04-02 22:00:00","18","grottaglie","12.78","1","59.53","1","0.0","1","null","6","null","6","null","6","1004.11","1","40.53774","17.423897"],
    [2232,"2024-04-02 23:00:00","18","grottaglie","12.25","1","59.5","1","0.0","1","null","6","null","6","null","6","1004.45","1","40.53774","17.423897"],
    [2233,"2024-04-03 00:00:00","18","grottaglie","11.5","1","59.87","1","0.0","1","null","6","null","6","null","6","1004.68","1","40.53774","17.423897"],
    [2234,"2024-04-03 01:00:00","18","grottaglie","11.66","1","58.06","1","0.0","1","null","6","null","6","null","6","1004.53","1","40.53774","17.423897"],
    [2235,"2024-04-03 02:00:00","18","grottaglie","11.93","1","55.65","1","0.0","1","null","6","null","6","null","6","1004.04","1","40.53774","17.423897"],
    [2236,"2024-04-03 03:00:00","18","grottaglie","9.98","1","64.97","1","0.0","1","null","6","null","6","null","6","1003.93","1","40.53774","17.423897"],
    [2237,"2024-04-03 04:00:00","18","grottaglie","10.07","1","62.98","1","0.0","1","null","6","null","6","null","6","1003.64","1","40.53774","17.423897"],
    [2238,"2024-04-03 05:00:00","18","grottaglie","8.39","1","71.79","1","0.0","1","null","6","null","6","null","6","1003.74","1","40.53774","17.423897"],
    [2239,"2024-04-03 06:00:00","18","grottaglie","10.06","1","64.57","1","0.0","1","null","6","null","6","null","6","1003.55","1","40.53774","17.423897"],
    [2240,"2024-04-03 07:00:00","18","grottaglie","10.45","1","64.03","1","0.0","1","null","6","null","6","null","6","1003.68","1","40.53774","17.423897"],
    [2241,"2024-04-03 08:00:00","18","grottaglie","12.29","1","60.51","1","0.0","1","null","6","null","6","null","6","1003.86","1","40.53774","17.423897"],
    [2242,"2024-04-03 09:00:00","18","grottaglie","16.06","1","47.3","1","0.0","1","null","6","null","6","null","6","1004.02","1","40.53774","17.423897"],
    [2243,"2024-04-03 10:00:00","18","grottaglie","19.84","1","35.51","1","0.0","1","null","6","null","6","null","6","1003.62","1","40.53774","17.423897"],
    [2244,"2024-04-03 11:00:00","18","grottaglie","20.55","1","32.79","1","0.0","1","null","6","null","6","null","6","1003.48","1","40.53774","17.423897"],
    [2245,"2024-04-03 12:00:00","18","grottaglie","19.45","1","38.83","1","0.0","1","null","6","null","6","null","6","1003.46","1","40.53774","17.423897"],
    [2246,"2024-04-03 13:00:00","18","grottaglie","18.95","1","37.66","1","0.0","1","null","6","null","6","null","6","1003.5","1","40.53774","17.423897"],
    [2247,"2024-04-03 14:00:00","18","grottaglie","19.07","1","35.38","1","0.0","1","null","6","null","6","null","6","1003.14","1","40.53774","17.423897"],
    [2248,"2024-04-03 15:00:00","18","grottaglie","19.26","1","34.37","1","0.0","1","null","6","null","6","null","6","1002.74","1","40.53774","17.423897"],
    [2249,"2024-04-03 16:00:00","18","grottaglie","19.4","1","33.56","1","0.0","1","null","6","null","6","null","6","1002.41","1","40.53774","17.423897"],
    [2250,"2024-04-03 17:00:00","18","grottaglie","18.81","1","33.61","1","0.0","1","null","6","null","6","null","6","1001.95","1","40.53774","17.423897"],
    [2251,"2024-04-03 18:00:00","18","grottaglie","17.47","1","40.3","1","0.0","1","null","6","null","6","null","6","1002.27","1","40.53774","17.423897"],
    [2252,"2024-04-03 19:00:00","18","grottaglie","15.77","1","46.76","1","0.0","1","null","6","null","6","null","6","1002.46","1","40.53774","17.423897"],
    [2253,"2024-04-03 20:00:00","18","grottaglie","13.64","1","54.63","1","0.0","1","null","6","null","6","null","6","1003.12","1","40.53774","17.423897"],
    [2254,"2024-04-03 21:00:00","18","grottaglie","13.02","1","55.86","1","0.0","1","null","6","null","6","null","6","1003.52","1","40.53774","17.423897"],
    [2255,"2024-04-03 22:00:00","18","grottaglie","12.69","1","55.44","1","0.0","1","null","6","null","6","null","6","1003.7","1","40.53774","17.423897"],
    [2256,"2024-04-03 23:00:00","18","grottaglie","13.01","1","53.12","1","0.0","1","null","6","null","6","null","6","1003.88","1","40.53774","17.423897"],
    [2257,"2024-04-04 00:00:00","18","grottaglie","12.26","1","54.37","1","0.0","1","null","6","null","6","null","6","1003.97","1","40.53774","17.423897"],
    [2258,"2024-04-04 01:00:00","18","grottaglie","12.03","1","56.37","1","0.0","1","null","6","null","6","null","6","1004.07","1","40.53774","17.423897"],
    [2259,"2024-04-04 02:00:00","18","grottaglie","11.96","1","56.46","1","0.0","1","null","6","null","6","null","6","1003.85","1","40.53774","17.423897"],
    [2260,"2024-04-04 03:00:00","18","grottaglie","11.51","1","55.42","1","0.0","1","null","6","null","6","null","6","1003.87","1","40.53774","17.423897"],
    [2261,"2024-04-04 04:00:00","18","grottaglie","10.92","1","56.42","1","0.0","1","null","6","null","6","null","6","1003.97","1","40.53774","17.423897"],
    [2262,"2024-04-04 05:00:00","18","grottaglie","10.94","1","54.91","1","0.0","1","null","6","null","6","null","6","1003.89","1","40.53774","17.423897"],
    [2263,"2024-04-04 06:00:00","18","grottaglie","9.89","1","58.41","1","0.0","1","null","6","null","6","null","6","1004.09","1","40.53774","17.423897"],
    [2264,"2024-04-04 07:00:00","18","grottaglie","9.94","1","59.87","1","0.0","1","null","6","null","6","null","6","1004.74","1","40.53774","17.423897"],
    [2265,"2024-04-04 08:00:00","18","grottaglie","11.3","1","59.17","1","0.0","1","null","6","null","6","null","6","1005.12","1","40.53774","17.423897"],
    [2266,"2024-04-04 09:00:00","18","grottaglie","14.91","1","51.98","1","0.0","1","null","6","null","6","null","6","1005.53","1","40.53774","17.423897"],
    [2267,"2024-04-04 10:00:00","18","grottaglie","19.33","1","38.41","1","0.0","1","null","6","null","6","null","6","1005.15","1","40.53774","17.423897"],
    [2268,"2024-04-04 11:00:00","18","grottaglie","21.83","1","28.73","1","0.0","1","null","6","null","6","null","6","1005.11","1","40.53774","17.423897"],
    [2269,"2024-04-04 12:00:00","18","grottaglie","22.17","1","28.12","1","0.0","1","null","6","null","6","null","6","1005.18","1","40.53774","17.423897"],
    [2270,"2024-04-04 13:00:00","18","grottaglie","22.59","1","27.27","1","0.0","1","null","6","null","6","null","6","1005.22","1","40.53774","17.423897"],
    [2271,"2024-04-04 14:00:00","18","grottaglie","22.93","1","26.75","1","0.0","1","null","6","null","6","null","6","1005.03","1","40.53774","17.423897"],
    [2272,"2024-04-04 15:00:00","18","grottaglie","23.67","1","26.9","1","0.0","1","null","6","null","6","null","6","1005.0","1","40.53774","17.423897"],
    [2273,"2024-04-04 16:00:00","18","grottaglie","23.2","1","27.97","1","0.0","1","null","6","null","6","null","6","1004.95","1","40.53774","17.423897"],
    [2274,"2024-04-04 17:00:00","18","grottaglie","22.33","1","27.19","1","0.0","1","null","6","null","6","null","6","1005.22","1","40.53774","17.423897"],
    [2275,"2024-04-04 18:00:00","18","grottaglie","21.19","1","31.47","1","0.0","1","null","6","null","6","null","6","1005.54","1","40.53774","17.423897"],
    [2276,"2024-04-04 19:00:00","18","grottaglie","17.24","1","41.72","1","0.0","1","null","6","null","6","null","6","1005.54","1","40.53774","17.423897"],
    [2277,"2024-04-04 20:00:00","18","grottaglie","14.72","1","49.78","1","0.0","1","null","6","null","6","null","6","1006.33","1","40.53774","17.423897"],
    [2278,"2024-04-04 21:00:00","18","grottaglie","13.98","1","52.38","1","0.0","1","null","6","null","6","null","6","1006.89","1","40.53774","17.423897"],
    [2279,"2024-04-04 22:00:00","18","grottaglie","14.24","1","52.62","1","0.0","1","null","6","null","6","null","6","1007.06","1","40.53774","17.423897"],
    [2280,"2024-04-04 23:00:00","18","grottaglie","13.51","1","53.7","1","0.0","1","null","6","null","6","null","6","1007.31","1","40.53774","17.423897"],
    [2281,"2024-04-05 00:00:00","18","grottaglie","13.39","1","53.94","1","0.0","1","null","6","null","6","null","6","1007.42","1","40.53774","17.423897"],
    [2282,"2024-04-05 01:00:00","18","grottaglie","13.51","1","54.24","1","0.0","1","null","6","null","6","null","6","1007.1","1","40.53774","17.423897"],
    [2283,"2024-04-05 02:00:00","18","grottaglie","11.68","1","58.92","1","0.0","1","null","6","null","6","null","6","1007.1","1","40.53774","17.423897"],
    [2284,"2024-04-05 03:00:00","18","grottaglie","14.02","1","47.44","1","0.0","1","null","6","null","6","null","6","1007.26","1","40.53774","17.423897"],
    [2285,"2024-04-05 04:00:00","18","grottaglie","12.85","1","51.32","1","0.0","1","null","6","null","6","null","6","1007.24","1","40.53774","17.423897"],
    [2286,"2024-04-05 05:00:00","18","grottaglie","9.88","1","65.24","1","0.0","1","null","6","null","6","null","6","1007.43","1","40.53774","17.423897"],
    [2287,"2024-04-05 06:00:00","18","grottaglie","10.1","1","64.56","1","0.0","1","null","6","null","6","null","6","1007.83","1","40.53774","17.423897"],
    [2288,"2024-04-05 07:00:00","18","grottaglie","11.92","1","59.37","1","0.0","1","null","6","null","6","null","6","1008.49","1","40.53774","17.423897"],
    [2289,"2024-04-05 08:00:00","18","grottaglie","14.27","1","57.61","1","0.0","1","null","6","null","6","null","6","1008.86","1","40.53774","17.423897"],
    [2290,"2024-04-05 09:00:00","18","grottaglie","18.11","1","43.64","1","0.0","1","null","6","null","6","null","6","1009.0","1","40.53774","17.423897"],
    [2291,"2024-04-05 10:00:00","18","grottaglie","21.2","1","36.55","1","0.0","1","null","6","null","6","null","6","1008.64","1","40.53774","17.423897"],
    [2292,"2024-04-05 11:00:00","18","grottaglie","23.13","1","29.99","1","0.0","1","null","6","null","6","null","6","1008.63","1","40.53774","17.423897"],
    [2293,"2024-04-05 12:00:00","18","grottaglie","23.65","1","26.12","1","0.0","1","null","6","null","6","null","6","1008.43","1","40.53774","17.423897"],
    [2294,"2024-04-05 13:00:00","18","grottaglie","24.63","1","25.57","1","0.0","1","null","6","null","6","null","6","1008.37","1","40.53774","17.423897"],
    [2295,"2024-04-05 14:00:00","18","grottaglie","25.56","1","24.8","1","0.0","1","null","6","null","6","null","6","1008.42","1","40.53774","17.423897"],
    [2296,"2024-04-05 15:00:00","18","grottaglie","24.44","1","26.51","1","0.0","1","null","6","null","6","null","6","1008.06","1","40.53774","17.423897"],
    [2297,"2024-04-05 16:00:00","18","grottaglie","23.41","1","28.81","1","0.0","1","null","6","null","6","null","6","1007.93","1","40.53774","17.423897"],
    [2298,"2024-04-05 17:00:00","18","grottaglie","22.27","1","28.99","1","0.0","1","null","6","null","6","null","6","1008.01","1","40.53774","17.423897"],
    [2299,"2024-04-05 18:00:00","18","grottaglie","20.97","1","30.68","1","0.0","1","null","6","null","6","null","6","1008.36","1","40.53774","17.423897"],
    [2300,"2024-04-05 19:00:00","18","grottaglie","18.23","1","37.22","1","0.0","1","null","6","null","6","null","6","1008.02","1","40.53774","17.423897"],
    [2301,"2024-04-05 20:00:00","18","grottaglie","15.63","1","44.61","1","0.0","1","null","6","null","6","null","6","1008.53","1","40.53774","17.423897"],
    [2302,"2024-04-05 21:00:00","18","grottaglie","14.4","1","49.15","1","0.0","1","null","6","null","6","null","6","1009.03","1","40.53774","17.423897"],
    [2303,"2024-04-05 22:00:00","18","grottaglie","14.15","1","49.19","1","0.0","1","null","6","null","6","null","6","1009.19","1","40.53774","17.423897"],
    [2304,"2024-04-05 23:00:00","18","grottaglie","12.99","1","54.6","1","0.0","1","null","6","null","6","null","6","1009.14","1","40.53774","17.423897"],
    [2305,"2024-04-06 00:00:00","18","grottaglie","12.71","1","56.15","1","0.0","1","null","6","null","6","null","6","1008.97","1","40.53774","17.423897"],
    [2306,"2024-04-06 01:00:00","18","grottaglie","13.56","1","54.76","1","0.0","1","null","6","null","6","null","6","1008.84","1","40.53774","17.423897"],
    [2307,"2024-04-06 02:00:00","18","grottaglie","13.61","1","53.01","1","0.0","1","null","6","null","6","null","6","1008.6","1","40.53774","17.423897"],
    [2308,"2024-04-06 03:00:00","18","grottaglie","15.34","1","46.85","1","0.0","1","null","6","null","6","null","6","1008.34","1","40.53774","17.423897"],
    [2309,"2024-04-06 04:00:00","18","grottaglie","14.38","1","49.92","1","0.0","1","null","6","null","6","null","6","1008.14","1","40.53774","17.423897"],
    [2310,"2024-04-06 05:00:00","18","grottaglie","12.68","1","56.93","1","0.0","1","null","6","null","6","null","6","1008.23","1","40.53774","17.423897"],
    [2311,"2024-04-06 06:00:00","18","grottaglie","12.88","1","56.03","1","0.0","1","null","6","null","6","null","6","1008.62","1","40.53774","17.423897"],
    [2312,"2024-04-06 07:00:00","18","grottaglie","11.28","1","64.85","1","0.0","1","null","6","null","6","null","6","1009.05","1","40.53774","17.423897"],
    [2313,"2024-04-06 08:00:00","18","grottaglie","13.13","1","62.0","1","0.0","1","null","6","null","6","null","6","1009.39","1","40.53774","17.423897"],
    [2314,"2024-04-06 09:00:00","18","grottaglie","17.77","1","48.28","1","0.0","1","null","6","null","6","null","6","1009.5","1","40.53774","17.423897"],
    [2315,"2024-04-06 10:00:00","18","grottaglie","21.77","1","35.12","1","0.0","1","null","6","null","6","null","6","1009.0","1","40.53774","17.423897"],
    [2316,"2024-04-06 11:00:00","18","grottaglie","23.04","1","31.85","1","0.0","1","null","6","null","6","null","6","1008.77","1","40.53774","17.423897"],
    [2317,"2024-04-06 12:00:00","18","grottaglie","23.96","1","29.48","1","0.0","1","null","6","null","6","null","6","1008.55","1","40.53774","17.423897"],
    [2318,"2024-04-06 13:00:00","18","grottaglie","23.84","1","29.34","1","0.0","1","null","6","null","6","null","6","1008.34","1","40.53774","17.423897"],
    [2319,"2024-04-06 14:00:00","18","grottaglie","24.64","1","27.91","1","0.0","1","null","6","null","6","null","6","1007.92","1","40.53774","17.423897"],
    [2320,"2024-04-06 15:00:00","18","grottaglie","25.29","1","27.11","1","0.0","1","null","6","null","6","null","6","1007.48","1","40.53774","17.423897"],
    [2321,"2024-04-06 16:00:00","18","grottaglie","25.49","1","27.78","1","0.0","1","null","6","null","6","null","6","1007.09","1","40.53774","17.423897"],
    [2322,"2024-04-06 17:00:00","18","grottaglie","25.09","1","33.41","1","0.0","1","null","6","null","6","null","6","1007.0","1","40.53774","17.423897"],
    [2323,"2024-04-06 18:00:00","18","grottaglie","23.56","1","39.15","1","0.0","1","null","6","null","6","null","6","1006.86","1","40.53774","17.423897"],
    [2324,"2024-04-06 19:00:00","18","grottaglie","19.04","1","46.85","1","0.0","1","null","6","null","6","null","6","1006.66","1","40.53774","17.423897"],
    [2325,"2024-04-06 20:00:00","18","grottaglie","17.01","1","47.84","1","0.0","1","null","6","null","6","null","6","1007.17","1","40.53774","17.423897"],
    [2326,"2024-04-06 21:00:00","18","grottaglie","15.61","1","47.75","1","0.0","1","null","6","null","6","null","6","1007.55","1","40.53774","17.423897"],
    [2327,"2024-04-06 22:00:00","18","grottaglie","13.69","1","54.63","1","0.0","1","null","6","null","6","null","6","1007.7","1","40.53774","17.423897"],
    [2328,"2024-04-06 23:00:00","18","grottaglie","13.67","1","52.45","1","0.0","1","null","6","null","6","null","6","1007.55","1","40.53774","17.423897"],
    [2329,"2024-04-07 00:00:00","18","grottaglie","13.79","1","50.29","1","0.0","1","null","6","null","6","null","6","1007.19","1","40.53774","17.423897"],
    [2330,"2024-04-07 01:00:00","18","grottaglie","13.17","1","53.78","1","0.0","1","null","6","null","6","null","6","1007.03","1","40.53774","17.423897"],
    [2331,"2024-04-07 02:00:00","18","grottaglie","16.29","1","43.36","1","0.0","1","null","6","null","6","null","6","1006.57","1","40.53774","17.423897"],
    [2332,"2024-04-07 03:00:00","18","grottaglie","14.26","1","51.58","1","0.0","1","null","6","null","6","null","6","1006.09","1","40.53774","17.423897"],
    [2333,"2024-04-07 04:00:00","18","grottaglie","15.53","1","45.64","1","0.0","1","null","6","null","6","null","6","1005.79","1","40.53774","17.423897"],
    [2334,"2024-04-07 05:00:00","18","grottaglie","13.98","1","51.71","1","0.0","1","null","6","null","6","null","6","1005.52","1","40.53774","17.423897"],
    [2335,"2024-04-07 06:00:00","18","grottaglie","11.91","1","59.97","1","0.0","1","null","6","null","6","null","6","1005.65","1","40.53774","17.423897"],
    [2336,"2024-04-07 07:00:00","18","grottaglie","12.87","1","58.79","1","0.0","1","null","6","null","6","null","6","1005.82","1","40.53774","17.423897"],
    [2337,"2024-04-07 08:00:00","18","grottaglie","15.6","1","51.55","1","0.0","1","null","6","null","6","null","6","1005.8","1","40.53774","17.423897"],
    [2338,"2024-04-07 09:00:00","18","grottaglie","20.31","1","38.8","1","0.0","1","null","6","null","6","null","6","1005.67","1","40.53774","17.423897"],
    [2339,"2024-04-07 10:00:00","18","grottaglie","23.01","1","33.21","1","0.0","1","null","6","null","6","null","6","1005.2","1","40.53774","17.423897"],
    [2340,"2024-04-07 11:00:00","18","grottaglie","24.63","1","30.43","1","0.0","1","null","6","null","6","null","6","1004.89","1","40.53774","17.423897"],
    [2341,"2024-04-07 12:00:00","18","grottaglie","25.45","1","27.38","1","0.0","1","null","6","null","6","null","6","1004.48","1","40.53774","17.423897"],
    [2342,"2024-04-07 13:00:00","18","grottaglie","25.68","1","26.58","1","0.0","1","null","6","null","6","null","6","1004.11","1","40.53774","17.423897"],
    [2343,"2024-04-07 14:00:00","18","grottaglie","26.03","1","26.31","1","0.0","1","null","6","null","6","null","6","1003.68","1","40.53774","17.423897"],
    [2344,"2024-04-07 15:00:00","18","grottaglie","26.19","1","25.46","1","0.0","1","null","6","null","6","null","6","1003.09","1","40.53774","17.423897"],
    [2345,"2024-04-07 16:00:00","18","grottaglie","25.85","1","24.05","1","0.0","1","null","6","null","6","null","6","1002.36","1","40.53774","17.423897"],
    [2346,"2024-04-07 17:00:00","18","grottaglie","25.51","1","25.95","1","0.0","1","null","6","null","6","null","6","1002.3","1","40.53774","17.423897"],
    [2347,"2024-04-07 18:00:00","18","grottaglie","23.13","1","29.47","1","0.0","1","null","6","null","6","null","6","1001.92","1","40.53774","17.423897"],
    [2348,"2024-04-07 19:00:00","18","grottaglie","20.43","1","34.09","1","0.0","1","null","6","null","6","null","6","1001.99","1","40.53774","17.423897"],
    [2349,"2024-04-07 20:00:00","18","grottaglie","19.19","1","35.38","1","0.0","1","null","6","null","6","null","6","1002.44","1","40.53774","17.423897"],
    [2350,"2024-04-07 21:00:00","18","grottaglie","18.54","1","37.48","1","0.0","1","null","6","null","6","null","6","1002.35","1","40.53774","17.423897"],
    [2351,"2024-04-07 22:00:00","18","grottaglie","18.91","1","37.17","1","0.0","1","null","6","null","6","null","6","1002.32","1","40.53774","17.423897"],
    [2352,"2024-04-07 23:00:00","18","grottaglie","18.95","1","35.64","1","0.0","1","null","6","null","6","null","6","1002.41","1","40.53774","17.423897"],
    [2353,"2024-04-08 00:00:00","18","grottaglie","19.06","1","34.99","1","0.0","1","null","6","null","6","null","6","1002.28","1","40.53774","17.423897"],
    [2354,"2024-04-08 01:00:00","18","grottaglie","18.86","1","34.83","1","0.0","1","null","6","null","6","null","6","1002.14","1","40.53774","17.423897"],
    [2355,"2024-04-08 02:00:00","18","grottaglie","17.81","1","38.62","1","0.0","1","null","6","null","6","null","6","1002.49","1","40.53774","17.423897"],
    [2356,"2024-04-08 03:00:00","18","grottaglie","16.59","1","42.78","1","0.0","1","null","6","null","6","null","6","1002.45","1","40.53774","17.423897"],
    [2357,"2024-04-08 04:00:00","18","grottaglie","15.85","1","48.82","1","0.0","1","null","6","null","6","null","6","1002.91","1","40.53774","17.423897"],
    [2358,"2024-04-08 05:00:00","18","grottaglie","13.82","1","57.19","1","0.0","1","null","6","null","6","null","6","1004.06","1","40.53774","17.423897"],
    [2359,"2024-04-08 06:00:00","18","grottaglie","13.84","1","63.67","1","0.0","1","null","6","null","6","null","6","1004.28","1","40.53774","17.423897"],
    [2360,"2024-04-08 07:00:00","18","grottaglie","14.77","1","58.19","1","0.0","1","null","6","null","6","null","6","1004.35","1","40.53774","17.423897"],
    [2361,"2024-04-08 08:00:00","18","grottaglie","16.62","1","54.92","1","0.0","1","null","6","null","6","null","6","1004.66","1","40.53774","17.423897"],
    [2362,"2024-04-08 09:00:00","18","grottaglie","18.78","1","47.76","1","0.0","1","null","6","null","6","null","6","1004.9","1","40.53774","17.423897"],
    [2363,"2024-04-08 10:00:00","18","grottaglie","21.04","1","41.0","1","0.0","1","null","6","null","6","null","6","1004.73","1","40.53774","17.423897"],
    [2364,"2024-04-08 11:00:00","18","grottaglie","22.11","1","44.01","1","0.0","1","null","6","null","6","null","6","1004.5","1","40.53774","17.423897"],
    [2365,"2024-04-08 12:00:00","18","grottaglie","22.41","1","46.1","1","0.0","1","null","6","null","6","null","6","1004.18","1","40.53774","17.423897"],
    [2366,"2024-04-08 13:00:00","18","grottaglie","23.91","1","42.03","1","0.0","1","null","6","null","6","null","6","1003.83","1","40.53774","17.423897"],
    [2367,"2024-04-08 14:00:00","18","grottaglie","25.14","1","36.47","1","0.0","1","null","6","null","6","null","6","1003.55","1","40.53774","17.423897"],
    [2368,"2024-04-08 15:00:00","18","grottaglie","25.2","1","34.93","1","0.0","1","null","6","null","6","null","6","1003.52","1","40.53774","17.423897"],
    [2369,"2024-04-08 16:00:00","18","grottaglie","24.26","1","35.12","1","0.0","1","null","6","null","6","null","6","1003.48","1","40.53774","17.423897"],
    [2370,"2024-04-08 17:00:00","18","grottaglie","23.03","1","33.8","1","0.0","1","null","6","null","6","null","6","1003.39","1","40.53774","17.423897"],
    [2371,"2024-04-08 18:00:00","18","grottaglie","21.36","1","36.42","1","0.0","1","null","6","null","6","null","6","1003.22","1","40.53774","17.423897"],
    [2372,"2024-04-08 19:00:00","18","grottaglie","18.92","1","44.93","1","0.0","1","null","6","null","6","null","6","1002.99","1","40.53774","17.423897"],
    [2373,"2024-04-08 20:00:00","18","grottaglie","17.2","1","50.04","1","0.0","1","null","6","null","6","null","6","1003.31","1","40.53774","17.423897"],
    [2374,"2024-04-08 21:00:00","18","grottaglie","16.8","1","50.08","1","0.0","1","null","6","null","6","null","6","1003.64","1","40.53774","17.423897"],
    [2375,"2024-04-08 22:00:00","18","grottaglie","16.42","1","50.4","1","0.0","1","null","6","null","6","null","6","1003.77","1","40.53774","17.423897"],
    [2376,"2024-04-08 23:00:00","18","grottaglie","16.11","1","54.38","1","0.0","1","null","6","null","6","null","6","1003.55","1","40.53774","17.423897"],
    [2377,"2024-04-09 00:00:00","18","grottaglie","15.28","1","64.04","1","0.0","1","null","6","null","6","null","6","1003.66","1","40.53774","17.423897"],
    [2378,"2024-04-09 01:00:00","18","grottaglie","15.04","1","65.53","1","0.0","1","null","6","null","6","null","6","1003.49","1","40.53774","17.423897"],
    [2379,"2024-04-09 02:00:00","18","grottaglie","14.86","1","68.64","1","0.0","1","null","6","null","6","null","6","1003.1","1","40.53774","17.423897"],
    [2380,"2024-04-09 03:00:00","18","grottaglie","14.89","1","63.76","1","0.0","1","null","6","null","6","null","6","1002.72","1","40.53774","17.423897"],
    [2381,"2024-04-09 04:00:00","18","grottaglie","14.51","1","64.77","1","0.0","1","null","6","null","6","null","6","1002.73","1","40.53774","17.423897"],
    [2382,"2024-04-09 05:00:00","18","grottaglie","14.1","1","70.95","1","0.0","1","null","6","null","6","null","6","1002.82","1","40.53774","17.423897"],
    [2383,"2024-04-09 06:00:00","18","grottaglie","13.58","1","73.45","1","0.0","1","null","6","null","6","null","6","1002.9","1","40.53774","17.423897"],
    [2384,"2024-04-09 07:00:00","18","grottaglie","13.63","1","74.49","1","0.0","1","null","6","null","6","null","6","1003.19","1","40.53774","17.423897"],
    [2385,"2024-04-09 08:00:00","18","grottaglie","16.07","1","64.27","1","0.0","1","null","6","null","6","null","6","1003.13","1","40.53774","17.423897"],
    [2386,"2024-04-09 09:00:00","18","grottaglie","19.76","1","50.05","1","0.0","1","null","6","null","6","null","6","1003.01","1","40.53774","17.423897"],
    [2387,"2024-04-09 10:00:00","18","grottaglie","22.04","1","41.32","1","0.0","1","null","6","null","6","null","6","1002.64","1","40.53774","17.423897"],
    [2388,"2024-04-09 11:00:00","18","grottaglie","23.53","1","32.72","1","0.0","1","null","6","null","6","null","6","1002.51","1","40.53774","17.423897"],
    [2389,"2024-04-09 12:00:00","18","grottaglie","24.47","1","26.99","1","0.0","1","null","6","null","6","null","6","1002.32","1","40.53774","17.423897"],
    [2390,"2024-04-09 13:00:00","18","grottaglie","24.76","1","22.63","1","0.0","1","null","6","null","6","null","6","1002.3","1","40.53774","17.423897"],
    [2391,"2024-04-09 14:00:00","18","grottaglie","25.38","1","20.19","1","0.0","1","null","6","null","6","null","6","1002.01","1","40.53774","17.423897"],
    [2392,"2024-04-09 15:00:00","18","grottaglie","25.06","1","20.97","1","0.0","1","null","6","null","6","null","6","1001.74","1","40.53774","17.423897"],
    [2393,"2024-04-09 16:00:00","18","grottaglie","24.88","1","23.11","1","0.0","1","null","6","null","6","null","6","1001.53","1","40.53774","17.423897"],
    [2394,"2024-04-09 17:00:00","18","grottaglie","24.14","1","24.81","1","0.0","1","null","6","null","6","null","6","1001.54","1","40.53774","17.423897"],
    [2395,"2024-04-09 18:00:00","18","grottaglie","23.07","1","28.03","1","0.0","1","null","6","null","6","null","6","1001.36","1","40.53774","17.423897"],
    [2396,"2024-04-09 19:00:00","18","grottaglie","19.05","1","38.91","1","0.0","1","null","6","null","6","null","6","1000.94","1","40.53774","17.423897"],
    [2397,"2024-04-09 20:00:00","18","grottaglie","16.97","1","48.2","1","0.0","1","null","6","null","6","null","6","1001.36","1","40.53774","17.423897"],
    [2398,"2024-04-09 21:00:00","18","grottaglie","16.15","1","55.88","1","0.0","1","null","6","null","6","null","6","1001.66","1","40.53774","17.423897"],
    [2399,"2024-04-09 22:00:00","18","grottaglie","15.69","1","62.33","1","0.0","1","null","6","null","6","null","6","1001.6","1","40.53774","17.423897"],
    [2400,"2024-04-09 23:00:00","18","grottaglie","15.45","1","67.84","1","0.0","1","null","6","null","6","null","6","1001.49","1","40.53774","17.423897"],
    [2401,"2024-04-10 00:00:00","18","grottaglie","15.02","1","74.13","1","0.0","1","null","6","null","6","null","6","1001.16","1","40.53774","17.423897"],
    [2402,"2024-04-10 01:00:00","18","grottaglie","14.81","1","81.99","1","0.0","1","null","6","null","6","null","6","1000.89","1","40.53774","17.423897"],
    [2403,"2024-04-10 02:00:00","18","grottaglie","15.19","1","86.62","1","0.0","1","null","6","null","6","null","6","1000.55","1","40.53774","17.423897"],
    [2404,"2024-04-10 03:00:00","18","grottaglie","15.23","1","87.57","1","0.0","1","null","6","null","6","null","6","1000.26","1","40.53774","17.423897"],
    [2405,"2024-04-10 04:00:00","18","grottaglie","15.18","1","86.29","1","0.0","1","null","6","null","6","null","6","999.94","1","40.53774","17.423897"],
    [2406,"2024-04-10 05:00:00","18","grottaglie","14.88","1","85.91","1","0.0","1","null","6","null","6","null","6","1000.0","1","40.53774","17.423897"],
    [2407,"2024-04-10 06:00:00","18","grottaglie","14.96","1","86.69","1","0.0","1","null","6","null","6","null","6","1000.24","1","40.53774","17.423897"],
    [2408,"2024-04-10 07:00:00","18","grottaglie","15.62","1","84.68","1","0.0","1","null","6","null","6","null","6","1000.39","1","40.53774","17.423897"],
    [2409,"2024-04-10 08:00:00","18","grottaglie","16.89","1","78.65","1","0.0","1","null","6","null","6","null","6","1000.42","1","40.53774","17.423897"],
    [2410,"2024-04-10 09:00:00","18","grottaglie","18.31","1","72.3","1","0.0","1","null","6","null","6","null","6","1000.57","1","40.53774","17.423897"],
    [2411,"2024-04-10 10:00:00","18","grottaglie","19.77","1","64.29","1","0.0","1","null","6","null","6","null","6","1000.84","1","40.53774","17.423897"],
    [2412,"2024-04-10 11:00:00","18","grottaglie","21.45","1","51.02","1","0.0","1","null","6","null","6","null","6","1000.89","1","40.53774","17.423897"],
    [2413,"2024-04-10 12:00:00","18","grottaglie","23.49","1","42.03","1","0.0","1","null","6","null","6","null","6","1000.59","1","40.53774","17.423897"],
    [2414,"2024-04-10 13:00:00","18","grottaglie","24.53","1","40.03","1","0.0","1","null","6","null","6","null","6","1000.5","1","40.53774","17.423897"],
    [2415,"2024-04-10 14:00:00","18","grottaglie","23.69","1","45.47","1","0.0","1","null","6","null","6","null","6","1000.66","1","40.53774","17.423897"],
    [2416,"2024-04-10 15:00:00","18","grottaglie","23.75","1","43.82","1","0.0","1","null","6","null","6","null","6","1000.99","1","40.53774","17.423897"],
    [2417,"2024-04-10 16:00:00","18","grottaglie","23.72","1","41.74","1","0.0","1","null","6","null","6","null","6","1001.23","1","40.53774","17.423897"],
    [2418,"2024-04-10 17:00:00","18","grottaglie","23.01","1","46.57","1","0.0","1","null","6","null","6","null","6","1001.43","1","40.53774","17.423897"],
    [2419,"2024-04-10 18:00:00","18","grottaglie","21.65","1","47.78","1","0.0","1","null","6","null","6","null","6","1001.8","1","40.53774","17.423897"],
    [2420,"2024-04-10 19:00:00","18","grottaglie","20.06","1","49.56","1","0.0","1","null","6","null","6","null","6","1002.32","1","40.53774","17.423897"],
    [2421,"2024-04-10 20:00:00","18","grottaglie","18.56","1","51.75","1","0.0","1","null","6","null","6","null","6","1003.32","1","40.53774","17.423897"],
    [2422,"2024-04-10 21:00:00","18","grottaglie","17.45","1","52.29","1","0.0","1","null","6","null","6","null","6","1003.92","1","40.53774","17.423897"],
    [2423,"2024-04-10 22:00:00","18","grottaglie","16.59","1","53.28","1","0.0","1","null","6","null","6","null","6","1004.29","1","40.53774","17.423897"],
    [2424,"2024-04-10 23:00:00","18","grottaglie","15.85","1","54.54","1","0.0","1","null","6","null","6","null","6","1004.82","1","40.53774","17.423897"],
    [2425,"2024-04-11 00:00:00","18","grottaglie","14.98","1","55.88","1","0.0","1","null","6","null","6","null","6","1005.25","1","40.53774","17.423897"],
    [2426,"2024-04-11 01:00:00","18","grottaglie","14.66","1","49.83","1","0.0","1","null","6","null","6","null","6","1005.19","1","40.53774","17.423897"],
    [2427,"2024-04-11 02:00:00","18","grottaglie","14.54","1","42.7","1","0.0","1","null","6","null","6","null","6","1004.97","1","40.53774","17.423897"],
    [2428,"2024-04-11 03:00:00","18","grottaglie","15.25","1","30.98","1","0.0","1","null","6","null","6","null","6","1004.77","1","40.53774","17.423897"],
    [2429,"2024-04-11 04:00:00","18","grottaglie","15.44","1","32.37","1","0.0","1","null","6","null","6","null","6","1004.44","1","40.53774","17.423897"],
    [2430,"2024-04-11 05:00:00","18","grottaglie","15.5","1","40.71","1","0.0","1","null","6","null","6","null","6","1004.61","1","40.53774","17.423897"],
    [2431,"2024-04-11 06:00:00","18","grottaglie","14.74","1","54.49","1","0.0","1","null","6","null","6","null","6","1004.96","1","40.53774","17.423897"],
    [2432,"2024-04-11 07:00:00","18","grottaglie","15.39","1","47.92","1","0.0","1","null","6","null","6","null","6","1005.39","1","40.53774","17.423897"],
    [2433,"2024-04-11 08:00:00","18","grottaglie","17.09","1","49.72","1","0.0","1","null","6","null","6","null","6","1005.92","1","40.53774","17.423897"],
    [2434,"2024-04-11 09:00:00","18","grottaglie","18.99","1","49.66","1","0.0","1","null","6","null","6","null","6","1006.45","1","40.53774","17.423897"],
    [2435,"2024-04-11 10:00:00","18","grottaglie","19.66","1","47.25","1","0.0","1","null","6","null","6","null","6","1006.89","1","40.53774","17.423897"],
    [2436,"2024-04-11 11:00:00","18","grottaglie","19.95","1","48.2","1","0.0","1","null","6","null","6","null","6","1007.25","1","40.53774","17.423897"],
    [2437,"2024-04-11 12:00:00","18","grottaglie","19.96","1","50.9","1","0.0","1","null","6","null","6","null","6","1007.43","1","40.53774","17.423897"],
    [2438,"2024-04-11 13:00:00","18","grottaglie","20.89","1","45.46","1","0.0","1","null","6","null","6","null","6","1007.51","1","40.53774","17.423897"],
    [2439,"2024-04-11 14:00:00","18","grottaglie","22.23","1","38.21","1","0.0","1","null","6","null","6","null","6","1007.14","1","40.53774","17.423897"],
    [2440,"2024-04-11 15:00:00","18","grottaglie","23.7","1","34.95","1","0.0","1","null","6","null","6","null","6","1007.19","1","40.53774","17.423897"],
    [2441,"2024-04-11 16:00:00","18","grottaglie","23.36","1","34.89","1","0.0","1","null","6","null","6","null","6","1006.87","1","40.53774","17.423897"],
    [2442,"2024-04-11 17:00:00","18","grottaglie","21.62","1","41.11","1","0.0","1","null","6","null","6","null","6","1006.94","1","40.53774","17.423897"],
    [2443,"2024-04-11 18:00:00","18","grottaglie","20.24","1","46.73","1","0.0","1","null","6","null","6","null","6","1007.13","1","40.53774","17.423897"],
    [2444,"2024-04-11 19:00:00","18","grottaglie","18.3","1","51.27","1","0.0","1","null","6","null","6","null","6","1007.02","1","40.53774","17.423897"],
    [2445,"2024-04-11 20:00:00","18","grottaglie","17.61","1","52.55","1","0.0","1","null","6","null","6","null","6","1007.34","1","40.53774","17.423897"],
    [2446,"2024-04-11 21:00:00","18","grottaglie","17.41","1","56.29","1","0.0","1","null","6","null","6","null","6","1008.0","1","40.53774","17.423897"],
    [2447,"2024-04-11 22:00:00","18","grottaglie","16.44","1","59.08","1","0.0","1","null","6","null","6","null","6","1008.46","1","40.53774","17.423897"],
    [2448,"2024-04-11 23:00:00","18","grottaglie","16.1","1","59.38","1","0.0","1","null","6","null","6","null","6","1009.01","1","40.53774","17.423897"],
    [2449,"2024-04-12 00:00:00","18","grottaglie","16.8","1","50.92","1","0.0","1","null","6","null","6","null","6","1008.91","1","40.53774","17.423897"],
    [2450,"2024-04-12 01:00:00","18","grottaglie","16.93","1","49.85","1","0.0","1","null","6","null","6","null","6","1009.06","1","40.53774","17.423897"],
    [2451,"2024-04-12 02:00:00","18","grottaglie","16.56","1","49.94","1","0.0","1","null","6","null","6","null","6","1008.78","1","40.53774","17.423897"],
    [2452,"2024-04-12 03:00:00","18","grottaglie","16.36","1","49.89","1","0.0","1","null","6","null","6","null","6","1008.76","1","40.53774","17.423897"],
    [2453,"2024-04-12 04:00:00","18","grottaglie","16.91","1","46.68","1","0.0","1","null","6","null","6","null","6","1008.38","1","40.53774","17.423897"],
    [2454,"2024-04-12 05:00:00","18","grottaglie","17.23","1","46.94","1","0.0","1","null","6","null","6","null","6","1008.13","1","40.53774","17.423897"],
    [2455,"2024-04-12 06:00:00","18","grottaglie","16.36","1","51.23","1","0.0","1","null","6","null","6","null","6","1008.27","1","40.53774","17.423897"],
    [2456,"2024-04-12 07:00:00","18","grottaglie","16.68","1","52.63","1","0.0","1","null","6","null","6","null","6","1008.62","1","40.53774","17.423897"],
    [2457,"2024-04-12 08:00:00","18","grottaglie","18.17","1","49.92","1","0.0","1","null","6","null","6","null","6","1009.19","1","40.53774","17.423897"],
    [2458,"2024-04-12 09:00:00","18","grottaglie","20.66","1","45.09","1","0.0","1","null","6","null","6","null","6","1009.58","1","40.53774","17.423897"],
    [2459,"2024-04-12 10:00:00","18","grottaglie","22.02","1","41.64","1","0.0","1","null","6","null","6","null","6","1009.76","1","40.53774","17.423897"],
    [2460,"2024-04-12 11:00:00","18","grottaglie","23.4","1","36.77","1","0.0","1","null","6","null","6","null","6","1009.84","1","40.53774","17.423897"],
    [2461,"2024-04-12 12:00:00","18","grottaglie","24.1","1","34.11","1","0.0","1","null","6","null","6","null","6","1009.78","1","40.53774","17.423897"],
    [2462,"2024-04-12 13:00:00","18","grottaglie","25.43","1","31.1","1","0.0","1","null","6","null","6","null","6","1009.65","1","40.53774","17.423897"],
    [2463,"2024-04-12 14:00:00","18","grottaglie","26.1","1","28.82","1","0.0","1","null","6","null","6","null","6","1009.41","1","40.53774","17.423897"],
    [2464,"2024-04-12 15:00:00","18","grottaglie","26.37","1","27.28","1","0.0","1","null","6","null","6","null","6","1008.89","1","40.53774","17.423897"],
    [2465,"2024-04-12 16:00:00","18","grottaglie","26.26","1","28.32","1","0.0","1","null","6","null","6","null","6","1008.66","1","40.53774","17.423897"],
    [2466,"2024-04-12 17:00:00","18","grottaglie","25.04","1","31.5","1","0.0","1","null","6","null","6","null","6","1008.66","1","40.53774","17.423897"],
    [2467,"2024-04-12 18:00:00","18","grottaglie","23.23","1","34.64","1","0.0","1","null","6","null","6","null","6","1008.46","1","40.53774","17.423897"],
    [2468,"2024-04-12 19:00:00","18","grottaglie","20.2","1","43.18","1","0.0","1","null","6","null","6","null","6","1008.16","1","40.53774","17.423897"],
    [2469,"2024-04-12 20:00:00","18","grottaglie","18.32","1","44.45","1","0.0","1","null","6","null","6","null","6","1008.4","1","40.53774","17.423897"],
    [2470,"2024-04-12 21:00:00","18","grottaglie","17.97","1","43.37","1","0.0","1","null","6","null","6","null","6","1008.65","1","40.53774","17.423897"],
    [2471,"2024-04-12 22:00:00","18","grottaglie","17.78","1","44.51","1","0.0","1","null","6","null","6","null","6","1008.91","1","40.53774","17.423897"],
    [2472,"2024-04-12 23:00:00","18","grottaglie","17.74","1","45.09","1","0.0","1","null","6","null","6","null","6","1009.21","1","40.53774","17.423897"],
    [2473,"2024-04-13 00:00:00","18","grottaglie","18.11","1","43.3","1","0.0","1","null","6","null","6","null","6","1009.32","1","40.53774","17.423897"],
    [2474,"2024-04-13 01:00:00","18","grottaglie","18.16","1","43.35","1","0.0","1","null","6","null","6","null","6","1009.18","1","40.53774","17.423897"],
    [2475,"2024-04-13 02:00:00","18","grottaglie","18.54","1","41.42","1","0.0","1","null","6","null","6","null","6","1008.93","1","40.53774","17.423897"],
    [2476,"2024-04-13 03:00:00","18","grottaglie","18.41","1","42.3","1","0.0","1","null","6","null","6","null","6","1008.78","1","40.53774","17.423897"],
    [2477,"2024-04-13 04:00:00","18","grottaglie","18.32","1","42.25","1","0.0","1","null","6","null","6","null","6","1008.64","1","40.53774","17.423897"],
    [2478,"2024-04-13 05:00:00","18","grottaglie","18.38","1","39.74","1","0.0","1","null","6","null","6","null","6","1008.64","1","40.53774","17.423897"],
    [2479,"2024-04-13 06:00:00","18","grottaglie","18.66","1","38.79","1","0.0","1","null","6","null","6","null","6","1008.71","1","40.53774","17.423897"],
    [2480,"2024-04-13 07:00:00","18","grottaglie","19.16","1","38.75","1","0.0","1","null","6","null","6","null","6","1008.95","1","40.53774","17.423897"],
    [2481,"2024-04-13 08:00:00","18","grottaglie","20.17","1","38.49","1","0.0","1","null","6","null","6","null","6","1009.3","1","40.53774","17.423897"],
    [2482,"2024-04-13 09:00:00","18","grottaglie","22.04","1","36.86","1","0.0","1","null","6","null","6","null","6","1009.49","1","40.53774","17.423897"],
    [2483,"2024-04-13 10:00:00","18","grottaglie","24.02","1","34.77","1","0.0","1","null","6","null","6","null","6","1009.61","1","40.53774","17.423897"],
    [2484,"2024-04-13 11:00:00","18","grottaglie","26.37","1","31.88","1","0.0","1","null","6","null","6","null","6","1009.66","1","40.53774","17.423897"],
    [2485,"2024-04-13 12:00:00","18","grottaglie","26.75","1","31.24","1","0.0","1","null","6","null","6","null","6","1009.46","1","40.53774","17.423897"],
    [2486,"2024-04-13 13:00:00","18","grottaglie","27.31","1","29.99","1","0.0","1","null","6","null","6","null","6","1009.39","1","40.53774","17.423897"],
    [2487,"2024-04-13 14:00:00","18","grottaglie","27.3","1","29.75","1","0.0","1","null","6","null","6","null","6","1009.32","1","40.53774","17.423897"],
    [2488,"2024-04-13 15:00:00","18","grottaglie","27.76","1","29.03","1","0.0","1","null","6","null","6","null","6","1009.03","1","40.53774","17.423897"],
    [2489,"2024-04-13 16:00:00","18","grottaglie","28.08","1","29.22","1","0.0","1","null","6","null","6","null","6","1008.45","1","40.53774","17.423897"],
    [2490,"2024-04-13 17:00:00","18","grottaglie","27.31","1","30.55","1","0.0","1","null","6","null","6","null","6","1008.17","1","40.53774","17.423897"],
    [2491,"2024-04-13 18:00:00","18","grottaglie","26.12","1","31.27","1","0.0","1","null","6","null","6","null","6","1008.1","1","40.53774","17.423897"],
    [2492,"2024-04-13 19:00:00","18","grottaglie","22.46","1","38.03","1","0.0","1","null","6","null","6","null","6","1007.88","1","40.53774","17.423897"],
    [2493,"2024-04-13 20:00:00","18","grottaglie","20.21","1","42.11","1","0.0","1","null","6","null","6","null","6","1008.23","1","40.53774","17.423897"],
    [2494,"2024-04-13 21:00:00","18","grottaglie","18.85","1","45.45","1","0.0","1","null","6","null","6","null","6","1008.47","1","40.53774","17.423897"],
    [2495,"2024-04-13 22:00:00","18","grottaglie","18.38","1","45.52","1","0.0","1","null","6","null","6","null","6","1008.58","1","40.53774","17.423897"],
    [2496,"2024-04-13 23:00:00","18","grottaglie","17.65","1","46.18","1","0.0","1","null","6","null","6","null","6","1008.71","1","40.53774","17.423897"],
    [2497,"2024-04-14 00:00:00","18","grottaglie","17.89","1","43.05","1","0.0","1","null","6","null","6","null","6","1008.71","1","40.53774","17.423897"],
    [2498,"2024-04-14 01:00:00","18","grottaglie","17.53","1","45.82","1","0.0","1","null","6","null","6","null","6","1008.6","1","40.53774","17.423897"],
    [2499,"2024-04-14 02:00:00","18","grottaglie","16.61","1","50.08","1","0.0","1","null","6","null","6","null","6","1008.55","1","40.53774","17.423897"],
    [2500,"2024-04-14 03:00:00","18","grottaglie","15.45","1","54.07","1","0.0","1","null","6","null","6","null","6","1008.61","1","40.53774","17.423897"],
    [2501,"2024-04-14 04:00:00","18","grottaglie","15.03","1","56.98","1","0.0","1","null","6","null","6","null","6","1008.54","1","40.53774","17.423897"],
    [2502,"2024-04-14 05:00:00","18","grottaglie","14.11","1","60.07","1","0.0","1","null","6","null","6","null","6","1008.57","1","40.53774","17.423897"],
    [2503,"2024-04-14 06:00:00","18","grottaglie","13.27","1","64.4","1","0.0","1","null","6","null","6","null","6","1008.85","1","40.53774","17.423897"],
    [2504,"2024-04-14 07:00:00","18","grottaglie","14.05","1","63.88","1","0.0","1","null","6","null","6","null","6","1009.02","1","40.53774","17.423897"],
    [2505,"2024-04-14 08:00:00","18","grottaglie","16.79","1","56.88","1","0.0","1","null","6","null","6","null","6","1008.98","1","40.53774","17.423897"],
    [2506,"2024-04-14 09:00:00","18","grottaglie","23.02","1","35.05","1","0.0","1","null","6","null","6","null","6","1008.81","1","40.53774","17.423897"],
    [2507,"2024-04-14 10:00:00","18","grottaglie","26.21","1","28.28","1","0.0","1","null","6","null","6","null","6","1008.83","1","40.53774","17.423897"],
    [2508,"2024-04-14 11:00:00","18","grottaglie","27.43","1","28.02","1","0.0","1","null","6","null","6","null","6","1008.65","1","40.53774","17.423897"],
    [2509,"2024-04-14 12:00:00","18","grottaglie","28.19","1","27.22","1","0.0","1","null","6","null","6","null","6","1008.25","1","40.53774","17.423897"],
    [2510,"2024-04-14 13:00:00","18","grottaglie","29.05","1","25.68","1","0.0","1","null","6","null","6","null","6","1008.14","1","40.53774","17.423897"],
    [2511,"2024-04-14 14:00:00","18","grottaglie","30.01","1","24.21","1","0.0","1","null","6","null","6","null","6","1007.61","1","40.53774","17.423897"],
    [2512,"2024-04-14 15:00:00","18","grottaglie","30.68","1","24.06","1","0.0","1","null","6","null","6","null","6","1006.95","1","40.53774","17.423897"],
    [2513,"2024-04-14 16:00:00","18","grottaglie","28.75","1","24.99","1","0.0","1","null","6","null","6","null","6","1006.8","1","40.53774","17.423897"],
    [2514,"2024-04-14 17:00:00","18","grottaglie","29.18","1","24.71","1","0.0","1","null","6","null","6","null","6","1006.79","1","40.53774","17.423897"],
    [2515,"2024-04-14 18:00:00","18","grottaglie","28.17","1","26.96","1","0.0","1","null","6","null","6","null","6","1006.53","1","40.53774","17.423897"],
    [2516,"2024-04-14 19:00:00","18","grottaglie","24.57","1","34.25","1","0.0","1","null","6","null","6","null","6","1006.01","1","40.53774","17.423897"],
    [2517,"2024-04-14 20:00:00","18","grottaglie","21.46","1","39.22","1","0.0","1","null","6","null","6","null","6","1006.61","1","40.53774","17.423897"],
    [2518,"2024-04-14 21:00:00","18","grottaglie","19.76","1","43.72","1","0.0","1","null","6","null","6","null","6","1007.01","1","40.53774","17.423897"],
    [2519,"2024-04-14 22:00:00","18","grottaglie","18.91","1","46.29","1","0.0","1","null","6","null","6","null","6","1006.94","1","40.53774","17.423897"],
    [2520,"2024-04-14 23:00:00","18","grottaglie","17.35","1","50.22","1","0.0","1","null","6","null","6","null","6","1006.93","1","40.53774","17.423897"],
    [2521,"2024-04-15 00:00:00","18","grottaglie","19.11","1","37.36","1","0.0","1","null","6","null","6","null","6","1006.15","1","40.53774","17.423897"],
    [2522,"2024-04-15 01:00:00","18","grottaglie","16.32","1","45.73","1","0.0","1","null","6","null","6","null","6","1005.87","1","40.53774","17.423897"],
    [2523,"2024-04-15 02:00:00","18","grottaglie","18.0","1","35.63","1","0.0","1","null","6","null","6","null","6","1005.45","1","40.53774","17.423897"],
    [2524,"2024-04-15 03:00:00","18","grottaglie","18.17","1","34.15","1","0.0","1","null","6","null","6","null","6","1005.01","1","40.53774","17.423897"],
    [2525,"2024-04-15 04:00:00","18","grottaglie","15.79","1","43.31","1","0.0","1","null","6","null","6","null","6","1004.68","1","40.53774","17.423897"],
    [2526,"2024-04-15 05:00:00","18","grottaglie","15.42","1","45.7","1","0.0","1","null","6","null","6","null","6","1004.41","1","40.53774","17.423897"],
    [2527,"2024-04-15 06:00:00","18","grottaglie","15.46","1","46.66","1","0.0","1","null","6","null","6","null","6","1004.29","1","40.53774","17.423897"],
    [2528,"2024-04-15 07:00:00","18","grottaglie","16.81","1","46.69","1","0.0","1","null","6","null","6","null","6","1004.33","1","40.53774","17.423897"],
    [2529,"2024-04-15 08:00:00","18","grottaglie","19.28","1","47.79","1","0.0","1","null","6","null","6","null","6","1004.44","1","40.53774","17.423897"],
    [2530,"2024-04-15 09:00:00","18","grottaglie","22.5","1","39.11","1","0.0","1","null","6","null","6","null","6","1004.25","1","40.53774","17.423897"],
    [2531,"2024-04-15 10:00:00","18","grottaglie","24.45","1","36.07","1","0.0","1","null","6","null","6","null","6","1004.09","1","40.53774","17.423897"],
    [2532,"2024-04-15 11:00:00","18","grottaglie","25.74","1","29.27","1","0.0","1","null","6","null","6","null","6","1003.94","1","40.53774","17.423897"],
    [2533,"2024-04-15 12:00:00","18","grottaglie","26.28","1","25.1","1","0.0","1","null","6","null","6","null","6","1003.02","1","40.53774","17.423897"],
    [2534,"2024-04-15 13:00:00","18","grottaglie","26.36","1","25.51","1","0.0","1","null","6","null","6","null","6","1002.22","1","40.53774","17.423897"],
    [2535,"2024-04-15 14:00:00","18","grottaglie","26.32","1","25.91","1","0.0","1","null","6","null","6","null","6","1001.81","1","40.53774","17.423897"],
    [2536,"2024-04-15 15:00:00","18","grottaglie","26.19","1","29.9","1","0.0","1","null","6","null","6","null","6","1001.28","1","40.53774","17.423897"],
    [2537,"2024-04-15 16:00:00","18","grottaglie","25.5","1","32.55","1","0.0","1","null","6","null","6","null","6","1000.74","1","40.53774","17.423897"],
    [2538,"2024-04-15 17:00:00","18","grottaglie","24.21","1","39.14","1","0.0","1","null","6","null","6","null","6","1000.16","1","40.53774","17.423897"],
    [2539,"2024-04-15 18:00:00","18","grottaglie","21.75","1","43.18","1","0.0","1","null","6","null","6","null","6","1000.11","1","40.53774","17.423897"],
    [2540,"2024-04-15 19:00:00","18","grottaglie","20.1","1","47.84","1","0.0","1","null","6","null","6","null","6","999.92","1","40.53774","17.423897"],
    [2541,"2024-04-15 20:00:00","18","grottaglie","19.02","1","53.66","1","0.0","1","null","6","null","6","null","6","999.87","1","40.53774","17.423897"],
    [2542,"2024-04-15 21:00:00","18","grottaglie","18.36","1","59.77","1","0.0","1","null","6","null","6","null","6","999.58","1","40.53774","17.423897"],
    [2543,"2024-04-15 22:00:00","18","grottaglie","18.1","1","63.71","1","0.0","1","null","6","null","6","null","6","998.74","1","40.53774","17.423897"],
    [2544,"2024-04-15 23:00:00","18","grottaglie","17.96","1","67.17","1","0.0","1","null","6","null","6","null","6","998.46","1","40.53774","17.423897"],
    [2545,"2024-04-16 00:00:00","18","grottaglie","17.59","1","70.6","1","0.0","1","null","6","null","6","null","6","998.02","1","40.53774","17.423897"],
    [2546,"2024-04-16 01:00:00","18","grottaglie","17.77","1","68.88","1","0.0","1","null","6","null","6","null","6","997.13","1","40.53774","17.423897"],
    [2547,"2024-04-16 02:00:00","18","grottaglie","17.89","1","65.32","1","0.0","1","null","6","null","6","null","6","996.48","1","40.53774","17.423897"],
    [2548,"2024-04-16 03:00:00","18","grottaglie","18.39","1","59.4","1","0.0","1","null","6","null","6","null","6","995.26","1","40.53774","17.423897"],
    [2549,"2024-04-16 04:00:00","18","grottaglie","18.89","1","52.09","1","0.0","1","null","6","null","6","null","6","994.6","1","40.53774","17.423897"],
    [2550,"2024-04-16 05:00:00","18","grottaglie","18.89","1","50.31","1","0.0","1","null","6","null","6","null","6","994.24","1","40.53774","17.423897"],
    [2551,"2024-04-16 06:00:00","18","grottaglie","18.5","1","54.92","1","0.0","1","null","6","null","6","null","6","994.11","1","40.53774","17.423897"],
    [2552,"2024-04-16 07:00:00","18","grottaglie","18.45","1","63.83","1","0.0","1","null","6","null","6","null","6","993.73","1","40.53774","17.423897"],
    [2553,"2024-04-16 08:00:00","18","grottaglie","19.13","1","66.42","1","0.0","1","null","6","null","6","null","6","993.44","1","40.53774","17.423897"],
    [2554,"2024-04-16 09:00:00","18","grottaglie","20.11","1","61.1","1","0.0","1","null","6","null","6","null","6","993.21","1","40.53774","17.423897"],
    [2555,"2024-04-16 10:00:00","18","grottaglie","20.88","1","56.76","1","0.0","1","null","6","null","6","null","6","993.0","1","40.53774","17.423897"],
    [2556,"2024-04-16 11:00:00","18","grottaglie","21.69","1","54.26","1","0.0","1","null","6","null","6","null","6","992.98","1","40.53774","17.423897"],
    [2557,"2024-04-16 12:00:00","18","grottaglie","22.87","1","43.87","1","0.0","1","null","6","null","6","null","6","992.72","1","40.53774","17.423897"],
    [2558,"2024-04-16 13:00:00","18","grottaglie","21.99","1","47.69","1","0.0","1","null","6","null","6","null","6","992.57","1","40.53774","17.423897"],
    [2559,"2024-04-16 14:00:00","18","grottaglie","20.35","1","52.92","1","0.0","1","null","6","null","6","null","6","992.55","1","40.53774","17.423897"],
    [2560,"2024-04-16 15:00:00","18","grottaglie","18.07","1","64.76","1","0.0","1","null","6","null","6","null","6","992.54","1","40.53774","17.423897"],
    [2561,"2024-04-16 16:00:00","18","grottaglie","17.93","1","68.76","1","0.0","1","null","6","null","6","null","6","991.0","1","40.53774","17.423897"],
    [2562,"2024-04-16 17:00:00","18","grottaglie","17.56","1","70.17","1","0.0","1","null","6","null","6","null","6","990.68","1","40.53774","17.423897"],
    [2563,"2024-04-16 18:00:00","18","grottaglie","16.33","1","74.87","1","0.2","1","null","6","null","6","null","6","990.41","1","40.53774","17.423897"],
    [2564,"2024-04-16 19:00:00","18","grottaglie","15.39","1","82.55","1","0.4","1","null","6","null","6","null","6","990.15","1","40.53774","17.423897"],
    [2565,"2024-04-16 20:00:00","18","grottaglie","14.98","1","89.49","1","0.4","1","null","6","null","6","null","6","990.23","1","40.53774","17.423897"],
    [2566,"2024-04-16 21:00:00","18","grottaglie","14.75","1","92.08","1","2.6","1","null","6","null","6","null","6","990.42","1","40.53774","17.423897"],
    [2567,"2024-04-16 22:00:00","18","grottaglie","14.49","1","94.45","1","0.4","1","null","6","null","6","null","6","989.96","1","40.53774","17.423897"],
    [2568,"2024-04-16 23:00:00","18","grottaglie","14.52","1","95.85","1","0.2","1","null","6","null","6","null","6","989.37","1","40.53774","17.423897"],
    [2569,"2024-04-17 00:00:00","18","grottaglie","14.4","1","96.74","1","0.0","1","null","6","null","6","null","6","988.76","1","40.53774","17.423897"],
    [2570,"2024-04-17 01:00:00","18","grottaglie","14.28","1","96.46","1","0.0","1","null","6","null","6","null","6","987.82","1","40.53774","17.423897"],
    [2571,"2024-04-17 02:00:00","18","grottaglie","13.98","1","94.67","1","0.0","1","null","6","null","6","null","6","986.75","1","40.53774","17.423897"],
    [2572,"2024-04-17 03:00:00","18","grottaglie","13.97","1","93.32","1","0.0","1","null","6","null","6","null","6","986.0","1","40.53774","17.423897"],
    [2573,"2024-04-17 04:00:00","18","grottaglie","14.07","1","92.3","1","0.0","1","null","6","null","6","null","6","985.43","1","40.53774","17.423897"],
    [2574,"2024-04-17 05:00:00","18","grottaglie","13.98","1","92.79","1","0.0","1","null","6","null","6","null","6","985.12","1","40.53774","17.423897"],
    [2575,"2024-04-17 06:00:00","18","grottaglie","14.08","1","93.62","1","0.8","1","null","6","null","6","null","6","985.42","1","40.53774","17.423897"],
    [2576,"2024-04-17 07:00:00","18","grottaglie","14.78","1","94.58","1","0.2","1","null","6","null","6","null","6","985.44","1","40.53774","17.423897"],
    [2577,"2024-04-17 08:00:00","18","grottaglie","15.04","1","92.59","1","0.0","1","null","6","null","6","null","6","985.8","1","40.53774","17.423897"],
    [2578,"2024-04-17 09:00:00","18","grottaglie","15.95","1","68.33","1","0.0","1","null","6","null","6","null","6","985.99","1","40.53774","17.423897"],
    [2579,"2024-04-17 10:00:00","18","grottaglie","17.84","1","52.36","1","0.0","1","null","6","null","6","null","6","986.11","1","40.53774","17.423897"],
    [2580,"2024-04-17 11:00:00","18","grottaglie","18.69","1","47.64","1","0.0","1","null","6","null","6","null","6","986.08","1","40.53774","17.423897"],
    [2581,"2024-04-17 12:00:00","18","grottaglie","19.27","1","42.87","1","0.0","1","null","6","null","6","null","6","986.15","1","40.53774","17.423897"],
    [2582,"2024-04-17 13:00:00","18","grottaglie","18.69","1","43.17","1","0.0","1","null","6","null","6","null","6","986.2","1","40.53774","17.423897"],
    [2583,"2024-04-17 14:00:00","18","grottaglie","17.14","1","54.25","1","0.0","1","null","6","null","6","null","6","986.49","1","40.53774","17.423897"],
    [2584,"2024-04-17 15:00:00","18","grottaglie","16.51","1","62.86","1","7.0","1","null","6","null","6","null","6","986.42","1","40.53774","17.423897"],
    [2585,"2024-04-17 16:00:00","18","grottaglie","12.64","1","88.96","1","5.4","1","null","6","null","6","null","6","987.42","1","40.53774","17.423897"],
    [2586,"2024-04-17 17:00:00","18","grottaglie","12.48","1","91.6","1","0.4","1","null","6","null","6","null","6","987.7","1","40.53774","17.423897"],
    [2587,"2024-04-17 18:00:00","18","grottaglie","11.98","1","89.92","1","2.4","1","null","6","null","6","null","6","988.37","1","40.53774","17.423897"],
    [2588,"2024-04-17 19:00:00","18","grottaglie","11.6","1","91.15","1","0.6","1","null","6","null","6","null","6","989.14","1","40.53774","17.423897"],
    [2589,"2024-04-17 20:00:00","18","grottaglie","10.71","1","88.95","1","0.4","1","null","6","null","6","null","6","990.11","1","40.53774","17.423897"],
    [2590,"2024-04-17 21:00:00","18","grottaglie","9.7","1","77.77","1","0.2","1","null","6","null","6","null","6","990.8","1","40.53774","17.423897"],
    [2591,"2024-04-17 22:00:00","18","grottaglie","9.44","1","80.97","1","0.0","1","null","6","null","6","null","6","990.87","1","40.53774","17.423897"],
    [2592,"2024-04-17 23:00:00","18","grottaglie","8.9","1","83.77","1","0.0","1","null","6","null","6","null","6","990.71","1","40.53774","17.423897"],
    [2593,"2024-04-18 00:00:00","18","grottaglie","8.18","1","87.2","1","0.0","1","null","6","null","6","null","6","991.13","1","40.53774","17.423897"],
    [2594,"2024-04-18 01:00:00","18","grottaglie","7.41","1","87.66","1","0.0","1","null","6","null","6","null","6","991.25","1","40.53774","17.423897"],
    [2595,"2024-04-18 02:00:00","18","grottaglie","6.92","1","88.34","1","0.2","1","null","6","null","6","null","6","991.42","1","40.53774","17.423897"],
    [2596,"2024-04-18 03:00:00","18","grottaglie","6.55","1","88.7","1","0.0","1","null","6","null","6","null","6","991.44","1","40.53774","17.423897"],
    [2597,"2024-04-18 04:00:00","18","grottaglie","6.34","1","88.23","1","0.0","1","null","6","null","6","null","6","991.45","1","40.53774","17.423897"],
    [2598,"2024-04-18 05:00:00","18","grottaglie","6.2","1","88.0","1","0.0","1","null","6","null","6","null","6","991.41","1","40.53774","17.423897"],
    [2599,"2024-04-18 06:00:00","18","grottaglie","6.33","1","87.59","1","0.0","1","null","6","null","6","null","6","991.91","1","40.53774","17.423897"],
    [2600,"2024-04-18 07:00:00","18","grottaglie","7.0","1","85.31","1","0.0","1","null","6","null","6","null","6","992.48","1","40.53774","17.423897"],
    [2601,"2024-04-18 08:00:00","18","grottaglie","9.17","1","80.91","1","0.0","1","null","6","null","6","null","6","992.6","1","40.53774","17.423897"],
    [2602,"2024-04-18 09:00:00","18","grottaglie","13.46","1","65.05","1","0.0","1","null","6","null","6","null","6","992.48","1","40.53774","17.423897"],
    [2603,"2024-04-18 10:00:00","18","grottaglie","15.24","1","49.77","1","0.0","1","null","6","null","6","null","6","992.57","1","40.53774","17.423897"],
    [2604,"2024-04-18 11:00:00","18","grottaglie","16.14","1","36.3","1","0.0","1","null","6","null","6","null","6","992.78","1","40.53774","17.423897"],
    [2605,"2024-04-18 12:00:00","18","grottaglie","15.8","1","39.13","1","0.0","1","null","6","null","6","null","6","992.59","1","40.53774","17.423897"],
    [2606,"2024-04-18 13:00:00","18","grottaglie","15.15","1","43.44","1","0.0","1","null","6","null","6","null","6","992.85","1","40.53774","17.423897"],
    [2607,"2024-04-18 14:00:00","18","grottaglie","14.74","1","49.54","1","0.0","1","null","6","null","6","null","6","993.09","1","40.53774","17.423897"],
    [2608,"2024-04-18 15:00:00","18","grottaglie","14.32","1","51.31","1","0.0","1","null","6","null","6","null","6","993.41","1","40.53774","17.423897"],
    [2609,"2024-04-18 16:00:00","18","grottaglie","12.98","1","62.24","1","0.0","1","null","6","null","6","null","6","993.77","1","40.53774","17.423897"],
    [2610,"2024-04-18 17:00:00","18","grottaglie","12.06","1","64.1","1","0.0","1","null","6","null","6","null","6","993.92","1","40.53774","17.423897"],
    [2611,"2024-04-18 18:00:00","18","grottaglie","11.34","1","66.19","1","0.2","1","null","6","null","6","null","6","994.55","1","40.53774","17.423897"],
    [2612,"2024-04-18 19:00:00","18","grottaglie","11.09","1","71.17","1","0.0","1","null","6","null","6","null","6","994.77","1","40.53774","17.423897"],
    [2613,"2024-04-18 20:00:00","18","grottaglie","10.03","1","74.36","1","0.0","1","null","6","null","6","null","6","995.21","1","40.53774","17.423897"],
    [2614,"2024-04-18 21:00:00","18","grottaglie","9.08","1","81.5","1","0.0","1","null","6","null","6","null","6","995.88","1","40.53774","17.423897"],
    [2615,"2024-04-18 22:00:00","18","grottaglie","8.77","1","78.79","1","0.0","1","null","6","null","6","null","6","995.97","1","40.53774","17.423897"],
    [2616,"2024-04-18 23:00:00","18","grottaglie","7.96","1","79.46","1","0.0","1","null","6","null","6","null","6","995.98","1","40.53774","17.423897"],
    [2617,"2024-04-19 00:00:00","18","grottaglie","8.81","1","74.14","1","0.0","1","null","6","null","6","null","6","996.03","1","40.53774","17.423897"],
    [2618,"2024-04-19 01:00:00","18","grottaglie","8.73","1","76.09","1","0.0","1","null","6","null","6","null","6","995.64","1","40.53774","17.423897"],
    [2619,"2024-04-19 02:00:00","18","grottaglie","8.85","1","76.6","1","0.0","1","null","6","null","6","null","6","995.28","1","40.53774","17.423897"],
    [2620,"2024-04-19 03:00:00","18","grottaglie","9.37","1","79.23","1","0.0","1","null","6","null","6","null","6","994.81","1","40.53774","17.423897"],
    [2621,"2024-04-19 04:00:00","18","grottaglie","9.83","1","78.48","1","0.0","1","null","6","null","6","null","6","994.32","1","40.53774","17.423897"],
    [2622,"2024-04-19 05:00:00","18","grottaglie","10.1","1","77.68","1","0.0","1","null","6","null","6","null","6","994.15","1","40.53774","17.423897"],
    [2623,"2024-04-19 06:00:00","18","grottaglie","10.46","1","75.96","1","0.0","1","null","6","null","6","null","6","993.85","1","40.53774","17.423897"],
    [2624,"2024-04-19 07:00:00","18","grottaglie","10.11","1","79.68","1","2.0","1","null","6","null","6","null","6","994.17","1","40.53774","17.423897"],
    [2625,"2024-04-19 08:00:00","18","grottaglie","9.31","1","87.52","1","3.6","1","null","6","null","6","null","6","994.75","1","40.53774","17.423897"],
    [2626,"2024-04-19 09:00:00","18","grottaglie","9.38","1","91.52","1","3.2","1","null","6","null","6","null","6","994.82","1","40.53774","17.423897"],
    [2627,"2024-04-19 10:00:00","18","grottaglie","9.74","1","91.42","1","0.0","1","null","6","null","6","null","6","994.32","1","40.53774","17.423897"],
    [2628,"2024-04-19 11:00:00","18","grottaglie","10.14","1","87.97","1","1.0","1","null","6","null","6","null","6","994.39","1","40.53774","17.423897"],
    [2629,"2024-04-19 12:00:00","18","grottaglie","11.13","1","79.18","1","0.2","1","null","6","null","6","null","6","994.12","1","40.53774","17.423897"],
    [2630,"2024-04-19 13:00:00","18","grottaglie","11.76","1","70.04","1","0.0","1","null","6","null","6","null","6","993.57","1","40.53774","17.423897"],
    [2631,"2024-04-19 14:00:00","18","grottaglie","12.13","1","64.52","1","0.0","1","null","6","null","6","null","6","993.07","1","40.53774","17.423897"],
    [2632,"2024-04-19 15:00:00","18","grottaglie","12.17","1","64.61","1","0.0","1","null","6","null","6","null","6","992.92","1","40.53774","17.423897"],
    [2633,"2024-04-19 16:00:00","18","grottaglie","12.5","1","64.2","1","0.0","1","null","6","null","6","null","6","993.15","1","40.53774","17.423897"],
    [2634,"2024-04-19 17:00:00","18","grottaglie","13.38","1","59.9","1","0.0","1","null","6","null","6","null","6","993.38","1","40.53774","17.423897"],
    [2635,"2024-04-19 18:00:00","18","grottaglie","13.75","1","57.76","1","0.0","1","null","6","null","6","null","6","993.97","1","40.53774","17.423897"],
    [2636,"2024-04-19 19:00:00","18","grottaglie","12.2","1","58.28","1","0.0","1","null","6","null","6","null","6","994.44","1","40.53774","17.423897"],
    [2637,"2024-04-19 20:00:00","18","grottaglie","11.22","1","56.11","1","0.0","1","null","6","null","6","null","6","995.36","1","40.53774","17.423897"],
    [2638,"2024-04-19 21:00:00","18","grottaglie","10.45","1","58.7","1","0.0","1","null","6","null","6","null","6","995.87","1","40.53774","17.423897"],
    [2639,"2024-04-19 22:00:00","18","grottaglie","9.95","1","59.65","1","0.0","1","null","6","null","6","null","6","996.1","1","40.53774","17.423897"],
    [2640,"2024-04-19 23:00:00","18","grottaglie","8.86","1","63.65","1","0.0","1","null","6","null","6","null","6","996.33","1","40.53774","17.423897"],
    [2641,"2024-04-20 00:00:00","18","grottaglie","8.47","1","63.6","1","0.0","1","null","6","null","6","null","6","996.4","1","40.53774","17.423897"],
    [2642,"2024-04-20 01:00:00","18","grottaglie","8.21","1","62.31","1","0.0","1","null","6","null","6","null","6","996.07","1","40.53774","17.423897"],
    [2643,"2024-04-20 02:00:00","18","grottaglie","7.1","1","64.6","1","0.0","1","null","6","null","6","null","6","996.0","1","40.53774","17.423897"],
    [2644,"2024-04-20 03:00:00","18","grottaglie","5.87","1","70.44","1","0.0","1","null","6","null","6","null","6","995.89","1","40.53774","17.423897"],
    [2645,"2024-04-20 04:00:00","18","grottaglie","5.48","1","70.8","1","0.0","1","null","6","null","6","null","6","995.62","1","40.53774","17.423897"],
    [2646,"2024-04-20 05:00:00","18","grottaglie","4.87","1","74.97","1","0.0","1","null","6","null","6","null","6","995.79","1","40.53774","17.423897"],
    [2647,"2024-04-20 06:00:00","18","grottaglie","5.34","1","71.3","1","0.0","1","null","6","null","6","null","6","995.88","1","40.53774","17.423897"],
    [2648,"2024-04-20 07:00:00","18","grottaglie","6.61","1","63.03","1","0.0","1","null","6","null","6","null","6","995.9","1","40.53774","17.423897"],
    [2649,"2024-04-20 08:00:00","18","grottaglie","9.31","1","52.62","1","0.0","1","null","6","null","6","null","6","995.73","1","40.53774","17.423897"],
    [2650,"2024-04-20 09:00:00","18","grottaglie","13.11","1","44.13","1","0.0","1","null","6","null","6","null","6","995.25","1","40.53774","17.423897"],
    [2651,"2024-04-20 10:00:00","18","grottaglie","14.6","1","41.63","1","0.0","1","null","6","null","6","null","6","995.19","1","40.53774","17.423897"],
    [2652,"2024-04-20 11:00:00","18","grottaglie","15.4","1","37.81","1","0.0","1","null","6","null","6","null","6","995.24","1","40.53774","17.423897"],
    [2653,"2024-04-20 12:00:00","18","grottaglie","16.8","1","33.41","1","0.0","1","null","6","null","6","null","6","994.78","1","40.53774","17.423897"],
    [2654,"2024-04-20 13:00:00","18","grottaglie","17.92","1","30.33","1","0.0","1","null","6","null","6","null","6","994.59","1","40.53774","17.423897"],
    [2655,"2024-04-20 14:00:00","18","grottaglie","18.31","1","29.34","1","0.0","1","null","6","null","6","null","6","994.33","1","40.53774","17.423897"],
    [2656,"2024-04-20 15:00:00","18","grottaglie","17.8","1","30.99","1","0.0","1","null","6","null","6","null","6","993.78","1","40.53774","17.423897"],
    [2657,"2024-04-20 16:00:00","18","grottaglie","16.01","1","46.92","1","0.0","1","null","6","null","6","null","6","993.74","1","40.53774","17.423897"],
    [2658,"2024-04-20 17:00:00","18","grottaglie","15.12","1","54.18","1","0.0","1","null","6","null","6","null","6","993.68","1","40.53774","17.423897"],
    [2659,"2024-04-20 18:00:00","18","grottaglie","14.4","1","57.77","1","0.0","1","null","6","null","6","null","6","993.57","1","40.53774","17.423897"],
    [2660,"2024-04-20 19:00:00","18","grottaglie","13.59","1","63.27","1","0.0","1","null","6","null","6","null","6","993.6","1","40.53774","17.423897"],
    [2661,"2024-04-20 20:00:00","18","grottaglie","13.23","1","66.75","1","0.0","1","null","6","null","6","null","6","993.91","1","40.53774","17.423897"],
    [2662,"2024-04-20 21:00:00","18","grottaglie","12.79","1","69.71","1","0.0","1","null","6","null","6","null","6","994.2","1","40.53774","17.423897"],
    [2663,"2024-04-20 22:00:00","18","grottaglie","11.62","1","72.09","1","0.0","1","null","6","null","6","null","6","994.1","1","40.53774","17.423897"],
    [2664,"2024-04-20 23:00:00","18","grottaglie","10.32","1","77.79","1","0.0","1","null","6","null","6","null","6","994.23","1","40.53774","17.423897"],
    [2665,"2024-04-21 00:00:00","18","grottaglie","10.32","1","78.11","1","0.0","1","null","6","null","6","null","6","994.03","1","40.53774","17.423897"],
    [2666,"2024-04-21 01:00:00","18","grottaglie","10.0","1","80.87","1","0.0","1","null","6","null","6","null","6","993.39","1","40.53774","17.423897"],
    [2667,"2024-04-21 02:00:00","18","grottaglie","10.52","1","80.96","1","0.0","1","null","6","null","6","null","6","992.73","1","40.53774","17.423897"],
    [2668,"2024-04-21 03:00:00","18","grottaglie","11.24","1","75.67","1","0.0","1","null","6","null","6","null","6","992.41","1","40.53774","17.423897"],
    [2669,"2024-04-21 04:00:00","18","grottaglie","10.63","1","80.61","1","1.2","1","null","6","null","6","null","6","992.82","1","40.53774","17.423897"],
    [2670,"2024-04-21 05:00:00","18","grottaglie","9.85","1","84.34","1","1.6","1","null","6","null","6","null","6","992.52","1","40.53774","17.423897"],
    [2671,"2024-04-21 06:00:00","18","grottaglie","9.71","1","83.38","1","0.0","1","null","6","null","6","null","6","992.33","1","40.53774","17.423897"],
    [2672,"2024-04-21 07:00:00","18","grottaglie","9.58","1","88.37","1","0.0","1","null","6","null","6","null","6","992.77","1","40.53774","17.423897"],
    [2673,"2024-04-21 08:00:00","18","grottaglie","10.12","1","85.09","1","0.0","1","null","6","null","6","null","6","993.21","1","40.53774","17.423897"],
    [2674,"2024-04-21 09:00:00","18","grottaglie","12.45","1","70.79","1","0.0","1","null","6","null","6","null","6","993.15","1","40.53774","17.423897"],
    [2675,"2024-04-21 10:00:00","18","grottaglie","14.23","1","51.58","1","0.0","1","null","6","null","6","null","6","993.34","1","40.53774","17.423897"],
    [2676,"2024-04-21 11:00:00","18","grottaglie","14.89","1","48.14","1","0.0","1","null","6","null","6","null","6","993.72","1","40.53774","17.423897"],
    [2677,"2024-04-21 12:00:00","18","grottaglie","15.0","1","48.95","1","0.0","1","null","6","null","6","null","6","994.12","1","40.53774","17.423897"],
    [2678,"2024-04-21 13:00:00","18","grottaglie","14.87","1","51.31","1","0.0","1","null","6","null","6","null","6","994.76","1","40.53774","17.423897"],
    [2679,"2024-04-21 14:00:00","18","grottaglie","14.62","1","52.87","1","0.0","1","null","6","null","6","null","6","995.51","1","40.53774","17.423897"],
    [2680,"2024-04-21 15:00:00","18","grottaglie","15.94","1","45.09","1","0.0","1","null","6","null","6","null","6","996.12","1","40.53774","17.423897"],
    [2681,"2024-04-21 16:00:00","18","grottaglie","16.39","1","40.36","1","0.0","1","null","6","null","6","null","6","996.6","1","40.53774","17.423897"],
    [2682,"2024-04-21 17:00:00","18","grottaglie","16.17","1","42.43","1","0.0","1","null","6","null","6","null","6","997.1","1","40.53774","17.423897"],
    [2683,"2024-04-21 18:00:00","18","grottaglie","14.96","1","47.81","1","0.0","1","null","6","null","6","null","6","997.55","1","40.53774","17.423897"],
    [2684,"2024-04-21 19:00:00","18","grottaglie","12.42","1","55.92","1","0.0","1","null","6","null","6","null","6","998.18","1","40.53774","17.423897"],
    [2685,"2024-04-21 20:00:00","18","grottaglie","10.71","1","61.87","1","0.0","1","null","6","null","6","null","6","999.0","1","40.53774","17.423897"],
    [2686,"2024-04-21 21:00:00","18","grottaglie","9.99","1","65.78","1","0.0","1","null","6","null","6","null","6","999.74","1","40.53774","17.423897"],
    [2687,"2024-04-21 22:00:00","18","grottaglie","9.39","1","68.74","1","0.0","1","null","6","null","6","null","6","1000.35","1","40.53774","17.423897"],
    [2688,"2024-04-21 23:00:00","18","grottaglie","7.85","1","75.97","1","0.0","1","null","6","null","6","null","6","1000.74","1","40.53774","17.423897"],
    [2689,"2024-04-22 00:00:00","18","grottaglie","7.89","1","77.18","1","0.0","1","null","6","null","6","null","6","1000.83","1","40.53774","17.423897"],
    [2690,"2024-04-22 01:00:00","18","grottaglie","8.69","1","72.12","1","0.0","1","null","6","null","6","null","6","1000.74","1","40.53774","17.423897"],
    [2691,"2024-04-22 02:00:00","18","grottaglie","8.42","1","70.25","1","0.0","1","null","6","null","6","null","6","1000.33","1","40.53774","17.423897"],
    [2692,"2024-04-22 03:00:00","18","grottaglie","6.49","1","80.49","1","0.0","1","null","6","null","6","null","6","1000.14","1","40.53774","17.423897"],
    [2693,"2024-04-22 04:00:00","18","grottaglie","6.47","1","83.97","1","0.0","1","null","6","null","6","null","6","999.74","1","40.53774","17.423897"],
    [2694,"2024-04-22 05:00:00","18","grottaglie","6.36","1","85.58","1","0.0","1","null","6","null","6","null","6","999.5","1","40.53774","17.423897"],
    [2695,"2024-04-22 06:00:00","18","grottaglie","8.22","1","81.66","1","0.0","1","null","6","null","6","null","6","999.3","1","40.53774","17.423897"],
    [2696,"2024-04-22 07:00:00","18","grottaglie","9.29","1","76.15","1","0.0","1","null","6","null","6","null","6","999.42","1","40.53774","17.423897"],
    [2697,"2024-04-22 08:00:00","18","grottaglie","10.71","1","76.73","1","0.0","1","null","6","null","6","null","6","999.46","1","40.53774","17.423897"],
    [2698,"2024-04-22 09:00:00","18","grottaglie","15.13","1","55.2","1","0.0","1","null","6","null","6","null","6","998.99","1","40.53774","17.423897"],
    [2699,"2024-04-22 10:00:00","18","grottaglie","16.37","1","49.2","1","0.0","1","null","6","null","6","null","6","998.86","1","40.53774","17.423897"],
    [2700,"2024-04-22 11:00:00","18","grottaglie","18.0","1","44.51","1","0.0","1","null","6","null","6","null","6","998.62","1","40.53774","17.423897"],
    [2701,"2024-04-22 12:00:00","18","grottaglie","18.6","1","42.4","1","0.0","1","null","6","null","6","null","6","998.15","1","40.53774","17.423897"],
    [2702,"2024-04-22 13:00:00","18","grottaglie","17.37","1","47.98","1","0.0","1","null","6","null","6","null","6","998.14","1","40.53774","17.423897"],
    [2703,"2024-04-22 14:00:00","18","grottaglie","19.51","1","41.55","1","0.0","1","null","6","null","6","null","6","997.87","1","40.53774","17.423897"],
    [2704,"2024-04-22 15:00:00","18","grottaglie","20.65","1","33.87","1","0.0","1","null","6","null","6","null","6","997.29","1","40.53774","17.423897"],
    [2705,"2024-04-22 16:00:00","18","grottaglie","20.18","1","29.68","1","0.0","1","null","6","null","6","null","6","997.12","1","40.53774","17.423897"],
    [2706,"2024-04-22 17:00:00","18","grottaglie","20.99","1","30.09","1","0.0","1","null","6","null","6","null","6","996.75","1","40.53774","17.423897"],
    [2707,"2024-04-22 18:00:00","18","grottaglie","19.14","1","33.3","1","0.0","1","null","6","null","6","null","6","995.97","1","40.53774","17.423897"],
    [2708,"2024-04-22 19:00:00","18","grottaglie","15.78","1","42.19","1","0.0","1","null","6","null","6","null","6","995.74","1","40.53774","17.423897"],
    [2709,"2024-04-22 20:00:00","18","grottaglie","14.47","1","55.34","1","0.0","1","null","6","null","6","null","6","996.32","1","40.53774","17.423897"],
    [2710,"2024-04-22 21:00:00","18","grottaglie","13.68","1","63.04","1","0.0","1","null","6","null","6","null","6","996.31","1","40.53774","17.423897"],
    [2711,"2024-04-22 22:00:00","18","grottaglie","12.97","1","64.09","1","0.0","1","null","6","null","6","null","6","995.77","1","40.53774","17.423897"],
    [2712,"2024-04-22 23:00:00","18","grottaglie","12.71","1","61.78","1","0.0","1","null","6","null","6","null","6","995.47","1","40.53774","17.423897"],
    [2713,"2024-04-23 00:00:00","18","grottaglie","13.18","1","61.67","1","0.0","1","null","6","null","6","null","6","995.2","1","40.53774","17.423897"],
    [2714,"2024-04-23 01:00:00","18","grottaglie","13.82","1","60.07","1","0.0","1","null","6","null","6","null","6","994.87","1","40.53774","17.423897"],
    [2715,"2024-04-23 02:00:00","18","grottaglie","13.23","1","66.84","1","0.0","1","null","6","null","6","null","6","994.23","1","40.53774","17.423897"],
    [2716,"2024-04-23 03:00:00","18","grottaglie","12.92","1","70.46","1","0.0","1","null","6","null","6","null","6","993.82","1","40.53774","17.423897"],
    [2717,"2024-04-23 04:00:00","18","grottaglie","12.9","1","69.44","1","0.0","1","null","6","null","6","null","6","993.05","1","40.53774","17.423897"],
    [2718,"2024-04-23 05:00:00","18","grottaglie","12.98","1","68.22","1","0.0","1","null","6","null","6","null","6","992.2","1","40.53774","17.423897"],
    [2719,"2024-04-23 06:00:00","18","grottaglie","12.57","1","75.16","1","0.0","1","null","6","null","6","null","6","992.32","1","40.53774","17.423897"],
    [2720,"2024-04-23 07:00:00","18","grottaglie","13.17","1","78.7","1","0.0","1","null","6","null","6","null","6","991.55","1","40.53774","17.423897"],
    [2721,"2024-04-23 08:00:00","18","grottaglie","13.86","1","76.9","1","1.0","1","null","6","null","6","null","6","991.52","1","40.53774","17.423897"],
    [2722,"2024-04-23 09:00:00","18","grottaglie","12.92","1","85.74","1","4.8","1","null","6","null","6","null","6","991.41","1","40.53774","17.423897"],
    [2723,"2024-04-23 10:00:00","18","grottaglie","12.47","1","90.99","1","0.8","1","null","6","null","6","null","6","991.07","1","40.53774","17.423897"],
    [2724,"2024-04-23 11:00:00","18","grottaglie","12.35","1","91.13","1","0.2","1","null","6","null","6","null","6","990.93","1","40.53774","17.423897"],
    [2725,"2024-04-23 12:00:00","18","grottaglie","12.67","1","87.56","1","0.0","1","null","6","null","6","null","6","990.86","1","40.53774","17.423897"],
    [2726,"2024-04-23 13:00:00","18","grottaglie","13.07","1","86.82","1","0.4","1","null","6","null","6","null","6","990.5","1","40.53774","17.423897"],
    [2727,"2024-04-23 14:00:00","18","grottaglie","14.62","1","82.1","1","0.0","1","null","6","null","6","null","6","990.28","1","40.53774","17.423897"],
    [2728,"2024-04-23 15:00:00","18","grottaglie","18.57","1","57.62","1","0.0","1","null","6","null","6","null","6","989.81","1","40.53774","17.423897"],
    [2729,"2024-04-23 16:00:00","18","grottaglie","20.37","1","46.56","1","0.0","1","null","6","null","6","null","6","989.59","1","40.53774","17.423897"],
    [2730,"2024-04-23 17:00:00","18","grottaglie","18.77","1","48.86","1","0.0","1","null","6","null","6","null","6","989.71","1","40.53774","17.423897"],
    [2731,"2024-04-23 18:00:00","18","grottaglie","16.67","1","61.55","1","0.0","1","null","6","null","6","null","6","990.23","1","40.53774","17.423897"],
    [2732,"2024-04-23 19:00:00","18","grottaglie","14.64","1","77.94","1","0.0","1","null","6","null","6","null","6","991.03","1","40.53774","17.423897"],
    [2733,"2024-04-23 20:00:00","18","grottaglie","14.0","1","81.17","1","0.0","1","null","6","null","6","null","6","991.93","1","40.53774","17.423897"],
    [2734,"2024-04-23 21:00:00","18","grottaglie","13.24","1","84.13","1","0.0","1","null","6","null","6","null","6","992.6","1","40.53774","17.423897"],
    [2735,"2024-04-23 22:00:00","18","grottaglie","11.98","1","85.67","1","0.0","1","null","6","null","6","null","6","993.32","1","40.53774","17.423897"],
    [2736,"2024-04-23 23:00:00","18","grottaglie","10.86","1","61.36","1","0.0","1","null","6","null","6","null","6","994.11","1","40.53774","17.423897"],
    [2737,"2024-04-24 00:00:00","18","grottaglie","9.88","1","54.35","1","0.0","1","null","6","null","6","null","6","994.67","1","40.53774","17.423897"],
    [2738,"2024-04-24 01:00:00","18","grottaglie","8.62","1","60.46","1","0.0","1","null","6","null","6","null","6","994.77","1","40.53774","17.423897"],
    [2739,"2024-04-24 02:00:00","18","grottaglie","7.99","1","63.29","1","0.0","1","null","6","null","6","null","6","994.55","1","40.53774","17.423897"],
    [2740,"2024-04-24 03:00:00","18","grottaglie","8.04","1","63.63","1","0.0","1","null","6","null","6","null","6","994.52","1","40.53774","17.423897"],
    [2741,"2024-04-24 04:00:00","18","grottaglie","8.33","1","63.52","1","0.0","1","null","6","null","6","null","6","994.52","1","40.53774","17.423897"],
    [2742,"2024-04-24 05:00:00","18","grottaglie","7.91","1","62.77","1","0.0","1","null","6","null","6","null","6","994.71","1","40.53774","17.423897"],
    [2743,"2024-04-24 06:00:00","18","grottaglie","7.42","1","67.36","1","0.0","1","null","6","null","6","null","6","994.52","1","40.53774","17.423897"],
    [2744,"2024-04-24 07:00:00","18","grottaglie","8.18","1","67.41","1","0.0","1","null","6","null","6","null","6","994.39","1","40.53774","17.423897"],
    [2745,"2024-04-24 08:00:00","18","grottaglie","11.35","1","57.48","1","0.0","1","null","6","null","6","null","6","994.73","1","40.53774","17.423897"],
    [2746,"2024-04-24 09:00:00","18","grottaglie","14.69","1","51.77","1","0.0","1","null","6","null","6","null","6","994.27","1","40.53774","17.423897"],
    [2747,"2024-04-24 10:00:00","18","grottaglie","15.2","1","46.89","1","0.0","1","null","6","null","6","null","6","994.11","1","40.53774","17.423897"],
    [2748,"2024-04-24 11:00:00","18","grottaglie","15.09","1","48.34","1","0.0","1","null","6","null","6","null","6","994.08","1","40.53774","17.423897"],
    [2749,"2024-04-24 12:00:00","18","grottaglie","15.54","1","49.7","1","0.0","1","null","6","null","6","null","6","993.83","1","40.53774","17.423897"],
    [2750,"2024-04-24 13:00:00","18","grottaglie","16.1","1","49.72","1","0.0","1","null","6","null","6","null","6","993.57","1","40.53774","17.423897"],
    [2751,"2024-04-24 14:00:00","18","grottaglie","15.53","1","51.11","1","0.0","1","null","6","null","6","null","6","993.49","1","40.53774","17.423897"],
    [2752,"2024-04-24 15:00:00","18","grottaglie","15.57","1","51.54","1","0.0","1","null","6","null","6","null","6","992.84","1","40.53774","17.423897"],
    [2753,"2024-04-24 16:00:00","18","grottaglie","15.34","1","52.51","1","0.0","1","null","6","null","6","null","6","992.44","1","40.53774","17.423897"],
    [2754,"2024-04-24 17:00:00","18","grottaglie","15.34","1","51.06","1","0.0","1","null","6","null","6","null","6","991.83","1","40.53774","17.423897"],
    [2755,"2024-04-24 18:00:00","18","grottaglie","14.75","1","53.71","1","0.0","1","null","6","null","6","null","6","991.73","1","40.53774","17.423897"],
    [2756,"2024-04-24 19:00:00","18","grottaglie","13.9","1","55.82","1","0.0","1","null","6","null","6","null","6","991.96","1","40.53774","17.423897"],
    [2757,"2024-04-24 20:00:00","18","grottaglie","13.26","1","53.42","1","0.0","1","null","6","null","6","null","6","992.32","1","40.53774","17.423897"],
    [2758,"2024-04-24 21:00:00","18","grottaglie","12.75","1","51.02","1","0.0","1","null","6","null","6","null","6","992.58","1","40.53774","17.423897"],
    [2759,"2024-04-24 22:00:00","18","grottaglie","12.23","1","51.58","1","0.0","1","null","6","null","6","null","6","992.44","1","40.53774","17.423897"],
    [2760,"2024-04-24 23:00:00","18","grottaglie","11.28","1","60.72","1","0.0","1","null","6","null","6","null","6","992.44","1","40.53774","17.423897"],
    [2761,"2024-04-25 00:00:00","18","grottaglie","11.08","1","72.82","1","0.0","1","null","6","null","6","null","6","992.58","1","40.53774","17.423897"],
    [2762,"2024-04-25 01:00:00","18","grottaglie","10.6","1","64.35","1","0.0","1","null","6","null","6","null","6","992.52","1","40.53774","17.423897"],
    [2763,"2024-04-25 02:00:00","18","grottaglie","9.59","1","66.41","1","0.0","1","null","6","null","6","null","6","992.26","1","40.53774","17.423897"],
    [2764,"2024-04-25 03:00:00","18","grottaglie","9.32","1","57.11","1","0.0","1","null","6","null","6","null","6","992.22","1","40.53774","17.423897"],
    [2765,"2024-04-25 04:00:00","18","grottaglie","8.43","1","56.31","1","0.0","1","null","6","null","6","null","6","992.31","1","40.53774","17.423897"],
    [2766,"2024-04-25 05:00:00","18","grottaglie","7.65","1","58.83","1","0.0","1","null","6","null","6","null","6","992.54","1","40.53774","17.423897"],
    [2767,"2024-04-25 06:00:00","18","grottaglie","7.39","1","60.58","1","0.0","1","null","6","null","6","null","6","992.74","1","40.53774","17.423897"],
    [2768,"2024-04-25 07:00:00","18","grottaglie","9.28","1","53.6","1","0.0","1","null","6","null","6","null","6","993.1","1","40.53774","17.423897"],
    [2769,"2024-04-25 08:00:00","18","grottaglie","12.37","1","48.03","1","0.0","1","null","6","null","6","null","6","993.44","1","40.53774","17.423897"],
    [2770,"2024-04-25 09:00:00","18","grottaglie","14.21","1","41.42","1","0.0","1","null","6","null","6","null","6","993.29","1","40.53774","17.423897"],
    [2771,"2024-04-25 10:00:00","18","grottaglie","14.99","1","39.67","1","0.0","1","null","6","null","6","null","6","993.15","1","40.53774","17.423897"],
    [2772,"2024-04-25 11:00:00","18","grottaglie","15.59","1","39.54","1","0.0","1","null","6","null","6","null","6","993.22","1","40.53774","17.423897"],
    [2773,"2024-04-25 12:00:00","18","grottaglie","16.31","1","37.52","1","0.0","1","null","6","null","6","null","6","993.13","1","40.53774","17.423897"],
    [2774,"2024-04-25 13:00:00","18","grottaglie","17.77","1","33.99","1","0.0","1","null","6","null","6","null","6","993.08","1","40.53774","17.423897"],
    [2775,"2024-04-25 14:00:00","18","grottaglie","18.58","1","32.08","1","0.0","1","null","6","null","6","null","6","993.13","1","40.53774","17.423897"],
    [2776,"2024-04-25 15:00:00","18","grottaglie","18.66","1","33.14","1","0.0","1","null","6","null","6","null","6","993.21","1","40.53774","17.423897"],
    [2777,"2024-04-25 16:00:00","18","grottaglie","17.61","1","38.04","1","0.0","1","null","6","null","6","null","6","993.11","1","40.53774","17.423897"],
    [2778,"2024-04-25 17:00:00","18","grottaglie","16.1","1","45.47","1","0.0","1","null","6","null","6","null","6","993.74","1","40.53774","17.423897"],
    [2779,"2024-04-25 18:00:00","18","grottaglie","15.42","1","49.75","1","0.0","1","null","6","null","6","null","6","993.94","1","40.53774","17.423897"],
    [2780,"2024-04-25 19:00:00","18","grottaglie","14.73","1","52.25","1","0.0","1","null","6","null","6","null","6","994.12","1","40.53774","17.423897"],
    [2781,"2024-04-25 20:00:00","18","grottaglie","13.93","1","56.25","1","0.0","1","null","6","null","6","null","6","994.57","1","40.53774","17.423897"],
    [2782,"2024-04-25 21:00:00","18","grottaglie","13.16","1","63.07","1","0.0","1","null","6","null","6","null","6","995.37","1","40.53774","17.423897"],
    [2783,"2024-04-25 22:00:00","18","grottaglie","12.46","1","66.0","1","0.0","1","null","6","null","6","null","6","996.05","1","40.53774","17.423897"],
    [2784,"2024-04-25 23:00:00","18","grottaglie","11.48","1","69.19","1","0.0","1","null","6","null","6","null","6","996.44","1","40.53774","17.423897"],
    [2785,"2024-04-26 00:00:00","18","grottaglie","11.56","1","64.98","1","0.0","1","null","6","null","6","null","6","996.8","1","40.53774","17.423897"],
    [2786,"2024-04-26 01:00:00","18","grottaglie","10.89","1","66.74","1","0.0","1","null","6","null","6","null","6","997.08","1","40.53774","17.423897"],
    [2787,"2024-04-26 02:00:00","18","grottaglie","8.86","1","75.51","1","0.0","1","null","6","null","6","null","6","997.24","1","40.53774","17.423897"],
    [2788,"2024-04-26 03:00:00","18","grottaglie","8.96","1","74.75","1","0.0","1","null","6","null","6","null","6","997.46","1","40.53774","17.423897"],
    [2789,"2024-04-26 04:00:00","18","grottaglie","8.74","1","71.68","1","0.0","1","null","6","null","6","null","6","997.49","1","40.53774","17.423897"],
    [2790,"2024-04-26 05:00:00","18","grottaglie","7.4","1","80.64","1","0.0","1","null","6","null","6","null","6","997.73","1","40.53774","17.423897"],
    [2791,"2024-04-26 06:00:00","18","grottaglie","7.74","1","78.99","1","0.0","1","null","6","null","6","null","6","998.19","1","40.53774","17.423897"],
    [2792,"2024-04-26 07:00:00","18","grottaglie","10.12","1","63.13","1","0.0","1","null","6","null","6","null","6","998.38","1","40.53774","17.423897"],
    [2793,"2024-04-26 08:00:00","18","grottaglie","12.77","1","52.27","1","0.0","1","null","6","null","6","null","6","998.67","1","40.53774","17.423897"],
    [2794,"2024-04-26 09:00:00","18","grottaglie","16.0","1","40.28","1","0.0","1","null","6","null","6","null","6","998.54","1","40.53774","17.423897"],
    [2795,"2024-04-26 10:00:00","18","grottaglie","17.91","1","36.66","1","0.0","1","null","6","null","6","null","6","998.56","1","40.53774","17.423897"],
    [2796,"2024-04-26 11:00:00","18","grottaglie","17.72","1","38.57","1","0.0","1","null","6","null","6","null","6","998.8","1","40.53774","17.423897"],
    [2797,"2024-04-26 12:00:00","18","grottaglie","17.47","1","38.76","1","0.0","1","null","6","null","6","null","6","998.83","1","40.53774","17.423897"],
    [2798,"2024-04-26 13:00:00","18","grottaglie","18.41","1","34.48","1","0.0","1","null","6","null","6","null","6","999.08","1","40.53774","17.423897"],
    [2799,"2024-04-26 14:00:00","18","grottaglie","18.53","1","34.76","1","0.0","1","null","6","null","6","null","6","999.11","1","40.53774","17.423897"],
    [2800,"2024-04-26 15:00:00","18","grottaglie","19.58","1","34.92","1","0.0","1","null","6","null","6","null","6","999.06","1","40.53774","17.423897"],
    [2801,"2024-04-26 16:00:00","18","grottaglie","18.98","1","34.69","1","0.0","1","null","6","null","6","null","6","998.93","1","40.53774","17.423897"],
    [2802,"2024-04-26 17:00:00","18","grottaglie","18.05","1","38.55","1","0.0","1","null","6","null","6","null","6","998.78","1","40.53774","17.423897"],
    [2803,"2024-04-26 18:00:00","18","grottaglie","15.87","1","50.21","1","0.0","1","null","6","null","6","null","6","999.03","1","40.53774","17.423897"],
    [2804,"2024-04-26 19:00:00","18","grottaglie","14.73","1","57.4","1","0.0","1","null","6","null","6","null","6","999.42","1","40.53774","17.423897"],
    [2805,"2024-04-26 20:00:00","18","grottaglie","14.03","1","63.49","1","0.0","1","null","6","null","6","null","6","999.88","1","40.53774","17.423897"],
    [2806,"2024-04-26 21:00:00","18","grottaglie","13.63","1","67.26","1","0.0","1","null","6","null","6","null","6","1000.44","1","40.53774","17.423897"],
    [2807,"2024-04-26 22:00:00","18","grottaglie","13.64","1","68.12","1","0.0","1","null","6","null","6","null","6","1000.51","1","40.53774","17.423897"],
    [2808,"2024-04-26 23:00:00","18","grottaglie","13.52","1","70.42","1","0.0","1","null","6","null","6","null","6","1000.46","1","40.53774","17.423897"],
    [2809,"2024-04-27 00:00:00","18","grottaglie","13.4","1","71.19","1","0.0","1","null","6","null","6","null","6","1000.48","1","40.53774","17.423897"],
    [2810,"2024-04-27 01:00:00","18","grottaglie","13.24","1","71.66","1","0.0","1","null","6","null","6","null","6","1000.23","1","40.53774","17.423897"],
    [2811,"2024-04-27 02:00:00","18","grottaglie","12.72","1","73.66","1","0.0","1","null","6","null","6","null","6","999.86","1","40.53774","17.423897"],
    [2812,"2024-04-27 03:00:00","18","grottaglie","12.74","1","73.96","1","0.0","1","null","6","null","6","null","6","999.72","1","40.53774","17.423897"],
    [2813,"2024-04-27 04:00:00","18","grottaglie","11.69","1","76.92","1","0.0","1","null","6","null","6","null","6","1000.11","1","40.53774","17.423897"],
    [2814,"2024-04-27 05:00:00","18","grottaglie","10.29","1","81.99","1","0.0","1","null","6","null","6","null","6","1000.66","1","40.53774","17.423897"],
    [2815,"2024-04-27 06:00:00","18","grottaglie","10.88","1","83.73","1","0.0","1","null","6","null","6","null","6","1001.41","1","40.53774","17.423897"],
    [2816,"2024-04-27 07:00:00","18","grottaglie","12.7","1","79.87","1","0.0","1","null","6","null","6","null","6","1001.88","1","40.53774","17.423897"],
    [2817,"2024-04-27 08:00:00","18","grottaglie","15.18","1","70.45","1","0.0","1","null","6","null","6","null","6","1002.15","1","40.53774","17.423897"],
    [2818,"2024-04-27 09:00:00","18","grottaglie","18.69","1","51.21","1","0.0","1","null","6","null","6","null","6","1001.9","1","40.53774","17.423897"],
    [2819,"2024-04-27 10:00:00","18","grottaglie","19.75","1","43.06","1","0.0","1","null","6","null","6","null","6","1001.91","1","40.53774","17.423897"],
    [2820,"2024-04-27 11:00:00","18","grottaglie","20.64","1","41.3","1","0.0","1","null","6","null","6","null","6","1002.06","1","40.53774","17.423897"],
    [2821,"2024-04-27 12:00:00","18","grottaglie","21.23","1","40.92","1","0.0","1","null","6","null","6","null","6","1001.87","1","40.53774","17.423897"],
    [2822,"2024-04-27 13:00:00","18","grottaglie","19.72","1","47.72","1","0.0","1","null","6","null","6","null","6","1001.76","1","40.53774","17.423897"],
    [2823,"2024-04-27 14:00:00","18","grottaglie","22.09","1","42.62","1","0.0","1","null","6","null","6","null","6","1001.89","1","40.53774","17.423897"],
    [2824,"2024-04-27 15:00:00","18","grottaglie","21.9","1","39.74","1","0.0","1","null","6","null","6","null","6","1001.77","1","40.53774","17.423897"],
    [2825,"2024-04-27 16:00:00","18","grottaglie","21.27","1","38.67","1","0.0","1","null","6","null","6","null","6","1002.07","1","40.53774","17.423897"],
    [2826,"2024-04-27 17:00:00","18","grottaglie","22.15","1","35.97","1","0.0","1","null","6","null","6","null","6","1002.2","1","40.53774","17.423897"],
    [2827,"2024-04-27 18:00:00","18","grottaglie","21.48","1","36.67","1","0.0","1","null","6","null","6","null","6","1002.12","1","40.53774","17.423897"],
    [2828,"2024-04-27 19:00:00","18","grottaglie","20.0","1","42.4","1","0.0","1","null","6","null","6","null","6","1002.04","1","40.53774","17.423897"],
    [2829,"2024-04-27 20:00:00","18","grottaglie","16.22","1","57.3","1","0.0","1","null","6","null","6","null","6","1002.66","1","40.53774","17.423897"],
    [2830,"2024-04-27 21:00:00","18","grottaglie","15.3","1","55.15","1","0.0","1","null","6","null","6","null","6","1003.52","1","40.53774","17.423897"],
    [2831,"2024-04-27 22:00:00","18","grottaglie","13.82","1","61.09","1","0.0","1","null","6","null","6","null","6","1003.83","1","40.53774","17.423897"],
    [2832,"2024-04-27 23:00:00","18","grottaglie","12.29","1","66.25","1","0.0","1","null","6","null","6","null","6","1004.01","1","40.53774","17.423897"],
    [2833,"2024-04-28 00:00:00","18","grottaglie","12.1","1","65.29","1","0.0","1","null","6","null","6","null","6","1004.19","1","40.53774","17.423897"],
    [2834,"2024-04-28 01:00:00","18","grottaglie","12.14","1","60.53","1","0.0","1","null","6","null","6","null","6","1004.1","1","40.53774","17.423897"],
    [2835,"2024-04-28 02:00:00","18","grottaglie","11.78","1","59.67","1","0.0","1","null","6","null","6","null","6","1003.79","1","40.53774","17.423897"],
    [2836,"2024-04-28 03:00:00","18","grottaglie","10.71","1","64.19","1","0.0","1","null","6","null","6","null","6","1003.74","1","40.53774","17.423897"],
    [2837,"2024-04-28 04:00:00","18","grottaglie","10.94","1","62.11","1","0.0","1","null","6","null","6","null","6","1003.84","1","40.53774","17.423897"],
    [2838,"2024-04-28 05:00:00","18","grottaglie","11.22","1","59.66","1","0.0","1","null","6","null","6","null","6","1003.87","1","40.53774","17.423897"],
    [2839,"2024-04-28 06:00:00","18","grottaglie","9.52","1","71.6","1","0.0","1","null","6","null","6","null","6","1004.41","1","40.53774","17.423897"],
    [2840,"2024-04-28 07:00:00","18","grottaglie","10.9","1","70.37","1","0.0","1","null","6","null","6","null","6","1004.72","1","40.53774","17.423897"],
    [2841,"2024-04-28 08:00:00","18","grottaglie","16.61","1","45.52","1","0.0","1","null","6","null","6","null","6","1004.77","1","40.53774","17.423897"],
    [2842,"2024-04-28 09:00:00","18","grottaglie","20.84","1","33.29","1","0.0","1","null","6","null","6","null","6","1004.42","1","40.53774","17.423897"],
    [2843,"2024-04-28 10:00:00","18","grottaglie","22.47","1","30.33","1","0.0","1","null","6","null","6","null","6","1004.4","1","40.53774","17.423897"],
    [2844,"2024-04-28 11:00:00","18","grottaglie","24.23","1","27.02","1","0.0","1","null","6","null","6","null","6","1004.36","1","40.53774","17.423897"],
    [2845,"2024-04-28 12:00:00","18","grottaglie","25.54","1","25.16","1","0.0","1","null","6","null","6","null","6","1004.18","1","40.53774","17.423897"],
    [2846,"2024-04-28 13:00:00","18","grottaglie","26.31","1","24.86","1","0.0","1","null","6","null","6","null","6","1004.01","1","40.53774","17.423897"],
    [2847,"2024-04-28 14:00:00","18","grottaglie","27.0","1","25.35","1","0.0","1","null","6","null","6","null","6","1003.75","1","40.53774","17.423897"],
    [2848,"2024-04-28 15:00:00","18","grottaglie","25.79","1","26.76","1","0.0","1","null","6","null","6","null","6","1003.29","1","40.53774","17.423897"],
    [2849,"2024-04-28 16:00:00","18","grottaglie","24.82","1","27.78","1","0.0","1","null","6","null","6","null","6","1003.24","1","40.53774","17.423897"],
    [2850,"2024-04-28 17:00:00","18","grottaglie","24.69","1","28.87","1","0.0","1","null","6","null","6","null","6","1003.32","1","40.53774","17.423897"],
    [2851,"2024-04-28 18:00:00","18","grottaglie","24.26","1","29.52","1","0.0","1","null","6","null","6","null","6","1003.22","1","40.53774","17.423897"],
    [2852,"2024-04-28 19:00:00","18","grottaglie","22.83","1","32.79","1","0.0","1","null","6","null","6","null","6","1002.77","1","40.53774","17.423897"],
    [2853,"2024-04-28 20:00:00","18","grottaglie","19.42","1","43.29","1","0.0","1","null","6","null","6","null","6","1002.98","1","40.53774","17.423897"],
    [2854,"2024-04-28 21:00:00","18","grottaglie","17.1","1","51.66","1","0.0","1","null","6","null","6","null","6","1003.72","1","40.53774","17.423897"],
    [2855,"2024-04-28 22:00:00","18","grottaglie","16.66","1","51.06","1","0.0","1","null","6","null","6","null","6","1003.88","1","40.53774","17.423897"],
    [2856,"2024-04-28 23:00:00","18","grottaglie","15.68","1","50.42","1","0.0","1","null","6","null","6","null","6","1004.14","1","40.53774","17.423897"],
    [2857,"2024-04-29 00:00:00","18","grottaglie","13.52","1","59.35","1","0.0","1","null","6","null","6","null","6","1004.41","1","40.53774","17.423897"],
    [2858,"2024-04-29 01:00:00","18","grottaglie","12.99","1","59.5","1","0.0","1","null","6","null","6","null","6","1004.41","1","40.53774","17.423897"],
    [2859,"2024-04-29 02:00:00","18","grottaglie","13.72","1","48.13","1","0.0","1","null","6","null","6","null","6","1003.96","1","40.53774","17.423897"],
    [2860,"2024-04-29 03:00:00","18","grottaglie","12.63","1","52.39","1","0.0","1","null","6","null","6","null","6","1004.13","1","40.53774","17.423897"],
    [2861,"2024-04-29 04:00:00","18","grottaglie","12.88","1","51.4","1","0.0","1","null","6","null","6","null","6","1004.22","1","40.53774","17.423897"],
    [2862,"2024-04-29 05:00:00","18","grottaglie","12.81","1","51.55","1","0.0","1","null","6","null","6","null","6","1004.09","1","40.53774","17.423897"],
    [2863,"2024-04-29 06:00:00","18","grottaglie","12.99","1","53.98","1","0.0","1","null","6","null","6","null","6","1004.09","1","40.53774","17.423897"],
    [2864,"2024-04-29 07:00:00","18","grottaglie","14.78","1","52.8","1","0.0","1","null","6","null","6","null","6","1004.42","1","40.53774","17.423897"],
    [2865,"2024-04-29 08:00:00","18","grottaglie","18.46","1","48.37","1","0.0","1","null","6","null","6","null","6","1004.53","1","40.53774","17.423897"],
    [2866,"2024-04-29 09:00:00","18","grottaglie","23.48","1","30.87","1","0.0","1","null","6","null","6","null","6","1004.23","1","40.53774","17.423897"],
    [2867,"2024-04-29 10:00:00","18","grottaglie","25.17","1","28.98","1","0.0","1","null","6","null","6","null","6","1004.41","1","40.53774","17.423897"],
    [2868,"2024-04-29 11:00:00","18","grottaglie","25.68","1","28.71","1","0.0","1","null","6","null","6","null","6","1004.45","1","40.53774","17.423897"],
    [2869,"2024-04-29 12:00:00","18","grottaglie","26.96","1","27.01","1","0.0","1","null","6","null","6","null","6","1004.26","1","40.53774","17.423897"],
    [2870,"2024-04-29 13:00:00","18","grottaglie","28.08","1","25.2","1","0.0","1","null","6","null","6","null","6","1004.21","1","40.53774","17.423897"],
    [2871,"2024-04-29 14:00:00","18","grottaglie","28.47","1","23.59","1","0.0","1","null","6","null","6","null","6","1004.0","1","40.53774","17.423897"],
    [2872,"2024-04-29 15:00:00","18","grottaglie","28.05","1","26.75","1","0.0","1","null","6","null","6","null","6","1003.72","1","40.53774","17.423897"],
    [2873,"2024-04-29 16:00:00","18","grottaglie","25.69","1","31.7","1","0.0","1","null","6","null","6","null","6","1003.63","1","40.53774","17.423897"],
    [2874,"2024-04-29 17:00:00","18","grottaglie","24.94","1","32.77","1","0.0","1","null","6","null","6","null","6","1003.81","1","40.53774","17.423897"],
    [2875,"2024-04-29 18:00:00","18","grottaglie","23.93","1","35.12","1","0.0","1","null","6","null","6","null","6","1003.68","1","40.53774","17.423897"],
    [2876,"2024-04-29 19:00:00","18","grottaglie","21.91","1","41.68","1","0.0","1","null","6","null","6","null","6","1003.45","1","40.53774","17.423897"],
    [2877,"2024-04-29 20:00:00","18","grottaglie","19.57","1","48.54","1","0.0","1","null","6","null","6","null","6","1003.81","1","40.53774","17.423897"],
    [2878,"2024-04-29 21:00:00","18","grottaglie","18.27","1","51.0","1","0.0","1","null","6","null","6","null","6","1004.23","1","40.53774","17.423897"],
    [2879,"2024-04-29 22:00:00","18","grottaglie","16.6","1","55.64","1","0.0","1","null","6","null","6","null","6","1004.45","1","40.53774","17.423897"],
    [2880,"2024-04-29 23:00:00","18","grottaglie","14.51","1","62.73","1","0.0","1","null","6","null","6","null","6","1005.12","1","40.53774","17.423897"],
    [2881,"2024-04-30 00:00:00","18","grottaglie","15.67","1","50.68","1","0.0","1","null","6","null","6","null","6","1005.11","1","40.53774","17.423897"],
    [2882,"2024-04-30 01:00:00","18","grottaglie","15.28","1","54.54","1","0.0","1","null","6","null","6","null","6","1004.63","1","40.53774","17.423897"],
    [2883,"2024-04-30 02:00:00","18","grottaglie","14.52","1","55.8","1","0.0","1","null","6","null","6","null","6","1004.51","1","40.53774","17.423897"],
    [2884,"2024-04-30 03:00:00","18","grottaglie","16.42","1","44.68","1","0.0","1","null","6","null","6","null","6","1004.19","1","40.53774","17.423897"],
    [2885,"2024-04-30 04:00:00","18","grottaglie","13.43","1","57.13","1","0.0","1","null","6","null","6","null","6","1003.71","1","40.53774","17.423897"],
    [2886,"2024-04-30 05:00:00","18","grottaglie","12.48","1","61.43","1","0.0","1","null","6","null","6","null","6","1003.62","1","40.53774","17.423897"],
    [2887,"2024-04-30 06:00:00","18","grottaglie","12.61","1","61.19","1","0.0","1","null","6","null","6","null","6","1003.73","1","40.53774","17.423897"],
    [2888,"2024-04-30 07:00:00","18","grottaglie","13.58","1","60.48","1","0.0","1","null","6","null","6","null","6","1003.86","1","40.53774","17.423897"],
    [2889,"2024-04-30 08:00:00","18","grottaglie","18.56","1","44.87","1","0.0","1","null","6","null","6","null","6","1003.85","1","40.53774","17.423897"],
    [2890,"2024-04-30 09:00:00","18","grottaglie","22.79","1","36.59","1","0.0","1","null","6","null","6","null","6","1003.45","1","40.53774","17.423897"],
    [2891,"2024-04-30 10:00:00","18","grottaglie","24.81","1","29.73","1","0.0","1","null","6","null","6","null","6","1003.11","1","40.53774","17.423897"],
    [2892,"2024-04-30 11:00:00","18","grottaglie","25.78","1","28.23","1","0.0","1","null","6","null","6","null","6","1003.01","1","40.53774","17.423897"],
    [2893,"2024-04-30 12:00:00","18","grottaglie","25.89","1","28.68","1","0.0","1","null","6","null","6","null","6","1002.61","1","40.53774","17.423897"],
    [2894,"2024-04-30 13:00:00","18","grottaglie","26.09","1","28.17","1","0.0","1","null","6","null","6","null","6","1002.03","1","40.53774","17.423897"],
    [2895,"2024-04-30 14:00:00","18","grottaglie","26.56","1","27.14","1","0.0","1","null","6","null","6","null","6","1001.61","1","40.53774","17.423897"],
    [2896,"2024-04-30 15:00:00","18","grottaglie","26.78","1","25.13","1","0.0","1","null","6","null","6","null","6","1001.24","1","40.53774","17.423897"],
    [2897,"2024-04-30 16:00:00","18","grottaglie","26.3","1","23.78","1","0.0","1","null","6","null","6","null","6","1000.71","1","40.53774","17.423897"],
    [2898,"2024-04-30 17:00:00","18","grottaglie","25.07","1","24.9","1","0.0","1","null","6","null","6","null","6","1000.48","1","40.53774","17.423897"],
    [2899,"2024-04-30 18:00:00","18","grottaglie","22.54","1","36.12","1","0.0","1","null","6","null","6","null","6","999.97","1","40.53774","17.423897"],
    [2900,"2024-04-30 19:00:00","18","grottaglie","20.19","1","47.69","1","0.0","1","null","6","null","6","null","6","999.96","1","40.53774","17.423897"],
    [2901,"2024-04-30 20:00:00","18","grottaglie","18.45","1","55.57","1","0.0","1","null","6","null","6","null","6","1000.36","1","40.53774","17.423897"],
    [2902,"2024-04-30 21:00:00","18","grottaglie","17.85","1","56.04","1","0.0","1","null","6","null","6","null","6","1000.52","1","40.53774","17.423897"],
    [2903,"2024-04-30 22:00:00","18","grottaglie","17.44","1","60.02","1","0.0","1","null","6","null","6","null","6","1000.38","1","40.53774","17.423897"],
    [2904,"2024-04-30 23:00:00","18","grottaglie","17.03","1","64.44","1","0.0","1","null","6","null","6","null","6","1000.29","1","40.53774","17.423897"],
    [2905,"2024-05-01 00:00:00","18","grottaglie","16.66","1","69.02","1","0.0","1","null","6","null","6","null","6","1000.0","1","40.53774","17.423897"],
    [2906,"2024-05-01 01:00:00","18","grottaglie","16.62","1","68.56","1","0.0","1","null","6","null","6","null","6","999.08","1","40.53774","17.423897"],
    [2907,"2024-05-01 02:00:00","18","grottaglie","16.77","1","67.87","1","0.0","1","null","6","null","6","null","6","998.7","1","40.53774","17.423897"],
    [2908,"2024-05-01 03:00:00","18","grottaglie","16.66","1","75.16","1","0.0","1","null","6","null","6","null","6","998.68","1","40.53774","17.423897"],
    [2909,"2024-05-01 04:00:00","18","grottaglie","16.43","1","76.25","1","0.0","1","null","6","null","6","null","6","998.31","1","40.53774","17.423897"],
    [2910,"2024-05-01 05:00:00","18","grottaglie","16.62","1","74.33","1","0.0","1","null","6","null","6","null","6","998.01","1","40.53774","17.423897"],
    [2911,"2024-05-01 06:00:00","18","grottaglie","17.02","1","70.85","1","0.0","1","null","6","null","6","null","6","997.84","1","40.53774","17.423897"],
    [2912,"2024-05-01 07:00:00","18","grottaglie","17.83","1","68.43","1","0.0","1","null","6","null","6","null","6","998.06","1","40.53774","17.423897"],
    [2913,"2024-05-01 08:00:00","18","grottaglie","19.54","1","55.26","1","0.0","1","null","6","null","6","null","6","997.92","1","40.53774","17.423897"],
    [2914,"2024-05-01 09:00:00","18","grottaglie","20.53","1","49.57","1","0.0","1","null","6","null","6","null","6","997.67","1","40.53774","17.423897"],
    [2915,"2024-05-01 10:00:00","18","grottaglie","21.82","1","44.5","1","0.0","1","null","6","null","6","null","6","997.72","1","40.53774","17.423897"],
    [2916,"2024-05-01 11:00:00","18","grottaglie","22.24","1","40.12","1","0.0","1","null","6","null","6","null","6","997.84","1","40.53774","17.423897"],
    [2917,"2024-05-01 12:00:00","18","grottaglie","23.0","1","41.56","1","0.0","1","null","6","null","6","null","6","997.67","1","40.53774","17.423897"],
    [2918,"2024-05-01 13:00:00","18","grottaglie","23.09","1","43.37","1","0.0","1","null","6","null","6","null","6","997.48","1","40.53774","17.423897"],
    [2919,"2024-05-01 14:00:00","18","grottaglie","22.19","1","53.49","1","0.0","1","null","6","null","6","null","6","996.93","1","40.53774","17.423897"],
    [2920,"2024-05-01 15:00:00","18","grottaglie","23.76","1","53.58","1","0.0","1","null","6","null","6","null","6","996.27","1","40.53774","17.423897"],
    [2921,"2024-05-01 16:00:00","18","grottaglie","22.74","1","56.82","1","0.0","1","null","6","null","6","null","6","996.01","1","40.53774","17.423897"],
    [2922,"2024-05-01 17:00:00","18","grottaglie","20.0","1","68.11","1","1.4","1","null","6","null","6","null","6","996.62","1","40.53774","17.423897"],
    [2923,"2024-05-01 18:00:00","18","grottaglie","17.42","1","86.9","1","4.0","1","null","6","null","6","null","6","996.17","1","40.53774","17.423897"],
    [2924,"2024-05-01 19:00:00","18","grottaglie","17.09","1","93.0","1","0.8","1","null","6","null","6","null","6","997.03","1","40.53774","17.423897"],
    [2925,"2024-05-01 20:00:00","18","grottaglie","16.84","1","95.95","1","0.0","1","null","6","null","6","null","6","997.4","1","40.53774","17.423897"],
    [2926,"2024-05-01 21:00:00","18","grottaglie","16.63","1","96.59","1","0.0","1","null","6","null","6","null","6","997.69","1","40.53774","17.423897"],
    [2927,"2024-05-01 22:00:00","18","grottaglie","16.62","1","96.6","1","0.0","1","null","6","null","6","null","6","997.53","1","40.53774","17.423897"],
    [2928,"2024-05-01 23:00:00","18","grottaglie","16.51","1","96.61","1","0.0","1","null","6","null","6","null","6","997.61","1","40.53774","17.423897"],
    [2929,"2024-05-02 00:00:00","18","grottaglie","16.36","1","96.63","1","0.0","1","null","6","null","6","null","6","997.58","1","40.53774","17.423897"],
    [2930,"2024-05-02 01:00:00","18","grottaglie","16.28","1","96.64","1","0.0","1","null","6","null","6","null","6","997.7","1","40.53774","17.423897"],
    [2931,"2024-05-02 02:00:00","18","grottaglie","15.75","1","96.72","1","0.0","1","null","6","null","6","null","6","997.27","1","40.53774","17.423897"],
    [2932,"2024-05-02 03:00:00","18","grottaglie","14.93","1","96.83","1","0.0","1","null","6","null","6","null","6","997.1","1","40.53774","17.423897"],
    [2933,"2024-05-02 04:00:00","18","grottaglie","14.47","1","96.9","1","0.2","1","null","6","null","6","null","6","997.38","1","40.53774","17.423897"],
    [2934,"2024-05-02 05:00:00","18","grottaglie","14.19","1","96.94","1","0.0","1","null","6","null","6","null","6","997.33","1","40.53774","17.423897"],
    [2935,"2024-05-02 06:00:00","18","grottaglie","14.05","1","96.96","1","0.0","1","null","6","null","6","null","6","997.57","1","40.53774","17.423897"],
    [2936,"2024-05-02 07:00:00","18","grottaglie","14.69","1","96.85","1","0.0","1","null","6","null","6","null","6","998.02","1","40.53774","17.423897"],
    [2937,"2024-05-02 08:00:00","18","grottaglie","15.83","1","92.98","1","0.0","1","null","6","null","6","null","6","997.86","1","40.53774","17.423897"],
    [2938,"2024-05-02 09:00:00","18","grottaglie","18.58","1","59.4","1","0.0","1","null","6","null","6","null","6","997.34","1","40.53774","17.423897"],
    [2939,"2024-05-02 10:00:00","18","grottaglie","20.05","1","47.68","1","0.0","1","null","6","null","6","null","6","997.55","1","40.53774","17.423897"],
    [2940,"2024-05-02 11:00:00","18","grottaglie","20.66","1","43.43","1","0.0","1","null","6","null","6","null","6","997.73","1","40.53774","17.423897"],
    [2941,"2024-05-02 12:00:00","18","grottaglie","21.11","1","38.99","1","0.0","1","null","6","null","6","null","6","997.08","1","40.53774","17.423897"],
    [2942,"2024-05-02 13:00:00","18","grottaglie","21.91","1","39.64","1","0.0","1","null","6","null","6","null","6","997.12","1","40.53774","17.423897"],
    [2943,"2024-05-02 14:00:00","18","grottaglie","22.58","1","41.0","1","0.0","1","null","6","null","6","null","6","996.85","1","40.53774","17.423897"],
    [2944,"2024-05-02 15:00:00","18","grottaglie","22.89","1","38.37","1","0.0","1","null","6","null","6","null","6","996.85","1","40.53774","17.423897"],
    [2945,"2024-05-02 16:00:00","18","grottaglie","22.56","1","41.85","1","0.0","1","null","6","null","6","null","6","996.64","1","40.53774","17.423897"],
    [2946,"2024-05-02 17:00:00","18","grottaglie","21.14","1","49.32","1","0.0","1","null","6","null","6","null","6","996.22","1","40.53774","17.423897"],
    [2947,"2024-05-02 18:00:00","18","grottaglie","19.39","1","52.24","1","0.0","1","null","6","null","6","null","6","996.58","1","40.53774","17.423897"],
    [2948,"2024-05-02 19:00:00","18","grottaglie","16.98","1","65.67","1","0.0","1","null","6","null","6","null","6","997.49","1","40.53774","17.423897"],
    [2949,"2024-05-02 20:00:00","18","grottaglie","15.39","1","71.9","1","0.0","1","null","6","null","6","null","6","998.08","1","40.53774","17.423897"],
    [2950,"2024-05-02 21:00:00","18","grottaglie","14.87","1","74.49","1","0.0","1","null","6","null","6","null","6","998.03","1","40.53774","17.423897"],
    [2951,"2024-05-02 22:00:00","18","grottaglie","13.75","1","74.89","1","0.0","1","null","6","null","6","null","6","998.46","1","40.53774","17.423897"],
    [2952,"2024-05-02 23:00:00","18","grottaglie","12.79","1","70.0","1","0.0","1","null","6","null","6","null","6","998.79","1","40.53774","17.423897"],
    [2953,"2024-05-03 00:00:00","18","grottaglie","12.37","1","66.07","1","0.0","1","null","6","null","6","null","6","998.64","1","40.53774","17.423897"],
    [2954,"2024-05-03 01:00:00","18","grottaglie","12.14","1","64.37","1","0.0","1","null","6","null","6","null","6","998.37","1","40.53774","17.423897"],
    [2955,"2024-05-03 02:00:00","18","grottaglie","11.84","1","63.84","1","0.0","1","null","6","null","6","null","6","998.05","1","40.53774","17.423897"],
    [2956,"2024-05-03 03:00:00","18","grottaglie","10.84","1","68.05","1","0.0","1","null","6","null","6","null","6","997.9","1","40.53774","17.423897"],
    [2957,"2024-05-03 04:00:00","18","grottaglie","10.57","1","68.4","1","0.0","1","null","6","null","6","null","6","997.65","1","40.53774","17.423897"],
    [2958,"2024-05-03 05:00:00","18","grottaglie","10.57","1","67.99","1","0.0","1","null","6","null","6","null","6","997.25","1","40.53774","17.423897"],
    [2959,"2024-05-03 06:00:00","18","grottaglie","10.95","1","65.89","1","0.0","1","null","6","null","6","null","6","997.49","1","40.53774","17.423897"],
    [2960,"2024-05-03 07:00:00","18","grottaglie","12.27","1","62.28","1","0.0","1","null","6","null","6","null","6","997.98","1","40.53774","17.423897"],
    [2961,"2024-05-03 08:00:00","18","grottaglie","14.81","1","51.72","1","0.0","1","null","6","null","6","null","6","998.26","1","40.53774","17.423897"],
    [2962,"2024-05-03 09:00:00","18","grottaglie","16.84","1","43.38","1","0.0","1","null","6","null","6","null","6","998.0","1","40.53774","17.423897"],
    [2963,"2024-05-03 10:00:00","18","grottaglie","18.22","1","35.67","1","0.0","1","null","6","null","6","null","6","998.02","1","40.53774","17.423897"],
    [2964,"2024-05-03 11:00:00","18","grottaglie","19.09","1","33.13","1","0.0","1","null","6","null","6","null","6","997.84","1","40.53774","17.423897"],
    [2965,"2024-05-03 12:00:00","18","grottaglie","19.59","1","31.82","1","0.0","1","null","6","null","6","null","6","997.66","1","40.53774","17.423897"],
    [2966,"2024-05-03 13:00:00","18","grottaglie","19.23","1","31.48","1","0.0","1","null","6","null","6","null","6","997.49","1","40.53774","17.423897"],
    [2967,"2024-05-03 14:00:00","18","grottaglie","19.65","1","31.34","1","0.0","1","null","6","null","6","null","6","997.19","1","40.53774","17.423897"],
    [2968,"2024-05-03 15:00:00","18","grottaglie","19.86","1","31.52","1","0.0","1","null","6","null","6","null","6","996.89","1","40.53774","17.423897"],
    [2969,"2024-05-03 16:00:00","18","grottaglie","19.92","1","36.78","1","0.0","1","null","6","null","6","null","6","996.86","1","40.53774","17.423897"],
    [2970,"2024-05-03 17:00:00","18","grottaglie","18.28","1","41.74","1","0.0","1","null","6","null","6","null","6","996.71","1","40.53774","17.423897"],
    [2971,"2024-05-03 18:00:00","18","grottaglie","14.36","1","78.21","1","7.8","1","null","6","null","6","null","6","997.48","1","40.53774","17.423897"],
    [2972,"2024-05-03 19:00:00","18","grottaglie","13.77","1","82.11","1","0.0","1","null","6","null","6","null","6","997.88","1","40.53774","17.423897"],
    [2973,"2024-05-03 20:00:00","18","grottaglie","13.57","1","81.83","1","0.0","1","null","6","null","6","null","6","998.13","1","40.53774","17.423897"],
    [2974,"2024-05-03 21:00:00","18","grottaglie","13.28","1","83.02","1","0.0","1","null","6","null","6","null","6","998.38","1","40.53774","17.423897"],
    [2975,"2024-05-03 22:00:00","18","grottaglie","13.12","1","83.14","1","0.0","1","null","6","null","6","null","6","998.39","1","40.53774","17.423897"],
    [2976,"2024-05-03 23:00:00","18","grottaglie","12.81","1","85.6","1","0.0","1","null","6","null","6","null","6","998.23","1","40.53774","17.423897"],
    [2977,"2024-05-04 00:00:00","18","grottaglie","12.19","1","75.05","1","0.0","1","null","6","null","6","null","6","998.16","1","40.53774","17.423897"],
    [2978,"2024-05-04 01:00:00","18","grottaglie","11.57","1","71.8","1","0.0","1","null","6","null","6","null","6","997.93","1","40.53774","17.423897"],
    [2979,"2024-05-04 02:00:00","18","grottaglie","11.01","1","72.53","1","0.0","1","null","6","null","6","null","6","997.64","1","40.53774","17.423897"],
    [2980,"2024-05-04 03:00:00","18","grottaglie","10.36","1","75.72","1","0.0","1","null","6","null","6","null","6","997.45","1","40.53774","17.423897"],
    [2981,"2024-05-04 04:00:00","18","grottaglie","10.0","1","77.22","1","0.0","1","null","6","null","6","null","6","997.59","1","40.53774","17.423897"],
    [2982,"2024-05-04 05:00:00","18","grottaglie","9.74","1","77.01","1","0.0","1","null","6","null","6","null","6","997.88","1","40.53774","17.423897"],
    [2983,"2024-05-04 06:00:00","18","grottaglie","9.67","1","77.42","1","0.0","1","null","6","null","6","null","6","998.32","1","40.53774","17.423897"],
    [2984,"2024-05-04 07:00:00","18","grottaglie","10.81","1","74.81","1","0.0","1","null","6","null","6","null","6","998.59","1","40.53774","17.423897"],
    [2985,"2024-05-04 08:00:00","18","grottaglie","14.79","1","58.45","1","0.0","1","null","6","null","6","null","6","998.5","1","40.53774","17.423897"],
    [2986,"2024-05-04 09:00:00","18","grottaglie","17.73","1","44.8","1","0.0","1","null","6","null","6","null","6","998.3","1","40.53774","17.423897"],
    [2987,"2024-05-04 10:00:00","18","grottaglie","19.18","1","40.27","1","0.2","1","null","6","null","6","null","6","998.37","1","40.53774","17.423897"],
    [2988,"2024-05-04 11:00:00","18","grottaglie","19.95","1","37.62","1","0.0","1","null","6","null","6","null","6","998.28","1","40.53774","17.423897"],
    [2989,"2024-05-04 12:00:00","18","grottaglie","20.39","1","36.9","1","0.0","1","null","6","null","6","null","6","998.26","1","40.53774","17.423897"],
    [2990,"2024-05-04 13:00:00","18","grottaglie","21.16","1","36.35","1","0.0","1","null","6","null","6","null","6","998.45","1","40.53774","17.423897"],
    [2991,"2024-05-04 14:00:00","18","grottaglie","20.73","1","40.12","1","0.0","1","null","6","null","6","null","6","998.62","1","40.53774","17.423897"],
    [2992,"2024-05-04 15:00:00","18","grottaglie","21.88","1","38.57","1","0.0","1","null","6","null","6","null","6","998.83","1","40.53774","17.423897"],
    [2993,"2024-05-04 16:00:00","18","grottaglie","21.7","1","40.64","1","0.0","1","null","6","null","6","null","6","998.96","1","40.53774","17.423897"],
    [2994,"2024-05-04 17:00:00","18","grottaglie","21.23","1","43.23","1","0.0","1","null","6","null","6","null","6","999.25","1","40.53774","17.423897"],
    [2995,"2024-05-04 18:00:00","18","grottaglie","20.23","1","45.13","1","0.0","1","null","6","null","6","null","6","999.18","1","40.53774","17.423897"],
    [2996,"2024-05-04 19:00:00","18","grottaglie","18.05","1","52.67","1","0.0","1","null","6","null","6","null","6","999.4","1","40.53774","17.423897"],
    [2997,"2024-05-04 20:00:00","18","grottaglie","15.43","1","62.58","1","0.0","1","null","6","null","6","null","6","999.82","1","40.53774","17.423897"],
    [2998,"2024-05-04 21:00:00","18","grottaglie","14.5","1","67.51","1","0.0","1","null","6","null","6","null","6","1000.49","1","40.53774","17.423897"],
    [2999,"2024-05-04 22:00:00","18","grottaglie","14.08","1","72.51","1","0.0","1","null","6","null","6","null","6","1001.06","1","40.53774","17.423897"],
    [3000,"2024-05-04 23:00:00","18","grottaglie","13.58","1","76.48","1","0.0","1","null","6","null","6","null","6","1001.36","1","40.53774","17.423897"],
    [3001,"2024-05-05 00:00:00","18","grottaglie","13.65","1","75.57","1","0.0","1","null","6","null","6","null","6","1001.32","1","40.53774","17.423897"],
    [3002,"2024-05-05 01:00:00","18","grottaglie","13.55","1","76.02","1","0.0","1","null","6","null","6","null","6","1001.27","1","40.53774","17.423897"],
    [3003,"2024-05-05 02:00:00","18","grottaglie","13.24","1","76.75","1","0.0","1","null","6","null","6","null","6","1001.04","1","40.53774","17.423897"],
    [3004,"2024-05-05 03:00:00","18","grottaglie","13.11","1","72.12","1","0.0","1","null","6","null","6","null","6","1000.93","1","40.53774","17.423897"],
    [3005,"2024-05-05 04:00:00","18","grottaglie","12.83","1","69.43","1","0.0","1","null","6","null","6","null","6","1000.9","1","40.53774","17.423897"],
    [3006,"2024-05-05 05:00:00","18","grottaglie","12.22","1","70.31","1","0.0","1","null","6","null","6","null","6","1001.33","1","40.53774","17.423897"],
    [3007,"2024-05-05 06:00:00","18","grottaglie","12.22","1","70.1","1","0.0","1","null","6","null","6","null","6","1001.72","1","40.53774","17.423897"],
    [3008,"2024-05-05 07:00:00","18","grottaglie","13.78","1","65.44","1","0.0","1","null","6","null","6","null","6","1002.0","1","40.53774","17.423897"],
    [3009,"2024-05-05 08:00:00","18","grottaglie","16.9","1","56.8","1","0.0","1","null","6","null","6","null","6","1002.25","1","40.53774","17.423897"],
    [3010,"2024-05-05 09:00:00","18","grottaglie","19.6","1","47.16","1","0.0","1","null","6","null","6","null","6","1002.12","1","40.53774","17.423897"],
    [3011,"2024-05-05 10:00:00","18","grottaglie","21.76","1","40.07","1","0.0","1","null","6","null","6","null","6","1002.06","1","40.53774","17.423897"],
    [3012,"2024-05-05 11:00:00","18","grottaglie","23.02","1","32.1","1","0.0","1","null","6","null","6","null","6","1001.78","1","40.53774","17.423897"],
    [3013,"2024-05-05 12:00:00","18","grottaglie","24.34","1","31.78","1","0.0","1","null","6","null","6","null","6","1001.31","1","40.53774","17.423897"],
    [3014,"2024-05-05 13:00:00","18","grottaglie","26.54","1","30.77","1","0.0","1","null","6","null","6","null","6","1001.21","1","40.53774","17.423897"],
    [3015,"2024-05-05 14:00:00","18","grottaglie","25.27","1","32.2","1","0.0","1","null","6","null","6","null","6","1000.98","1","40.53774","17.423897"],
    [3016,"2024-05-05 15:00:00","18","grottaglie","24.97","1","31.55","1","0.0","1","null","6","null","6","null","6","1000.84","1","40.53774","17.423897"],
    [3017,"2024-05-05 16:00:00","18","grottaglie","25.27","1","31.66","1","0.0","1","null","6","null","6","null","6","1000.67","1","40.53774","17.423897"],
    [3018,"2024-05-05 17:00:00","18","grottaglie","25.0","1","32.56","1","0.0","1","null","6","null","6","null","6","1000.51","1","40.53774","17.423897"],
    [3019,"2024-05-05 18:00:00","18","grottaglie","22.65","1","37.85","1","0.0","1","null","6","null","6","null","6","1000.45","1","40.53774","17.423897"],
    [3020,"2024-05-05 19:00:00","18","grottaglie","19.9","1","43.17","1","0.0","1","null","6","null","6","null","6","1000.76","1","40.53774","17.423897"],
    [3021,"2024-05-05 20:00:00","18","grottaglie","17.64","1","48.03","1","0.0","1","null","6","null","6","null","6","1000.96","1","40.53774","17.423897"],
    [3022,"2024-05-05 21:00:00","18","grottaglie","16.37","1","50.29","1","0.0","1","null","6","null","6","null","6","1001.37","1","40.53774","17.423897"],
    [3023,"2024-05-05 22:00:00","18","grottaglie","15.22","1","55.11","1","0.0","1","null","6","null","6","null","6","1001.82","1","40.53774","17.423897"],
    [3024,"2024-05-05 23:00:00","18","grottaglie","15.29","1","58.01","1","0.0","1","null","6","null","6","null","6","1001.66","1","40.53774","17.423897"],
    [3025,"2024-05-06 00:00:00","18","grottaglie","14.88","1","63.08","1","0.0","1","null","6","null","6","null","6","1001.42","1","40.53774","17.423897"],
    [3026,"2024-05-06 01:00:00","18","grottaglie","15.06","1","69.95","1","0.0","1","null","6","null","6","null","6","1001.16","1","40.53774","17.423897"],
    [3027,"2024-05-06 02:00:00","18","grottaglie","14.44","1","74.85","1","0.0","1","null","6","null","6","null","6","1001.02","1","40.53774","17.423897"],
    [3028,"2024-05-06 03:00:00","18","grottaglie","13.59","1","78.24","1","0.0","1","null","6","null","6","null","6","1000.98","1","40.53774","17.423897"],
    [3029,"2024-05-06 04:00:00","18","grottaglie","13.62","1","80.56","1","0.0","1","null","6","null","6","null","6","1000.98","1","40.53774","17.423897"],
    [3030,"2024-05-06 05:00:00","18","grottaglie","14.03","1","80.19","1","0.0","1","null","6","null","6","null","6","1000.98","1","40.53774","17.423897"],
    [3031,"2024-05-06 06:00:00","18","grottaglie","14.21","1","74.15","1","0.0","1","null","6","null","6","null","6","1001.16","1","40.53774","17.423897"],
    [3032,"2024-05-06 07:00:00","18","grottaglie","15.27","1","72.65","1","0.0","1","null","6","null","6","null","6","1001.42","1","40.53774","17.423897"],
    [3033,"2024-05-06 08:00:00","18","grottaglie","18.3","1","68.28","1","0.0","1","null","6","null","6","null","6","1001.63","1","40.53774","17.423897"],
    [3034,"2024-05-06 09:00:00","18","grottaglie","21.03","1","47.7","1","0.0","1","null","6","null","6","null","6","1001.33","1","40.53774","17.423897"],
    [3035,"2024-05-06 10:00:00","18","grottaglie","22.86","1","39.4","1","0.0","1","null","6","null","6","null","6","1001.32","1","40.53774","17.423897"],
    [3036,"2024-05-06 11:00:00","18","grottaglie","23.69","1","37.98","1","0.0","1","null","6","null","6","null","6","1001.14","1","40.53774","17.423897"],
    [3037,"2024-05-06 12:00:00","18","grottaglie","24.29","1","37.07","1","0.0","1","null","6","null","6","null","6","1001.06","1","40.53774","17.423897"],
    [3038,"2024-05-06 13:00:00","18","grottaglie","24.99","1","35.02","1","0.0","1","null","6","null","6","null","6","1000.85","1","40.53774","17.423897"],
    [3039,"2024-05-06 14:00:00","18","grottaglie","25.78","1","34.48","1","0.0","1","null","6","null","6","null","6","1000.55","1","40.53774","17.423897"],
    [3040,"2024-05-06 15:00:00","18","grottaglie","25.35","1","39.85","1","0.0","1","null","6","null","6","null","6","1000.29","1","40.53774","17.423897"],
    [3041,"2024-05-06 16:00:00","18","grottaglie","23.78","1","44.17","1","0.0","1","null","6","null","6","null","6","1000.54","1","40.53774","17.423897"],
    [3042,"2024-05-06 17:00:00","18","grottaglie","22.89","1","42.38","1","0.0","1","null","6","null","6","null","6","1000.65","1","40.53774","17.423897"],
    [3043,"2024-05-06 18:00:00","18","grottaglie","22.38","1","43.7","1","0.0","1","null","6","null","6","null","6","1000.6","1","40.53774","17.423897"],
    [3044,"2024-05-06 19:00:00","18","grottaglie","19.54","1","55.47","1","0.0","1","null","6","null","6","null","6","1000.46","1","40.53774","17.423897"],
    [3045,"2024-05-06 20:00:00","18","grottaglie","16.69","1","72.08","1","0.0","1","null","6","null","6","null","6","1000.73","1","40.53774","17.423897"],
    [3046,"2024-05-06 21:00:00","18","grottaglie","15.6","1","81.98","1","0.0","1","null","6","null","6","null","6","1001.28","1","40.53774","17.423897"],
    [3047,"2024-05-06 22:00:00","18","grottaglie","15.2","1","85.31","1","0.0","1","null","6","null","6","null","6","1001.32","1","40.53774","17.423897"],
    [3048,"2024-05-06 23:00:00","18","grottaglie","14.7","1","87.78","1","0.0","1","null","6","null","6","null","6","1001.28","1","40.53774","17.423897"],
    [3049,"2024-05-07 00:00:00","18","grottaglie","14.49","1","90.41","1","0.0","1","null","6","null","6","null","6","1001.11","1","40.53774","17.423897"],
    [3050,"2024-05-07 01:00:00","18","grottaglie","14.55","1","91.3","1","0.0","1","null","6","null","6","null","6","1000.93","1","40.53774","17.423897"],
    [3051,"2024-05-07 02:00:00","18","grottaglie","14.4","1","91.69","1","0.0","1","null","6","null","6","null","6","1000.33","1","40.53774","17.423897"],
    [3052,"2024-05-07 03:00:00","18","grottaglie","14.01","1","92.16","1","0.0","1","null","6","null","6","null","6","1000.15","1","40.53774","17.423897"],
    [3053,"2024-05-07 04:00:00","18","grottaglie","14.37","1","92.96","1","0.0","1","null","6","null","6","null","6","999.94","1","40.53774","17.423897"],
    [3054,"2024-05-07 05:00:00","18","grottaglie","15.22","1","91.53","1","0.0","1","null","6","null","6","null","6","999.69","1","40.53774","17.423897"],
    [3055,"2024-05-07 06:00:00","18","grottaglie","15.87","1","88.46","1","0.0","1","null","6","null","6","null","6","999.78","1","40.53774","17.423897"],
    [3056,"2024-05-07 07:00:00","18","grottaglie","16.89","1","83.73","1","0.0","1","null","6","null","6","null","6","1000.04","1","40.53774","17.423897"],
    [3057,"2024-05-07 08:00:00","18","grottaglie","18.17","1","76.73","1","0.0","1","null","6","null","6","null","6","1000.13","1","40.53774","17.423897"],
    [3058,"2024-05-07 09:00:00","18","grottaglie","19.9","1","68.82","1","0.0","1","null","6","null","6","null","6","1000.25","1","40.53774","17.423897"],
    [3059,"2024-05-07 10:00:00","18","grottaglie","19.68","1","68.09","1","0.0","1","null","6","null","6","null","6","1000.55","1","40.53774","17.423897"],
    [3060,"2024-05-07 11:00:00","18","grottaglie","20.97","1","63.37","1","0.0","1","null","6","null","6","null","6","1000.53","1","40.53774","17.423897"],
    [3061,"2024-05-07 12:00:00","18","grottaglie","21.59","1","60.17","1","0.0","1","null","6","null","6","null","6","1000.16","1","40.53774","17.423897"],
    [3062,"2024-05-07 13:00:00","18","grottaglie","22.64","1","54.74","1","0.0","1","null","6","null","6","null","6","999.89","1","40.53774","17.423897"],
    [3063,"2024-05-07 14:00:00","18","grottaglie","23.25","1","52.2","1","0.0","1","null","6","null","6","null","6","999.57","1","40.53774","17.423897"],
    [3064,"2024-05-07 15:00:00","18","grottaglie","22.67","1","53.11","1","0.0","1","null","6","null","6","null","6","999.1","1","40.53774","17.423897"],
    [3065,"2024-05-07 16:00:00","18","grottaglie","22.66","1","54.53","1","0.0","1","null","6","null","6","null","6","999.2","1","40.53774","17.423897"],
    [3066,"2024-05-07 17:00:00","18","grottaglie","20.71","1","62.1","1","0.0","1","null","6","null","6","null","6","999.55","1","40.53774","17.423897"],
    [3067,"2024-05-07 18:00:00","18","grottaglie","18.56","1","70.45","1","0.0","1","null","6","null","6","null","6","999.55","1","40.53774","17.423897"],
    [3068,"2024-05-07 19:00:00","18","grottaglie","17.77","1","76.76","1","0.0","1","null","6","null","6","null","6","999.43","1","40.53774","17.423897"],
    [3069,"2024-05-07 20:00:00","18","grottaglie","17.08","1","81.44","1","0.0","1","null","6","null","6","null","6","999.27","1","40.53774","17.423897"],
    [3070,"2024-05-07 21:00:00","18","grottaglie","16.65","1","84.1","1","0.0","1","null","6","null","6","null","6","999.32","1","40.53774","17.423897"],
    [3071,"2024-05-07 22:00:00","18","grottaglie","16.64","1","85.01","1","0.0","1","null","6","null","6","null","6","999.73","1","40.53774","17.423897"],
    [3072,"2024-05-07 23:00:00","18","grottaglie","16.45","1","87.57","1","0.0","1","null","6","null","6","null","6","1000.18","1","40.53774","17.423897"],
    [3073,"2024-05-08 00:00:00","18","grottaglie","16.54","1","89.02","1","0.0","1","null","6","null","6","null","6","1000.24","1","40.53774","17.423897"],
    [3074,"2024-05-08 01:00:00","18","grottaglie","16.57","1","89.61","1","0.0","1","null","6","null","6","null","6","999.67","1","40.53774","17.423897"],
    [3075,"2024-05-08 02:00:00","18","grottaglie","16.56","1","89.37","1","0.0","1","null","6","null","6","null","6","999.49","1","40.53774","17.423897"],
    [3076,"2024-05-08 03:00:00","18","grottaglie","16.35","1","87.96","1","0.0","1","null","6","null","6","null","6","999.32","1","40.53774","17.423897"],
    [3077,"2024-05-08 04:00:00","18","grottaglie","15.69","1","87.9","1","0.0","1","null","6","null","6","null","6","999.03","1","40.53774","17.423897"],
    [3078,"2024-05-08 05:00:00","18","grottaglie","14.96","1","89.81","1","0.0","1","null","6","null","6","null","6","998.94","1","40.53774","17.423897"],
    [3079,"2024-05-08 06:00:00","18","grottaglie","15.33","1","82.25","1","0.0","1","null","6","null","6","null","6","999.17","1","40.53774","17.423897"],
    [3080,"2024-05-08 07:00:00","18","grottaglie","17.51","1","56.05","1","0.0","1","null","6","null","6","null","6","999.1","1","40.53774","17.423897"],
    [3081,"2024-05-08 08:00:00","18","grottaglie","20.72","1","44.09","1","0.0","1","null","6","null","6","null","6","999.12","1","40.53774","17.423897"],
    [3082,"2024-05-08 09:00:00","18","grottaglie","22.44","1","39.23","1","0.0","1","null","6","null","6","null","6","998.92","1","40.53774","17.423897"],
    [3083,"2024-05-08 10:00:00","18","grottaglie","23.96","1","35.12","1","0.0","1","null","6","null","6","null","6","999.36","1","40.53774","17.423897"],
    [3084,"2024-05-08 11:00:00","18","grottaglie","25.86","1","32.83","1","0.0","1","null","6","null","6","null","6","999.23","1","40.53774","17.423897"],
    [3085,"2024-05-08 12:00:00","18","grottaglie","26.73","1","32.96","1","0.0","1","null","6","null","6","null","6","998.6","1","40.53774","17.423897"],
    [3086,"2024-05-08 13:00:00","18","grottaglie","27.55","1","33.31","1","0.0","1","null","6","null","6","null","6","998.23","1","40.53774","17.423897"],
    [3087,"2024-05-08 14:00:00","18","grottaglie","27.09","1","35.88","1","0.0","1","null","6","null","6","null","6","997.93","1","40.53774","17.423897"],
    [3088,"2024-05-08 15:00:00","18","grottaglie","27.36","1","32.48","1","0.0","1","null","6","null","6","null","6","997.31","1","40.53774","17.423897"],
    [3089,"2024-05-08 16:00:00","18","grottaglie","26.15","1","35.6","1","0.0","1","null","6","null","6","null","6","997.0","1","40.53774","17.423897"],
    [3090,"2024-05-08 17:00:00","18","grottaglie","24.77","1","38.79","1","0.0","1","null","6","null","6","null","6","997.03","1","40.53774","17.423897"],
    [3091,"2024-05-08 18:00:00","18","grottaglie","21.81","1","46.18","1","0.0","1","null","6","null","6","null","6","996.97","1","40.53774","17.423897"],
    [3092,"2024-05-08 19:00:00","18","grottaglie","19.88","1","54.54","1","0.0","1","null","6","null","6","null","6","997.27","1","40.53774","17.423897"],
    [3093,"2024-05-08 20:00:00","18","grottaglie","18.0","1","65.24","1","0.0","1","null","6","null","6","null","6","997.84","1","40.53774","17.423897"],
    [3094,"2024-05-08 21:00:00","18","grottaglie","16.82","1","73.39","1","0.0","1","null","6","null","6","null","6","998.24","1","40.53774","17.423897"],
    [3095,"2024-05-08 22:00:00","18","grottaglie","16.93","1","71.85","1","0.0","1","null","6","null","6","null","6","998.49","1","40.53774","17.423897"],
    [3096,"2024-05-08 23:00:00","18","grottaglie","17.11","1","72.08","1","0.0","1","null","6","null","6","null","6","998.47","1","40.53774","17.423897"],
    [3097,"2024-05-09 00:00:00","18","grottaglie","16.85","1","74.08","1","0.0","1","null","6","null","6","null","6","998.31","1","40.53774","17.423897"],
    [3098,"2024-05-09 01:00:00","18","grottaglie","16.95","1","72.81","1","0.0","1","null","6","null","6","null","6","996.96","1","40.53774","17.423897"],
    [3099,"2024-05-09 02:00:00","18","grottaglie","17.16","1","71.06","1","0.0","1","null","6","null","6","null","6","996.47","1","40.53774","17.423897"],
    [3100,"2024-05-09 03:00:00","18","grottaglie","16.97","1","72.25","1","0.0","1","null","6","null","6","null","6","996.28","1","40.53774","17.423897"],
    [3101,"2024-05-09 04:00:00","18","grottaglie","16.63","1","71.08","1","0.0","1","null","6","null","6","null","6","996.47","1","40.53774","17.423897"],
    [3102,"2024-05-09 05:00:00","18","grottaglie","16.6","1","68.02","1","0.0","1","null","6","null","6","null","6","996.85","1","40.53774","17.423897"],
    [3103,"2024-05-09 06:00:00","18","grottaglie","16.71","1","67.23","1","0.0","1","null","6","null","6","null","6","997.34","1","40.53774","17.423897"],
    [3104,"2024-05-09 07:00:00","18","grottaglie","17.41","1","68.64","1","0.0","1","null","6","null","6","null","6","997.63","1","40.53774","17.423897"],
    [3105,"2024-05-09 08:00:00","18","grottaglie","18.08","1","68.51","1","0.0","1","null","6","null","6","null","6","997.76","1","40.53774","17.423897"],
    [3106,"2024-05-09 09:00:00","18","grottaglie","19.19","1","65.17","1","0.0","1","null","6","null","6","null","6","997.84","1","40.53774","17.423897"],
    [3107,"2024-05-09 10:00:00","18","grottaglie","19.72","1","62.73","1","0.0","1","null","6","null","6","null","6","997.79","1","40.53774","17.423897"],
    [3108,"2024-05-09 11:00:00","18","grottaglie","20.87","1","57.32","1","0.0","1","null","6","null","6","null","6","997.85","1","40.53774","17.423897"],
    [3109,"2024-05-09 12:00:00","18","grottaglie","21.13","1","57.78","1","0.0","1","null","6","null","6","null","6","998.19","1","40.53774","17.423897"],
    [3110,"2024-05-09 13:00:00","18","grottaglie","23.66","1","46.51","1","0.0","1","null","6","null","6","null","6","997.63","1","40.53774","17.423897"],
    [3111,"2024-05-09 14:00:00","18","grottaglie","24.78","1","40.24","1","0.0","1","null","6","null","6","null","6","996.84","1","40.53774","17.423897"],
    [3112,"2024-05-09 15:00:00","18","grottaglie","24.82","1","40.66","1","0.0","1","null","6","null","6","null","6","996.37","1","40.53774","17.423897"],
    [3113,"2024-05-09 16:00:00","18","grottaglie","24.59","1","40.73","1","0.0","1","null","6","null","6","null","6","995.98","1","40.53774","17.423897"],
    [3114,"2024-05-09 17:00:00","18","grottaglie","23.4","1","43.02","1","0.0","1","null","6","null","6","null","6","995.72","1","40.53774","17.423897"],
    [3115,"2024-05-09 18:00:00","18","grottaglie","22.04","1","44.86","1","0.0","1","null","6","null","6","null","6","995.63","1","40.53774","17.423897"],
    [3116,"2024-05-09 19:00:00","18","grottaglie","21.0","1","45.39","1","0.0","1","null","6","null","6","null","6","996.06","1","40.53774","17.423897"],
    [3117,"2024-05-09 20:00:00","18","grottaglie","19.55","1","49.33","1","0.0","1","null","6","null","6","null","6","996.86","1","40.53774","17.423897"],
    [3118,"2024-05-09 21:00:00","18","grottaglie","19.04","1","53.02","1","0.0","1","null","6","null","6","null","6","997.41","1","40.53774","17.423897"],
    [3119,"2024-05-09 22:00:00","18","grottaglie","18.68","1","59.96","1","0.0","1","null","6","null","6","null","6","997.67","1","40.53774","17.423897"],
    [3120,"2024-05-09 23:00:00","18","grottaglie","18.53","1","63.28","1","0.0","1","null","6","null","6","null","6","997.7","1","40.53774","17.423897"],
    [3121,"2024-05-10 00:00:00","18","grottaglie","18.15","1","65.98","1","0.0","1","null","6","null","6","null","6","998.01","1","40.53774","17.423897"],
    [3122,"2024-05-10 01:00:00","18","grottaglie","17.75","1","68.71","1","0.0","1","null","6","null","6","null","6","997.96","1","40.53774","17.423897"],
    [3123,"2024-05-10 02:00:00","18","grottaglie","17.72","1","70.82","1","0.0","1","null","6","null","6","null","6","997.67","1","40.53774","17.423897"],
    [3124,"2024-05-10 03:00:00","18","grottaglie","17.65","1","67.95","1","0.0","1","null","6","null","6","null","6","997.35","1","40.53774","17.423897"],
    [3125,"2024-05-10 04:00:00","18","grottaglie","16.8","1","72.79","1","0.0","1","null","6","null","6","null","6","997.04","1","40.53774","17.423897"],
    [3126,"2024-05-10 05:00:00","18","grottaglie","16.54","1","74.15","1","0.0","1","null","6","null","6","null","6","997.11","1","40.53774","17.423897"],
    [3127,"2024-05-10 06:00:00","18","grottaglie","17.3","1","66.66","1","0.0","1","null","6","null","6","null","6","997.65","1","40.53774","17.423897"],
    [3128,"2024-05-10 07:00:00","18","grottaglie","18.89","1","57.38","1","0.0","1","null","6","null","6","null","6","998.03","1","40.53774","17.423897"],
    [3129,"2024-05-10 08:00:00","18","grottaglie","19.78","1","51.57","1","0.0","1","null","6","null","6","null","6","998.41","1","40.53774","17.423897"],
    [3130,"2024-05-10 09:00:00","18","grottaglie","21.25","1","47.7","1","0.0","1","null","6","null","6","null","6","998.73","1","40.53774","17.423897"],
    [3131,"2024-05-10 10:00:00","18","grottaglie","22.22","1","44.86","1","0.0","1","null","6","null","6","null","6","998.89","1","40.53774","17.423897"],
    [3132,"2024-05-10 11:00:00","18","grottaglie","22.87","1","41.86","1","0.0","1","null","6","null","6","null","6","998.65","1","40.53774","17.423897"],
    [3133,"2024-05-10 12:00:00","18","grottaglie","24.09","1","40.29","1","0.0","1","null","6","null","6","null","6","998.51","1","40.53774","17.423897"],
    [3134,"2024-05-10 13:00:00","18","grottaglie","24.15","1","37.31","1","0.0","1","null","6","null","6","null","6","998.41","1","40.53774","17.423897"],
    [3135,"2024-05-10 14:00:00","18","grottaglie","23.96","1","35.85","1","0.0","1","null","6","null","6","null","6","998.33","1","40.53774","17.423897"],
    [3136,"2024-05-10 15:00:00","18","grottaglie","24.68","1","33.98","1","0.0","1","null","6","null","6","null","6","998.25","1","40.53774","17.423897"],
    [3137,"2024-05-10 16:00:00","18","grottaglie","24.04","1","32.83","1","0.0","1","null","6","null","6","null","6","998.3","1","40.53774","17.423897"],
    [3138,"2024-05-10 17:00:00","18","grottaglie","23.05","1","34.32","1","0.0","1","null","6","null","6","null","6","998.15","1","40.53774","17.423897"],
    [3139,"2024-05-10 18:00:00","18","grottaglie","21.74","1","34.86","1","0.0","1","null","6","null","6","null","6","998.17","1","40.53774","17.423897"],
    [3140,"2024-05-10 19:00:00","18","grottaglie","21.38","1","37.09","1","0.0","1","null","6","null","6","null","6","998.07","1","40.53774","17.423897"],
    [3141,"2024-05-10 20:00:00","18","grottaglie","19.03","1","44.3","1","0.0","1","null","6","null","6","null","6","998.34","1","40.53774","17.423897"],
    [3142,"2024-05-10 21:00:00","18","grottaglie","18.14","1","45.18","1","0.0","1","null","6","null","6","null","6","998.82","1","40.53774","17.423897"],
    [3143,"2024-05-10 22:00:00","18","grottaglie","17.53","1","51.67","1","0.0","1","null","6","null","6","null","6","999.01","1","40.53774","17.423897"],
    [3144,"2024-05-10 23:00:00","18","grottaglie","17.23","1","57.65","1","0.0","1","null","6","null","6","null","6","999.03","1","40.53774","17.423897"],
    [3145,"2024-05-11 00:00:00","18","grottaglie","17.34","1","55.56","1","0.0","1","null","6","null","6","null","6","998.88","1","40.53774","17.423897"],
    [3146,"2024-05-11 01:00:00","18","grottaglie","16.66","1","56.19","1","0.0","1","null","6","null","6","null","6","998.8","1","40.53774","17.423897"],
    [3147,"2024-05-11 02:00:00","18","grottaglie","16.63","1","56.57","1","0.0","1","null","6","null","6","null","6","998.68","1","40.53774","17.423897"],
    [3148,"2024-05-11 03:00:00","18","grottaglie","16.49","1","61.09","1","0.0","1","null","6","null","6","null","6","998.74","1","40.53774","17.423897"],
    [3149,"2024-05-11 04:00:00","18","grottaglie","16.25","1","64.11","1","0.0","1","null","6","null","6","null","6","998.79","1","40.53774","17.423897"],
    [3150,"2024-05-11 05:00:00","18","grottaglie","15.39","1","67.04","1","0.0","1","null","6","null","6","null","6","998.95","1","40.53774","17.423897"],
    [3151,"2024-05-11 06:00:00","18","grottaglie","15.34","1","66.81","1","0.0","1","null","6","null","6","null","6","999.43","1","40.53774","17.423897"],
    [3152,"2024-05-11 07:00:00","18","grottaglie","16.49","1","62.05","1","0.0","1","null","6","null","6","null","6","999.89","1","40.53774","17.423897"],
    [3153,"2024-05-11 08:00:00","18","grottaglie","19.26","1","49.96","1","0.0","1","null","6","null","6","null","6","1000.14","1","40.53774","17.423897"],
    [3154,"2024-05-11 09:00:00","18","grottaglie","20.86","1","43.42","1","0.0","1","null","6","null","6","null","6","1000.15","1","40.53774","17.423897"],
    [3155,"2024-05-11 10:00:00","18","grottaglie","22.12","1","39.37","1","0.0","1","null","6","null","6","null","6","1000.36","1","40.53774","17.423897"],
    [3156,"2024-05-11 11:00:00","18","grottaglie","22.98","1","37.32","1","0.0","1","null","6","null","6","null","6","1000.59","1","40.53774","17.423897"],
    [3157,"2024-05-11 12:00:00","18","grottaglie","23.49","1","35.3","1","0.0","1","null","6","null","6","null","6","1000.64","1","40.53774","17.423897"],
    [3158,"2024-05-11 13:00:00","18","grottaglie","24.56","1","32.19","1","0.0","1","null","6","null","6","null","6","1000.66","1","40.53774","17.423897"],
    [3159,"2024-05-11 14:00:00","18","grottaglie","24.89","1","31.58","1","0.0","1","null","6","null","6","null","6","1000.77","1","40.53774","17.423897"],
    [3160,"2024-05-11 15:00:00","18","grottaglie","25.16","1","30.87","1","0.0","1","null","6","null","6","null","6","1000.83","1","40.53774","17.423897"],
    [3161,"2024-05-11 16:00:00","18","grottaglie","25.09","1","30.45","1","0.0","1","null","6","null","6","null","6","1000.94","1","40.53774","17.423897"],
    [3162,"2024-05-11 17:00:00","18","grottaglie","24.71","1","28.52","1","0.0","1","null","6","null","6","null","6","1001.19","1","40.53774","17.423897"],
    [3163,"2024-05-11 18:00:00","18","grottaglie","23.16","1","30.37","1","0.0","1","null","6","null","6","null","6","1001.18","1","40.53774","17.423897"],
    [3164,"2024-05-11 19:00:00","18","grottaglie","21.87","1","33.39","1","0.0","1","null","6","null","6","null","6","1001.37","1","40.53774","17.423897"],
    [3165,"2024-05-11 20:00:00","18","grottaglie","18.77","1","43.38","1","0.0","1","null","6","null","6","null","6","1001.63","1","40.53774","17.423897"],
    [3166,"2024-05-11 21:00:00","18","grottaglie","17.0","1","55.78","1","0.0","1","null","6","null","6","null","6","1002.41","1","40.53774","17.423897"],
    [3167,"2024-05-11 22:00:00","18","grottaglie","16.37","1","56.1","1","0.0","1","null","6","null","6","null","6","1002.8","1","40.53774","17.423897"],
    [3168,"2024-05-11 23:00:00","18","grottaglie","16.37","1","48.14","1","0.0","1","null","6","null","6","null","6","1002.84","1","40.53774","17.423897"],
    [3169,"2024-05-12 00:00:00","18","grottaglie","15.73","1","48.85","1","0.0","1","null","6","null","6","null","6","1002.8","1","40.53774","17.423897"],
    [3170,"2024-05-12 01:00:00","18","grottaglie","14.18","1","55.56","1","0.0","1","null","6","null","6","null","6","1002.72","1","40.53774","17.423897"],
    [3171,"2024-05-12 02:00:00","18","grottaglie","13.37","1","59.41","1","0.0","1","null","6","null","6","null","6","1002.76","1","40.53774","17.423897"],
    [3172,"2024-05-12 03:00:00","18","grottaglie","13.91","1","54.59","1","0.0","1","null","6","null","6","null","6","1002.83","1","40.53774","17.423897"],
    [3173,"2024-05-12 04:00:00","18","grottaglie","13.34","1","55.63","1","0.0","1","null","6","null","6","null","6","1002.76","1","40.53774","17.423897"],
    [3174,"2024-05-12 05:00:00","18","grottaglie","12.36","1","61.1","1","0.0","1","null","6","null","6","null","6","1002.77","1","40.53774","17.423897"],
    [3175,"2024-05-12 06:00:00","18","grottaglie","13.28","1","58.44","1","0.0","1","null","6","null","6","null","6","1003.0","1","40.53774","17.423897"],
    [3176,"2024-05-12 07:00:00","18","grottaglie","13.31","1","61.59","1","0.0","1","null","6","null","6","null","6","1003.24","1","40.53774","17.423897"],
    [3177,"2024-05-12 08:00:00","18","grottaglie","18.46","1","41.65","1","0.0","1","null","6","null","6","null","6","1003.24","1","40.53774","17.423897"],
    [3178,"2024-05-12 09:00:00","18","grottaglie","22.17","1","29.41","1","0.0","1","null","6","null","6","null","6","1002.79","1","40.53774","17.423897"],
    [3179,"2024-05-12 10:00:00","18","grottaglie","22.41","1","30.15","1","0.0","1","null","6","null","6","null","6","1002.92","1","40.53774","17.423897"],
    [3180,"2024-05-12 11:00:00","18","grottaglie","24.31","1","28.32","1","0.0","1","null","6","null","6","null","6","1002.74","1","40.53774","17.423897"],
    [3181,"2024-05-12 12:00:00","18","grottaglie","24.5","1","27.86","1","0.0","1","null","6","null","6","null","6","1002.34","1","40.53774","17.423897"],
    [3182,"2024-05-12 13:00:00","18","grottaglie","24.28","1","26.7","1","0.0","1","null","6","null","6","null","6","1002.17","1","40.53774","17.423897"],
    [3183,"2024-05-12 14:00:00","18","grottaglie","24.42","1","26.53","1","0.0","1","null","6","null","6","null","6","1002.32","1","40.53774","17.423897"],
    [3184,"2024-05-12 15:00:00","18","grottaglie","25.42","1","27.08","1","0.0","1","null","6","null","6","null","6","1002.15","1","40.53774","17.423897"],
    [3185,"2024-05-12 16:00:00","18","grottaglie","25.96","1","27.22","1","0.0","1","null","6","null","6","null","6","1001.89","1","40.53774","17.423897"],
    [3186,"2024-05-12 17:00:00","18","grottaglie","26.5","1","27.18","1","0.0","1","null","6","null","6","null","6","1001.54","1","40.53774","17.423897"],
    [3187,"2024-05-12 18:00:00","18","grottaglie","23.95","1","31.09","1","0.0","1","null","6","null","6","null","6","1001.41","1","40.53774","17.423897"],
    [3188,"2024-05-12 19:00:00","18","grottaglie","20.74","1","41.97","1","0.0","1","null","6","null","6","null","6","1001.96","1","40.53774","17.423897"],
    [3189,"2024-05-12 20:00:00","18","grottaglie","18.31","1","47.8","1","0.0","1","null","6","null","6","null","6","1002.1","1","40.53774","17.423897"],
    [3190,"2024-05-12 21:00:00","18","grottaglie","17.82","1","43.41","1","0.0","1","null","6","null","6","null","6","1002.47","1","40.53774","17.423897"],
    [3191,"2024-05-12 22:00:00","18","grottaglie","17.73","1","45.16","1","0.0","1","null","6","null","6","null","6","1002.44","1","40.53774","17.423897"],
    [3192,"2024-05-12 23:00:00","18","grottaglie","15.8","1","54.46","1","0.0","1","null","6","null","6","null","6","1002.41","1","40.53774","17.423897"],
    [3193,"2024-05-13 00:00:00","18","grottaglie","14.64","1","58.75","1","0.0","1","null","6","null","6","null","6","1002.4","1","40.53774","17.423897"],
    [3194,"2024-05-13 01:00:00","18","grottaglie","14.46","1","60.08","1","0.0","1","null","6","null","6","null","6","1002.02","1","40.53774","17.423897"],
    [3195,"2024-05-13 02:00:00","18","grottaglie","15.29","1","53.57","1","0.0","1","null","6","null","6","null","6","1001.88","1","40.53774","17.423897"],
    [3196,"2024-05-13 03:00:00","18","grottaglie","15.4","1","51.69","1","0.0","1","null","6","null","6","null","6","1001.69","1","40.53774","17.423897"],
    [3197,"2024-05-13 04:00:00","18","grottaglie","12.85","1","63.21","1","0.0","1","null","6","null","6","null","6","1001.61","1","40.53774","17.423897"],
    [3198,"2024-05-13 05:00:00","18","grottaglie","12.35","1","64.84","1","0.0","1","null","6","null","6","null","6","1001.66","1","40.53774","17.423897"],
    [3199,"2024-05-13 06:00:00","18","grottaglie","13.56","1","60.82","1","0.0","1","null","6","null","6","null","6","1001.79","1","40.53774","17.423897"],
    [3200,"2024-05-13 07:00:00","18","grottaglie","14.41","1","60.84","1","0.0","1","null","6","null","6","null","6","1002.24","1","40.53774","17.423897"],
    [3201,"2024-05-13 08:00:00","18","grottaglie","19.42","1","40.49","1","0.0","1","null","6","null","6","null","6","1002.15","1","40.53774","17.423897"],
    [3202,"2024-05-13 09:00:00","18","grottaglie","23.21","1","32.31","1","0.0","1","null","6","null","6","null","6","1001.43","1","40.53774","17.423897"],
    [3203,"2024-05-13 10:00:00","18","grottaglie","24.23","1","32.04","1","0.0","1","null","6","null","6","null","6","1001.13","1","40.53774","17.423897"],
    [3204,"2024-05-13 11:00:00","18","grottaglie","23.81","1","35.53","1","0.0","1","null","6","null","6","null","6","1000.92","1","40.53774","17.423897"],
    [3205,"2024-05-13 12:00:00","18","grottaglie","23.92","1","36.49","1","0.0","1","null","6","null","6","null","6","1000.7","1","40.53774","17.423897"],
    [3206,"2024-05-13 13:00:00","18","grottaglie","24.81","1","35.06","1","0.0","1","null","6","null","6","null","6","1000.41","1","40.53774","17.423897"],
    [3207,"2024-05-13 14:00:00","18","grottaglie","25.48","1","30.79","1","0.0","1","null","6","null","6","null","6","1000.11","1","40.53774","17.423897"],
    [3208,"2024-05-13 15:00:00","18","grottaglie","26.66","1","28.42","1","0.0","1","null","6","null","6","null","6","999.92","1","40.53774","17.423897"],
    [3209,"2024-05-13 16:00:00","18","grottaglie","26.84","1","30.74","1","0.0","1","null","6","null","6","null","6","999.22","1","40.53774","17.423897"],
    [3210,"2024-05-13 17:00:00","18","grottaglie","24.79","1","38.76","1","0.0","1","null","6","null","6","null","6","999.08","1","40.53774","17.423897"],
    [3211,"2024-05-13 18:00:00","18","grottaglie","22.97","1","51.39","1","0.0","1","null","6","null","6","null","6","998.72","1","40.53774","17.423897"],
    [3212,"2024-05-13 19:00:00","18","grottaglie","20.27","1","55.89","1","0.0","1","null","6","null","6","null","6","998.68","1","40.53774","17.423897"],
    [3213,"2024-05-13 20:00:00","18","grottaglie","18.57","1","59.97","1","0.0","1","null","6","null","6","null","6","998.79","1","40.53774","17.423897"],
    [3214,"2024-05-13 21:00:00","18","grottaglie","18.16","1","66.07","1","0.0","1","null","6","null","6","null","6","998.83","1","40.53774","17.423897"],
    [3215,"2024-05-13 22:00:00","18","grottaglie","17.48","1","75.58","1","0.0","1","null","6","null","6","null","6","998.92","1","40.53774","17.423897"],
    [3216,"2024-05-13 23:00:00","18","grottaglie","17.43","1","79.31","1","0.0","1","null","6","null","6","null","6","998.42","1","40.53774","17.423897"],
    [3217,"2024-05-14 00:00:00","18","grottaglie","17.24","1","82.7","1","0.0","1","null","6","null","6","null","6","998.08","1","40.53774","17.423897"],
    [3218,"2024-05-14 01:00:00","18","grottaglie","17.18","1","84.59","1","0.0","1","null","6","null","6","null","6","997.84","1","40.53774","17.423897"],
    [3219,"2024-05-14 02:00:00","18","grottaglie","17.21","1","84.68","1","0.0","1","null","6","null","6","null","6","997.18","1","40.53774","17.423897"],
    [3220,"2024-05-14 03:00:00","18","grottaglie","17.26","1","83.85","1","0.0","1","null","6","null","6","null","6","996.84","1","40.53774","17.423897"],
    [3221,"2024-05-14 04:00:00","18","grottaglie","17.3","1","81.06","1","0.0","1","null","6","null","6","null","6","996.6","1","40.53774","17.423897"],
    [3222,"2024-05-14 05:00:00","18","grottaglie","17.39","1","78.99","1","0.0","1","null","6","null","6","null","6","996.47","1","40.53774","17.423897"],
    [3223,"2024-05-14 06:00:00","18","grottaglie","17.48","1","78.45","1","0.0","1","null","6","null","6","null","6","996.65","1","40.53774","17.423897"],
    [3224,"2024-05-14 07:00:00","18","grottaglie","17.79","1","77.92","1","0.0","1","null","6","null","6","null","6","996.71","1","40.53774","17.423897"],
    [3225,"2024-05-14 08:00:00","18","grottaglie","18.17","1","76.13","1","0.0","1","null","6","null","6","null","6","996.9","1","40.53774","17.423897"],
    [3226,"2024-05-14 09:00:00","18","grottaglie","20.82","1","61.1","1","0.0","1","null","6","null","6","null","6","996.93","1","40.53774","17.423897"],
    [3227,"2024-05-14 10:00:00","18","grottaglie","21.13","1","60.9","1","0.0","1","null","6","null","6","null","6","996.99","1","40.53774","17.423897"],
    [3228,"2024-05-14 11:00:00","18","grottaglie","22.01","1","57.83","1","0.0","1","null","6","null","6","null","6","996.98","1","40.53774","17.423897"],
    [3229,"2024-05-14 12:00:00","18","grottaglie","22.51","1","52.47","1","0.0","1","null","6","null","6","null","6","997.05","1","40.53774","17.423897"],
    [3230,"2024-05-14 13:00:00","18","grottaglie","22.87","1","52.18","1","0.0","1","null","6","null","6","null","6","996.7","1","40.53774","17.423897"],
    [3231,"2024-05-14 14:00:00","18","grottaglie","24.6","1","48.42","1","0.0","1","null","6","null","6","null","6","996.31","1","40.53774","17.423897"],
    [3232,"2024-05-14 15:00:00","18","grottaglie","23.37","1","54.03","1","0.0","1","null","6","null","6","null","6","995.94","1","40.53774","17.423897"],
    [3233,"2024-05-14 16:00:00","18","grottaglie","21.47","1","60.97","1","0.0","1","null","6","null","6","null","6","995.72","1","40.53774","17.423897"],
    [3234,"2024-05-14 17:00:00","18","grottaglie","20.06","1","66.99","1","0.0","1","null","6","null","6","null","6","995.8","1","40.53774","17.423897"],
    [3235,"2024-05-14 18:00:00","18","grottaglie","19.33","1","71.46","1","0.0","1","null","6","null","6","null","6","995.9","1","40.53774","17.423897"],
    [3236,"2024-05-14 19:00:00","18","grottaglie","18.59","1","74.37","1","0.0","1","null","6","null","6","null","6","996.14","1","40.53774","17.423897"],
    [3237,"2024-05-14 20:00:00","18","grottaglie","18.19","1","74.87","1","0.0","1","null","6","null","6","null","6","996.72","1","40.53774","17.423897"],
    [3238,"2024-05-14 21:00:00","18","grottaglie","17.9","1","77.84","1","0.0","1","null","6","null","6","null","6","997.15","1","40.53774","17.423897"],
    [3239,"2024-05-14 22:00:00","18","grottaglie","17.32","1","82.44","1","0.0","1","null","6","null","6","null","6","997.37","1","40.53774","17.423897"],
    [3240,"2024-05-14 23:00:00","18","grottaglie","17.45","1","82.16","1","0.0","1","null","6","null","6","null","6","997.28","1","40.53774","17.423897"],
    [3241,"2024-05-15 00:00:00","18","grottaglie","17.58","1","81.29","1","0.0","1","null","6","null","6","null","6","997.16","1","40.53774","17.423897"],
    [3242,"2024-05-15 01:00:00","18","grottaglie","17.61","1","80.54","1","0.0","1","null","6","null","6","null","6","996.94","1","40.53774","17.423897"],
    [3243,"2024-05-15 02:00:00","18","grottaglie","17.54","1","81.26","1","0.0","1","null","6","null","6","null","6","996.39","1","40.53774","17.423897"],
    [3244,"2024-05-15 03:00:00","18","grottaglie","17.47","1","82.27","1","0.0","1","null","6","null","6","null","6","996.19","1","40.53774","17.423897"],
    [3245,"2024-05-15 04:00:00","18","grottaglie","17.46","1","82.77","1","0.0","1","null","6","null","6","null","6","995.88","1","40.53774","17.423897"],
    [3246,"2024-05-15 05:00:00","18","grottaglie","17.5","1","83.27","1","0.0","1","null","6","null","6","null","6","995.87","1","40.53774","17.423897"],
    [3247,"2024-05-15 06:00:00","18","grottaglie","17.66","1","82.35","1","0.0","1","null","6","null","6","null","6","996.14","1","40.53774","17.423897"],
    [3248,"2024-05-15 07:00:00","18","grottaglie","18.09","1","80.08","1","0.0","1","null","6","null","6","null","6","996.51","1","40.53774","17.423897"],
    [3249,"2024-05-15 08:00:00","18","grottaglie","18.55","1","78.35","1","0.0","1","null","6","null","6","null","6","996.91","1","40.53774","17.423897"],
    [3250,"2024-05-15 09:00:00","18","grottaglie","18.51","1","79.72","1","0.0","1","null","6","null","6","null","6","997.08","1","40.53774","17.423897"],
    [3251,"2024-05-15 10:00:00","18","grottaglie","19.54","1","71.74","1","0.0","1","null","6","null","6","null","6","997.18","1","40.53774","17.423897"],
    [3252,"2024-05-15 11:00:00","18","grottaglie","20.53","1","66.05","1","0.0","1","null","6","null","6","null","6","997.33","1","40.53774","17.423897"],
    [3253,"2024-05-15 12:00:00","18","grottaglie","20.49","1","64.69","1","0.0","1","null","6","null","6","null","6","997.34","1","40.53774","17.423897"],
    [3254,"2024-05-15 13:00:00","18","grottaglie","21.49","1","60.63","1","0.0","1","null","6","null","6","null","6","997.36","1","40.53774","17.423897"],
    [3255,"2024-05-15 14:00:00","18","grottaglie","22.05","1","57.97","1","0.0","1","null","6","null","6","null","6","997.03","1","40.53774","17.423897"],
    [3256,"2024-05-15 15:00:00","18","grottaglie","22.95","1","55.74","1","0.0","1","null","6","null","6","null","6","996.79","1","40.53774","17.423897"],
    [3257,"2024-05-15 16:00:00","18","grottaglie","21.02","1","60.45","1","0.0","1","null","6","null","6","null","6","996.68","1","40.53774","17.423897"],
    [3258,"2024-05-15 17:00:00","18","grottaglie","20.25","1","63.3","1","0.0","1","null","6","null","6","null","6","996.56","1","40.53774","17.423897"],
    [3259,"2024-05-15 18:00:00","18","grottaglie","19.22","1","68.47","1","0.0","1","null","6","null","6","null","6","996.49","1","40.53774","17.423897"],
    [3260,"2024-05-15 19:00:00","18","grottaglie","18.58","1","72.02","1","0.0","1","null","6","null","6","null","6","996.32","1","40.53774","17.423897"],
    [3261,"2024-05-15 20:00:00","18","grottaglie","17.48","1","77.66","1","0.0","1","null","6","null","6","null","6","996.46","1","40.53774","17.423897"],
    [3262,"2024-05-15 21:00:00","18","grottaglie","17.05","1","81.28","1","0.0","1","null","6","null","6","null","6","997.06","1","40.53774","17.423897"],
    [3263,"2024-05-15 22:00:00","18","grottaglie","17.23","1","82.64","1","0.0","1","null","6","null","6","null","6","997.56","1","40.53774","17.423897"],
    [3264,"2024-05-15 23:00:00","18","grottaglie","17.07","1","86.05","1","0.6","1","null","6","null","6","null","6","997.11","1","40.53774","17.423897"],
    [3265,"2024-05-16 00:00:00","18","grottaglie","16.97","1","90.23","1","0.2","1","null","6","null","6","null","6","997.22","1","40.53774","17.423897"],
    [3266,"2024-05-16 01:00:00","18","grottaglie","17.27","1","90.56","1","0.0","1","null","6","null","6","null","6","996.72","1","40.53774","17.423897"],
    [3267,"2024-05-16 02:00:00","18","grottaglie","17.44","1","90.09","1","0.0","1","null","6","null","6","null","6","996.24","1","40.53774","17.423897"],
    [3268,"2024-05-16 03:00:00","18","grottaglie","17.57","1","89.65","1","0.0","1","null","6","null","6","null","6","995.93","1","40.53774","17.423897"],
    [3269,"2024-05-16 04:00:00","18","grottaglie","17.61","1","88.98","1","0.0","1","null","6","null","6","null","6","995.86","1","40.53774","17.423897"],
    [3270,"2024-05-16 05:00:00","18","grottaglie","17.66","1","87.26","1","0.0","1","null","6","null","6","null","6","995.65","1","40.53774","17.423897"],
    [3271,"2024-05-16 06:00:00","18","grottaglie","17.85","1","87.19","1","0.0","1","null","6","null","6","null","6","995.71","1","40.53774","17.423897"],
    [3272,"2024-05-16 07:00:00","18","grottaglie","18.2","1","85.67","1","0.0","1","null","6","null","6","null","6","995.69","1","40.53774","17.423897"],
    [3273,"2024-05-16 08:00:00","18","grottaglie","17.88","1","88.99","1","0.0","1","null","6","null","6","null","6","995.78","1","40.53774","17.423897"],
    [3274,"2024-05-16 09:00:00","18","grottaglie","17.95","1","86.44","1","0.0","1","null","6","null","6","null","6","994.83","1","40.53774","17.423897"],
    [3275,"2024-05-16 10:00:00","18","grottaglie","19.98","1","71.54","1","0.0","1","null","6","null","6","null","6","994.2","1","40.53774","17.423897"],
    [3276,"2024-05-16 11:00:00","18","grottaglie","21.14","1","64.96","1","0.2","1","null","6","null","6","null","6","994.47","1","40.53774","17.423897"],
    [3277,"2024-05-16 12:00:00","18","grottaglie","22.17","1","61.81","1","0.0","1","null","6","null","6","null","6","994.26","1","40.53774","17.423897"],
    [3278,"2024-05-16 13:00:00","18","grottaglie","23.33","1","56.68","1","0.0","1","null","6","null","6","null","6","994.27","1","40.53774","17.423897"],
    [3279,"2024-05-16 14:00:00","18","grottaglie","24.22","1","54.07","1","0.0","1","null","6","null","6","null","6","993.5","1","40.53774","17.423897"],
    [3280,"2024-05-16 15:00:00","18","grottaglie","23.66","1","55.43","1","0.0","1","null","6","null","6","null","6","993.17","1","40.53774","17.423897"],
    [3281,"2024-05-16 16:00:00","18","grottaglie","23.29","1","55.21","1","0.0","1","null","6","null","6","null","6","992.62","1","40.53774","17.423897"],
    [3282,"2024-05-16 17:00:00","18","grottaglie","21.85","1","61.0","1","0.0","1","null","6","null","6","null","6","992.35","1","40.53774","17.423897"],
    [3283,"2024-05-16 18:00:00","18","grottaglie","20.55","1","67.66","1","0.0","1","null","6","null","6","null","6","992.58","1","40.53774","17.423897"],
    [3284,"2024-05-16 19:00:00","18","grottaglie","19.72","1","72.58","1","0.0","1","null","6","null","6","null","6","993.07","1","40.53774","17.423897"],
    [3285,"2024-05-16 20:00:00","18","grottaglie","18.98","1","76.86","1","0.0","1","null","6","null","6","null","6","993.34","1","40.53774","17.423897"],
    [3286,"2024-05-16 21:00:00","18","grottaglie","18.73","1","78.61","1","0.0","1","null","6","null","6","null","6","994.1","1","40.53774","17.423897"],
    [3287,"2024-05-16 22:00:00","18","grottaglie","18.59","1","80.4","1","0.0","1","null","6","null","6","null","6","994.93","1","40.53774","17.423897"],
    [3288,"2024-05-16 23:00:00","18","grottaglie","18.57","1","81.41","1","0.0","1","null","6","null","6","null","6","995.18","1","40.53774","17.423897"],
    [3289,"2024-05-17 00:00:00","18","grottaglie","18.48","1","83.1","1","0.0","1","null","6","null","6","null","6","994.99","1","40.53774","17.423897"],
    [3290,"2024-05-17 01:00:00","18","grottaglie","18.41","1","84.68","1","0.0","1","null","6","null","6","null","6","995.15","1","40.53774","17.423897"],
    [3291,"2024-05-17 02:00:00","18","grottaglie","18.39","1","85.38","1","0.0","1","null","6","null","6","null","6","995.32","1","40.53774","17.423897"],
    [3292,"2024-05-17 03:00:00","18","grottaglie","18.36","1","85.75","1","0.0","1","null","6","null","6","null","6","995.46","1","40.53774","17.423897"],
    [3293,"2024-05-17 04:00:00","18","grottaglie","18.28","1","85.89","1","0.0","1","null","6","null","6","null","6","995.37","1","40.53774","17.423897"],
    [3294,"2024-05-17 05:00:00","18","grottaglie","18.14","1","86.68","1","0.0","1","null","6","null","6","null","6","995.74","1","40.53774","17.423897"],
    [3295,"2024-05-17 06:00:00","18","grottaglie","18.1","1","87.96","1","0.0","1","null","6","null","6","null","6","996.33","1","40.53774","17.423897"],
    [3296,"2024-05-17 07:00:00","18","grottaglie","18.51","1","86.11","1","0.0","1","null","6","null","6","null","6","996.8","1","40.53774","17.423897"],
    [3297,"2024-05-17 08:00:00","18","grottaglie","20.43","1","75.67","1","0.0","1","null","6","null","6","null","6","996.82","1","40.53774","17.423897"],
    [3298,"2024-05-17 09:00:00","18","grottaglie","22.97","1","61.52","1","0.0","1","null","6","null","6","null","6","996.72","1","40.53774","17.423897"],
    [3299,"2024-05-17 10:00:00","18","grottaglie","24.76","1","51.99","1","0.0","1","null","6","null","6","null","6","997.07","1","40.53774","17.423897"],
    [3300,"2024-05-17 11:00:00","18","grottaglie","26.78","1","42.07","1","0.0","1","null","6","null","6","null","6","997.01","1","40.53774","17.423897"],
    [3301,"2024-05-17 12:00:00","18","grottaglie","28.94","1","31.01","1","0.0","1","null","6","null","6","null","6","996.74","1","40.53774","17.423897"],
    [3302,"2024-05-17 13:00:00","18","grottaglie","28.31","1","39.78","1","0.0","1","null","6","null","6","null","6","996.74","1","40.53774","17.423897"],
    [3303,"2024-05-17 14:00:00","18","grottaglie","31.48","1","29.28","1","0.0","1","null","6","null","6","null","6","996.85","1","40.53774","17.423897"],
    [3304,"2024-05-17 15:00:00","18","grottaglie","30.35","1","29.9","1","0.0","1","null","6","null","6","null","6","997.38","1","40.53774","17.423897"],
    [3305,"2024-05-17 16:00:00","18","grottaglie","30.4","1","29.87","1","0.0","1","null","6","null","6","null","6","997.55","1","40.53774","17.423897"],
    [3306,"2024-05-17 17:00:00","18","grottaglie","29.45","1","29.69","1","0.0","1","null","6","null","6","null","6","997.36","1","40.53774","17.423897"],
    [3307,"2024-05-17 18:00:00","18","grottaglie","28.1","1","29.05","1","0.0","1","null","6","null","6","null","6","997.49","1","40.53774","17.423897"],
    [3308,"2024-05-17 19:00:00","18","grottaglie","25.08","1","49.24","1","0.0","1","null","6","null","6","null","6","997.77","1","40.53774","17.423897"],
    [3309,"2024-05-17 20:00:00","18","grottaglie","20.66","1","75.19","1","0.0","1","null","6","null","6","null","6","998.53","1","40.53774","17.423897"],
    [3310,"2024-05-17 21:00:00","18","grottaglie","19.4","1","79.2","1","0.0","1","null","6","null","6","null","6","999.21","1","40.53774","17.423897"],
    [3311,"2024-05-17 22:00:00","18","grottaglie","18.62","1","80.79","1","0.0","1","null","6","null","6","null","6","999.25","1","40.53774","17.423897"],
    [3312,"2024-05-17 23:00:00","18","grottaglie","17.79","1","83.98","1","0.0","1","null","6","null","6","null","6","999.39","1","40.53774","17.423897"],
    [3313,"2024-05-18 00:00:00","18","grottaglie","16.81","1","86.25","1","0.0","1","null","6","null","6","null","6","999.29","1","40.53774","17.423897"],
    [3314,"2024-05-18 01:00:00","18","grottaglie","16.12","1","88.59","1","0.0","1","null","6","null","6","null","6","998.91","1","40.53774","17.423897"],
    [3315,"2024-05-18 02:00:00","18","grottaglie","15.66","1","90.45","1","0.0","1","null","6","null","6","null","6","998.8","1","40.53774","17.423897"],
    [3316,"2024-05-18 03:00:00","18","grottaglie","16.84","1","91.28","1","0.0","1","null","6","null","6","null","6","998.67","1","40.53774","17.423897"],
    [3317,"2024-05-18 04:00:00","18","grottaglie","16.67","1","91.21","1","0.0","1","null","6","null","6","null","6","998.56","1","40.53774","17.423897"],
    [3318,"2024-05-18 05:00:00","18","grottaglie","16.61","1","91.59","1","0.0","1","null","6","null","6","null","6","998.89","1","40.53774","17.423897"],
    [3319,"2024-05-18 06:00:00","18","grottaglie","16.47","1","91.0","1","0.0","1","null","6","null","6","null","6","999.28","1","40.53774","17.423897"],
    [3320,"2024-05-18 07:00:00","18","grottaglie","17.42","1","87.95","1","0.0","1","null","6","null","6","null","6","999.33","1","40.53774","17.423897"],
    [3321,"2024-05-18 08:00:00","18","grottaglie","18.64","1","80.63","1","0.0","1","null","6","null","6","null","6","999.52","1","40.53774","17.423897"],
    [3322,"2024-05-18 09:00:00","18","grottaglie","21.32","1","69.74","1","0.0","1","null","6","null","6","null","6","999.52","1","40.53774","17.423897"],
    [3323,"2024-05-18 10:00:00","18","grottaglie","22.65","1","64.85","1","0.0","1","null","6","null","6","null","6","999.3","1","40.53774","17.423897"],
    [3324,"2024-05-18 11:00:00","18","grottaglie","23.73","1","60.93","1","0.0","1","null","6","null","6","null","6","999.43","1","40.53774","17.423897"],
    [3325,"2024-05-18 12:00:00","18","grottaglie","26.26","1","49.83","1","0.0","1","null","6","null","6","null","6","998.9","1","40.53774","17.423897"],
    [3326,"2024-05-18 13:00:00","18","grottaglie","27.33","1","44.12","1","0.0","1","null","6","null","6","null","6","998.29","1","40.53774","17.423897"],
    [3327,"2024-05-18 14:00:00","18","grottaglie","27.9","1","42.36","1","0.0","1","null","6","null","6","null","6","997.78","1","40.53774","17.423897"],
    [3328,"2024-05-18 15:00:00","18","grottaglie","27.34","1","45.7","1","0.0","1","null","6","null","6","null","6","996.74","1","40.53774","17.423897"],
    [3329,"2024-05-18 16:00:00","18","grottaglie","23.21","1","62.95","1","0.0","1","null","6","null","6","null","6","997.38","1","40.53774","17.423897"],
    [3330,"2024-05-18 17:00:00","18","grottaglie","19.35","1","86.41","1","0.4","1","null","6","null","6","null","6","998.77","1","40.53774","17.423897"],
    [3331,"2024-05-18 18:00:00","18","grottaglie","19.29","1","85.09","1","0.0","1","null","6","null","6","null","6","997.91","1","40.53774","17.423897"],
    [3332,"2024-05-18 19:00:00","18","grottaglie","18.74","1","74.4","1","1.0","1","null","6","null","6","null","6","998.25","1","40.53774","17.423897"],
    [3333,"2024-05-18 20:00:00","18","grottaglie","16.73","1","87.13","1","5.4","1","null","6","null","6","null","6","998.81","1","40.53774","17.423897"],
    [3334,"2024-05-18 21:00:00","18","grottaglie","16.59","1","91.01","1","0.6","1","null","6","null","6","null","6","999.0","1","40.53774","17.423897"],
    [3335,"2024-05-18 22:00:00","18","grottaglie","16.74","1","92.27","1","0.4","1","null","6","null","6","null","6","998.69","1","40.53774","17.423897"],
    [3336,"2024-05-18 23:00:00","18","grottaglie","16.83","1","93.68","1","0.0","1","null","6","null","6","null","6","998.6","1","40.53774","17.423897"],
    [3337,"2024-05-19 00:00:00","18","grottaglie","16.86","1","94.96","1","0.2","1","null","6","null","6","null","6","998.48","1","40.53774","17.423897"],
    [3338,"2024-05-19 01:00:00","18","grottaglie","16.61","1","95.73","1","0.2","1","null","6","null","6","null","6","997.55","1","40.53774","17.423897"],
    [3339,"2024-05-19 02:00:00","18","grottaglie","16.32","1","96.6","1","0.0","1","null","6","null","6","null","6","997.36","1","40.53774","17.423897"],
    [3340,"2024-05-19 03:00:00","18","grottaglie","16.44","1","96.64","1","0.0","1","null","6","null","6","null","6","996.77","1","40.53774","17.423897"],
    [3341,"2024-05-19 04:00:00","18","grottaglie","16.27","1","96.65","1","0.0","1","null","6","null","6","null","6","996.68","1","40.53774","17.423897"],
    [3342,"2024-05-19 05:00:00","18","grottaglie","16.17","1","96.67","1","0.0","1","null","6","null","6","null","6","996.96","1","40.53774","17.423897"],
    [3343,"2024-05-19 06:00:00","18","grottaglie","16.29","1","96.66","1","0.0","1","null","6","null","6","null","6","997.27","1","40.53774","17.423897"],
    [3344,"2024-05-19 07:00:00","18","grottaglie","17.53","1","96.42","1","0.0","1","null","6","null","6","null","6","997.62","1","40.53774","17.423897"],
    [3345,"2024-05-19 08:00:00","18","grottaglie","19.28","1","90.14","1","0.0","1","null","6","null","6","null","6","998.13","1","40.53774","17.423897"],
    [3346,"2024-05-19 09:00:00","18","grottaglie","21.41","1","74.87","1","0.0","1","null","6","null","6","null","6","998.28","1","40.53774","17.423897"],
    [3347,"2024-05-19 10:00:00","18","grottaglie","24.04","1","63.82","1","0.0","1","null","6","null","6","null","6","997.86","1","40.53774","17.423897"],
    [3348,"2024-05-19 11:00:00","18","grottaglie","25.48","1","59.16","1","0.0","1","null","6","null","6","null","6","997.85","1","40.53774","17.423897"],
    [3349,"2024-05-19 12:00:00","18","grottaglie","27.05","1","53.3","1","0.0","1","null","6","null","6","null","6","997.14","1","40.53774","17.423897"],
    [3350,"2024-05-19 13:00:00","18","grottaglie","28.21","1","49.84","1","0.0","1","null","6","null","6","null","6","997.0","1","40.53774","17.423897"],
    [3351,"2024-05-19 14:00:00","18","grottaglie","28.12","1","50.8","1","0.0","1","null","6","null","6","null","6","996.76","1","40.53774","17.423897"],
    [3352,"2024-05-19 15:00:00","18","grottaglie","25.64","1","59.42","1","0.0","1","null","6","null","6","null","6","996.47","1","40.53774","17.423897"],
    [3353,"2024-05-19 16:00:00","18","grottaglie","24.89","1","59.9","1","0.0","1","null","6","null","6","null","6","996.32","1","40.53774","17.423897"],
    [3354,"2024-05-19 17:00:00","18","grottaglie","22.11","1","69.42","1","0.0","1","null","6","null","6","null","6","996.14","1","40.53774","17.423897"],
    [3355,"2024-05-19 18:00:00","18","grottaglie","22.09","1","66.66","1","0.0","1","null","6","null","6","null","6","995.83","1","40.53774","17.423897"],
    [3356,"2024-05-19 19:00:00","18","grottaglie","21.1","1","70.51","1","0.0","1","null","6","null","6","null","6","995.26","1","40.53774","17.423897"],
    [3357,"2024-05-19 20:00:00","18","grottaglie","20.36","1","74.8","1","0.0","1","null","6","null","6","null","6","995.16","1","40.53774","17.423897"],
    [3358,"2024-05-19 21:00:00","18","grottaglie","20.59","1","70.85","1","0.0","1","null","6","null","6","null","6","995.67","1","40.53774","17.423897"],
    [3359,"2024-05-19 22:00:00","18","grottaglie","19.57","1","80.37","1","0.0","1","null","6","null","6","null","6","996.14","1","40.53774","17.423897"],
    [3360,"2024-05-19 23:00:00","18","grottaglie","18.71","1","84.46","1","0.0","1","null","6","null","6","null","6","996.59","1","40.53774","17.423897"],
    [3361,"2024-05-20 00:00:00","18","grottaglie","17.91","1","86.81","1","0.0","1","null","6","null","6","null","6","996.59","1","40.53774","17.423897"],
    [3362,"2024-05-20 01:00:00","18","grottaglie","17.33","1","89.43","1","0.0","1","null","6","null","6","null","6","996.39","1","40.53774","17.423897"],
    [3363,"2024-05-20 02:00:00","18","grottaglie","17.11","1","90.83","1","0.0","1","null","6","null","6","null","6","996.04","1","40.53774","17.423897"],
    [3364,"2024-05-20 03:00:00","18","grottaglie","16.54","1","91.05","1","0.0","1","null","6","null","6","null","6","996.09","1","40.53774","17.423897"],
    [3365,"2024-05-20 04:00:00","18","grottaglie","16.22","1","92.64","1","0.0","1","null","6","null","6","null","6","996.23","1","40.53774","17.423897"],
    [3366,"2024-05-20 05:00:00","18","grottaglie","16.22","1","93.79","1","0.0","1","null","6","null","6","null","6","996.35","1","40.53774","17.423897"],
    [3367,"2024-05-20 06:00:00","18","grottaglie","16.26","1","94.34","1","0.0","1","null","6","null","6","null","6","996.55","1","40.53774","17.423897"],
    [3368,"2024-05-20 07:00:00","18","grottaglie","17.81","1","92.45","1","0.0","1","null","6","null","6","null","6","996.84","1","40.53774","17.423897"],
    [3369,"2024-05-20 08:00:00","18","grottaglie","20.75","1","78.01","1","0.0","1","null","6","null","6","null","6","997.14","1","40.53774","17.423897"],
    [3370,"2024-05-20 09:00:00","18","grottaglie","22.68","1","68.39","1","0.0","1","null","6","null","6","null","6","996.62","1","40.53774","17.423897"],
    [3371,"2024-05-20 10:00:00","18","grottaglie","25.3","1","59.43","1","0.0","1","null","6","null","6","null","6","996.42","1","40.53774","17.423897"],
    [3372,"2024-05-20 11:00:00","18","grottaglie","26.58","1","53.53","1","0.0","1","null","6","null","6","null","6","995.98","1","40.53774","17.423897"],
    [3373,"2024-05-20 12:00:00","18","grottaglie","28.32","1","48.25","1","0.0","1","null","6","null","6","null","6","995.91","1","40.53774","17.423897"],
    [3374,"2024-05-20 13:00:00","18","grottaglie","29.52","1","44.18","1","0.0","1","null","6","null","6","null","6","995.88","1","40.53774","17.423897"],
    [3375,"2024-05-20 14:00:00","18","grottaglie","28.03","1","49.76","1","0.0","1","null","6","null","6","null","6","995.45","1","40.53774","17.423897"],
    [3376,"2024-05-20 15:00:00","18","grottaglie","27.23","1","54.11","1","0.0","1","null","6","null","6","null","6","995.25","1","40.53774","17.423897"],
    [3377,"2024-05-20 16:00:00","18","grottaglie","28.4","1","49.14","1","0.0","1","null","6","null","6","null","6","995.03","1","40.53774","17.423897"],
    [3378,"2024-05-20 17:00:00","18","grottaglie","28.03","1","49.54","1","0.0","1","null","6","null","6","null","6","994.48","1","40.53774","17.423897"],
    [3379,"2024-05-20 18:00:00","18","grottaglie","25.77","1","53.59","1","0.0","1","null","6","null","6","null","6","994.47","1","40.53774","17.423897"],
    [3380,"2024-05-20 19:00:00","18","grottaglie","23.51","1","57.54","1","0.0","1","null","6","null","6","null","6","994.28","1","40.53774","17.423897"],
    [3381,"2024-05-20 20:00:00","18","grottaglie","20.91","1","66.66","1","0.0","1","null","6","null","6","null","6","994.37","1","40.53774","17.423897"],
    [3382,"2024-05-20 21:00:00","18","grottaglie","19.99","1","66.87","1","0.0","1","null","6","null","6","null","6","994.55","1","40.53774","17.423897"],
    [3383,"2024-05-20 22:00:00","18","grottaglie","20.45","1","60.98","1","0.0","1","null","6","null","6","null","6","994.28","1","40.53774","17.423897"],
    [3384,"2024-05-20 23:00:00","18","grottaglie","20.47","1","58.42","1","0.0","1","null","6","null","6","null","6","994.06","1","40.53774","17.423897"],
    [3385,"2024-05-21 00:00:00","18","grottaglie","19.68","1","64.63","1","0.0","1","null","6","null","6","null","6","993.84","1","40.53774","17.423897"],
    [3386,"2024-05-21 01:00:00","18","grottaglie","19.56","1","66.82","1","0.0","1","null","6","null","6","null","6","993.57","1","40.53774","17.423897"],
    [3387,"2024-05-21 02:00:00","18","grottaglie","19.24","1","70.74","1","0.0","1","null","6","null","6","null","6","993.39","1","40.53774","17.423897"],
    [3388,"2024-05-21 03:00:00","18","grottaglie","18.98","1","78.18","1","0.0","1","null","6","null","6","null","6","992.98","1","40.53774","17.423897"],
    [3389,"2024-05-21 04:00:00","18","grottaglie","18.7","1","81.46","1","0.0","1","null","6","null","6","null","6","992.59","1","40.53774","17.423897"],
    [3390,"2024-05-21 05:00:00","18","grottaglie","17.99","1","83.07","1","0.0","1","null","6","null","6","null","6","992.41","1","40.53774","17.423897"],
    [3391,"2024-05-21 06:00:00","18","grottaglie","18.04","1","86.61","1","0.0","1","null","6","null","6","null","6","992.92","1","40.53774","17.423897"],
    [3392,"2024-05-21 07:00:00","18","grottaglie","19.48","1","85.51","1","0.0","1","null","6","null","6","null","6","993.12","1","40.53774","17.423897"],
    [3393,"2024-05-21 08:00:00","18","grottaglie","21.14","1","75.57","1","0.0","1","null","6","null","6","null","6","993.02","1","40.53774","17.423897"],
    [3394,"2024-05-21 09:00:00","18","grottaglie","23.21","1","62.08","1","0.0","1","null","6","null","6","null","6","993.11","1","40.53774","17.423897"],
    [3395,"2024-05-21 10:00:00","18","grottaglie","25.11","1","53.31","1","0.0","1","null","6","null","6","null","6","993.5","1","40.53774","17.423897"],
    [3396,"2024-05-21 11:00:00","18","grottaglie","26.12","1","49.14","1","0.0","1","null","6","null","6","null","6","993.98","1","40.53774","17.423897"],
    [3397,"2024-05-21 12:00:00","18","grottaglie","26.81","1","45.83","1","0.0","1","null","6","null","6","null","6","994.21","1","40.53774","17.423897"],
    [3398,"2024-05-21 13:00:00","18","grottaglie","26.87","1","43.62","1","0.0","1","null","6","null","6","null","6","994.43","1","40.53774","17.423897"],
    [3399,"2024-05-21 14:00:00","18","grottaglie","26.98","1","41.37","1","0.0","1","null","6","null","6","null","6","994.37","1","40.53774","17.423897"],
    [3400,"2024-05-21 15:00:00","18","grottaglie","26.91","1","40.05","1","0.0","1","null","6","null","6","null","6","994.3","1","40.53774","17.423897"],
    [3401,"2024-05-21 16:00:00","18","grottaglie","27.08","1","39.82","1","0.0","1","null","6","null","6","null","6","994.27","1","40.53774","17.423897"],
    [3402,"2024-05-21 17:00:00","18","grottaglie","26.73","1","37.46","1","0.0","1","null","6","null","6","null","6","994.42","1","40.53774","17.423897"],
    [3403,"2024-05-21 18:00:00","18","grottaglie","25.79","1","40.07","1","0.0","1","null","6","null","6","null","6","994.55","1","40.53774","17.423897"],
    [3404,"2024-05-21 19:00:00","18","grottaglie","23.8","1","46.75","1","0.0","1","null","6","null","6","null","6","994.4","1","40.53774","17.423897"],
    [3405,"2024-05-21 20:00:00","18","grottaglie","22.28","1","51.35","1","0.0","1","null","6","null","6","null","6","994.91","1","40.53774","17.423897"],
    [3406,"2024-05-21 21:00:00","18","grottaglie","21.15","1","49.08","1","0.0","1","null","6","null","6","null","6","996.0","1","40.53774","17.423897"],
    [3407,"2024-05-21 22:00:00","18","grottaglie","20.37","1","47.01","1","0.0","1","null","6","null","6","null","6","996.9","1","40.53774","17.423897"],
    [3408,"2024-05-21 23:00:00","18","grottaglie","19.64","1","47.6","1","0.0","1","null","6","null","6","null","6","997.45","1","40.53774","17.423897"],
    [3409,"2024-05-22 00:00:00","18","grottaglie","18.54","1","49.32","1","0.0","1","null","6","null","6","null","6","997.76","1","40.53774","17.423897"],
    [3410,"2024-05-22 01:00:00","18","grottaglie","17.51","1","52.11","1","0.0","1","null","6","null","6","null","6","997.8","1","40.53774","17.423897"],
    [3411,"2024-05-22 02:00:00","18","grottaglie","16.56","1","54.89","1","0.0","1","null","6","null","6","null","6","997.84","1","40.53774","17.423897"],
    [3412,"2024-05-22 03:00:00","18","grottaglie","15.54","1","58.31","1","0.0","1","null","6","null","6","null","6","997.84","1","40.53774","17.423897"],
    [3413,"2024-05-22 04:00:00","18","grottaglie","14.83","1","60.63","1","0.0","1","null","6","null","6","null","6","998.03","1","40.53774","17.423897"],
    [3414,"2024-05-22 05:00:00","18","grottaglie","15.17","1","58.23","1","0.0","1","null","6","null","6","null","6","998.07","1","40.53774","17.423897"],
    [3415,"2024-05-22 06:00:00","18","grottaglie","15.56","1","57.86","1","0.0","1","null","6","null","6","null","6","998.59","1","40.53774","17.423897"],
    [3416,"2024-05-22 07:00:00","18","grottaglie","17.03","1","55.08","1","0.0","1","null","6","null","6","null","6","998.79","1","40.53774","17.423897"],
    [3417,"2024-05-22 08:00:00","18","grottaglie","20.09","1","45.89","1","0.0","1","null","6","null","6","null","6","998.85","1","40.53774","17.423897"],
    [3418,"2024-05-22 09:00:00","18","grottaglie","21.72","1","41.88","1","0.0","1","null","6","null","6","null","6","998.73","1","40.53774","17.423897"],
    [3419,"2024-05-22 10:00:00","18","grottaglie","22.84","1","38.11","1","0.0","1","null","6","null","6","null","6","998.63","1","40.53774","17.423897"],
    [3420,"2024-05-22 11:00:00","18","grottaglie","24.03","1","33.36","1","0.0","1","null","6","null","6","null","6","998.7","1","40.53774","17.423897"],
    [3421,"2024-05-22 12:00:00","18","grottaglie","24.82","1","31.76","1","0.0","1","null","6","null","6","null","6","998.55","1","40.53774","17.423897"],
    [3422,"2024-05-22 13:00:00","18","grottaglie","25.83","1","28.76","1","0.0","1","null","6","null","6","null","6","998.39","1","40.53774","17.423897"],
    [3423,"2024-05-22 14:00:00","18","grottaglie","26.79","1","26.5","1","0.0","1","null","6","null","6","null","6","998.18","1","40.53774","17.423897"],
    [3424,"2024-05-22 15:00:00","18","grottaglie","25.66","1","31.33","1","0.0","1","null","6","null","6","null","6","997.83","1","40.53774","17.423897"],
    [3425,"2024-05-22 16:00:00","18","grottaglie","26.02","1","34.0","1","0.0","1","null","6","null","6","null","6","997.88","1","40.53774","17.423897"],
    [3426,"2024-05-22 17:00:00","18","grottaglie","28.05","1","31.45","1","0.0","1","null","6","null","6","null","6","998.38","1","40.53774","17.423897"],
    [3427,"2024-05-22 18:00:00","18","grottaglie","27.39","1","34.4","1","0.0","1","null","6","null","6","null","6","998.13","1","40.53774","17.423897"],
    [3428,"2024-05-22 19:00:00","18","grottaglie","25.09","1","38.52","1","0.0","1","null","6","null","6","null","6","998.3","1","40.53774","17.423897"],
    [3429,"2024-05-22 20:00:00","18","grottaglie","22.24","1","33.67","1","0.0","1","null","6","null","6","null","6","998.77","1","40.53774","17.423897"],
    [3430,"2024-05-22 21:00:00","18","grottaglie","21.07","1","37.15","1","0.0","1","null","6","null","6","null","6","999.53","1","40.53774","17.423897"],
    [3431,"2024-05-22 22:00:00","18","grottaglie","19.55","1","47.58","1","0.0","1","null","6","null","6","null","6","1000.42","1","40.53774","17.423897"],
    [3432,"2024-05-22 23:00:00","18","grottaglie","17.62","1","62.84","1","0.0","1","null","6","null","6","null","6","1000.86","1","40.53774","17.423897"],
    [3433,"2024-05-23 00:00:00","18","grottaglie","17.08","1","63.99","1","0.0","1","null","6","null","6","null","6","1000.91","1","40.53774","17.423897"],
    [3434,"2024-05-23 01:00:00","18","grottaglie","16.27","1","62.5","1","0.0","1","null","6","null","6","null","6","1001.09","1","40.53774","17.423897"],
    [3435,"2024-05-23 02:00:00","18","grottaglie","16.08","1","58.85","1","0.0","1","null","6","null","6","null","6","1000.92","1","40.53774","17.423897"],
    [3436,"2024-05-23 03:00:00","18","grottaglie","16.22","1","58.0","1","0.0","1","null","6","null","6","null","6","1000.85","1","40.53774","17.423897"],
    [3437,"2024-05-23 04:00:00","18","grottaglie","16.02","1","58.92","1","0.0","1","null","6","null","6","null","6","1001.04","1","40.53774","17.423897"],
    [3438,"2024-05-23 05:00:00","18","grottaglie","15.74","1","59.51","1","0.0","1","null","6","null","6","null","6","1001.21","1","40.53774","17.423897"],
    [3439,"2024-05-23 06:00:00","18","grottaglie","15.43","1","61.85","1","0.0","1","null","6","null","6","null","6","1001.41","1","40.53774","17.423897"],
    [3440,"2024-05-23 07:00:00","18","grottaglie","16.75","1","58.62","1","0.0","1","null","6","null","6","null","6","1001.71","1","40.53774","17.423897"],
    [3441,"2024-05-23 08:00:00","18","grottaglie","20.07","1","48.99","1","0.0","1","null","6","null","6","null","6","1001.8","1","40.53774","17.423897"],
    [3442,"2024-05-23 09:00:00","18","grottaglie","23.37","1","40.94","1","0.0","1","null","6","null","6","null","6","1001.28","1","40.53774","17.423897"],
    [3443,"2024-05-23 10:00:00","18","grottaglie","24.71","1","34.65","1","0.0","1","null","6","null","6","null","6","1001.34","1","40.53774","17.423897"],
    [3444,"2024-05-23 11:00:00","18","grottaglie","25.92","1","28.41","1","0.0","1","null","6","null","6","null","6","1001.66","1","40.53774","17.423897"],
    [3445,"2024-05-23 12:00:00","18","grottaglie","26.88","1","26.94","1","0.0","1","null","6","null","6","null","6","1001.77","1","40.53774","17.423897"],
    [3446,"2024-05-23 13:00:00","18","grottaglie","27.3","1","28.57","1","0.0","1","null","6","null","6","null","6","1001.8","1","40.53774","17.423897"],
    [3447,"2024-05-23 14:00:00","18","grottaglie","28.54","1","27.45","1","0.0","1","null","6","null","6","null","6","1001.79","1","40.53774","17.423897"],
    [3448,"2024-05-23 15:00:00","18","grottaglie","27.47","1","30.2","1","0.0","1","null","6","null","6","null","6","1001.35","1","40.53774","17.423897"],
    [3449,"2024-05-23 16:00:00","18","grottaglie","27.12","1","31.21","1","0.0","1","null","6","null","6","null","6","1001.29","1","40.53774","17.423897"],
    [3450,"2024-05-23 17:00:00","18","grottaglie","29.12","1","29.08","1","0.0","1","null","6","null","6","null","6","1001.43","1","40.53774","17.423897"],
    [3451,"2024-05-23 18:00:00","18","grottaglie","27.41","1","31.89","1","0.0","1","null","6","null","6","null","6","1001.07","1","40.53774","17.423897"],
    [3452,"2024-05-23 19:00:00","18","grottaglie","25.61","1","33.03","1","0.0","1","null","6","null","6","null","6","1001.26","1","40.53774","17.423897"],
    [3453,"2024-05-23 20:00:00","18","grottaglie","22.2","1","35.82","1","0.0","1","null","6","null","6","null","6","1001.54","1","40.53774","17.423897"],
    [3454,"2024-05-23 21:00:00","18","grottaglie","20.53","1","41.23","1","0.0","1","null","6","null","6","null","6","1002.22","1","40.53774","17.423897"],
    [3455,"2024-05-23 22:00:00","18","grottaglie","19.37","1","49.29","1","0.0","1","null","6","null","6","null","6","1002.89","1","40.53774","17.423897"],
    [3456,"2024-05-23 23:00:00","18","grottaglie","18.87","1","58.99","1","0.0","1","null","6","null","6","null","6","1002.95","1","40.53774","17.423897"],
    [3457,"2024-05-24 00:00:00","18","grottaglie","18.65","1","63.82","1","0.0","1","null","6","null","6","null","6","1002.74","1","40.53774","17.423897"],
    [3458,"2024-05-24 01:00:00","18","grottaglie","18.44","1","58.95","1","0.0","1","null","6","null","6","null","6","1002.54","1","40.53774","17.423897"],
    [3459,"2024-05-24 02:00:00","18","grottaglie","18.15","1","58.99","1","0.0","1","null","6","null","6","null","6","1002.4","1","40.53774","17.423897"],
    [3460,"2024-05-24 03:00:00","18","grottaglie","17.6","1","61.9","1","0.0","1","null","6","null","6","null","6","1002.47","1","40.53774","17.423897"],
    [3461,"2024-05-24 04:00:00","18","grottaglie","16.95","1","64.59","1","0.0","1","null","6","null","6","null","6","1002.46","1","40.53774","17.423897"],
    [3462,"2024-05-24 05:00:00","18","grottaglie","16.31","1","66.09","1","0.0","1","null","6","null","6","null","6","1002.55","1","40.53774","17.423897"],
    [3463,"2024-05-24 06:00:00","18","grottaglie","15.35","1","72.27","1","0.0","1","null","6","null","6","null","6","1003.06","1","40.53774","17.423897"],
    [3464,"2024-05-24 07:00:00","18","grottaglie","17.73","1","66.94","1","0.0","1","null","6","null","6","null","6","1003.28","1","40.53774","17.423897"],
    [3465,"2024-05-24 08:00:00","18","grottaglie","22.35","1","47.73","1","0.0","1","null","6","null","6","null","6","1003.33","1","40.53774","17.423897"],
    [3466,"2024-05-24 09:00:00","18","grottaglie","23.98","1","38.73","1","0.0","1","null","6","null","6","null","6","1003.15","1","40.53774","17.423897"],
    [3467,"2024-05-24 10:00:00","18","grottaglie","25.27","1","34.23","1","0.0","1","null","6","null","6","null","6","1003.18","1","40.53774","17.423897"],
    [3468,"2024-05-24 11:00:00","18","grottaglie","26.28","1","30.92","1","0.0","1","null","6","null","6","null","6","1003.18","1","40.53774","17.423897"],
    [3469,"2024-05-24 12:00:00","18","grottaglie","26.94","1","31.57","1","0.0","1","null","6","null","6","null","6","1002.95","1","40.53774","17.423897"],
    [3470,"2024-05-24 13:00:00","18","grottaglie","28.18","1","32.69","1","0.0","1","null","6","null","6","null","6","1002.75","1","40.53774","17.423897"],
    [3471,"2024-05-24 14:00:00","18","grottaglie","26.2","1","38.97","1","0.0","1","null","6","null","6","null","6","1002.62","1","40.53774","17.423897"],
    [3472,"2024-05-24 15:00:00","18","grottaglie","25.56","1","40.33","1","0.0","1","null","6","null","6","null","6","1002.62","1","40.53774","17.423897"],
    [3473,"2024-05-24 16:00:00","18","grottaglie","27.16","1","36.86","1","0.0","1","null","6","null","6","null","6","1002.6","1","40.53774","17.423897"],
    [3474,"2024-05-24 17:00:00","18","grottaglie","25.87","1","37.43","1","0.0","1","null","6","null","6","null","6","1002.13","1","40.53774","17.423897"],
    [3475,"2024-05-24 18:00:00","18","grottaglie","23.87","1","40.68","1","0.0","1","null","6","null","6","null","6","1002.22","1","40.53774","17.423897"],
    [3476,"2024-05-24 19:00:00","18","grottaglie","22.1","1","47.95","1","0.0","1","null","6","null","6","null","6","1002.56","1","40.53774","17.423897"],
    [3477,"2024-05-24 20:00:00","18","grottaglie","20.59","1","52.18","1","0.0","1","null","6","null","6","null","6","1002.65","1","40.53774","17.423897"],
    [3478,"2024-05-24 21:00:00","18","grottaglie","19.35","1","57.2","1","0.0","1","null","6","null","6","null","6","1003.09","1","40.53774","17.423897"],
    [3479,"2024-05-24 22:00:00","18","grottaglie","18.68","1","61.38","1","0.0","1","null","6","null","6","null","6","1003.14","1","40.53774","17.423897"],
    [3480,"2024-05-24 23:00:00","18","grottaglie","18.15","1","61.16","1","0.0","1","null","6","null","6","null","6","1002.79","1","40.53774","17.423897"],
    [3481,"2024-05-25 00:00:00","18","grottaglie","16.94","1","66.12","1","0.0","1","null","6","null","6","null","6","1002.68","1","40.53774","17.423897"],
    [3482,"2024-05-25 01:00:00","18","grottaglie","17.6","1","60.5","1","0.0","1","null","6","null","6","null","6","1002.58","1","40.53774","17.423897"],
    [3483,"2024-05-25 02:00:00","18","grottaglie","16.8","1","56.54","1","0.0","1","null","6","null","6","null","6","1002.25","1","40.53774","17.423897"],
    [3484,"2024-05-25 03:00:00","18","grottaglie","18.02","1","54.87","1","0.0","1","null","6","null","6","null","6","1001.84","1","40.53774","17.423897"],
    [3485,"2024-05-25 04:00:00","18","grottaglie","16.35","1","57.89","1","0.0","1","null","6","null","6","null","6","1001.39","1","40.53774","17.423897"],
    [3486,"2024-05-25 05:00:00","18","grottaglie","14.22","1","61.29","1","0.0","1","null","6","null","6","null","6","1001.39","1","40.53774","17.423897"],
    [3487,"2024-05-25 06:00:00","18","grottaglie","15.52","1","53.97","1","0.0","1","null","6","null","6","null","6","1001.34","1","40.53774","17.423897"],
    [3488,"2024-05-25 07:00:00","18","grottaglie","18.08","1","46.48","1","0.0","1","null","6","null","6","null","6","1001.09","1","40.53774","17.423897"],
    [3489,"2024-05-25 08:00:00","18","grottaglie","23.05","1","34.85","1","0.0","1","null","6","null","6","null","6","1000.86","1","40.53774","17.423897"],
    [3490,"2024-05-25 09:00:00","18","grottaglie","24.81","1","31.6","1","0.0","1","null","6","null","6","null","6","1000.34","1","40.53774","17.423897"],
    [3491,"2024-05-25 10:00:00","18","grottaglie","26.54","1","27.24","1","0.0","1","null","6","null","6","null","6","1000.13","1","40.53774","17.423897"],
    [3492,"2024-05-25 11:00:00","18","grottaglie","26.92","1","28.47","1","0.0","1","null","6","null","6","null","6","999.74","1","40.53774","17.423897"],
    [3493,"2024-05-25 12:00:00","18","grottaglie","24.55","1","33.78","1","0.0","1","null","6","null","6","null","6","999.48","1","40.53774","17.423897"],
    [3494,"2024-05-25 13:00:00","18","grottaglie","24.15","1","35.67","1","0.0","1","null","6","null","6","null","6","999.38","1","40.53774","17.423897"],
    [3495,"2024-05-25 14:00:00","18","grottaglie","23.9","1","38.17","1","0.0","1","null","6","null","6","null","6","999.49","1","40.53774","17.423897"],
    [3496,"2024-05-25 15:00:00","18","grottaglie","23.91","1","38.62","1","0.0","1","null","6","null","6","null","6","999.29","1","40.53774","17.423897"],
    [3497,"2024-05-25 16:00:00","18","grottaglie","21.91","1","48.46","1","0.0","1","null","6","null","6","null","6","999.26","1","40.53774","17.423897"],
    [3498,"2024-05-25 17:00:00","18","grottaglie","20.51","1","56.56","1","0.0","1","null","6","null","6","null","6","998.93","1","40.53774","17.423897"],
    [3499,"2024-05-25 18:00:00","18","grottaglie","19.93","1","52.96","1","0.0","1","null","6","null","6","null","6","998.99","1","40.53774","17.423897"],
    [3500,"2024-05-25 19:00:00","18","grottaglie","19.29","1","53.21","1","0.0","1","null","6","null","6","null","6","999.19","1","40.53774","17.423897"],
    [3501,"2024-05-25 20:00:00","18","grottaglie","18.3","1","58.92","1","0.0","1","null","6","null","6","null","6","999.61","1","40.53774","17.423897"],
    [3502,"2024-05-25 21:00:00","18","grottaglie","18.22","1","58.77","1","0.0","1","null","6","null","6","null","6","1000.25","1","40.53774","17.423897"],
    [3503,"2024-05-25 22:00:00","18","grottaglie","17.7","1","61.85","1","0.0","1","null","6","null","6","null","6","1000.55","1","40.53774","17.423897"],
    [3504,"2024-05-25 23:00:00","18","grottaglie","17.15","1","64.41","1","0.0","1","null","6","null","6","null","6","1000.57","1","40.53774","17.423897"],
    [3505,"2024-05-26 00:00:00","18","grottaglie","17.02","1","66.44","1","0.0","1","null","6","null","6","null","6","1000.7","1","40.53774","17.423897"],
    [3506,"2024-05-26 01:00:00","18","grottaglie","16.24","1","75.86","1","0.0","1","null","6","null","6","null","6","1000.34","1","40.53774","17.423897"],
    [3507,"2024-05-26 02:00:00","18","grottaglie","15.6","1","77.3","1","0.0","1","null","6","null","6","null","6","1000.05","1","40.53774","17.423897"],
    [3508,"2024-05-26 03:00:00","18","grottaglie","15.42","1","77.22","1","0.0","1","null","6","null","6","null","6","1000.0","1","40.53774","17.423897"],
    [3509,"2024-05-26 04:00:00","18","grottaglie","15.75","1","68.92","1","0.0","1","null","6","null","6","null","6","999.72","1","40.53774","17.423897"],
    [3510,"2024-05-26 05:00:00","18","grottaglie","15.61","1","70.14","1","0.0","1","null","6","null","6","null","6","999.58","1","40.53774","17.423897"],
    [3511,"2024-05-26 06:00:00","18","grottaglie","16.42","1","65.86","1","0.0","1","null","6","null","6","null","6","999.78","1","40.53774","17.423897"],
    [3512,"2024-05-26 07:00:00","18","grottaglie","17.14","1","64.25","1","0.0","1","null","6","null","6","null","6","999.99","1","40.53774","17.423897"],
    [3513,"2024-05-26 08:00:00","18","grottaglie","18.66","1","56.27","1","0.0","1","null","6","null","6","null","6","1000.26","1","40.53774","17.423897"],
    [3514,"2024-05-26 09:00:00","18","grottaglie","20.27","1","56.73","1","0.0","1","null","6","null","6","null","6","1000.39","1","40.53774","17.423897"],
    [3515,"2024-05-26 10:00:00","18","grottaglie","20.55","1","53.89","1","0.0","1","null","6","null","6","null","6","1000.61","1","40.53774","17.423897"],
    [3516,"2024-05-26 11:00:00","18","grottaglie","21.04","1","50.18","1","0.0","1","null","6","null","6","null","6","1001.0","1","40.53774","17.423897"],
    [3517,"2024-05-26 12:00:00","18","grottaglie","23.58","1","39.95","1","0.0","1","null","6","null","6","null","6","1001.02","1","40.53774","17.423897"],
    [3518,"2024-05-26 13:00:00","18","grottaglie","25.11","1","32.75","1","0.0","1","null","6","null","6","null","6","1001.06","1","40.53774","17.423897"],
    [3519,"2024-05-26 14:00:00","18","grottaglie","25.43","1","37.13","1","0.0","1","null","6","null","6","null","6","1001.05","1","40.53774","17.423897"],
    [3520,"2024-05-26 15:00:00","18","grottaglie","24.59","1","41.71","1","0.0","1","null","6","null","6","null","6","1000.81","1","40.53774","17.423897"],
    [3521,"2024-05-26 16:00:00","18","grottaglie","24.99","1","40.88","1","0.0","1","null","6","null","6","null","6","1001.02","1","40.53774","17.423897"],
    [3522,"2024-05-26 17:00:00","18","grottaglie","25.3","1","41.22","1","0.0","1","null","6","null","6","null","6","1000.91","1","40.53774","17.423897"],
    [3523,"2024-05-26 18:00:00","18","grottaglie","24.15","1","46.01","1","0.0","1","null","6","null","6","null","6","1001.25","1","40.53774","17.423897"],
    [3524,"2024-05-26 19:00:00","18","grottaglie","22.03","1","53.31","1","0.0","1","null","6","null","6","null","6","1001.53","1","40.53774","17.423897"],
    [3525,"2024-05-26 20:00:00","18","grottaglie","18.95","1","63.34","1","0.0","1","null","6","null","6","null","6","1002.11","1","40.53774","17.423897"],
    [3526,"2024-05-26 21:00:00","18","grottaglie","17.72","1","69.61","1","0.0","1","null","6","null","6","null","6","1002.98","1","40.53774","17.423897"],
    [3527,"2024-05-26 22:00:00","18","grottaglie","17.02","1","72.62","1","0.0","1","null","6","null","6","null","6","1003.17","1","40.53774","17.423897"],
    [3528,"2024-05-26 23:00:00","18","grottaglie","15.71","1","78.34","1","0.0","1","null","6","null","6","null","6","1003.16","1","40.53774","17.423897"],
    [3529,"2024-05-27 00:00:00","18","grottaglie","15.6","1","79.91","1","0.0","1","null","6","null","6","null","6","1003.21","1","40.53774","17.423897"],
    [3530,"2024-05-27 01:00:00","18","grottaglie","15.1","1","79.81","1","0.0","1","null","6","null","6","null","6","1003.02","1","40.53774","17.423897"],
    [3531,"2024-05-27 02:00:00","18","grottaglie","14.94","1","82.03","1","0.0","1","null","6","null","6","null","6","1002.97","1","40.53774","17.423897"],
    [3532,"2024-05-27 03:00:00","18","grottaglie","14.7","1","82.65","1","0.0","1","null","6","null","6","null","6","1002.68","1","40.53774","17.423897"],
    [3533,"2024-05-27 04:00:00","18","grottaglie","14.46","1","83.76","1","0.0","1","null","6","null","6","null","6","1002.46","1","40.53774","17.423897"],
    [3534,"2024-05-27 05:00:00","18","grottaglie","15.39","1","81.47","1","0.0","1","null","6","null","6","null","6","1002.55","1","40.53774","17.423897"],
    [3535,"2024-05-27 06:00:00","18","grottaglie","14.72","1","82.29","1","0.0","1","null","6","null","6","null","6","1002.98","1","40.53774","17.423897"],
    [3536,"2024-05-27 07:00:00","18","grottaglie","15.97","1","82.14","1","0.0","1","null","6","null","6","null","6","1003.34","1","40.53774","17.423897"],
    [3537,"2024-05-27 08:00:00","18","grottaglie","18.93","1","68.46","1","0.0","1","null","6","null","6","null","6","1003.39","1","40.53774","17.423897"],
    [3538,"2024-05-27 09:00:00","18","grottaglie","21.53","1","52.4","1","0.0","1","null","6","null","6","null","6","1003.0","1","40.53774","17.423897"],
    [3539,"2024-05-27 10:00:00","18","grottaglie","22.48","1","47.71","1","0.0","1","null","6","null","6","null","6","1002.89","1","40.53774","17.423897"],
    [3540,"2024-05-27 11:00:00","18","grottaglie","24.01","1","43.48","1","0.0","1","null","6","null","6","null","6","1002.87","1","40.53774","17.423897"],
    [3541,"2024-05-27 12:00:00","18","grottaglie","23.38","1","44.36","1","0.0","1","null","6","null","6","null","6","1002.65","1","40.53774","17.423897"],
    [3542,"2024-05-27 13:00:00","18","grottaglie","23.34","1","44.82","1","0.0","1","null","6","null","6","null","6","1002.35","1","40.53774","17.423897"],
    [3543,"2024-05-27 14:00:00","18","grottaglie","23.44","1","46.02","1","0.0","1","null","6","null","6","null","6","1002.06","1","40.53774","17.423897"],
    [3544,"2024-05-27 15:00:00","18","grottaglie","24.83","1","40.26","1","0.0","1","null","6","null","6","null","6","1001.94","1","40.53774","17.423897"],
    [3545,"2024-05-27 16:00:00","18","grottaglie","24.98","1","38.12","1","0.0","1","null","6","null","6","null","6","1001.7","1","40.53774","17.423897"],
    [3546,"2024-05-27 17:00:00","18","grottaglie","23.68","1","40.61","1","0.0","1","null","6","null","6","null","6","1001.39","1","40.53774","17.423897"],
    [3547,"2024-05-27 18:00:00","18","grottaglie","23.2","1","52.86","1","0.0","1","null","6","null","6","null","6","1001.44","1","40.53774","17.423897"],
    [3548,"2024-05-27 19:00:00","18","grottaglie","21.0","1","50.82","1","0.0","1","null","6","null","6","null","6","1001.54","1","40.53774","17.423897"],
    [3549,"2024-05-27 20:00:00","18","grottaglie","19.87","1","53.85","1","0.0","1","null","6","null","6","null","6","1001.61","1","40.53774","17.423897"],
    [3550,"2024-05-27 21:00:00","18","grottaglie","19.31","1","60.7","1","0.0","1","null","6","null","6","null","6","1001.96","1","40.53774","17.423897"],
    [3551,"2024-05-27 22:00:00","18","grottaglie","19.31","1","58.09","1","0.0","1","null","6","null","6","null","6","1002.09","1","40.53774","17.423897"],
    [3552,"2024-05-27 23:00:00","18","grottaglie","18.41","1","65.33","1","0.0","1","null","6","null","6","null","6","1001.77","1","40.53774","17.423897"],
    [3553,"2024-05-28 00:00:00","18","grottaglie","17.99","1","69.65","1","0.0","1","null","6","null","6","null","6","1001.41","1","40.53774","17.423897"],
    [3554,"2024-05-28 01:00:00","18","grottaglie","16.38","1","74.9","1","0.0","1","null","6","null","6","null","6","1001.1","1","40.53774","17.423897"],
    [3555,"2024-05-28 02:00:00","18","grottaglie","15.58","1","78.96","1","0.0","1","null","6","null","6","null","6","1000.75","1","40.53774","17.423897"],
    [3556,"2024-05-28 03:00:00","18","grottaglie","14.91","1","81.72","1","0.0","1","null","6","null","6","null","6","1000.57","1","40.53774","17.423897"],
    [3557,"2024-05-28 04:00:00","18","grottaglie","14.75","1","80.39","1","0.0","1","null","6","null","6","null","6","1000.46","1","40.53774","17.423897"],
    [3558,"2024-05-28 05:00:00","18","grottaglie","15.37","1","78.48","1","0.0","1","null","6","null","6","null","6","1000.45","1","40.53774","17.423897"],
    [3559,"2024-05-28 06:00:00","18","grottaglie","17.21","1","68.25","1","0.0","1","null","6","null","6","null","6","1000.32","1","40.53774","17.423897"],
    [3560,"2024-05-28 07:00:00","18","grottaglie","18.77","1","72.01","1","0.0","1","null","6","null","6","null","6","1000.39","1","40.53774","17.423897"],
    [3561,"2024-05-28 08:00:00","18","grottaglie","20.87","1","65.34","1","0.0","1","null","6","null","6","null","6","1000.51","1","40.53774","17.423897"],
    [3562,"2024-05-28 09:00:00","18","grottaglie","22.14","1","58.99","1","0.0","1","null","6","null","6","null","6","1000.29","1","40.53774","17.423897"],
    [3563,"2024-05-28 10:00:00","18","grottaglie","22.2","1","56.31","1","0.0","1","null","6","null","6","null","6","1000.08","1","40.53774","17.423897"],
    [3564,"2024-05-28 11:00:00","18","grottaglie","23.2","1","45.92","1","0.0","1","null","6","null","6","null","6","999.91","1","40.53774","17.423897"],
    [3565,"2024-05-28 12:00:00","18","grottaglie","24.14","1","42.77","1","0.0","1","null","6","null","6","null","6","999.75","1","40.53774","17.423897"],
    [3566,"2024-05-28 13:00:00","18","grottaglie","23.34","1","50.13","1","0.0","1","null","6","null","6","null","6","999.38","1","40.53774","17.423897"],
    [3567,"2024-05-28 14:00:00","18","grottaglie","27.11","1","41.15","1","0.0","1","null","6","null","6","null","6","998.95","1","40.53774","17.423897"],
    [3568,"2024-05-28 15:00:00","18","grottaglie","24.5","1","46.93","1","0.0","1","null","6","null","6","null","6","998.21","1","40.53774","17.423897"],
    [3569,"2024-05-28 16:00:00","18","grottaglie","22.74","1","46.56","1","0.0","1","null","6","null","6","null","6","998.49","1","40.53774","17.423897"],
    [3570,"2024-05-28 17:00:00","18","grottaglie","21.64","1","50.36","1","0.0","1","null","6","null","6","null","6","999.11","1","40.53774","17.423897"],
    [3571,"2024-05-28 18:00:00","18","grottaglie","20.92","1","56.57","1","0.0","1","null","6","null","6","null","6","999.0","1","40.53774","17.423897"],
    [3572,"2024-05-28 19:00:00","18","grottaglie","20.72","1","63.78","1","0.0","1","null","6","null","6","null","6","998.85","1","40.53774","17.423897"],
    [3573,"2024-05-28 20:00:00","18","grottaglie","18.88","1","71.65","1","0.0","1","null","6","null","6","null","6","998.68","1","40.53774","17.423897"],
    [3574,"2024-05-28 21:00:00","18","grottaglie","17.82","1","73.07","1","0.0","1","null","6","null","6","null","6","999.0","1","40.53774","17.423897"],
    [3575,"2024-05-28 22:00:00","18","grottaglie","17.02","1","72.36","1","0.0","1","null","6","null","6","null","6","999.28","1","40.53774","17.423897"],
    [3576,"2024-05-28 23:00:00","18","grottaglie","16.3","1","73.44","1","0.0","1","null","6","null","6","null","6","999.36","1","40.53774","17.423897"],
    [3577,"2024-05-29 00:00:00","18","grottaglie","15.26","1","76.74","1","0.0","1","null","6","null","6","null","6","999.5","1","40.53774","17.423897"],
    [3578,"2024-05-29 01:00:00","18","grottaglie","14.8","1","79.15","1","0.0","1","null","6","null","6","null","6","999.39","1","40.53774","17.423897"],
    [3579,"2024-05-29 02:00:00","18","grottaglie","14.54","1","76.97","1","0.0","1","null","6","null","6","null","6","999.0","1","40.53774","17.423897"],
    [3580,"2024-05-29 03:00:00","18","grottaglie","13.68","1","82.22","1","0.0","1","null","6","null","6","null","6","998.78","1","40.53774","17.423897"],
    [3581,"2024-05-29 04:00:00","18","grottaglie","14.03","1","83.61","1","0.0","1","null","6","null","6","null","6","998.69","1","40.53774","17.423897"],
    [3582,"2024-05-29 05:00:00","18","grottaglie","14.84","1","86.11","1","0.0","1","null","6","null","6","null","6","998.46","1","40.53774","17.423897"],
    [3583,"2024-05-29 06:00:00","18","grottaglie","15.39","1","86.68","1","0.0","1","null","6","null","6","null","6","998.7","1","40.53774","17.423897"],
    [3584,"2024-05-29 07:00:00","18","grottaglie","17.75","1","81.88","1","0.0","1","null","6","null","6","null","6","998.67","1","40.53774","17.423897"],
    [3585,"2024-05-29 08:00:00","18","grottaglie","21.86","1","60.9","1","0.0","1","null","6","null","6","null","6","998.78","1","40.53774","17.423897"],
    [3586,"2024-05-29 09:00:00","18","grottaglie","21.57","1","61.17","1","0.0","1","null","6","null","6","null","6","998.99","1","40.53774","17.423897"],
    [3587,"2024-05-29 10:00:00","18","grottaglie","21.66","1","57.03","1","0.0","1","null","6","null","6","null","6","998.97","1","40.53774","17.423897"],
    [3588,"2024-05-29 11:00:00","18","grottaglie","20.81","1","62.74","1","0.0","1","null","6","null","6","null","6","999.07","1","40.53774","17.423897"],
    [3589,"2024-05-29 12:00:00","18","grottaglie","20.36","1","73.66","1","0.6","1","null","6","null","6","null","6","998.98","1","40.53774","17.423897"],
    [3590,"2024-05-29 13:00:00","18","grottaglie","24.8","1","51.17","1","0.0","1","null","6","null","6","null","6","998.22","1","40.53774","17.423897"],
    [3591,"2024-05-29 14:00:00","18","grottaglie","27.63","1","38.77","1","0.0","1","null","6","null","6","null","6","997.63","1","40.53774","17.423897"],
    [3592,"2024-05-29 15:00:00","18","grottaglie","26.49","1","41.21","1","0.0","1","null","6","null","6","null","6","996.69","1","40.53774","17.423897"],
    [3593,"2024-05-29 16:00:00","18","grottaglie","24.84","1","47.66","1","0.0","1","null","6","null","6","null","6","996.8","1","40.53774","17.423897"],
    [3594,"2024-05-29 17:00:00","18","grottaglie","23.4","1","55.65","1","0.0","1","null","6","null","6","null","6","996.84","1","40.53774","17.423897"],
    [3595,"2024-05-29 18:00:00","18","grottaglie","23.34","1","55.05","1","0.0","1","null","6","null","6","null","6","996.98","1","40.53774","17.423897"],
    [3596,"2024-05-29 19:00:00","18","grottaglie","21.9","1","56.44","1","0.0","1","null","6","null","6","null","6","996.95","1","40.53774","17.423897"],
    [3597,"2024-05-29 20:00:00","18","grottaglie","20.52","1","59.7","1","0.0","1","null","6","null","6","null","6","996.97","1","40.53774","17.423897"],
    [3598,"2024-05-29 21:00:00","18","grottaglie","19.21","1","63.29","1","0.0","1","null","6","null","6","null","6","997.35","1","40.53774","17.423897"],
    [3599,"2024-05-29 22:00:00","18","grottaglie","19.01","1","61.46","1","0.0","1","null","6","null","6","null","6","997.54","1","40.53774","17.423897"],
    [3600,"2024-05-29 23:00:00","18","grottaglie","17.4","1","68.54","1","0.0","1","null","6","null","6","null","6","997.37","1","40.53774","17.423897"],
    [3601,"2024-05-30 00:00:00","18","grottaglie","18.1","1","68.89","1","0.0","1","null","6","null","6","null","6","997.22","1","40.53774","17.423897"],
    [3602,"2024-05-30 01:00:00","18","grottaglie","17.83","1","74.81","1","0.0","1","null","6","null","6","null","6","996.75","1","40.53774","17.423897"],
    [3603,"2024-05-30 02:00:00","18","grottaglie","17.4","1","75.41","1","0.0","1","null","6","null","6","null","6","996.36","1","40.53774","17.423897"],
    [3604,"2024-05-30 03:00:00","18","grottaglie","15.38","1","79.98","1","0.0","1","null","6","null","6","null","6","996.21","1","40.53774","17.423897"],
    [3605,"2024-05-30 04:00:00","18","grottaglie","15.24","1","83.77","1","0.0","1","null","6","null","6","null","6","996.14","1","40.53774","17.423897"],
    [3606,"2024-05-30 05:00:00","18","grottaglie","15.56","1","82.69","1","0.0","1","null","6","null","6","null","6","996.03","1","40.53774","17.423897"],
    [3607,"2024-05-30 06:00:00","18","grottaglie","15.67","1","81.09","1","0.0","1","null","6","null","6","null","6","996.18","1","40.53774","17.423897"],
    [3608,"2024-05-30 07:00:00","18","grottaglie","17.83","1","77.08","1","0.0","1","null","6","null","6","null","6","996.13","1","40.53774","17.423897"],
    [3609,"2024-05-30 08:00:00","18","grottaglie","20.7","1","69.78","1","0.0","1","null","6","null","6","null","6","996.12","1","40.53774","17.423897"],
    [3610,"2024-05-30 09:00:00","18","grottaglie","22.55","1","58.7","1","0.0","1","null","6","null","6","null","6","995.87","1","40.53774","17.423897"],
    [3611,"2024-05-30 10:00:00","18","grottaglie","24.75","1","49.09","1","0.0","1","null","6","null","6","null","6","995.74","1","40.53774","17.423897"],
    [3612,"2024-05-30 11:00:00","18","grottaglie","24.69","1","46.88","1","0.0","1","null","6","null","6","null","6","995.71","1","40.53774","17.423897"],
    [3613,"2024-05-30 12:00:00","18","grottaglie","24.64","1","46.3","1","0.0","1","null","6","null","6","null","6","995.49","1","40.53774","17.423897"],
    [3614,"2024-05-30 13:00:00","18","grottaglie","25.23","1","45.75","1","0.0","1","null","6","null","6","null","6","995.29","1","40.53774","17.423897"],
    [3615,"2024-05-30 14:00:00","18","grottaglie","25.28","1","44.94","1","0.0","1","null","6","null","6","null","6","995.09","1","40.53774","17.423897"],
    [3616,"2024-05-30 15:00:00","18","grottaglie","25.38","1","45.89","1","0.0","1","null","6","null","6","null","6","994.85","1","40.53774","17.423897"],
    [3617,"2024-05-30 16:00:00","18","grottaglie","24.59","1","47.78","1","0.0","1","null","6","null","6","null","6","994.64","1","40.53774","17.423897"],
    [3618,"2024-05-30 17:00:00","18","grottaglie","24.54","1","46.66","1","0.0","1","null","6","null","6","null","6","994.63","1","40.53774","17.423897"],
    [3619,"2024-05-30 18:00:00","18","grottaglie","22.46","1","52.94","1","0.0","1","null","6","null","6","null","6","994.34","1","40.53774","17.423897"],
    [3620,"2024-05-30 19:00:00","18","grottaglie","21.3","1","58.97","1","0.0","1","null","6","null","6","null","6","994.47","1","40.53774","17.423897"],
    [3621,"2024-05-30 20:00:00","18","grottaglie","20.39","1","64.4","1","0.0","1","null","6","null","6","null","6","994.47","1","40.53774","17.423897"],
    [3622,"2024-05-30 21:00:00","18","grottaglie","19.61","1","71.57","1","0.0","1","null","6","null","6","null","6","994.94","1","40.53774","17.423897"],
    [3623,"2024-05-30 22:00:00","18","grottaglie","19.38","1","76.01","1","0.0","1","null","6","null","6","null","6","995.05","1","40.53774","17.423897"],
    [3624,"2024-05-30 23:00:00","18","grottaglie","19.3","1","78.7","1","0.0","1","null","6","null","6","null","6","994.76","1","40.53774","17.423897"],
    [3625,"2024-05-31 00:00:00","18","grottaglie","18.9","1","81.39","1","0.0","1","null","6","null","6","null","6","994.74","1","40.53774","17.423897"],
    [3626,"2024-05-31 01:00:00","18","grottaglie","18.69","1","83.87","1","0.0","1","null","6","null","6","null","6","994.33","1","40.53774","17.423897"],
    [3627,"2024-05-31 02:00:00","18","grottaglie","18.37","1","87.07","1","0.0","1","null","6","null","6","null","6","994.01","1","40.53774","17.423897"],
    [3628,"2024-05-31 03:00:00","18","grottaglie","18.26","1","88.23","1","0.0","1","null","6","null","6","null","6","993.68","1","40.53774","17.423897"],
    [3629,"2024-05-31 04:00:00","18","grottaglie","17.93","1","87.82","1","0.0","1","null","6","null","6","null","6","993.91","1","40.53774","17.423897"],
    [3630,"2024-05-31 05:00:00","18","grottaglie","18.32","1","71.46","1","0.0","1","null","6","null","6","null","6","994.25","1","40.53774","17.423897"],
    [3631,"2024-05-31 06:00:00","18","grottaglie","19.0","1","71.98","1","0.0","1","null","6","null","6","null","6","994.75","1","40.53774","17.423897"],
    [3632,"2024-05-31 07:00:00","18","grottaglie","20.26","1","73.33","1","0.0","1","null","6","null","6","null","6","995.01","1","40.53774","17.423897"],
    [3633,"2024-05-31 08:00:00","18","grottaglie","22.03","1","62.16","1","0.0","1","null","6","null","6","null","6","995.15","1","40.53774","17.423897"],
    [3634,"2024-05-31 09:00:00","18","grottaglie","23.26","1","52.39","1","0.0","1","null","6","null","6","null","6","995.2","1","40.53774","17.423897"],
    [3635,"2024-05-31 10:00:00","18","grottaglie","23.96","1","48.53","1","0.0","1","null","6","null","6","null","6","995.35","1","40.53774","17.423897"],
    [3636,"2024-05-31 11:00:00","18","grottaglie","24.77","1","45.79","1","0.0","1","null","6","null","6","null","6","995.88","1","40.53774","17.423897"],
    [3637,"2024-05-31 12:00:00","18","grottaglie","24.6","1","48.9","1","0.0","1","null","6","null","6","null","6","995.95","1","40.53774","17.423897"],
    [3638,"2024-05-31 13:00:00","18","grottaglie","25.4","1","50.2","1","0.0","1","null","6","null","6","null","6","995.95","1","40.53774","17.423897"],
    [3639,"2024-05-31 14:00:00","18","grottaglie","25.4","1","53.91","1","0.0","1","null","6","null","6","null","6","995.96","1","40.53774","17.423897"],
    [3640,"2024-05-31 15:00:00","18","grottaglie","24.64","1","56.79","1","0.0","1","null","6","null","6","null","6","996.11","1","40.53774","17.423897"],
    [3641,"2024-05-31 16:00:00","18","grottaglie","23.69","1","60.36","1","0.0","1","null","6","null","6","null","6","996.0","1","40.53774","17.423897"],
    [3642,"2024-05-31 17:00:00","18","grottaglie","22.24","1","65.74","1","0.0","1","null","6","null","6","null","6","995.98","1","40.53774","17.423897"],
    [3643,"2024-05-31 18:00:00","18","grottaglie","21.74","1","71.19","1","0.0","1","null","6","null","6","null","6","996.22","1","40.53774","17.423897"],
    [3644,"2024-05-31 19:00:00","18","grottaglie","21.07","1","75.34","1","0.0","1","null","6","null","6","null","6","996.47","1","40.53774","17.423897"],
    [3645,"2024-05-31 20:00:00","18","grottaglie","20.34","1","79.97","1","0.0","1","null","6","null","6","null","6","996.4","1","40.53774","17.423897"],
    [3646,"2024-05-31 21:00:00","18","grottaglie","20.09","1","82.42","1","0.0","1","null","6","null","6","null","6","997.0","1","40.53774","17.423897"],
    [3647,"2024-05-31 22:00:00","18","grottaglie","19.82","1","84.67","1","0.0","1","null","6","null","6","null","6","997.42","1","40.53774","17.423897"],
    [3648,"2024-05-31 23:00:00","18","grottaglie","19.54","1","86.81","1","0.0","1","null","6","null","6","null","6","997.35","1","40.53774","17.423897\t"]
]}
